<?xml version="1.0" encoding="UTF-8" standalone="no" ?>
<gpx xmlns="http://www.topografix.com/GPX/1/1" xmlns:xsi="http://www.w3.org/2001/XMLSchema-instance" xsi:schemaLocation="http://www.topografix.com/GPX/1/1 http://www.topografix.com/GPX/1/1/gpx.xsd" version="1.1" creator="VisuGPX - https://www.visugpx.com">
  <metadata>
    <name>VTT Osselle</name>
  </metadata>
  <trk>
    <name><![CDATA[VTT Osselle_1]]></name>
    <extensions>
      <line xmlns="http://www.topografix.com/GPX/gpx_style/0/2">
        <color>0000FF</color>
        <width>4</width>
      </line>
    </extensions>
    <trkseg>
      <trkpt lat="47.12745" lon="5.85225">
        <ele>247</ele>
        <time>2021-06-16T10:36:44Z</time>
      </trkpt>
      <trkpt lat="47.12748" lon="5.8523">
        <ele>247.6</ele>
        <time>2021-06-16T10:36:56Z</time>
      </trkpt>
      <trkpt lat="47.12741" lon="5.85219">
        <ele>247.4</ele>
        <time>2021-06-16T10:37:01Z</time>
      </trkpt>
      <trkpt lat="47.12739" lon="5.85217">
        <ele>247.4</ele>
        <time>2021-06-16T10:37:02Z</time>
      </trkpt>
      <trkpt lat="47.12735" lon="5.85212">
        <ele>247.4</ele>
        <time>2021-06-16T10:37:04Z</time>
      </trkpt>
      <trkpt lat="47.12733" lon="5.85209">
        <ele>247.2</ele>
        <time>2021-06-16T10:37:05Z</time>
      </trkpt>
      <trkpt lat="47.12731" lon="5.85207">
        <ele>247.2</ele>
        <time>2021-06-16T10:37:06Z</time>
      </trkpt>
      <trkpt lat="47.12717" lon="5.85187">
        <ele>246.6</ele>
        <time>2021-06-16T10:37:12Z</time>
      </trkpt>
      <trkpt lat="47.12698" lon="5.85167">
        <ele>246.2</ele>
        <time>2021-06-16T10:37:17Z</time>
      </trkpt>
      <trkpt lat="47.12693" lon="5.85164">
        <ele>245.8</ele>
        <time>2021-06-16T10:37:18Z</time>
      </trkpt>
      <trkpt lat="47.12689" lon="5.85162">
        <ele>245.6</ele>
        <time>2021-06-16T10:37:19Z</time>
      </trkpt>
      <trkpt lat="47.12685" lon="5.85159">
        <ele>245.4</ele>
        <time>2021-06-16T10:37:20Z</time>
      </trkpt>
      <trkpt lat="47.12678" lon="5.85152">
        <ele>245.2</ele>
        <time>2021-06-16T10:37:22Z</time>
      </trkpt>
      <trkpt lat="47.12674" lon="5.85149">
        <ele>245.2</ele>
        <time>2021-06-16T10:37:23Z</time>
      </trkpt>
      <trkpt lat="47.12671" lon="5.85145">
        <ele>245.2</ele>
        <time>2021-06-16T10:37:24Z</time>
      </trkpt>
      <trkpt lat="47.12668" lon="5.85141">
        <ele>245</ele>
        <time>2021-06-16T10:37:25Z</time>
      </trkpt>
      <trkpt lat="47.12665" lon="5.85138">
        <ele>245</ele>
        <time>2021-06-16T10:37:26Z</time>
      </trkpt>
      <trkpt lat="47.12663" lon="5.85133">
        <ele>244.8</ele>
        <time>2021-06-16T10:37:27Z</time>
      </trkpt>
      <trkpt lat="47.1266" lon="5.85129">
        <ele>244.8</ele>
        <time>2021-06-16T10:37:28Z</time>
      </trkpt>
      <trkpt lat="47.12656" lon="5.85125">
        <ele>244.8</ele>
        <time>2021-06-16T10:37:29Z</time>
      </trkpt>
      <trkpt lat="47.12654" lon="5.85121">
        <ele>245</ele>
        <time>2021-06-16T10:37:30Z</time>
      </trkpt>
      <trkpt lat="47.12651" lon="5.85118">
        <ele>245</ele>
        <time>2021-06-16T10:37:31Z</time>
      </trkpt>
      <trkpt lat="47.12649" lon="5.85114">
        <ele>245</ele>
        <time>2021-06-16T10:37:32Z</time>
      </trkpt>
      <trkpt lat="47.12646" lon="5.8511">
        <ele>244.8</ele>
        <time>2021-06-16T10:37:33Z</time>
      </trkpt>
      <trkpt lat="47.12643" lon="5.85104">
        <ele>244.8</ele>
        <time>2021-06-16T10:37:34Z</time>
      </trkpt>
      <trkpt lat="47.12641" lon="5.85094">
        <ele>244.8</ele>
        <time>2021-06-16T10:37:36Z</time>
      </trkpt>
      <trkpt lat="47.1264" lon="5.85088">
        <ele>244.8</ele>
        <time>2021-06-16T10:37:37Z</time>
      </trkpt>
      <trkpt lat="47.1264" lon="5.85083">
        <ele>244.8</ele>
        <time>2021-06-16T10:37:38Z</time>
      </trkpt>
      <trkpt lat="47.12631" lon="5.85056">
        <ele>244.8</ele>
        <time>2021-06-16T10:37:43Z</time>
      </trkpt>
      <trkpt lat="47.12624" lon="5.85045">
        <ele>245</ele>
        <time>2021-06-16T10:37:46Z</time>
      </trkpt>
      <trkpt lat="47.12621" lon="5.85041">
        <ele>245</ele>
        <time>2021-06-16T10:37:47Z</time>
      </trkpt>
      <trkpt lat="47.12619" lon="5.85037">
        <ele>245</ele>
        <time>2021-06-16T10:37:48Z</time>
      </trkpt>
      <trkpt lat="47.12617" lon="5.85034">
        <ele>245.2</ele>
        <time>2021-06-16T10:37:49Z</time>
      </trkpt>
      <trkpt lat="47.12615" lon="5.85031">
        <ele>245.2</ele>
        <time>2021-06-16T10:37:50Z</time>
      </trkpt>
      <trkpt lat="47.12612" lon="5.85028">
        <ele>245.4</ele>
        <time>2021-06-16T10:37:51Z</time>
      </trkpt>
      <trkpt lat="47.1261" lon="5.85025">
        <ele>245.6</ele>
        <time>2021-06-16T10:37:52Z</time>
      </trkpt>
      <trkpt lat="47.12608" lon="5.85022">
        <ele>245.6</ele>
        <time>2021-06-16T10:37:53Z</time>
      </trkpt>
      <trkpt lat="47.12606" lon="5.8502">
        <ele>245.8</ele>
        <time>2021-06-16T10:37:54Z</time>
      </trkpt>
      <trkpt lat="47.12604" lon="5.85018">
        <ele>246</ele>
        <time>2021-06-16T10:37:55Z</time>
      </trkpt>
      <trkpt lat="47.12602" lon="5.85015">
        <ele>246.4</ele>
        <time>2021-06-16T10:37:56Z</time>
      </trkpt>
      <trkpt lat="47.12601" lon="5.85014">
        <ele>246.6</ele>
        <time>2021-06-16T10:37:57Z</time>
      </trkpt>
      <trkpt lat="47.12599" lon="5.85012">
        <ele>246.8</ele>
        <time>2021-06-16T10:37:58Z</time>
      </trkpt>
      <trkpt lat="47.12598" lon="5.8501">
        <ele>246.8</ele>
        <time>2021-06-16T10:37:59Z</time>
      </trkpt>
      <trkpt lat="47.12596" lon="5.85008">
        <ele>247</ele>
        <time>2021-06-16T10:38:00Z</time>
      </trkpt>
      <trkpt lat="47.12592" lon="5.85005">
        <ele>247.8</ele>
        <time>2021-06-16T10:38:02Z</time>
      </trkpt>
      <trkpt lat="47.1259" lon="5.85003">
        <ele>248</ele>
        <time>2021-06-16T10:38:03Z</time>
      </trkpt>
      <trkpt lat="47.12586" lon="5.85">
        <ele>248.8</ele>
        <time>2021-06-16T10:38:05Z</time>
      </trkpt>
      <trkpt lat="47.12584" lon="5.84999">
        <ele>249</ele>
        <time>2021-06-16T10:38:06Z</time>
      </trkpt>
      <trkpt lat="47.12582" lon="5.84997">
        <ele>249</ele>
        <time>2021-06-16T10:38:07Z</time>
      </trkpt>
      <trkpt lat="47.1258" lon="5.84996">
        <ele>249.2</ele>
        <time>2021-06-16T10:38:08Z</time>
      </trkpt>
      <trkpt lat="47.12578" lon="5.84994">
        <ele>249.4</ele>
        <time>2021-06-16T10:38:09Z</time>
      </trkpt>
      <trkpt lat="47.12576" lon="5.84993">
        <ele>249.4</ele>
        <time>2021-06-16T10:38:10Z</time>
      </trkpt>
      <trkpt lat="47.12574" lon="5.84991">
        <ele>249.4</ele>
        <time>2021-06-16T10:38:11Z</time>
      </trkpt>
      <trkpt lat="47.12573" lon="5.84988">
        <ele>249.4</ele>
        <time>2021-06-16T10:38:12Z</time>
      </trkpt>
      <trkpt lat="47.12573" lon="5.84986">
        <ele>249.6</ele>
        <time>2021-06-16T10:38:13Z</time>
      </trkpt>
      <trkpt lat="47.12573" lon="5.84984">
        <ele>249.6</ele>
        <time>2021-06-16T10:38:14Z</time>
      </trkpt>
      <trkpt lat="47.12575" lon="5.84983">
        <ele>249.8</ele>
        <time>2021-06-16T10:38:15Z</time>
      </trkpt>
      <trkpt lat="47.12578" lon="5.84981">
        <ele>250</ele>
        <time>2021-06-16T10:38:16Z</time>
      </trkpt>
      <trkpt lat="47.12581" lon="5.84981">
        <ele>250</ele>
        <time>2021-06-16T10:38:17Z</time>
      </trkpt>
      <trkpt lat="47.12584" lon="5.84981">
        <ele>250</ele>
        <time>2021-06-16T10:38:18Z</time>
      </trkpt>
      <trkpt lat="47.12588" lon="5.84981">
        <ele>250</ele>
        <time>2021-06-16T10:38:19Z</time>
      </trkpt>
      <trkpt lat="47.12592" lon="5.8498">
        <ele>250</ele>
        <time>2021-06-16T10:38:20Z</time>
      </trkpt>
      <trkpt lat="47.12597" lon="5.8498">
        <ele>250</ele>
        <time>2021-06-16T10:38:21Z</time>
      </trkpt>
      <trkpt lat="47.12602" lon="5.84979">
        <ele>250</ele>
        <time>2021-06-16T10:38:22Z</time>
      </trkpt>
      <trkpt lat="47.12607" lon="5.84977">
        <ele>250</ele>
        <time>2021-06-16T10:38:23Z</time>
      </trkpt>
      <trkpt lat="47.12612" lon="5.84975">
        <ele>249.8</ele>
        <time>2021-06-16T10:38:24Z</time>
      </trkpt>
      <trkpt lat="47.12617" lon="5.84973">
        <ele>249.4</ele>
        <time>2021-06-16T10:38:25Z</time>
      </trkpt>
      <trkpt lat="47.12623" lon="5.8497">
        <ele>249.2</ele>
        <time>2021-06-16T10:38:27Z</time>
      </trkpt>
      <trkpt lat="47.12623" lon="5.8497">
        <ele>248.8</ele>
        <time>2021-06-16T10:38:28Z</time>
      </trkpt>
      <trkpt lat="47.12644" lon="5.84956">
        <ele>248.2</ele>
        <time>2021-06-16T10:38:31Z</time>
      </trkpt>
      <trkpt lat="47.12649" lon="5.84952">
        <ele>248.2</ele>
        <time>2021-06-16T10:38:32Z</time>
      </trkpt>
      <trkpt lat="47.12666" lon="5.84935">
        <ele>247</ele>
        <time>2021-06-16T10:38:35Z</time>
      </trkpt>
      <trkpt lat="47.12686" lon="5.84912">
        <ele>246.2</ele>
        <time>2021-06-16T10:38:39Z</time>
      </trkpt>
      <trkpt lat="47.12695" lon="5.84901">
        <ele>246</ele>
        <time>2021-06-16T10:38:41Z</time>
      </trkpt>
      <trkpt lat="47.12717" lon="5.84883">
        <ele>245.4</ele>
        <time>2021-06-16T10:38:45Z</time>
      </trkpt>
      <trkpt lat="47.12735" lon="5.84875">
        <ele>245.2</ele>
        <time>2021-06-16T10:38:48Z</time>
      </trkpt>
      <trkpt lat="47.1276" lon="5.84869">
        <ele>244.4</ele>
        <time>2021-06-16T10:38:52Z</time>
      </trkpt>
      <trkpt lat="47.1278" lon="5.84868">
        <ele>244</ele>
        <time>2021-06-16T10:38:55Z</time>
      </trkpt>
      <trkpt lat="47.12805" lon="5.84867">
        <ele>243.4</ele>
        <time>2021-06-16T10:38:59Z</time>
      </trkpt>
      <trkpt lat="47.12811" lon="5.84865">
        <ele>243.2</ele>
        <time>2021-06-16T10:39:00Z</time>
      </trkpt>
      <trkpt lat="47.12817" lon="5.84865">
        <ele>243.2</ele>
        <time>2021-06-16T10:39:01Z</time>
      </trkpt>
      <trkpt lat="47.12829" lon="5.84864">
        <ele>243</ele>
        <time>2021-06-16T10:39:03Z</time>
      </trkpt>
      <trkpt lat="47.12835" lon="5.84863">
        <ele>242.8</ele>
        <time>2021-06-16T10:39:04Z</time>
      </trkpt>
      <trkpt lat="47.12841" lon="5.84862">
        <ele>242.8</ele>
        <time>2021-06-16T10:39:05Z</time>
      </trkpt>
      <trkpt lat="47.12846" lon="5.84862">
        <ele>242.6</ele>
        <time>2021-06-16T10:39:06Z</time>
      </trkpt>
      <trkpt lat="47.12852" lon="5.84862">
        <ele>242.6</ele>
        <time>2021-06-16T10:39:07Z</time>
      </trkpt>
      <trkpt lat="47.12859" lon="5.84863">
        <ele>242.4</ele>
        <time>2021-06-16T10:39:08Z</time>
      </trkpt>
      <trkpt lat="47.12871" lon="5.84864">
        <ele>242.4</ele>
        <time>2021-06-16T10:39:10Z</time>
      </trkpt>
      <trkpt lat="47.12876" lon="5.84865">
        <ele>242.2</ele>
        <time>2021-06-16T10:39:11Z</time>
      </trkpt>
      <trkpt lat="47.12881" lon="5.84865">
        <ele>242.2</ele>
        <time>2021-06-16T10:39:12Z</time>
      </trkpt>
      <trkpt lat="47.12885" lon="5.84866">
        <ele>242</ele>
        <time>2021-06-16T10:39:13Z</time>
      </trkpt>
      <trkpt lat="47.12888" lon="5.84866">
        <ele>242</ele>
        <time>2021-06-16T10:39:14Z</time>
      </trkpt>
      <trkpt lat="47.12888" lon="5.84866">
        <ele>241.8</ele>
        <time>2021-06-16T10:39:15Z</time>
      </trkpt>
      <trkpt lat="47.12888" lon="5.84866">
        <ele>241.8</ele>
        <time>2021-06-16T10:39:16Z</time>
      </trkpt>
      <trkpt lat="47.12888" lon="5.84866">
        <ele>241.8</ele>
        <time>2021-06-16T10:39:26Z</time>
      </trkpt>
      <trkpt lat="47.12889" lon="5.84866">
        <ele>241.8</ele>
        <time>2021-06-16T10:39:36Z</time>
      </trkpt>
      <trkpt lat="47.12896" lon="5.84864">
        <ele>241.8</ele>
        <time>2021-06-16T10:39:39Z</time>
      </trkpt>
      <trkpt lat="47.12914" lon="5.84863">
        <ele>241.4</ele>
        <time>2021-06-16T10:39:44Z</time>
      </trkpt>
      <trkpt lat="47.12936" lon="5.84861">
        <ele>240.8</ele>
        <time>2021-06-16T10:39:49Z</time>
      </trkpt>
      <trkpt lat="47.12967" lon="5.84858">
        <ele>239.8</ele>
        <time>2021-06-16T10:39:55Z</time>
      </trkpt>
      <trkpt lat="47.12991" lon="5.84856">
        <ele>239.2</ele>
        <time>2021-06-16T10:39:59Z</time>
      </trkpt>
      <trkpt lat="47.13004" lon="5.84855">
        <ele>239</ele>
        <time>2021-06-16T10:40:01Z</time>
      </trkpt>
      <trkpt lat="47.13024" lon="5.84853">
        <ele>238.6</ele>
        <time>2021-06-16T10:40:04Z</time>
      </trkpt>
      <trkpt lat="47.13063" lon="5.84848">
        <ele>237.8</ele>
        <time>2021-06-16T10:40:10Z</time>
      </trkpt>
      <trkpt lat="47.13069" lon="5.84847">
        <ele>237.6</ele>
        <time>2021-06-16T10:40:11Z</time>
      </trkpt>
      <trkpt lat="47.13111" lon="5.84843">
        <ele>236.6</ele>
        <time>2021-06-16T10:40:17Z</time>
      </trkpt>
      <trkpt lat="47.13141" lon="5.8484">
        <ele>236</ele>
        <time>2021-06-16T10:40:21Z</time>
      </trkpt>
      <trkpt lat="47.13172" lon="5.84838">
        <ele>235.6</ele>
        <time>2021-06-16T10:40:26Z</time>
      </trkpt>
      <trkpt lat="47.13178" lon="5.84837">
        <ele>235.4</ele>
        <time>2021-06-16T10:40:27Z</time>
      </trkpt>
      <trkpt lat="47.13184" lon="5.84836">
        <ele>235.4</ele>
        <time>2021-06-16T10:40:28Z</time>
      </trkpt>
      <trkpt lat="47.13192" lon="5.84835">
        <ele>235.4</ele>
        <time>2021-06-16T10:40:29Z</time>
      </trkpt>
      <trkpt lat="47.13198" lon="5.84835">
        <ele>235.4</ele>
        <time>2021-06-16T10:40:30Z</time>
      </trkpt>
      <trkpt lat="47.13203" lon="5.84834">
        <ele>235.4</ele>
        <time>2021-06-16T10:40:31Z</time>
      </trkpt>
      <trkpt lat="47.1325" lon="5.84836">
        <ele>234.8</ele>
        <time>2021-06-16T10:40:38Z</time>
      </trkpt>
      <trkpt lat="47.13258" lon="5.84839">
        <ele>234.6</ele>
        <time>2021-06-16T10:40:39Z</time>
      </trkpt>
      <trkpt lat="47.13265" lon="5.84843">
        <ele>234.6</ele>
        <time>2021-06-16T10:40:40Z</time>
      </trkpt>
      <trkpt lat="47.13278" lon="5.84851">
        <ele>234</ele>
        <time>2021-06-16T10:40:42Z</time>
      </trkpt>
      <trkpt lat="47.13292" lon="5.84861">
        <ele>233.4</ele>
        <time>2021-06-16T10:40:44Z</time>
      </trkpt>
      <trkpt lat="47.13314" lon="5.84882">
        <ele>233.2</ele>
        <time>2021-06-16T10:40:49Z</time>
      </trkpt>
      <trkpt lat="47.13327" lon="5.84893">
        <ele>233</ele>
        <time>2021-06-16T10:40:50Z</time>
      </trkpt>
      <trkpt lat="47.13332" lon="5.84898">
        <ele>233</ele>
        <time>2021-06-16T10:40:51Z</time>
      </trkpt>
      <trkpt lat="47.13337" lon="5.84902">
        <ele>233</ele>
        <time>2021-06-16T10:40:52Z</time>
      </trkpt>
      <trkpt lat="47.13342" lon="5.84907">
        <ele>233</ele>
        <time>2021-06-16T10:40:53Z</time>
      </trkpt>
      <trkpt lat="47.13342" lon="5.84907">
        <ele>232.8</ele>
        <time>2021-06-16T10:40:54Z</time>
      </trkpt>
      <trkpt lat="47.13354" lon="5.84918">
        <ele>232.8</ele>
        <time>2021-06-16T10:40:55Z</time>
      </trkpt>
      <trkpt lat="47.13359" lon="5.84923">
        <ele>232.8</ele>
        <time>2021-06-16T10:40:56Z</time>
      </trkpt>
      <trkpt lat="47.13363" lon="5.84926">
        <ele>232.8</ele>
        <time>2021-06-16T10:40:57Z</time>
      </trkpt>
      <trkpt lat="47.13369" lon="5.84931">
        <ele>232.8</ele>
        <time>2021-06-16T10:40:58Z</time>
      </trkpt>
      <trkpt lat="47.13374" lon="5.84936">
        <ele>232.8</ele>
        <time>2021-06-16T10:40:59Z</time>
      </trkpt>
      <trkpt lat="47.1338" lon="5.84941">
        <ele>233</ele>
        <time>2021-06-16T10:41:00Z</time>
      </trkpt>
      <trkpt lat="47.13385" lon="5.84945">
        <ele>233</ele>
        <time>2021-06-16T10:41:01Z</time>
      </trkpt>
      <trkpt lat="47.13389" lon="5.84948">
        <ele>233</ele>
        <time>2021-06-16T10:41:02Z</time>
      </trkpt>
      <trkpt lat="47.13395" lon="5.84952">
        <ele>233</ele>
        <time>2021-06-16T10:41:03Z</time>
      </trkpt>
      <trkpt lat="47.134" lon="5.84957">
        <ele>233</ele>
        <time>2021-06-16T10:41:04Z</time>
      </trkpt>
      <trkpt lat="47.13406" lon="5.84961">
        <ele>233</ele>
        <time>2021-06-16T10:41:05Z</time>
      </trkpt>
      <trkpt lat="47.13411" lon="5.84965">
        <ele>233</ele>
        <time>2021-06-16T10:41:06Z</time>
      </trkpt>
      <trkpt lat="47.13416" lon="5.84968">
        <ele>233</ele>
        <time>2021-06-16T10:41:07Z</time>
      </trkpt>
      <trkpt lat="47.13421" lon="5.84972">
        <ele>233.2</ele>
        <time>2021-06-16T10:41:08Z</time>
      </trkpt>
      <trkpt lat="47.13436" lon="5.84982">
        <ele>233.2</ele>
        <time>2021-06-16T10:41:11Z</time>
      </trkpt>
      <trkpt lat="47.13442" lon="5.84986">
        <ele>233.2</ele>
        <time>2021-06-16T10:41:12Z</time>
      </trkpt>
      <trkpt lat="47.13447" lon="5.84989">
        <ele>233.2</ele>
        <time>2021-06-16T10:41:13Z</time>
      </trkpt>
      <trkpt lat="47.13452" lon="5.84993">
        <ele>233.2</ele>
        <time>2021-06-16T10:41:14Z</time>
      </trkpt>
      <trkpt lat="47.13456" lon="5.84994">
        <ele>233.2</ele>
        <time>2021-06-16T10:41:15Z</time>
      </trkpt>
      <trkpt lat="47.1346" lon="5.84995">
        <ele>233.2</ele>
        <time>2021-06-16T10:41:16Z</time>
      </trkpt>
      <trkpt lat="47.13463" lon="5.84993">
        <ele>233.2</ele>
        <time>2021-06-16T10:41:17Z</time>
      </trkpt>
      <trkpt lat="47.13466" lon="5.84989">
        <ele>233.2</ele>
        <time>2021-06-16T10:41:18Z</time>
      </trkpt>
      <trkpt lat="47.13468" lon="5.84984">
        <ele>233.2</ele>
        <time>2021-06-16T10:41:19Z</time>
      </trkpt>
      <trkpt lat="47.1347" lon="5.8498">
        <ele>233.2</ele>
        <time>2021-06-16T10:41:20Z</time>
      </trkpt>
      <trkpt lat="47.13473" lon="5.84975">
        <ele>233</ele>
        <time>2021-06-16T10:41:21Z</time>
      </trkpt>
      <trkpt lat="47.13475" lon="5.8497">
        <ele>233</ele>
        <time>2021-06-16T10:41:22Z</time>
      </trkpt>
      <trkpt lat="47.13485" lon="5.84949">
        <ele>233</ele>
        <time>2021-06-16T10:41:26Z</time>
      </trkpt>
      <trkpt lat="47.13487" lon="5.84944">
        <ele>233</ele>
        <time>2021-06-16T10:41:27Z</time>
      </trkpt>
      <trkpt lat="47.13494" lon="5.84931">
        <ele>233</ele>
        <time>2021-06-16T10:41:30Z</time>
      </trkpt>
      <trkpt lat="47.13496" lon="5.84927">
        <ele>232.8</ele>
        <time>2021-06-16T10:41:31Z</time>
      </trkpt>
      <trkpt lat="47.13497" lon="5.84924">
        <ele>232.6</ele>
        <time>2021-06-16T10:41:32Z</time>
      </trkpt>
      <trkpt lat="47.13499" lon="5.84921">
        <ele>232.6</ele>
        <time>2021-06-16T10:41:33Z</time>
      </trkpt>
      <trkpt lat="47.13501" lon="5.84917">
        <ele>232.4</ele>
        <time>2021-06-16T10:41:34Z</time>
      </trkpt>
      <trkpt lat="47.13506" lon="5.84904">
        <ele>232.2</ele>
        <time>2021-06-16T10:41:37Z</time>
      </trkpt>
      <trkpt lat="47.13508" lon="5.849">
        <ele>232.2</ele>
        <time>2021-06-16T10:41:38Z</time>
      </trkpt>
      <trkpt lat="47.13517" lon="5.8488">
        <ele>232</ele>
        <time>2021-06-16T10:41:42Z</time>
      </trkpt>
      <trkpt lat="47.13519" lon="5.84875">
        <ele>232</ele>
        <time>2021-06-16T10:41:43Z</time>
      </trkpt>
      <trkpt lat="47.13537" lon="5.8484">
        <ele>232.2</ele>
        <time>2021-06-16T10:41:50Z</time>
      </trkpt>
      <trkpt lat="47.13552" lon="5.84796">
        <ele>232.2</ele>
        <time>2021-06-16T10:41:57Z</time>
      </trkpt>
      <trkpt lat="47.13581" lon="5.84733">
        <ele>231.8</ele>
        <time>2021-06-16T10:42:08Z</time>
      </trkpt>
      <trkpt lat="47.13583" lon="5.84727">
        <ele>232</ele>
        <time>2021-06-16T10:42:09Z</time>
      </trkpt>
      <trkpt lat="47.13588" lon="5.84716">
        <ele>232</ele>
        <time>2021-06-16T10:42:11Z</time>
      </trkpt>
      <trkpt lat="47.1359" lon="5.84711">
        <ele>232</ele>
        <time>2021-06-16T10:42:12Z</time>
      </trkpt>
      <trkpt lat="47.13593" lon="5.84706">
        <ele>232</ele>
        <time>2021-06-16T10:42:13Z</time>
      </trkpt>
      <trkpt lat="47.136" lon="5.84689">
        <ele>232.2</ele>
        <time>2021-06-16T10:42:16Z</time>
      </trkpt>
      <trkpt lat="47.13621" lon="5.84643">
        <ele>232.2</ele>
        <time>2021-06-16T10:42:24Z</time>
      </trkpt>
      <trkpt lat="47.13624" lon="5.84636">
        <ele>232.2</ele>
        <time>2021-06-16T10:42:25Z</time>
      </trkpt>
      <trkpt lat="47.13641" lon="5.84595">
        <ele>232.2</ele>
        <time>2021-06-16T10:42:32Z</time>
      </trkpt>
      <trkpt lat="47.13643" lon="5.8459">
        <ele>232.2</ele>
        <time>2021-06-16T10:42:33Z</time>
      </trkpt>
      <trkpt lat="47.13646" lon="5.84584">
        <ele>232.2</ele>
        <time>2021-06-16T10:42:34Z</time>
      </trkpt>
      <trkpt lat="47.13648" lon="5.84578">
        <ele>232.2</ele>
        <time>2021-06-16T10:42:35Z</time>
      </trkpt>
      <trkpt lat="47.13651" lon="5.84573">
        <ele>232.2</ele>
        <time>2021-06-16T10:42:36Z</time>
      </trkpt>
      <trkpt lat="47.13659" lon="5.84556">
        <ele>231.8</ele>
        <time>2021-06-16T10:42:39Z</time>
      </trkpt>
      <trkpt lat="47.13662" lon="5.84551">
        <ele>232</ele>
        <time>2021-06-16T10:42:40Z</time>
      </trkpt>
      <trkpt lat="47.13665" lon="5.84547">
        <ele>232</ele>
        <time>2021-06-16T10:42:41Z</time>
      </trkpt>
      <trkpt lat="47.13668" lon="5.84542">
        <ele>232</ele>
        <time>2021-06-16T10:42:42Z</time>
      </trkpt>
      <trkpt lat="47.1367" lon="5.84537">
        <ele>232</ele>
        <time>2021-06-16T10:42:43Z</time>
      </trkpt>
      <trkpt lat="47.13674" lon="5.84526">
        <ele>231.8</ele>
        <time>2021-06-16T10:42:45Z</time>
      </trkpt>
      <trkpt lat="47.13677" lon="5.84521">
        <ele>231.6</ele>
        <time>2021-06-16T10:42:46Z</time>
      </trkpt>
      <trkpt lat="47.13679" lon="5.84515">
        <ele>231.8</ele>
        <time>2021-06-16T10:42:47Z</time>
      </trkpt>
      <trkpt lat="47.13682" lon="5.84511">
        <ele>232</ele>
        <time>2021-06-16T10:42:48Z</time>
      </trkpt>
      <trkpt lat="47.13684" lon="5.84506">
        <ele>232.2</ele>
        <time>2021-06-16T10:42:49Z</time>
      </trkpt>
      <trkpt lat="47.13686" lon="5.84503">
        <ele>232.2</ele>
        <time>2021-06-16T10:42:50Z</time>
      </trkpt>
      <trkpt lat="47.13689" lon="5.84501">
        <ele>232.4</ele>
        <time>2021-06-16T10:42:51Z</time>
      </trkpt>
      <trkpt lat="47.13691" lon="5.84501">
        <ele>232.4</ele>
        <time>2021-06-16T10:42:52Z</time>
      </trkpt>
      <trkpt lat="47.13694" lon="5.84502">
        <ele>232.4</ele>
        <time>2021-06-16T10:42:53Z</time>
      </trkpt>
      <trkpt lat="47.13699" lon="5.84507">
        <ele>232.4</ele>
        <time>2021-06-16T10:42:55Z</time>
      </trkpt>
      <trkpt lat="47.13702" lon="5.8451">
        <ele>232.4</ele>
        <time>2021-06-16T10:42:56Z</time>
      </trkpt>
      <trkpt lat="47.13726" lon="5.84533">
        <ele>232.8</ele>
        <time>2021-06-16T10:43:03Z</time>
      </trkpt>
      <trkpt lat="47.13729" lon="5.84537">
        <ele>232.6</ele>
        <time>2021-06-16T10:43:04Z</time>
      </trkpt>
      <trkpt lat="47.13745" lon="5.84549">
        <ele>232.6</ele>
        <time>2021-06-16T10:43:08Z</time>
      </trkpt>
      <trkpt lat="47.13749" lon="5.84553">
        <ele>232.6</ele>
        <time>2021-06-16T10:43:09Z</time>
      </trkpt>
      <trkpt lat="47.13785" lon="5.84585">
        <ele>233</ele>
        <time>2021-06-16T10:43:18Z</time>
      </trkpt>
      <trkpt lat="47.13803" lon="5.846">
        <ele>233.2</ele>
        <time>2021-06-16T10:43:22Z</time>
      </trkpt>
      <trkpt lat="47.1382" lon="5.84616">
        <ele>233.2</ele>
        <time>2021-06-16T10:43:26Z</time>
      </trkpt>
      <trkpt lat="47.13836" lon="5.84632">
        <ele>233</ele>
        <time>2021-06-16T10:43:30Z</time>
      </trkpt>
      <trkpt lat="47.1384" lon="5.84635">
        <ele>233</ele>
        <time>2021-06-16T10:43:31Z</time>
      </trkpt>
      <trkpt lat="47.13849" lon="5.84642">
        <ele>232.8</ele>
        <time>2021-06-16T10:43:33Z</time>
      </trkpt>
      <trkpt lat="47.13857" lon="5.8465">
        <ele>232.8</ele>
        <time>2021-06-16T10:43:35Z</time>
      </trkpt>
      <trkpt lat="47.13861" lon="5.84653">
        <ele>232.8</ele>
        <time>2021-06-16T10:43:36Z</time>
      </trkpt>
      <trkpt lat="47.13865" lon="5.84656">
        <ele>232.8</ele>
        <time>2021-06-16T10:43:37Z</time>
      </trkpt>
      <trkpt lat="47.13869" lon="5.8466">
        <ele>232.8</ele>
        <time>2021-06-16T10:43:38Z</time>
      </trkpt>
      <trkpt lat="47.13873" lon="5.84664">
        <ele>232.8</ele>
        <time>2021-06-16T10:43:39Z</time>
      </trkpt>
      <trkpt lat="47.13877" lon="5.84668">
        <ele>232.8</ele>
        <time>2021-06-16T10:43:40Z</time>
      </trkpt>
      <trkpt lat="47.13908" lon="5.847">
        <ele>232.8</ele>
        <time>2021-06-16T10:43:48Z</time>
      </trkpt>
      <trkpt lat="47.13914" lon="5.84709">
        <ele>232.8</ele>
        <time>2021-06-16T10:43:50Z</time>
      </trkpt>
      <trkpt lat="47.1392" lon="5.84719">
        <ele>233</ele>
        <time>2021-06-16T10:43:52Z</time>
      </trkpt>
      <trkpt lat="47.13923" lon="5.84724">
        <ele>232.6</ele>
        <time>2021-06-16T10:43:53Z</time>
      </trkpt>
      <trkpt lat="47.13925" lon="5.84729">
        <ele>232.8</ele>
        <time>2021-06-16T10:43:54Z</time>
      </trkpt>
      <trkpt lat="47.13928" lon="5.84734">
        <ele>232.6</ele>
        <time>2021-06-16T10:43:55Z</time>
      </trkpt>
      <trkpt lat="47.13931" lon="5.84739">
        <ele>232.6</ele>
        <time>2021-06-16T10:43:56Z</time>
      </trkpt>
      <trkpt lat="47.13933" lon="5.84745">
        <ele>232.4</ele>
        <time>2021-06-16T10:43:57Z</time>
      </trkpt>
      <trkpt lat="47.13936" lon="5.8475">
        <ele>232.4</ele>
        <time>2021-06-16T10:43:58Z</time>
      </trkpt>
      <trkpt lat="47.13939" lon="5.84755">
        <ele>232.2</ele>
        <time>2021-06-16T10:43:59Z</time>
      </trkpt>
      <trkpt lat="47.1396" lon="5.84791">
        <ele>232</ele>
        <time>2021-06-16T10:44:06Z</time>
      </trkpt>
      <trkpt lat="47.13965" lon="5.84802">
        <ele>232</ele>
        <time>2021-06-16T10:44:08Z</time>
      </trkpt>
      <trkpt lat="47.13986" lon="5.84855">
        <ele>232.4</ele>
        <time>2021-06-16T10:44:17Z</time>
      </trkpt>
      <trkpt lat="47.14005" lon="5.84909">
        <ele>232</ele>
        <time>2021-06-16T10:44:26Z</time>
      </trkpt>
      <trkpt lat="47.14011" lon="5.84933">
        <ele>231.4</ele>
        <time>2021-06-16T10:44:30Z</time>
      </trkpt>
      <trkpt lat="47.14011" lon="5.84938">
        <ele>231.4</ele>
        <time>2021-06-16T10:44:31Z</time>
      </trkpt>
      <trkpt lat="47.14012" lon="5.84943">
        <ele>231.4</ele>
        <time>2021-06-16T10:44:32Z</time>
      </trkpt>
      <trkpt lat="47.14013" lon="5.84948">
        <ele>231.4</ele>
        <time>2021-06-16T10:44:33Z</time>
      </trkpt>
      <trkpt lat="47.14014" lon="5.84953">
        <ele>231.4</ele>
        <time>2021-06-16T10:44:34Z</time>
      </trkpt>
      <trkpt lat="47.14015" lon="5.84957">
        <ele>231.4</ele>
        <time>2021-06-16T10:44:35Z</time>
      </trkpt>
      <trkpt lat="47.14015" lon="5.84961">
        <ele>231.4</ele>
        <time>2021-06-16T10:44:36Z</time>
      </trkpt>
      <trkpt lat="47.14016" lon="5.84965">
        <ele>231.6</ele>
        <time>2021-06-16T10:44:37Z</time>
      </trkpt>
      <trkpt lat="47.14017" lon="5.84969">
        <ele>231.6</ele>
        <time>2021-06-16T10:44:38Z</time>
      </trkpt>
      <trkpt lat="47.14018" lon="5.84973">
        <ele>231.6</ele>
        <time>2021-06-16T10:44:39Z</time>
      </trkpt>
      <trkpt lat="47.14027" lon="5.85016">
        <ele>232.2</ele>
        <time>2021-06-16T10:44:48Z</time>
      </trkpt>
      <trkpt lat="47.14036" lon="5.85066">
        <ele>232.6</ele>
        <time>2021-06-16T10:44:57Z</time>
      </trkpt>
      <trkpt lat="47.14038" lon="5.85075">
        <ele>232.6</ele>
        <time>2021-06-16T10:44:59Z</time>
      </trkpt>
      <trkpt lat="47.14039" lon="5.85078">
        <ele>232.6</ele>
        <time>2021-06-16T10:45:00Z</time>
      </trkpt>
      <trkpt lat="47.14041" lon="5.8508">
        <ele>232.8</ele>
        <time>2021-06-16T10:45:01Z</time>
      </trkpt>
      <trkpt lat="47.14042" lon="5.85081">
        <ele>233</ele>
        <time>2021-06-16T10:45:02Z</time>
      </trkpt>
      <trkpt lat="47.14043" lon="5.85081">
        <ele>233</ele>
        <time>2021-06-16T10:45:03Z</time>
      </trkpt>
      <trkpt lat="47.14045" lon="5.8508">
        <ele>233.4</ele>
        <time>2021-06-16T10:45:04Z</time>
      </trkpt>
      <trkpt lat="47.14047" lon="5.8508">
        <ele>233.4</ele>
        <time>2021-06-16T10:45:05Z</time>
      </trkpt>
      <trkpt lat="47.14049" lon="5.85078">
        <ele>233.6</ele>
        <time>2021-06-16T10:45:06Z</time>
      </trkpt>
      <trkpt lat="47.1405" lon="5.85077">
        <ele>233.8</ele>
        <time>2021-06-16T10:45:07Z</time>
      </trkpt>
      <trkpt lat="47.14052" lon="5.85077">
        <ele>234</ele>
        <time>2021-06-16T10:45:08Z</time>
      </trkpt>
      <trkpt lat="47.14054" lon="5.85075">
        <ele>234</ele>
        <time>2021-06-16T10:45:09Z</time>
      </trkpt>
      <trkpt lat="47.14058" lon="5.85072">
        <ele>234.2</ele>
        <time>2021-06-16T10:45:11Z</time>
      </trkpt>
      <trkpt lat="47.14076" lon="5.85059">
        <ele>234.6</ele>
        <time>2021-06-16T10:45:17Z</time>
      </trkpt>
      <trkpt lat="47.14088" lon="5.85053">
        <ele>234.8</ele>
        <time>2021-06-16T10:45:20Z</time>
      </trkpt>
      <trkpt lat="47.14098" lon="5.85047">
        <ele>234.8</ele>
        <time>2021-06-16T10:45:23Z</time>
      </trkpt>
      <trkpt lat="47.1411" lon="5.85043">
        <ele>235</ele>
        <time>2021-06-16T10:45:26Z</time>
      </trkpt>
      <trkpt lat="47.14136" lon="5.85039">
        <ele>235</ele>
        <time>2021-06-16T10:45:32Z</time>
      </trkpt>
      <trkpt lat="47.14145" lon="5.85041">
        <ele>235</ele>
        <time>2021-06-16T10:45:34Z</time>
      </trkpt>
      <trkpt lat="47.14164" lon="5.85043">
        <ele>234.8</ele>
        <time>2021-06-16T10:45:38Z</time>
      </trkpt>
      <trkpt lat="47.14179" lon="5.85047">
        <ele>234.8</ele>
        <time>2021-06-16T10:45:41Z</time>
      </trkpt>
      <trkpt lat="47.14221" lon="5.85063">
        <ele>234.6</ele>
        <time>2021-06-16T10:45:49Z</time>
      </trkpt>
      <trkpt lat="47.14226" lon="5.85066">
        <ele>234.6</ele>
        <time>2021-06-16T10:45:50Z</time>
      </trkpt>
      <trkpt lat="47.14269" lon="5.85087">
        <ele>234.2</ele>
        <time>2021-06-16T10:45:58Z</time>
      </trkpt>
      <trkpt lat="47.14291" lon="5.85097">
        <ele>234</ele>
        <time>2021-06-16T10:46:02Z</time>
      </trkpt>
      <trkpt lat="47.14319" lon="5.85111">
        <ele>234</ele>
        <time>2021-06-16T10:46:07Z</time>
      </trkpt>
      <trkpt lat="47.14366" lon="5.85134">
        <ele>233.6</ele>
        <time>2021-06-16T10:46:15Z</time>
      </trkpt>
      <trkpt lat="47.14419" lon="5.8516">
        <ele>233.2</ele>
        <time>2021-06-16T10:46:24Z</time>
      </trkpt>
      <trkpt lat="47.14424" lon="5.85163">
        <ele>233.2</ele>
        <time>2021-06-16T10:46:25Z</time>
      </trkpt>
      <trkpt lat="47.1443" lon="5.85166">
        <ele>233.2</ele>
        <time>2021-06-16T10:46:26Z</time>
      </trkpt>
      <trkpt lat="47.14441" lon="5.85171">
        <ele>233.2</ele>
        <time>2021-06-16T10:46:28Z</time>
      </trkpt>
      <trkpt lat="47.14447" lon="5.85174">
        <ele>233.2</ele>
        <time>2021-06-16T10:46:29Z</time>
      </trkpt>
      <trkpt lat="47.14452" lon="5.85176">
        <ele>233.2</ele>
        <time>2021-06-16T10:46:30Z</time>
      </trkpt>
      <trkpt lat="47.14458" lon="5.85178">
        <ele>233.4</ele>
        <time>2021-06-16T10:46:31Z</time>
      </trkpt>
      <trkpt lat="47.14475" lon="5.85186">
        <ele>233.4</ele>
        <time>2021-06-16T10:46:34Z</time>
      </trkpt>
      <trkpt lat="47.1452" lon="5.85205">
        <ele>233.4</ele>
        <time>2021-06-16T10:46:42Z</time>
      </trkpt>
      <trkpt lat="47.1456" lon="5.85226">
        <ele>233.2</ele>
        <time>2021-06-16T10:46:49Z</time>
      </trkpt>
      <trkpt lat="47.14565" lon="5.85229">
        <ele>233.2</ele>
        <time>2021-06-16T10:46:50Z</time>
      </trkpt>
      <trkpt lat="47.1457" lon="5.85231">
        <ele>233.2</ele>
        <time>2021-06-16T10:46:51Z</time>
      </trkpt>
      <trkpt lat="47.14576" lon="5.85234">
        <ele>233.2</ele>
        <time>2021-06-16T10:46:52Z</time>
      </trkpt>
      <trkpt lat="47.14604" lon="5.85247">
        <ele>233.4</ele>
        <time>2021-06-16T10:46:57Z</time>
      </trkpt>
      <trkpt lat="47.14637" lon="5.85264">
        <ele>233.2</ele>
        <time>2021-06-16T10:47:03Z</time>
      </trkpt>
      <trkpt lat="47.14687" lon="5.85286">
        <ele>233.6</ele>
        <time>2021-06-16T10:47:12Z</time>
      </trkpt>
      <trkpt lat="47.14698" lon="5.85292">
        <ele>233.6</ele>
        <time>2021-06-16T10:47:14Z</time>
      </trkpt>
      <trkpt lat="47.14704" lon="5.85295">
        <ele>233.6</ele>
        <time>2021-06-16T10:47:15Z</time>
      </trkpt>
      <trkpt lat="47.14742" lon="5.85313">
        <ele>233.4</ele>
        <time>2021-06-16T10:47:22Z</time>
      </trkpt>
      <trkpt lat="47.14748" lon="5.85316">
        <ele>233.4</ele>
        <time>2021-06-16T10:47:23Z</time>
      </trkpt>
      <trkpt lat="47.14764" lon="5.85324">
        <ele>233.4</ele>
        <time>2021-06-16T10:47:26Z</time>
      </trkpt>
      <trkpt lat="47.14791" lon="5.85338">
        <ele>233.2</ele>
        <time>2021-06-16T10:47:31Z</time>
      </trkpt>
      <trkpt lat="47.14802" lon="5.85342">
        <ele>233</ele>
        <time>2021-06-16T10:47:33Z</time>
      </trkpt>
      <trkpt lat="47.14813" lon="5.85347">
        <ele>233</ele>
        <time>2021-06-16T10:47:35Z</time>
      </trkpt>
      <trkpt lat="47.14823" lon="5.85353">
        <ele>233</ele>
        <time>2021-06-16T10:47:37Z</time>
      </trkpt>
      <trkpt lat="47.14834" lon="5.85358">
        <ele>233</ele>
        <time>2021-06-16T10:47:39Z</time>
      </trkpt>
      <trkpt lat="47.14878" lon="5.85376">
        <ele>233</ele>
        <time>2021-06-16T10:47:47Z</time>
      </trkpt>
      <trkpt lat="47.14883" lon="5.85379">
        <ele>233</ele>
        <time>2021-06-16T10:47:48Z</time>
      </trkpt>
      <trkpt lat="47.14899" lon="5.85388">
        <ele>232.8</ele>
        <time>2021-06-16T10:47:51Z</time>
      </trkpt>
      <trkpt lat="47.14904" lon="5.85391">
        <ele>232.8</ele>
        <time>2021-06-16T10:47:52Z</time>
      </trkpt>
      <trkpt lat="47.1491" lon="5.85393">
        <ele>232.8</ele>
        <time>2021-06-16T10:47:53Z</time>
      </trkpt>
      <trkpt lat="47.14915" lon="5.85395">
        <ele>232.8</ele>
        <time>2021-06-16T10:47:54Z</time>
      </trkpt>
      <trkpt lat="47.1492" lon="5.85398">
        <ele>232.8</ele>
        <time>2021-06-16T10:47:55Z</time>
      </trkpt>
      <trkpt lat="47.14941" lon="5.85408">
        <ele>232.8</ele>
        <time>2021-06-16T10:47:59Z</time>
      </trkpt>
      <trkpt lat="47.14995" lon="5.85437">
        <ele>233</ele>
        <time>2021-06-16T10:48:09Z</time>
      </trkpt>
      <trkpt lat="47.15002" lon="5.8544">
        <ele>233</ele>
        <time>2021-06-16T10:48:10Z</time>
      </trkpt>
      <trkpt lat="47.15017" lon="5.85446">
        <ele>232.8</ele>
        <time>2021-06-16T10:48:13Z</time>
      </trkpt>
      <trkpt lat="47.15023" lon="5.85448">
        <ele>232.8</ele>
        <time>2021-06-16T10:48:14Z</time>
      </trkpt>
      <trkpt lat="47.1503" lon="5.85451">
        <ele>233</ele>
        <time>2021-06-16T10:48:15Z</time>
      </trkpt>
      <trkpt lat="47.15035" lon="5.85454">
        <ele>233</ele>
        <time>2021-06-16T10:48:16Z</time>
      </trkpt>
      <trkpt lat="47.15044" lon="5.85459">
        <ele>233</ele>
        <time>2021-06-16T10:48:18Z</time>
      </trkpt>
      <trkpt lat="47.15049" lon="5.85462">
        <ele>233</ele>
        <time>2021-06-16T10:48:19Z</time>
      </trkpt>
      <trkpt lat="47.15054" lon="5.85465">
        <ele>233</ele>
        <time>2021-06-16T10:48:20Z</time>
      </trkpt>
      <trkpt lat="47.15088" lon="5.85479">
        <ele>233</ele>
        <time>2021-06-16T10:48:26Z</time>
      </trkpt>
      <trkpt lat="47.15119" lon="5.85493">
        <ele>233</ele>
        <time>2021-06-16T10:48:32Z</time>
      </trkpt>
      <trkpt lat="47.15125" lon="5.85496">
        <ele>233</ele>
        <time>2021-06-16T10:48:33Z</time>
      </trkpt>
      <trkpt lat="47.15135" lon="5.85502">
        <ele>233.2</ele>
        <time>2021-06-16T10:48:35Z</time>
      </trkpt>
      <trkpt lat="47.1514" lon="5.85504">
        <ele>233.2</ele>
        <time>2021-06-16T10:48:36Z</time>
      </trkpt>
      <trkpt lat="47.15161" lon="5.85513">
        <ele>233.2</ele>
        <time>2021-06-16T10:48:40Z</time>
      </trkpt>
      <trkpt lat="47.15166" lon="5.85516">
        <ele>233.2</ele>
        <time>2021-06-16T10:48:41Z</time>
      </trkpt>
      <trkpt lat="47.15171" lon="5.85518">
        <ele>233.2</ele>
        <time>2021-06-16T10:48:42Z</time>
      </trkpt>
      <trkpt lat="47.15177" lon="5.8552">
        <ele>233.2</ele>
        <time>2021-06-16T10:48:43Z</time>
      </trkpt>
      <trkpt lat="47.15187" lon="5.85525">
        <ele>233</ele>
        <time>2021-06-16T10:48:45Z</time>
      </trkpt>
      <trkpt lat="47.15234" lon="5.85549">
        <ele>233</ele>
        <time>2021-06-16T10:48:54Z</time>
      </trkpt>
      <trkpt lat="47.15239" lon="5.85552">
        <ele>233.2</ele>
        <time>2021-06-16T10:48:55Z</time>
      </trkpt>
      <trkpt lat="47.15245" lon="5.85555">
        <ele>233.2</ele>
        <time>2021-06-16T10:48:56Z</time>
      </trkpt>
      <trkpt lat="47.1525" lon="5.85557">
        <ele>233.2</ele>
        <time>2021-06-16T10:48:57Z</time>
      </trkpt>
      <trkpt lat="47.15254" lon="5.8556">
        <ele>233.2</ele>
        <time>2021-06-16T10:48:58Z</time>
      </trkpt>
      <trkpt lat="47.15269" lon="5.85568">
        <ele>233.2</ele>
        <time>2021-06-16T10:49:01Z</time>
      </trkpt>
      <trkpt lat="47.1528" lon="5.85573">
        <ele>233.2</ele>
        <time>2021-06-16T10:49:03Z</time>
      </trkpt>
      <trkpt lat="47.15285" lon="5.85575">
        <ele>233.2</ele>
        <time>2021-06-16T10:49:04Z</time>
      </trkpt>
      <trkpt lat="47.1529" lon="5.85577">
        <ele>233.2</ele>
        <time>2021-06-16T10:49:05Z</time>
      </trkpt>
      <trkpt lat="47.15302" lon="5.85581">
        <ele>233.2</ele>
        <time>2021-06-16T10:49:07Z</time>
      </trkpt>
      <trkpt lat="47.15308" lon="5.85583">
        <ele>233.2</ele>
        <time>2021-06-16T10:49:08Z</time>
      </trkpt>
      <trkpt lat="47.15323" lon="5.85589">
        <ele>233</ele>
        <time>2021-06-16T10:49:11Z</time>
      </trkpt>
      <trkpt lat="47.15345" lon="5.85597">
        <ele>233</ele>
        <time>2021-06-16T10:49:15Z</time>
      </trkpt>
      <trkpt lat="47.1535" lon="5.85598">
        <ele>233</ele>
        <time>2021-06-16T10:49:16Z</time>
      </trkpt>
      <trkpt lat="47.15356" lon="5.85599">
        <ele>233</ele>
        <time>2021-06-16T10:49:17Z</time>
      </trkpt>
      <trkpt lat="47.15366" lon="5.85601">
        <ele>233</ele>
        <time>2021-06-16T10:49:19Z</time>
      </trkpt>
      <trkpt lat="47.15371" lon="5.85603">
        <ele>233</ele>
        <time>2021-06-16T10:49:20Z</time>
      </trkpt>
      <trkpt lat="47.15376" lon="5.85603">
        <ele>233</ele>
        <time>2021-06-16T10:49:21Z</time>
      </trkpt>
      <trkpt lat="47.15386" lon="5.85605">
        <ele>233</ele>
        <time>2021-06-16T10:49:23Z</time>
      </trkpt>
      <trkpt lat="47.15391" lon="5.85605">
        <ele>233</ele>
        <time>2021-06-16T10:49:24Z</time>
      </trkpt>
      <trkpt lat="47.15396" lon="5.85605">
        <ele>233</ele>
        <time>2021-06-16T10:49:25Z</time>
      </trkpt>
      <trkpt lat="47.15402" lon="5.85605">
        <ele>233</ele>
        <time>2021-06-16T10:49:26Z</time>
      </trkpt>
      <trkpt lat="47.15412" lon="5.85606">
        <ele>233</ele>
        <time>2021-06-16T10:49:28Z</time>
      </trkpt>
      <trkpt lat="47.15456" lon="5.85614">
        <ele>233.2</ele>
        <time>2021-06-16T10:49:36Z</time>
      </trkpt>
      <trkpt lat="47.15491" lon="5.85617">
        <ele>233</ele>
        <time>2021-06-16T10:49:42Z</time>
      </trkpt>
      <trkpt lat="47.15508" lon="5.8562">
        <ele>233</ele>
        <time>2021-06-16T10:49:45Z</time>
      </trkpt>
      <trkpt lat="47.15524" lon="5.85617">
        <ele>233</ele>
        <time>2021-06-16T10:49:48Z</time>
      </trkpt>
      <trkpt lat="47.15529" lon="5.85615">
        <ele>233</ele>
        <time>2021-06-16T10:49:49Z</time>
      </trkpt>
      <trkpt lat="47.15534" lon="5.85613">
        <ele>233</ele>
        <time>2021-06-16T10:49:50Z</time>
      </trkpt>
      <trkpt lat="47.15538" lon="5.85612">
        <ele>233.2</ele>
        <time>2021-06-16T10:49:51Z</time>
      </trkpt>
      <trkpt lat="47.15543" lon="5.85611">
        <ele>233.2</ele>
        <time>2021-06-16T10:49:52Z</time>
      </trkpt>
      <trkpt lat="47.15548" lon="5.8561">
        <ele>233.4</ele>
        <time>2021-06-16T10:49:53Z</time>
      </trkpt>
      <trkpt lat="47.15552" lon="5.8561">
        <ele>233.4</ele>
        <time>2021-06-16T10:49:54Z</time>
      </trkpt>
      <trkpt lat="47.15555" lon="5.85609">
        <ele>233.6</ele>
        <time>2021-06-16T10:49:55Z</time>
      </trkpt>
      <trkpt lat="47.1556" lon="5.85609">
        <ele>233.8</ele>
        <time>2021-06-16T10:49:56Z</time>
      </trkpt>
      <trkpt lat="47.15563" lon="5.85609">
        <ele>234</ele>
        <time>2021-06-16T10:49:57Z</time>
      </trkpt>
      <trkpt lat="47.15567" lon="5.8561">
        <ele>234</ele>
        <time>2021-06-16T10:49:58Z</time>
      </trkpt>
      <trkpt lat="47.1557" lon="5.85612">
        <ele>234.2</ele>
        <time>2021-06-16T10:49:59Z</time>
      </trkpt>
      <trkpt lat="47.15572" lon="5.85614">
        <ele>234.2</ele>
        <time>2021-06-16T10:50:00Z</time>
      </trkpt>
      <trkpt lat="47.15574" lon="5.85616">
        <ele>234.4</ele>
        <time>2021-06-16T10:50:01Z</time>
      </trkpt>
      <trkpt lat="47.15576" lon="5.85621">
        <ele>234.8</ele>
        <time>2021-06-16T10:50:02Z</time>
      </trkpt>
      <trkpt lat="47.15577" lon="5.85625">
        <ele>235</ele>
        <time>2021-06-16T10:50:03Z</time>
      </trkpt>
      <trkpt lat="47.15578" lon="5.85628">
        <ele>235.2</ele>
        <time>2021-06-16T10:50:04Z</time>
      </trkpt>
      <trkpt lat="47.15578" lon="5.85632">
        <ele>235.2</ele>
        <time>2021-06-16T10:50:05Z</time>
      </trkpt>
      <trkpt lat="47.15578" lon="5.85634">
        <ele>235.6</ele>
        <time>2021-06-16T10:50:06Z</time>
      </trkpt>
      <trkpt lat="47.15578" lon="5.85637">
        <ele>235.6</ele>
        <time>2021-06-16T10:50:07Z</time>
      </trkpt>
      <trkpt lat="47.15578" lon="5.8564">
        <ele>236</ele>
        <time>2021-06-16T10:50:08Z</time>
      </trkpt>
      <trkpt lat="47.15578" lon="5.85648">
        <ele>236.4</ele>
        <time>2021-06-16T10:50:10Z</time>
      </trkpt>
      <trkpt lat="47.15578" lon="5.85652">
        <ele>236.6</ele>
        <time>2021-06-16T10:50:11Z</time>
      </trkpt>
      <trkpt lat="47.15578" lon="5.85657">
        <ele>236.6</ele>
        <time>2021-06-16T10:50:12Z</time>
      </trkpt>
      <trkpt lat="47.1558" lon="5.85663">
        <ele>236.6</ele>
        <time>2021-06-16T10:50:13Z</time>
      </trkpt>
      <trkpt lat="47.15582" lon="5.85669">
        <ele>236.6</ele>
        <time>2021-06-16T10:50:14Z</time>
      </trkpt>
      <trkpt lat="47.15587" lon="5.85674">
        <ele>236.6</ele>
        <time>2021-06-16T10:50:15Z</time>
      </trkpt>
      <trkpt lat="47.15592" lon="5.85676">
        <ele>236.6</ele>
        <time>2021-06-16T10:50:16Z</time>
      </trkpt>
      <trkpt lat="47.15599" lon="5.85677">
        <ele>236.6</ele>
        <time>2021-06-16T10:50:17Z</time>
      </trkpt>
      <trkpt lat="47.15605" lon="5.85676">
        <ele>236.4</ele>
        <time>2021-06-16T10:50:18Z</time>
      </trkpt>
      <trkpt lat="47.15611" lon="5.85672">
        <ele>236</ele>
        <time>2021-06-16T10:50:19Z</time>
      </trkpt>
      <trkpt lat="47.15611" lon="5.85672">
        <ele>235.6</ele>
        <time>2021-06-16T10:50:20Z</time>
      </trkpt>
      <trkpt lat="47.15621" lon="5.85663">
        <ele>235.4</ele>
        <time>2021-06-16T10:50:21Z</time>
      </trkpt>
      <trkpt lat="47.15628" lon="5.85658">
        <ele>235.2</ele>
        <time>2021-06-16T10:50:22Z</time>
      </trkpt>
      <trkpt lat="47.1564" lon="5.85655">
        <ele>234.8</ele>
        <time>2021-06-16T10:50:24Z</time>
      </trkpt>
      <trkpt lat="47.15651" lon="5.85653">
        <ele>234.4</ele>
        <time>2021-06-16T10:50:26Z</time>
      </trkpt>
      <trkpt lat="47.15657" lon="5.85653">
        <ele>234.2</ele>
        <time>2021-06-16T10:50:27Z</time>
      </trkpt>
      <trkpt lat="47.15662" lon="5.85651">
        <ele>233.8</ele>
        <time>2021-06-16T10:50:28Z</time>
      </trkpt>
      <trkpt lat="47.15667" lon="5.8565">
        <ele>233.8</ele>
        <time>2021-06-16T10:50:29Z</time>
      </trkpt>
      <trkpt lat="47.15671" lon="5.85649">
        <ele>233.6</ele>
        <time>2021-06-16T10:50:30Z</time>
      </trkpt>
      <trkpt lat="47.1568" lon="5.85647">
        <ele>233.4</ele>
        <time>2021-06-16T10:50:32Z</time>
      </trkpt>
      <trkpt lat="47.15685" lon="5.85646">
        <ele>233.4</ele>
        <time>2021-06-16T10:50:33Z</time>
      </trkpt>
      <trkpt lat="47.1569" lon="5.85645">
        <ele>233.4</ele>
        <time>2021-06-16T10:50:34Z</time>
      </trkpt>
      <trkpt lat="47.15694" lon="5.85643">
        <ele>233.4</ele>
        <time>2021-06-16T10:50:35Z</time>
      </trkpt>
      <trkpt lat="47.15698" lon="5.85642">
        <ele>233.4</ele>
        <time>2021-06-16T10:50:36Z</time>
      </trkpt>
      <trkpt lat="47.15702" lon="5.85641">
        <ele>233.4</ele>
        <time>2021-06-16T10:50:37Z</time>
      </trkpt>
      <trkpt lat="47.15708" lon="5.8564">
        <ele>233.4</ele>
        <time>2021-06-16T10:50:38Z</time>
      </trkpt>
      <trkpt lat="47.15717" lon="5.85637">
        <ele>233.4</ele>
        <time>2021-06-16T10:50:40Z</time>
      </trkpt>
      <trkpt lat="47.15721" lon="5.85635">
        <ele>233.6</ele>
        <time>2021-06-16T10:50:41Z</time>
      </trkpt>
      <trkpt lat="47.15747" lon="5.85624">
        <ele>233.8</ele>
        <time>2021-06-16T10:50:47Z</time>
      </trkpt>
      <trkpt lat="47.15798" lon="5.85598">
        <ele>234</ele>
        <time>2021-06-16T10:50:58Z</time>
      </trkpt>
      <trkpt lat="47.15845" lon="5.85566">
        <ele>234</ele>
        <time>2021-06-16T10:51:08Z</time>
      </trkpt>
      <trkpt lat="47.15855" lon="5.85558">
        <ele>234.2</ele>
        <time>2021-06-16T10:51:10Z</time>
      </trkpt>
      <trkpt lat="47.15907" lon="5.85517">
        <ele>234</ele>
        <time>2021-06-16T10:51:21Z</time>
      </trkpt>
      <trkpt lat="47.15912" lon="5.85513">
        <ele>234</ele>
        <time>2021-06-16T10:51:22Z</time>
      </trkpt>
      <trkpt lat="47.15938" lon="5.85491">
        <ele>233.6</ele>
        <time>2021-06-16T10:51:28Z</time>
      </trkpt>
      <trkpt lat="47.15943" lon="5.85487">
        <ele>233.6</ele>
        <time>2021-06-16T10:51:29Z</time>
      </trkpt>
      <trkpt lat="47.15947" lon="5.85484">
        <ele>233.6</ele>
        <time>2021-06-16T10:51:30Z</time>
      </trkpt>
      <trkpt lat="47.15953" lon="5.8548">
        <ele>233.6</ele>
        <time>2021-06-16T10:51:31Z</time>
      </trkpt>
      <trkpt lat="47.15957" lon="5.85476">
        <ele>233.6</ele>
        <time>2021-06-16T10:51:32Z</time>
      </trkpt>
      <trkpt lat="47.15962" lon="5.85473">
        <ele>233.6</ele>
        <time>2021-06-16T10:51:33Z</time>
      </trkpt>
      <trkpt lat="47.15965" lon="5.8547">
        <ele>233.8</ele>
        <time>2021-06-16T10:51:34Z</time>
      </trkpt>
      <trkpt lat="47.1597" lon="5.85467">
        <ele>233.8</ele>
        <time>2021-06-16T10:51:35Z</time>
      </trkpt>
      <trkpt lat="47.15975" lon="5.85463">
        <ele>233.8</ele>
        <time>2021-06-16T10:51:36Z</time>
      </trkpt>
      <trkpt lat="47.15984" lon="5.85456">
        <ele>233.8</ele>
        <time>2021-06-16T10:51:38Z</time>
      </trkpt>
      <trkpt lat="47.16019" lon="5.85427">
        <ele>233.6</ele>
        <time>2021-06-16T10:51:46Z</time>
      </trkpt>
      <trkpt lat="47.16033" lon="5.85416">
        <ele>233.8</ele>
        <time>2021-06-16T10:51:49Z</time>
      </trkpt>
      <trkpt lat="47.16056" lon="5.85398">
        <ele>233.8</ele>
        <time>2021-06-16T10:51:55Z</time>
      </trkpt>
      <trkpt lat="47.16087" lon="5.85373">
        <ele>233.8</ele>
        <time>2021-06-16T10:52:01Z</time>
      </trkpt>
      <trkpt lat="47.16125" lon="5.85343">
        <ele>233.6</ele>
        <time>2021-06-16T10:52:09Z</time>
      </trkpt>
      <trkpt lat="47.16172" lon="5.85306">
        <ele>233.4</ele>
        <time>2021-06-16T10:52:20Z</time>
      </trkpt>
      <trkpt lat="47.16195" lon="5.85287">
        <ele>233.6</ele>
        <time>2021-06-16T10:52:24Z</time>
      </trkpt>
      <trkpt lat="47.162" lon="5.85283">
        <ele>233.4</ele>
        <time>2021-06-16T10:52:25Z</time>
      </trkpt>
      <trkpt lat="47.16228" lon="5.8526">
        <ele>233.4</ele>
        <time>2021-06-16T10:52:31Z</time>
      </trkpt>
      <trkpt lat="47.16279" lon="5.85219">
        <ele>233.2</ele>
        <time>2021-06-16T10:52:42Z</time>
      </trkpt>
      <trkpt lat="47.16284" lon="5.85215">
        <ele>233.2</ele>
        <time>2021-06-16T10:52:43Z</time>
      </trkpt>
      <trkpt lat="47.16307" lon="5.85193">
        <ele>233.2</ele>
        <time>2021-06-16T10:52:48Z</time>
      </trkpt>
      <trkpt lat="47.16324" lon="5.85175">
        <ele>233.2</ele>
        <time>2021-06-16T10:52:52Z</time>
      </trkpt>
      <trkpt lat="47.16363" lon="5.85129">
        <ele>233.4</ele>
        <time>2021-06-16T10:53:01Z</time>
      </trkpt>
      <trkpt lat="47.16396" lon="5.85086">
        <ele>233.4</ele>
        <time>2021-06-16T10:53:09Z</time>
      </trkpt>
      <trkpt lat="47.16416" lon="5.85059">
        <ele>233.2</ele>
        <time>2021-06-16T10:53:14Z</time>
      </trkpt>
      <trkpt lat="47.16419" lon="5.85053">
        <ele>233.2</ele>
        <time>2021-06-16T10:53:15Z</time>
      </trkpt>
      <trkpt lat="47.16423" lon="5.85048">
        <ele>233.2</ele>
        <time>2021-06-16T10:53:16Z</time>
      </trkpt>
      <trkpt lat="47.16427" lon="5.85042">
        <ele>233</ele>
        <time>2021-06-16T10:53:17Z</time>
      </trkpt>
      <trkpt lat="47.1643" lon="5.85036">
        <ele>232.8</ele>
        <time>2021-06-16T10:53:18Z</time>
      </trkpt>
      <trkpt lat="47.16434" lon="5.85031">
        <ele>232.8</ele>
        <time>2021-06-16T10:53:19Z</time>
      </trkpt>
      <trkpt lat="47.16437" lon="5.85025">
        <ele>232.8</ele>
        <time>2021-06-16T10:53:20Z</time>
      </trkpt>
      <trkpt lat="47.16441" lon="5.85019">
        <ele>232.8</ele>
        <time>2021-06-16T10:53:21Z</time>
      </trkpt>
      <trkpt lat="47.16454" lon="5.84994">
        <ele>232.6</ele>
        <time>2021-06-16T10:53:25Z</time>
      </trkpt>
      <trkpt lat="47.16465" lon="5.84975">
        <ele>232.6</ele>
        <time>2021-06-16T10:53:28Z</time>
      </trkpt>
      <trkpt lat="47.16497" lon="5.8491">
        <ele>232.4</ele>
        <time>2021-06-16T10:53:38Z</time>
      </trkpt>
      <trkpt lat="47.165" lon="5.84904">
        <ele>232.4</ele>
        <time>2021-06-16T10:53:39Z</time>
      </trkpt>
      <trkpt lat="47.16526" lon="5.84843">
        <ele>232.6</ele>
        <time>2021-06-16T10:53:48Z</time>
      </trkpt>
      <trkpt lat="47.16551" lon="5.8477">
        <ele>232.2</ele>
        <time>2021-06-16T10:53:58Z</time>
      </trkpt>
      <trkpt lat="47.16559" lon="5.84747">
        <ele>232</ele>
        <time>2021-06-16T10:54:01Z</time>
      </trkpt>
      <trkpt lat="47.16578" lon="5.84669">
        <ele>232</ele>
        <time>2021-06-16T10:54:11Z</time>
      </trkpt>
      <trkpt lat="47.16587" lon="5.84632">
        <ele>232</ele>
        <time>2021-06-16T10:54:16Z</time>
      </trkpt>
      <trkpt lat="47.16588" lon="5.84625">
        <ele>232</ele>
        <time>2021-06-16T10:54:17Z</time>
      </trkpt>
      <trkpt lat="47.1659" lon="5.84617">
        <ele>232</ele>
        <time>2021-06-16T10:54:18Z</time>
      </trkpt>
      <trkpt lat="47.16591" lon="5.84609">
        <ele>232</ele>
        <time>2021-06-16T10:54:19Z</time>
      </trkpt>
      <trkpt lat="47.16597" lon="5.84577">
        <ele>232</ele>
        <time>2021-06-16T10:54:23Z</time>
      </trkpt>
      <trkpt lat="47.16604" lon="5.84537">
        <ele>232</ele>
        <time>2021-06-16T10:54:28Z</time>
      </trkpt>
      <trkpt lat="47.16619" lon="5.84466">
        <ele>231.8</ele>
        <time>2021-06-16T10:54:37Z</time>
      </trkpt>
      <trkpt lat="47.16621" lon="5.84457">
        <ele>231.8</ele>
        <time>2021-06-16T10:54:38Z</time>
      </trkpt>
      <trkpt lat="47.16626" lon="5.84426">
        <ele>231.8</ele>
        <time>2021-06-16T10:54:42Z</time>
      </trkpt>
      <trkpt lat="47.16627" lon="5.84417">
        <ele>231.8</ele>
        <time>2021-06-16T10:54:43Z</time>
      </trkpt>
      <trkpt lat="47.16628" lon="5.84409">
        <ele>231.8</ele>
        <time>2021-06-16T10:54:44Z</time>
      </trkpt>
      <trkpt lat="47.16629" lon="5.84402">
        <ele>231.8</ele>
        <time>2021-06-16T10:54:45Z</time>
      </trkpt>
      <trkpt lat="47.16643" lon="5.84323">
        <ele>231.8</ele>
        <time>2021-06-16T10:54:55Z</time>
      </trkpt>
      <trkpt lat="47.1665" lon="5.84276">
        <ele>231.8</ele>
        <time>2021-06-16T10:55:01Z</time>
      </trkpt>
      <trkpt lat="47.16651" lon="5.84268">
        <ele>232</ele>
        <time>2021-06-16T10:55:02Z</time>
      </trkpt>
      <trkpt lat="47.16652" lon="5.84261">
        <ele>232</ele>
        <time>2021-06-16T10:55:03Z</time>
      </trkpt>
      <trkpt lat="47.16652" lon="5.84253">
        <ele>232</ele>
        <time>2021-06-16T10:55:04Z</time>
      </trkpt>
      <trkpt lat="47.16653" lon="5.84246">
        <ele>232</ele>
        <time>2021-06-16T10:55:05Z</time>
      </trkpt>
      <trkpt lat="47.16654" lon="5.84238">
        <ele>232</ele>
        <time>2021-06-16T10:55:06Z</time>
      </trkpt>
      <trkpt lat="47.16655" lon="5.84231">
        <ele>232</ele>
        <time>2021-06-16T10:55:07Z</time>
      </trkpt>
      <trkpt lat="47.16658" lon="5.84216">
        <ele>232</ele>
        <time>2021-06-16T10:55:09Z</time>
      </trkpt>
      <trkpt lat="47.1666" lon="5.84209">
        <ele>232</ele>
        <time>2021-06-16T10:55:10Z</time>
      </trkpt>
      <trkpt lat="47.16668" lon="5.84181">
        <ele>232.2</ele>
        <time>2021-06-16T10:55:14Z</time>
      </trkpt>
      <trkpt lat="47.16676" lon="5.84141">
        <ele>232.4</ele>
        <time>2021-06-16T10:55:20Z</time>
      </trkpt>
      <trkpt lat="47.16677" lon="5.84135">
        <ele>232.4</ele>
        <time>2021-06-16T10:55:21Z</time>
      </trkpt>
      <trkpt lat="47.16678" lon="5.84129">
        <ele>232.4</ele>
        <time>2021-06-16T10:55:22Z</time>
      </trkpt>
      <trkpt lat="47.16679" lon="5.84122">
        <ele>232.4</ele>
        <time>2021-06-16T10:55:23Z</time>
      </trkpt>
      <trkpt lat="47.1668" lon="5.84115">
        <ele>232.4</ele>
        <time>2021-06-16T10:55:24Z</time>
      </trkpt>
      <trkpt lat="47.16681" lon="5.84107">
        <ele>232.4</ele>
        <time>2021-06-16T10:55:25Z</time>
      </trkpt>
      <trkpt lat="47.16685" lon="5.84086">
        <ele>232.4</ele>
        <time>2021-06-16T10:55:28Z</time>
      </trkpt>
      <trkpt lat="47.16695" lon="5.84022">
        <ele>232.4</ele>
        <time>2021-06-16T10:55:36Z</time>
      </trkpt>
      <trkpt lat="47.16703" lon="5.83976">
        <ele>232</ele>
        <time>2021-06-16T10:55:42Z</time>
      </trkpt>
      <trkpt lat="47.16704" lon="5.83968">
        <ele>232</ele>
        <time>2021-06-16T10:55:43Z</time>
      </trkpt>
      <trkpt lat="47.16706" lon="5.8396">
        <ele>232</ele>
        <time>2021-06-16T10:55:44Z</time>
      </trkpt>
      <trkpt lat="47.1672" lon="5.83881">
        <ele>231.8</ele>
        <time>2021-06-16T10:55:54Z</time>
      </trkpt>
      <trkpt lat="47.16721" lon="5.83873">
        <ele>231.8</ele>
        <time>2021-06-16T10:55:55Z</time>
      </trkpt>
      <trkpt lat="47.16732" lon="5.83793">
        <ele>231.4</ele>
        <time>2021-06-16T10:56:05Z</time>
      </trkpt>
      <trkpt lat="47.16739" lon="5.83726">
        <ele>231.4</ele>
        <time>2021-06-16T10:56:13Z</time>
      </trkpt>
      <trkpt lat="47.1674" lon="5.83702">
        <ele>231.4</ele>
        <time>2021-06-16T10:56:16Z</time>
      </trkpt>
      <trkpt lat="47.1674" lon="5.83695">
        <ele>231.4</ele>
        <time>2021-06-16T10:56:17Z</time>
      </trkpt>
      <trkpt lat="47.1674" lon="5.83689">
        <ele>231.4</ele>
        <time>2021-06-16T10:56:18Z</time>
      </trkpt>
      <trkpt lat="47.16741" lon="5.83683">
        <ele>231.4</ele>
        <time>2021-06-16T10:56:19Z</time>
      </trkpt>
      <trkpt lat="47.16742" lon="5.83678">
        <ele>231.4</ele>
        <time>2021-06-16T10:56:20Z</time>
      </trkpt>
      <trkpt lat="47.16743" lon="5.83675">
        <ele>231.4</ele>
        <time>2021-06-16T10:56:21Z</time>
      </trkpt>
      <trkpt lat="47.16744" lon="5.83671">
        <ele>231.6</ele>
        <time>2021-06-16T10:56:22Z</time>
      </trkpt>
      <trkpt lat="47.16745" lon="5.83668">
        <ele>231.6</ele>
        <time>2021-06-16T10:56:23Z</time>
      </trkpt>
      <trkpt lat="47.16745" lon="5.83664">
        <ele>231.6</ele>
        <time>2021-06-16T10:56:24Z</time>
      </trkpt>
      <trkpt lat="47.16745" lon="5.83659">
        <ele>231.6</ele>
        <time>2021-06-16T10:56:26Z</time>
      </trkpt>
      <trkpt lat="47.16746" lon="5.83657">
        <ele>231.8</ele>
        <time>2021-06-16T10:56:27Z</time>
      </trkpt>
      <trkpt lat="47.16747" lon="5.83656">
        <ele>231.8</ele>
        <time>2021-06-16T10:56:28Z</time>
      </trkpt>
      <trkpt lat="47.16748" lon="5.83656">
        <ele>231.8</ele>
        <time>2021-06-16T10:56:29Z</time>
      </trkpt>
      <trkpt lat="47.1675" lon="5.83655">
        <ele>232</ele>
        <time>2021-06-16T10:56:30Z</time>
      </trkpt>
      <trkpt lat="47.16753" lon="5.83653">
        <ele>232</ele>
        <time>2021-06-16T10:56:31Z</time>
      </trkpt>
      <trkpt lat="47.16755" lon="5.8365">
        <ele>232</ele>
        <time>2021-06-16T10:56:32Z</time>
      </trkpt>
      <trkpt lat="47.16757" lon="5.83647">
        <ele>231.8</ele>
        <time>2021-06-16T10:56:33Z</time>
      </trkpt>
      <trkpt lat="47.16758" lon="5.83642">
        <ele>231.8</ele>
        <time>2021-06-16T10:56:34Z</time>
      </trkpt>
      <trkpt lat="47.1676" lon="5.83637">
        <ele>231.8</ele>
        <time>2021-06-16T10:56:35Z</time>
      </trkpt>
      <trkpt lat="47.16762" lon="5.83632">
        <ele>231.8</ele>
        <time>2021-06-16T10:56:36Z</time>
      </trkpt>
      <trkpt lat="47.16771" lon="5.83615">
        <ele>231.6</ele>
        <time>2021-06-16T10:56:40Z</time>
      </trkpt>
      <trkpt lat="47.1678" lon="5.83585">
        <ele>231.6</ele>
        <time>2021-06-16T10:56:46Z</time>
      </trkpt>
      <trkpt lat="47.16783" lon="5.83577">
        <ele>231.6</ele>
        <time>2021-06-16T10:56:48Z</time>
      </trkpt>
      <trkpt lat="47.16786" lon="5.83576">
        <ele>231.8</ele>
        <time>2021-06-16T10:56:49Z</time>
      </trkpt>
      <trkpt lat="47.16788" lon="5.83577">
        <ele>231.8</ele>
        <time>2021-06-16T10:56:50Z</time>
      </trkpt>
      <trkpt lat="47.1679" lon="5.83578">
        <ele>231.8</ele>
        <time>2021-06-16T10:56:51Z</time>
      </trkpt>
      <trkpt lat="47.16791" lon="5.8358">
        <ele>231.8</ele>
        <time>2021-06-16T10:56:52Z</time>
      </trkpt>
      <trkpt lat="47.16793" lon="5.83581">
        <ele>232</ele>
        <time>2021-06-16T10:56:53Z</time>
      </trkpt>
      <trkpt lat="47.16794" lon="5.83582">
        <ele>232.2</ele>
        <time>2021-06-16T10:56:54Z</time>
      </trkpt>
      <trkpt lat="47.16796" lon="5.83586">
        <ele>233</ele>
        <time>2021-06-16T10:56:57Z</time>
      </trkpt>
      <trkpt lat="47.16797" lon="5.83587">
        <ele>233.2</ele>
        <time>2021-06-16T10:56:58Z</time>
      </trkpt>
      <trkpt lat="47.16797" lon="5.83589">
        <ele>233.4</ele>
        <time>2021-06-16T10:56:59Z</time>
      </trkpt>
      <trkpt lat="47.16798" lon="5.8359">
        <ele>233.8</ele>
        <time>2021-06-16T10:57:00Z</time>
      </trkpt>
      <trkpt lat="47.16799" lon="5.83592">
        <ele>234.4</ele>
        <time>2021-06-16T10:57:01Z</time>
      </trkpt>
      <trkpt lat="47.168" lon="5.83593">
        <ele>234.6</ele>
        <time>2021-06-16T10:57:02Z</time>
      </trkpt>
      <trkpt lat="47.16801" lon="5.83595">
        <ele>235.2</ele>
        <time>2021-06-16T10:57:03Z</time>
      </trkpt>
      <trkpt lat="47.16803" lon="5.83596">
        <ele>235.4</ele>
        <time>2021-06-16T10:57:04Z</time>
      </trkpt>
      <trkpt lat="47.16804" lon="5.83598">
        <ele>235.8</ele>
        <time>2021-06-16T10:57:05Z</time>
      </trkpt>
      <trkpt lat="47.16806" lon="5.83599">
        <ele>236</ele>
        <time>2021-06-16T10:57:06Z</time>
      </trkpt>
      <trkpt lat="47.16806" lon="5.83601">
        <ele>236.4</ele>
        <time>2021-06-16T10:57:07Z</time>
      </trkpt>
      <trkpt lat="47.16807" lon="5.83603">
        <ele>236.6</ele>
        <time>2021-06-16T10:57:08Z</time>
      </trkpt>
      <trkpt lat="47.16808" lon="5.83604">
        <ele>236.8</ele>
        <time>2021-06-16T10:57:09Z</time>
      </trkpt>
      <trkpt lat="47.1681" lon="5.83606">
        <ele>237</ele>
        <time>2021-06-16T10:57:10Z</time>
      </trkpt>
      <trkpt lat="47.1681" lon="5.83608">
        <ele>237.2</ele>
        <time>2021-06-16T10:57:11Z</time>
      </trkpt>
      <trkpt lat="47.16811" lon="5.83609">
        <ele>237.8</ele>
        <time>2021-06-16T10:57:12Z</time>
      </trkpt>
      <trkpt lat="47.16812" lon="5.8361">
        <ele>238</ele>
        <time>2021-06-16T10:57:13Z</time>
      </trkpt>
      <trkpt lat="47.16813" lon="5.83611">
        <ele>238.2</ele>
        <time>2021-06-16T10:57:14Z</time>
      </trkpt>
      <trkpt lat="47.16815" lon="5.83613">
        <ele>238.4</ele>
        <time>2021-06-16T10:57:15Z</time>
      </trkpt>
      <trkpt lat="47.16817" lon="5.83615">
        <ele>238.4</ele>
        <time>2021-06-16T10:57:16Z</time>
      </trkpt>
      <trkpt lat="47.16818" lon="5.83617">
        <ele>238.6</ele>
        <time>2021-06-16T10:57:17Z</time>
      </trkpt>
      <trkpt lat="47.1682" lon="5.8362">
        <ele>238.8</ele>
        <time>2021-06-16T10:57:18Z</time>
      </trkpt>
      <trkpt lat="47.16822" lon="5.83622">
        <ele>239</ele>
        <time>2021-06-16T10:57:19Z</time>
      </trkpt>
      <trkpt lat="47.16824" lon="5.83623">
        <ele>239.2</ele>
        <time>2021-06-16T10:57:20Z</time>
      </trkpt>
      <trkpt lat="47.16826" lon="5.83624">
        <ele>239.2</ele>
        <time>2021-06-16T10:57:21Z</time>
      </trkpt>
      <trkpt lat="47.16828" lon="5.83626">
        <ele>239.6</ele>
        <time>2021-06-16T10:57:22Z</time>
      </trkpt>
      <trkpt lat="47.16829" lon="5.83627">
        <ele>240</ele>
        <time>2021-06-16T10:57:23Z</time>
      </trkpt>
      <trkpt lat="47.16831" lon="5.83628">
        <ele>240.6</ele>
        <time>2021-06-16T10:57:24Z</time>
      </trkpt>
      <trkpt lat="47.16833" lon="5.83629">
        <ele>241</ele>
        <time>2021-06-16T10:57:25Z</time>
      </trkpt>
      <trkpt lat="47.16834" lon="5.83631">
        <ele>241.2</ele>
        <time>2021-06-16T10:57:26Z</time>
      </trkpt>
      <trkpt lat="47.16835" lon="5.83631">
        <ele>241.8</ele>
        <time>2021-06-16T10:57:27Z</time>
      </trkpt>
      <trkpt lat="47.16836" lon="5.83632">
        <ele>242</ele>
        <time>2021-06-16T10:57:28Z</time>
      </trkpt>
      <trkpt lat="47.16836" lon="5.83633">
        <ele>242.2</ele>
        <time>2021-06-16T10:57:29Z</time>
      </trkpt>
      <trkpt lat="47.16837" lon="5.83632">
        <ele>242.4</ele>
        <time>2021-06-16T10:57:30Z</time>
      </trkpt>
      <trkpt lat="47.16838" lon="5.83632">
        <ele>242.8</ele>
        <time>2021-06-16T10:57:32Z</time>
      </trkpt>
      <trkpt lat="47.16841" lon="5.83634">
        <ele>242.8</ele>
        <time>2021-06-16T10:57:33Z</time>
      </trkpt>
      <trkpt lat="47.16843" lon="5.83636">
        <ele>243</ele>
        <time>2021-06-16T10:57:34Z</time>
      </trkpt>
      <trkpt lat="47.16844" lon="5.83637">
        <ele>243.2</ele>
        <time>2021-06-16T10:57:35Z</time>
      </trkpt>
      <trkpt lat="47.16845" lon="5.83638">
        <ele>243.6</ele>
        <time>2021-06-16T10:57:36Z</time>
      </trkpt>
      <trkpt lat="47.16847" lon="5.83638">
        <ele>244</ele>
        <time>2021-06-16T10:57:37Z</time>
      </trkpt>
      <trkpt lat="47.16849" lon="5.83639">
        <ele>244.2</ele>
        <time>2021-06-16T10:57:38Z</time>
      </trkpt>
      <trkpt lat="47.16851" lon="5.83642">
        <ele>244.4</ele>
        <time>2021-06-16T10:57:39Z</time>
      </trkpt>
      <trkpt lat="47.16853" lon="5.83643">
        <ele>244.6</ele>
        <time>2021-06-16T10:57:40Z</time>
      </trkpt>
      <trkpt lat="47.16853" lon="5.83643">
        <ele>244.8</ele>
        <time>2021-06-16T10:57:41Z</time>
      </trkpt>
      <trkpt lat="47.16854" lon="5.83642">
        <ele>245.2</ele>
        <time>2021-06-16T10:57:42Z</time>
      </trkpt>
      <trkpt lat="47.16855" lon="5.83643">
        <ele>245.4</ele>
        <time>2021-06-16T10:57:43Z</time>
      </trkpt>
      <trkpt lat="47.16856" lon="5.83643">
        <ele>245.6</ele>
        <time>2021-06-16T10:57:44Z</time>
      </trkpt>
      <trkpt lat="47.16858" lon="5.83644">
        <ele>245.8</ele>
        <time>2021-06-16T10:57:45Z</time>
      </trkpt>
      <trkpt lat="47.1686" lon="5.83645">
        <ele>246.2</ele>
        <time>2021-06-16T10:57:46Z</time>
      </trkpt>
      <trkpt lat="47.16861" lon="5.83645">
        <ele>246.2</ele>
        <time>2021-06-16T10:57:47Z</time>
      </trkpt>
      <trkpt lat="47.16862" lon="5.83645">
        <ele>246.8</ele>
        <time>2021-06-16T10:57:48Z</time>
      </trkpt>
      <trkpt lat="47.16863" lon="5.83645">
        <ele>247</ele>
        <time>2021-06-16T10:57:49Z</time>
      </trkpt>
      <trkpt lat="47.16865" lon="5.83646">
        <ele>247.2</ele>
        <time>2021-06-16T10:57:50Z</time>
      </trkpt>
      <trkpt lat="47.16867" lon="5.83646">
        <ele>247.4</ele>
        <time>2021-06-16T10:57:51Z</time>
      </trkpt>
      <trkpt lat="47.16868" lon="5.83646">
        <ele>247.4</ele>
        <time>2021-06-16T10:57:52Z</time>
      </trkpt>
      <trkpt lat="47.16868" lon="5.83646">
        <ele>247.6</ele>
        <time>2021-06-16T10:57:53Z</time>
      </trkpt>
      <trkpt lat="47.16869" lon="5.83645">
        <ele>248</ele>
        <time>2021-06-16T10:57:54Z</time>
      </trkpt>
      <trkpt lat="47.1687" lon="5.83645">
        <ele>248.2</ele>
        <time>2021-06-16T10:57:55Z</time>
      </trkpt>
      <trkpt lat="47.16871" lon="5.83645">
        <ele>248.6</ele>
        <time>2021-06-16T10:57:56Z</time>
      </trkpt>
      <trkpt lat="47.16872" lon="5.83645">
        <ele>248.8</ele>
        <time>2021-06-16T10:57:57Z</time>
      </trkpt>
      <trkpt lat="47.16874" lon="5.83645">
        <ele>249.2</ele>
        <time>2021-06-16T10:57:58Z</time>
      </trkpt>
      <trkpt lat="47.16875" lon="5.83646">
        <ele>249.4</ele>
        <time>2021-06-16T10:57:59Z</time>
      </trkpt>
      <trkpt lat="47.16877" lon="5.83646">
        <ele>249.6</ele>
        <time>2021-06-16T10:58:00Z</time>
      </trkpt>
      <trkpt lat="47.16878" lon="5.83646">
        <ele>249.8</ele>
        <time>2021-06-16T10:58:01Z</time>
      </trkpt>
      <trkpt lat="47.1688" lon="5.83646">
        <ele>250</ele>
        <time>2021-06-16T10:58:02Z</time>
      </trkpt>
      <trkpt lat="47.16881" lon="5.83646">
        <ele>250</ele>
        <time>2021-06-16T10:58:03Z</time>
      </trkpt>
      <trkpt lat="47.16882" lon="5.83645">
        <ele>250.4</ele>
        <time>2021-06-16T10:58:04Z</time>
      </trkpt>
      <trkpt lat="47.16884" lon="5.83644">
        <ele>250.8</ele>
        <time>2021-06-16T10:58:05Z</time>
      </trkpt>
      <trkpt lat="47.16885" lon="5.83643">
        <ele>251.2</ele>
        <time>2021-06-16T10:58:06Z</time>
      </trkpt>
      <trkpt lat="47.16885" lon="5.83642">
        <ele>251.4</ele>
        <time>2021-06-16T10:58:07Z</time>
      </trkpt>
      <trkpt lat="47.16885" lon="5.8364">
        <ele>251.8</ele>
        <time>2021-06-16T10:58:08Z</time>
      </trkpt>
      <trkpt lat="47.16885" lon="5.83638">
        <ele>251.8</ele>
        <time>2021-06-16T10:58:09Z</time>
      </trkpt>
      <trkpt lat="47.16885" lon="5.83637">
        <ele>252</ele>
        <time>2021-06-16T10:58:10Z</time>
      </trkpt>
      <trkpt lat="47.16885" lon="5.83635">
        <ele>252.2</ele>
        <time>2021-06-16T10:58:11Z</time>
      </trkpt>
      <trkpt lat="47.16884" lon="5.83633">
        <ele>252.2</ele>
        <time>2021-06-16T10:58:12Z</time>
      </trkpt>
      <trkpt lat="47.16884" lon="5.83632">
        <ele>252.4</ele>
        <time>2021-06-16T10:58:13Z</time>
      </trkpt>
      <trkpt lat="47.16885" lon="5.83631">
        <ele>252.4</ele>
        <time>2021-06-16T10:58:14Z</time>
      </trkpt>
      <trkpt lat="47.16885" lon="5.83629">
        <ele>252.4</ele>
        <time>2021-06-16T10:58:15Z</time>
      </trkpt>
      <trkpt lat="47.16885" lon="5.83627">
        <ele>252.6</ele>
        <time>2021-06-16T10:58:16Z</time>
      </trkpt>
      <trkpt lat="47.16886" lon="5.83626">
        <ele>252.6</ele>
        <time>2021-06-16T10:58:17Z</time>
      </trkpt>
      <trkpt lat="47.16886" lon="5.83624">
        <ele>252.8</ele>
        <time>2021-06-16T10:58:18Z</time>
      </trkpt>
      <trkpt lat="47.16886" lon="5.83622">
        <ele>252.8</ele>
        <time>2021-06-16T10:58:19Z</time>
      </trkpt>
      <trkpt lat="47.16887" lon="5.83621">
        <ele>252.8</ele>
        <time>2021-06-16T10:58:20Z</time>
      </trkpt>
      <trkpt lat="47.16888" lon="5.83619">
        <ele>253</ele>
        <time>2021-06-16T10:58:21Z</time>
      </trkpt>
      <trkpt lat="47.16889" lon="5.83617">
        <ele>253.2</ele>
        <time>2021-06-16T10:58:22Z</time>
      </trkpt>
      <trkpt lat="47.16889" lon="5.83615">
        <ele>253.4</ele>
        <time>2021-06-16T10:58:23Z</time>
      </trkpt>
      <trkpt lat="47.1689" lon="5.83614">
        <ele>253.8</ele>
        <time>2021-06-16T10:58:24Z</time>
      </trkpt>
      <trkpt lat="47.16891" lon="5.83613">
        <ele>254.2</ele>
        <time>2021-06-16T10:58:25Z</time>
      </trkpt>
      <trkpt lat="47.16892" lon="5.83611">
        <ele>254.2</ele>
        <time>2021-06-16T10:58:26Z</time>
      </trkpt>
      <trkpt lat="47.16892" lon="5.8361">
        <ele>254.6</ele>
        <time>2021-06-16T10:58:27Z</time>
      </trkpt>
      <trkpt lat="47.16893" lon="5.83609">
        <ele>254.8</ele>
        <time>2021-06-16T10:58:28Z</time>
      </trkpt>
      <trkpt lat="47.16894" lon="5.83608">
        <ele>255</ele>
        <time>2021-06-16T10:58:29Z</time>
      </trkpt>
      <trkpt lat="47.16895" lon="5.83607">
        <ele>255.2</ele>
        <time>2021-06-16T10:58:30Z</time>
      </trkpt>
      <trkpt lat="47.16895" lon="5.83606">
        <ele>255.2</ele>
        <time>2021-06-16T10:58:31Z</time>
      </trkpt>
      <trkpt lat="47.16895" lon="5.83604">
        <ele>255.6</ele>
        <time>2021-06-16T10:58:32Z</time>
      </trkpt>
      <trkpt lat="47.16896" lon="5.83601">
        <ele>255.8</ele>
        <time>2021-06-16T10:58:33Z</time>
      </trkpt>
      <trkpt lat="47.16898" lon="5.83601">
        <ele>256.2</ele>
        <time>2021-06-16T10:58:34Z</time>
      </trkpt>
      <trkpt lat="47.16899" lon="5.836">
        <ele>256.2</ele>
        <time>2021-06-16T10:58:35Z</time>
      </trkpt>
      <trkpt lat="47.169" lon="5.83598">
        <ele>256.4</ele>
        <time>2021-06-16T10:58:36Z</time>
      </trkpt>
      <trkpt lat="47.169" lon="5.83596">
        <ele>256.6</ele>
        <time>2021-06-16T10:58:37Z</time>
      </trkpt>
      <trkpt lat="47.16901" lon="5.83594">
        <ele>256.8</ele>
        <time>2021-06-16T10:58:38Z</time>
      </trkpt>
      <trkpt lat="47.16902" lon="5.83592">
        <ele>256.8</ele>
        <time>2021-06-16T10:58:39Z</time>
      </trkpt>
      <trkpt lat="47.16903" lon="5.83589">
        <ele>256.8</ele>
        <time>2021-06-16T10:58:40Z</time>
      </trkpt>
      <trkpt lat="47.16903" lon="5.83587">
        <ele>257</ele>
        <time>2021-06-16T10:58:41Z</time>
      </trkpt>
      <trkpt lat="47.16904" lon="5.83584">
        <ele>257.2</ele>
        <time>2021-06-16T10:58:42Z</time>
      </trkpt>
      <trkpt lat="47.16904" lon="5.83584">
        <ele>257.2</ele>
        <time>2021-06-16T10:58:43Z</time>
      </trkpt>
      <trkpt lat="47.16906" lon="5.83583">
        <ele>257.4</ele>
        <time>2021-06-16T10:58:44Z</time>
      </trkpt>
      <trkpt lat="47.16907" lon="5.83582">
        <ele>257.6</ele>
        <time>2021-06-16T10:58:45Z</time>
      </trkpt>
      <trkpt lat="47.16909" lon="5.83581">
        <ele>257.6</ele>
        <time>2021-06-16T10:58:46Z</time>
      </trkpt>
      <trkpt lat="47.16909" lon="5.8358">
        <ele>257.6</ele>
        <time>2021-06-16T10:58:47Z</time>
      </trkpt>
      <trkpt lat="47.16909" lon="5.83579">
        <ele>257.8</ele>
        <time>2021-06-16T10:58:48Z</time>
      </trkpt>
      <trkpt lat="47.16909" lon="5.83579">
        <ele>258</ele>
        <time>2021-06-16T10:58:49Z</time>
      </trkpt>
      <trkpt lat="47.1691" lon="5.83577">
        <ele>258</ele>
        <time>2021-06-16T10:58:50Z</time>
      </trkpt>
      <trkpt lat="47.1691" lon="5.83576">
        <ele>258.2</ele>
        <time>2021-06-16T10:58:51Z</time>
      </trkpt>
      <trkpt lat="47.16911" lon="5.83574">
        <ele>258.2</ele>
        <time>2021-06-16T10:58:52Z</time>
      </trkpt>
      <trkpt lat="47.16911" lon="5.83573">
        <ele>258.4</ele>
        <time>2021-06-16T10:58:53Z</time>
      </trkpt>
      <trkpt lat="47.16912" lon="5.83572">
        <ele>258.4</ele>
        <time>2021-06-16T10:58:54Z</time>
      </trkpt>
      <trkpt lat="47.16912" lon="5.8357">
        <ele>258.4</ele>
        <time>2021-06-16T10:58:55Z</time>
      </trkpt>
      <trkpt lat="47.16913" lon="5.83568">
        <ele>258.6</ele>
        <time>2021-06-16T10:58:56Z</time>
      </trkpt>
      <trkpt lat="47.16914" lon="5.83566">
        <ele>258.8</ele>
        <time>2021-06-16T10:58:57Z</time>
      </trkpt>
      <trkpt lat="47.16915" lon="5.83565">
        <ele>258.8</ele>
        <time>2021-06-16T10:58:58Z</time>
      </trkpt>
      <trkpt lat="47.16915" lon="5.83562">
        <ele>259</ele>
        <time>2021-06-16T10:58:59Z</time>
      </trkpt>
      <trkpt lat="47.16916" lon="5.8356">
        <ele>259</ele>
        <time>2021-06-16T10:59:00Z</time>
      </trkpt>
      <trkpt lat="47.16917" lon="5.83557">
        <ele>259.2</ele>
        <time>2021-06-16T10:59:01Z</time>
      </trkpt>
      <trkpt lat="47.16918" lon="5.83555">
        <ele>259.2</ele>
        <time>2021-06-16T10:59:02Z</time>
      </trkpt>
      <trkpt lat="47.1692" lon="5.83553">
        <ele>259.2</ele>
        <time>2021-06-16T10:59:03Z</time>
      </trkpt>
      <trkpt lat="47.1692" lon="5.83551">
        <ele>259.4</ele>
        <time>2021-06-16T10:59:04Z</time>
      </trkpt>
      <trkpt lat="47.1692" lon="5.83551">
        <ele>259.4</ele>
        <time>2021-06-16T10:59:05Z</time>
      </trkpt>
      <trkpt lat="47.1692" lon="5.8355">
        <ele>259.8</ele>
        <time>2021-06-16T10:59:06Z</time>
      </trkpt>
      <trkpt lat="47.16921" lon="5.83548">
        <ele>259.8</ele>
        <time>2021-06-16T10:59:07Z</time>
      </trkpt>
      <trkpt lat="47.16921" lon="5.83546">
        <ele>260</ele>
        <time>2021-06-16T10:59:08Z</time>
      </trkpt>
      <trkpt lat="47.16922" lon="5.83544">
        <ele>260.2</ele>
        <time>2021-06-16T10:59:09Z</time>
      </trkpt>
      <trkpt lat="47.16923" lon="5.83544">
        <ele>260.4</ele>
        <time>2021-06-16T10:59:10Z</time>
      </trkpt>
      <trkpt lat="47.16923" lon="5.83544">
        <ele>260.8</ele>
        <time>2021-06-16T10:59:16Z</time>
      </trkpt>
      <trkpt lat="47.16923" lon="5.83544">
        <ele>260.6</ele>
        <time>2021-06-16T10:59:29Z</time>
      </trkpt>
      <trkpt lat="47.16923" lon="5.83544">
        <ele>261</ele>
        <time>2021-06-16T10:59:49Z</time>
      </trkpt>
      <trkpt lat="47.16923" lon="5.83544">
        <ele>260.6</ele>
        <time>2021-06-16T11:00:05Z</time>
      </trkpt>
      <trkpt lat="47.16923" lon="5.83543">
        <ele>260.2</ele>
        <time>2021-06-16T11:01:45Z</time>
      </trkpt>
      <trkpt lat="47.16924" lon="5.83541">
        <ele>260</ele>
        <time>2021-06-16T11:01:46Z</time>
      </trkpt>
      <trkpt lat="47.16926" lon="5.83536">
        <ele>260</ele>
        <time>2021-06-16T11:01:48Z</time>
      </trkpt>
      <trkpt lat="47.16928" lon="5.83526">
        <ele>260</ele>
        <time>2021-06-16T11:01:51Z</time>
      </trkpt>
      <trkpt lat="47.16934" lon="5.83513">
        <ele>260</ele>
        <time>2021-06-16T11:01:55Z</time>
      </trkpt>
      <trkpt lat="47.1694" lon="5.83496">
        <ele>260.2</ele>
        <time>2021-06-16T11:01:59Z</time>
      </trkpt>
      <trkpt lat="47.16941" lon="5.83492">
        <ele>260.2</ele>
        <time>2021-06-16T11:02:00Z</time>
      </trkpt>
      <trkpt lat="47.16942" lon="5.83487">
        <ele>260.2</ele>
        <time>2021-06-16T11:02:01Z</time>
      </trkpt>
      <trkpt lat="47.16943" lon="5.83481">
        <ele>260.4</ele>
        <time>2021-06-16T11:02:02Z</time>
      </trkpt>
      <trkpt lat="47.16955" lon="5.83449">
        <ele>260.6</ele>
        <time>2021-06-16T11:02:08Z</time>
      </trkpt>
      <trkpt lat="47.16956" lon="5.83445">
        <ele>260.6</ele>
        <time>2021-06-16T11:02:09Z</time>
      </trkpt>
      <trkpt lat="47.16958" lon="5.83441">
        <ele>261</ele>
        <time>2021-06-16T11:02:10Z</time>
      </trkpt>
      <trkpt lat="47.1696" lon="5.83433">
        <ele>261</ele>
        <time>2021-06-16T11:02:11Z</time>
      </trkpt>
      <trkpt lat="47.1696" lon="5.8343">
        <ele>261.2</ele>
        <time>2021-06-16T11:02:12Z</time>
      </trkpt>
      <trkpt lat="47.16962" lon="5.83427">
        <ele>261.4</ele>
        <time>2021-06-16T11:02:13Z</time>
      </trkpt>
      <trkpt lat="47.16965" lon="5.83423">
        <ele>261.4</ele>
        <time>2021-06-16T11:02:14Z</time>
      </trkpt>
      <trkpt lat="47.16965" lon="5.83423">
        <ele>261.6</ele>
        <time>2021-06-16T11:02:15Z</time>
      </trkpt>
      <trkpt lat="47.16969" lon="5.83414">
        <ele>261.8</ele>
        <time>2021-06-16T11:02:16Z</time>
      </trkpt>
      <trkpt lat="47.1697" lon="5.83412">
        <ele>262</ele>
        <time>2021-06-16T11:02:17Z</time>
      </trkpt>
      <trkpt lat="47.16971" lon="5.83407">
        <ele>262.2</ele>
        <time>2021-06-16T11:02:18Z</time>
      </trkpt>
      <trkpt lat="47.16973" lon="5.83402">
        <ele>262.2</ele>
        <time>2021-06-16T11:02:19Z</time>
      </trkpt>
      <trkpt lat="47.16975" lon="5.83398">
        <ele>262.4</ele>
        <time>2021-06-16T11:02:20Z</time>
      </trkpt>
      <trkpt lat="47.16975" lon="5.83395">
        <ele>262.6</ele>
        <time>2021-06-16T11:02:21Z</time>
      </trkpt>
      <trkpt lat="47.16976" lon="5.83393">
        <ele>263</ele>
        <time>2021-06-16T11:02:22Z</time>
      </trkpt>
      <trkpt lat="47.16978" lon="5.83391">
        <ele>263</ele>
        <time>2021-06-16T11:02:23Z</time>
      </trkpt>
      <trkpt lat="47.1698" lon="5.83387">
        <ele>263.2</ele>
        <time>2021-06-16T11:02:24Z</time>
      </trkpt>
      <trkpt lat="47.16981" lon="5.83386">
        <ele>263.4</ele>
        <time>2021-06-16T11:02:25Z</time>
      </trkpt>
      <trkpt lat="47.16982" lon="5.83383">
        <ele>263.8</ele>
        <time>2021-06-16T11:02:26Z</time>
      </trkpt>
      <trkpt lat="47.16983" lon="5.83381">
        <ele>264</ele>
        <time>2021-06-16T11:02:27Z</time>
      </trkpt>
      <trkpt lat="47.16984" lon="5.83379">
        <ele>264.4</ele>
        <time>2021-06-16T11:02:28Z</time>
      </trkpt>
      <trkpt lat="47.16985" lon="5.83376">
        <ele>264.4</ele>
        <time>2021-06-16T11:02:29Z</time>
      </trkpt>
      <trkpt lat="47.16986" lon="5.83373">
        <ele>264.6</ele>
        <time>2021-06-16T11:02:30Z</time>
      </trkpt>
      <trkpt lat="47.16987" lon="5.8337">
        <ele>264.6</ele>
        <time>2021-06-16T11:02:31Z</time>
      </trkpt>
      <trkpt lat="47.16988" lon="5.83364">
        <ele>264.6</ele>
        <time>2021-06-16T11:02:32Z</time>
      </trkpt>
      <trkpt lat="47.1699" lon="5.8336">
        <ele>264.8</ele>
        <time>2021-06-16T11:02:33Z</time>
      </trkpt>
      <trkpt lat="47.16992" lon="5.83356">
        <ele>265</ele>
        <time>2021-06-16T11:02:34Z</time>
      </trkpt>
      <trkpt lat="47.16993" lon="5.83353">
        <ele>265.2</ele>
        <time>2021-06-16T11:02:35Z</time>
      </trkpt>
      <trkpt lat="47.16994" lon="5.83351">
        <ele>265.4</ele>
        <time>2021-06-16T11:02:36Z</time>
      </trkpt>
      <trkpt lat="47.16994" lon="5.8335">
        <ele>265.6</ele>
        <time>2021-06-16T11:02:37Z</time>
      </trkpt>
      <trkpt lat="47.16995" lon="5.83349">
        <ele>265.8</ele>
        <time>2021-06-16T11:02:38Z</time>
      </trkpt>
      <trkpt lat="47.16996" lon="5.83346">
        <ele>265.8</ele>
        <time>2021-06-16T11:02:39Z</time>
      </trkpt>
      <trkpt lat="47.16997" lon="5.83345">
        <ele>265.8</ele>
        <time>2021-06-16T11:02:40Z</time>
      </trkpt>
      <trkpt lat="47.16998" lon="5.83345">
        <ele>266</ele>
        <time>2021-06-16T11:02:41Z</time>
      </trkpt>
      <trkpt lat="47.16999" lon="5.83335">
        <ele>266</ele>
        <time>2021-06-16T11:02:42Z</time>
      </trkpt>
      <trkpt lat="47.17001" lon="5.83332">
        <ele>266.2</ele>
        <time>2021-06-16T11:02:43Z</time>
      </trkpt>
      <trkpt lat="47.17001" lon="5.83329">
        <ele>266.2</ele>
        <time>2021-06-16T11:02:44Z</time>
      </trkpt>
      <trkpt lat="47.17001" lon="5.83326">
        <ele>266.4</ele>
        <time>2021-06-16T11:02:45Z</time>
      </trkpt>
      <trkpt lat="47.17002" lon="5.83322">
        <ele>266.4</ele>
        <time>2021-06-16T11:02:46Z</time>
      </trkpt>
      <trkpt lat="47.17003" lon="5.83318">
        <ele>266.6</ele>
        <time>2021-06-16T11:02:47Z</time>
      </trkpt>
      <trkpt lat="47.17005" lon="5.83314">
        <ele>266.8</ele>
        <time>2021-06-16T11:02:48Z</time>
      </trkpt>
      <trkpt lat="47.17006" lon="5.83311">
        <ele>267</ele>
        <time>2021-06-16T11:02:49Z</time>
      </trkpt>
      <trkpt lat="47.17008" lon="5.83306">
        <ele>267</ele>
        <time>2021-06-16T11:02:50Z</time>
      </trkpt>
      <trkpt lat="47.17009" lon="5.83303">
        <ele>267.2</ele>
        <time>2021-06-16T11:02:51Z</time>
      </trkpt>
      <trkpt lat="47.1701" lon="5.83301">
        <ele>267.2</ele>
        <time>2021-06-16T11:02:52Z</time>
      </trkpt>
      <trkpt lat="47.17011" lon="5.83298">
        <ele>267.4</ele>
        <time>2021-06-16T11:02:53Z</time>
      </trkpt>
      <trkpt lat="47.17014" lon="5.83293">
        <ele>267.6</ele>
        <time>2021-06-16T11:02:54Z</time>
      </trkpt>
      <trkpt lat="47.17014" lon="5.83288">
        <ele>267.8</ele>
        <time>2021-06-16T11:02:55Z</time>
      </trkpt>
      <trkpt lat="47.17015" lon="5.83282">
        <ele>268</ele>
        <time>2021-06-16T11:02:56Z</time>
      </trkpt>
      <trkpt lat="47.17016" lon="5.8328">
        <ele>268</ele>
        <time>2021-06-16T11:02:57Z</time>
      </trkpt>
      <trkpt lat="47.17016" lon="5.83278">
        <ele>268</ele>
        <time>2021-06-16T11:02:58Z</time>
      </trkpt>
      <trkpt lat="47.17017" lon="5.83276">
        <ele>268</ele>
        <time>2021-06-16T11:02:59Z</time>
      </trkpt>
      <trkpt lat="47.17019" lon="5.83271">
        <ele>268.2</ele>
        <time>2021-06-16T11:03:00Z</time>
      </trkpt>
      <trkpt lat="47.17019" lon="5.83271">
        <ele>268.2</ele>
        <time>2021-06-16T11:03:01Z</time>
      </trkpt>
      <trkpt lat="47.17022" lon="5.83264">
        <ele>268.2</ele>
        <time>2021-06-16T11:03:02Z</time>
      </trkpt>
      <trkpt lat="47.17023" lon="5.83262">
        <ele>268.2</ele>
        <time>2021-06-16T11:03:03Z</time>
      </trkpt>
      <trkpt lat="47.17025" lon="5.83258">
        <ele>268.4</ele>
        <time>2021-06-16T11:03:04Z</time>
      </trkpt>
      <trkpt lat="47.17026" lon="5.83253">
        <ele>268.4</ele>
        <time>2021-06-16T11:03:05Z</time>
      </trkpt>
      <trkpt lat="47.17029" lon="5.83249">
        <ele>268.4</ele>
        <time>2021-06-16T11:03:06Z</time>
      </trkpt>
      <trkpt lat="47.1703" lon="5.83246">
        <ele>268.6</ele>
        <time>2021-06-16T11:03:07Z</time>
      </trkpt>
      <trkpt lat="47.17032" lon="5.8324">
        <ele>268.6</ele>
        <time>2021-06-16T11:03:08Z</time>
      </trkpt>
      <trkpt lat="47.17034" lon="5.83236">
        <ele>268.6</ele>
        <time>2021-06-16T11:03:09Z</time>
      </trkpt>
      <trkpt lat="47.17036" lon="5.83231">
        <ele>268.6</ele>
        <time>2021-06-16T11:03:10Z</time>
      </trkpt>
      <trkpt lat="47.17039" lon="5.83226">
        <ele>268.6</ele>
        <time>2021-06-16T11:03:11Z</time>
      </trkpt>
      <trkpt lat="47.17043" lon="5.83221">
        <ele>268.6</ele>
        <time>2021-06-16T11:03:12Z</time>
      </trkpt>
      <trkpt lat="47.17059" lon="5.83193">
        <ele>267.6</ele>
        <time>2021-06-16T11:03:19Z</time>
      </trkpt>
      <trkpt lat="47.17061" lon="5.83186">
        <ele>267.4</ele>
        <time>2021-06-16T11:03:20Z</time>
      </trkpt>
      <trkpt lat="47.17063" lon="5.83177">
        <ele>267.4</ele>
        <time>2021-06-16T11:03:21Z</time>
      </trkpt>
      <trkpt lat="47.17065" lon="5.83169">
        <ele>267.2</ele>
        <time>2021-06-16T11:03:22Z</time>
      </trkpt>
      <trkpt lat="47.17076" lon="5.83141">
        <ele>267.2</ele>
        <time>2021-06-16T11:03:26Z</time>
      </trkpt>
      <trkpt lat="47.17078" lon="5.83134">
        <ele>267.2</ele>
        <time>2021-06-16T11:03:27Z</time>
      </trkpt>
      <trkpt lat="47.17081" lon="5.8313">
        <ele>267.2</ele>
        <time>2021-06-16T11:03:28Z</time>
      </trkpt>
      <trkpt lat="47.17083" lon="5.83124">
        <ele>267.2</ele>
        <time>2021-06-16T11:03:29Z</time>
      </trkpt>
      <trkpt lat="47.17086" lon="5.83116">
        <ele>266.6</ele>
        <time>2021-06-16T11:03:30Z</time>
      </trkpt>
      <trkpt lat="47.17089" lon="5.83108">
        <ele>266.6</ele>
        <time>2021-06-16T11:03:31Z</time>
      </trkpt>
      <trkpt lat="47.17096" lon="5.8309">
        <ele>266</ele>
        <time>2021-06-16T11:03:33Z</time>
      </trkpt>
      <trkpt lat="47.17101" lon="5.83069">
        <ele>265.4</ele>
        <time>2021-06-16T11:03:35Z</time>
      </trkpt>
      <trkpt lat="47.17105" lon="5.83059">
        <ele>265.4</ele>
        <time>2021-06-16T11:03:36Z</time>
      </trkpt>
      <trkpt lat="47.17111" lon="5.83047">
        <ele>264.6</ele>
        <time>2021-06-16T11:03:38Z</time>
      </trkpt>
      <trkpt lat="47.17117" lon="5.8303">
        <ele>264</ele>
        <time>2021-06-16T11:03:40Z</time>
      </trkpt>
      <trkpt lat="47.1712" lon="5.83014">
        <ele>263.4</ele>
        <time>2021-06-16T11:03:42Z</time>
      </trkpt>
      <trkpt lat="47.17122" lon="5.83006">
        <ele>263.4</ele>
        <time>2021-06-16T11:03:43Z</time>
      </trkpt>
      <trkpt lat="47.17124" lon="5.83001">
        <ele>263.4</ele>
        <time>2021-06-16T11:03:44Z</time>
      </trkpt>
      <trkpt lat="47.17129" lon="5.82995">
        <ele>263</ele>
        <time>2021-06-16T11:03:45Z</time>
      </trkpt>
      <trkpt lat="47.17129" lon="5.82995">
        <ele>263</ele>
        <time>2021-06-16T11:03:46Z</time>
      </trkpt>
      <trkpt lat="47.17137" lon="5.82983">
        <ele>263</ele>
        <time>2021-06-16T11:03:47Z</time>
      </trkpt>
      <trkpt lat="47.17142" lon="5.82973">
        <ele>262.8</ele>
        <time>2021-06-16T11:03:48Z</time>
      </trkpt>
      <trkpt lat="47.17146" lon="5.82968">
        <ele>262.8</ele>
        <time>2021-06-16T11:03:49Z</time>
      </trkpt>
      <trkpt lat="47.1715" lon="5.82964">
        <ele>262.8</ele>
        <time>2021-06-16T11:03:50Z</time>
      </trkpt>
      <trkpt lat="47.17153" lon="5.8296">
        <ele>262.6</ele>
        <time>2021-06-16T11:03:51Z</time>
      </trkpt>
      <trkpt lat="47.17157" lon="5.82957">
        <ele>262.6</ele>
        <time>2021-06-16T11:03:52Z</time>
      </trkpt>
      <trkpt lat="47.17159" lon="5.82953">
        <ele>262.6</ele>
        <time>2021-06-16T11:03:53Z</time>
      </trkpt>
      <trkpt lat="47.1716" lon="5.82949">
        <ele>262.6</ele>
        <time>2021-06-16T11:03:54Z</time>
      </trkpt>
      <trkpt lat="47.17165" lon="5.82942">
        <ele>262.6</ele>
        <time>2021-06-16T11:03:55Z</time>
      </trkpt>
      <trkpt lat="47.1717" lon="5.82936">
        <ele>262.4</ele>
        <time>2021-06-16T11:03:56Z</time>
      </trkpt>
      <trkpt lat="47.17173" lon="5.82932">
        <ele>262.2</ele>
        <time>2021-06-16T11:03:57Z</time>
      </trkpt>
      <trkpt lat="47.17177" lon="5.82926">
        <ele>262.2</ele>
        <time>2021-06-16T11:03:58Z</time>
      </trkpt>
      <trkpt lat="47.1718" lon="5.82918">
        <ele>262.2</ele>
        <time>2021-06-16T11:03:59Z</time>
      </trkpt>
      <trkpt lat="47.17186" lon="5.82905">
        <ele>262</ele>
        <time>2021-06-16T11:04:01Z</time>
      </trkpt>
      <trkpt lat="47.17189" lon="5.82901">
        <ele>262</ele>
        <time>2021-06-16T11:04:02Z</time>
      </trkpt>
      <trkpt lat="47.17192" lon="5.82897">
        <ele>261.6</ele>
        <time>2021-06-16T11:04:03Z</time>
      </trkpt>
      <trkpt lat="47.17195" lon="5.82891">
        <ele>261.4</ele>
        <time>2021-06-16T11:04:04Z</time>
      </trkpt>
      <trkpt lat="47.17198" lon="5.82886">
        <ele>261.4</ele>
        <time>2021-06-16T11:04:05Z</time>
      </trkpt>
      <trkpt lat="47.17207" lon="5.82882">
        <ele>261.4</ele>
        <time>2021-06-16T11:04:07Z</time>
      </trkpt>
      <trkpt lat="47.17212" lon="5.82881">
        <ele>261.4</ele>
        <time>2021-06-16T11:04:08Z</time>
      </trkpt>
      <trkpt lat="47.17218" lon="5.82884">
        <ele>261.4</ele>
        <time>2021-06-16T11:04:09Z</time>
      </trkpt>
      <trkpt lat="47.17222" lon="5.82886">
        <ele>261</ele>
        <time>2021-06-16T11:04:10Z</time>
      </trkpt>
      <trkpt lat="47.17227" lon="5.82887">
        <ele>261</ele>
        <time>2021-06-16T11:04:11Z</time>
      </trkpt>
      <trkpt lat="47.1723" lon="5.82887">
        <ele>261</ele>
        <time>2021-06-16T11:04:12Z</time>
      </trkpt>
      <trkpt lat="47.17234" lon="5.82889">
        <ele>261.4</ele>
        <time>2021-06-16T11:04:13Z</time>
      </trkpt>
      <trkpt lat="47.17246" lon="5.82895">
        <ele>261.6</ele>
        <time>2021-06-16T11:04:16Z</time>
      </trkpt>
      <trkpt lat="47.17251" lon="5.82901">
        <ele>261.6</ele>
        <time>2021-06-16T11:04:17Z</time>
      </trkpt>
      <trkpt lat="47.17255" lon="5.82904">
        <ele>261.6</ele>
        <time>2021-06-16T11:04:18Z</time>
      </trkpt>
      <trkpt lat="47.17259" lon="5.82908">
        <ele>261.6</ele>
        <time>2021-06-16T11:04:19Z</time>
      </trkpt>
      <trkpt lat="47.17263" lon="5.82911">
        <ele>261.6</ele>
        <time>2021-06-16T11:04:20Z</time>
      </trkpt>
      <trkpt lat="47.17266" lon="5.82914">
        <ele>261.6</ele>
        <time>2021-06-16T11:04:21Z</time>
      </trkpt>
      <trkpt lat="47.17283" lon="5.82925">
        <ele>262.2</ele>
        <time>2021-06-16T11:04:26Z</time>
      </trkpt>
      <trkpt lat="47.17286" lon="5.82926">
        <ele>262.6</ele>
        <time>2021-06-16T11:04:27Z</time>
      </trkpt>
      <trkpt lat="47.17289" lon="5.82929">
        <ele>262.8</ele>
        <time>2021-06-16T11:04:28Z</time>
      </trkpt>
      <trkpt lat="47.17293" lon="5.82934">
        <ele>262.8</ele>
        <time>2021-06-16T11:04:29Z</time>
      </trkpt>
      <trkpt lat="47.17304" lon="5.82944">
        <ele>262.8</ele>
        <time>2021-06-16T11:04:32Z</time>
      </trkpt>
      <trkpt lat="47.1731" lon="5.82946">
        <ele>262.8</ele>
        <time>2021-06-16T11:04:34Z</time>
      </trkpt>
      <trkpt lat="47.17314" lon="5.82949">
        <ele>262.8</ele>
        <time>2021-06-16T11:04:35Z</time>
      </trkpt>
      <trkpt lat="47.17318" lon="5.82953">
        <ele>262.8</ele>
        <time>2021-06-16T11:04:36Z</time>
      </trkpt>
      <trkpt lat="47.17323" lon="5.82958">
        <ele>262.8</ele>
        <time>2021-06-16T11:04:38Z</time>
      </trkpt>
      <trkpt lat="47.17325" lon="5.8296">
        <ele>263.2</ele>
        <time>2021-06-16T11:04:39Z</time>
      </trkpt>
      <trkpt lat="47.17327" lon="5.82962">
        <ele>263.4</ele>
        <time>2021-06-16T11:04:40Z</time>
      </trkpt>
      <trkpt lat="47.17331" lon="5.82966">
        <ele>263.4</ele>
        <time>2021-06-16T11:04:41Z</time>
      </trkpt>
      <trkpt lat="47.17335" lon="5.8297">
        <ele>263.6</ele>
        <time>2021-06-16T11:04:42Z</time>
      </trkpt>
      <trkpt lat="47.17357" lon="5.82985">
        <ele>263.8</ele>
        <time>2021-06-16T11:04:47Z</time>
      </trkpt>
      <trkpt lat="47.1739" lon="5.83012">
        <ele>263</ele>
        <time>2021-06-16T11:04:53Z</time>
      </trkpt>
      <trkpt lat="47.17395" lon="5.83017">
        <ele>262.6</ele>
        <time>2021-06-16T11:04:54Z</time>
      </trkpt>
      <trkpt lat="47.17401" lon="5.83021">
        <ele>262.6</ele>
        <time>2021-06-16T11:04:55Z</time>
      </trkpt>
      <trkpt lat="47.17406" lon="5.83025">
        <ele>262.4</ele>
        <time>2021-06-16T11:04:56Z</time>
      </trkpt>
      <trkpt lat="47.17411" lon="5.83029">
        <ele>262.4</ele>
        <time>2021-06-16T11:04:57Z</time>
      </trkpt>
      <trkpt lat="47.17415" lon="5.83033">
        <ele>262.4</ele>
        <time>2021-06-16T11:04:58Z</time>
      </trkpt>
      <trkpt lat="47.17418" lon="5.83035">
        <ele>262.4</ele>
        <time>2021-06-16T11:04:59Z</time>
      </trkpt>
      <trkpt lat="47.17421" lon="5.83038">
        <ele>262.4</ele>
        <time>2021-06-16T11:05:00Z</time>
      </trkpt>
      <trkpt lat="47.17425" lon="5.83042">
        <ele>262.4</ele>
        <time>2021-06-16T11:05:01Z</time>
      </trkpt>
      <trkpt lat="47.17429" lon="5.83045">
        <ele>262.4</ele>
        <time>2021-06-16T11:05:02Z</time>
      </trkpt>
      <trkpt lat="47.17436" lon="5.8305">
        <ele>262.8</ele>
        <time>2021-06-16T11:05:04Z</time>
      </trkpt>
      <trkpt lat="47.17441" lon="5.83053">
        <ele>263</ele>
        <time>2021-06-16T11:05:05Z</time>
      </trkpt>
      <trkpt lat="47.17446" lon="5.83058">
        <ele>263</ele>
        <time>2021-06-16T11:05:06Z</time>
      </trkpt>
      <trkpt lat="47.17449" lon="5.83061">
        <ele>263.2</ele>
        <time>2021-06-16T11:05:07Z</time>
      </trkpt>
      <trkpt lat="47.17452" lon="5.83063">
        <ele>263.4</ele>
        <time>2021-06-16T11:05:08Z</time>
      </trkpt>
      <trkpt lat="47.17454" lon="5.83065">
        <ele>263.4</ele>
        <time>2021-06-16T11:05:09Z</time>
      </trkpt>
      <trkpt lat="47.17458" lon="5.83069">
        <ele>263.6</ele>
        <time>2021-06-16T11:05:10Z</time>
      </trkpt>
      <trkpt lat="47.17472" lon="5.8308">
        <ele>264.4</ele>
        <time>2021-06-16T11:05:14Z</time>
      </trkpt>
      <trkpt lat="47.17475" lon="5.83082">
        <ele>264.6</ele>
        <time>2021-06-16T11:05:15Z</time>
      </trkpt>
      <trkpt lat="47.17478" lon="5.83085">
        <ele>264.8</ele>
        <time>2021-06-16T11:05:16Z</time>
      </trkpt>
      <trkpt lat="47.17482" lon="5.83087">
        <ele>265</ele>
        <time>2021-06-16T11:05:17Z</time>
      </trkpt>
      <trkpt lat="47.17484" lon="5.83089">
        <ele>265.2</ele>
        <time>2021-06-16T11:05:18Z</time>
      </trkpt>
      <trkpt lat="47.17488" lon="5.83093">
        <ele>265.8</ele>
        <time>2021-06-16T11:05:20Z</time>
      </trkpt>
      <trkpt lat="47.1749" lon="5.83095">
        <ele>265.8</ele>
        <time>2021-06-16T11:05:21Z</time>
      </trkpt>
      <trkpt lat="47.17493" lon="5.83097">
        <ele>266</ele>
        <time>2021-06-16T11:05:22Z</time>
      </trkpt>
      <trkpt lat="47.17495" lon="5.83098">
        <ele>266.2</ele>
        <time>2021-06-16T11:05:23Z</time>
      </trkpt>
      <trkpt lat="47.17497" lon="5.831">
        <ele>266.4</ele>
        <time>2021-06-16T11:05:24Z</time>
      </trkpt>
      <trkpt lat="47.175" lon="5.831">
        <ele>266.4</ele>
        <time>2021-06-16T11:05:25Z</time>
      </trkpt>
      <trkpt lat="47.17502" lon="5.831">
        <ele>266.6</ele>
        <time>2021-06-16T11:05:26Z</time>
      </trkpt>
      <trkpt lat="47.17505" lon="5.831">
        <ele>266.6</ele>
        <time>2021-06-16T11:05:27Z</time>
      </trkpt>
      <trkpt lat="47.17508" lon="5.83099">
        <ele>266.8</ele>
        <time>2021-06-16T11:05:28Z</time>
      </trkpt>
      <trkpt lat="47.1751" lon="5.83099">
        <ele>266.8</ele>
        <time>2021-06-16T11:05:29Z</time>
      </trkpt>
      <trkpt lat="47.17513" lon="5.83098">
        <ele>266.8</ele>
        <time>2021-06-16T11:05:30Z</time>
      </trkpt>
      <trkpt lat="47.17517" lon="5.83098">
        <ele>267</ele>
        <time>2021-06-16T11:05:31Z</time>
      </trkpt>
      <trkpt lat="47.1752" lon="5.83097">
        <ele>267</ele>
        <time>2021-06-16T11:05:32Z</time>
      </trkpt>
      <trkpt lat="47.17522" lon="5.83096">
        <ele>267.2</ele>
        <time>2021-06-16T11:05:33Z</time>
      </trkpt>
      <trkpt lat="47.17524" lon="5.83095">
        <ele>267.2</ele>
        <time>2021-06-16T11:05:34Z</time>
      </trkpt>
      <trkpt lat="47.17528" lon="5.83094">
        <ele>267.4</ele>
        <time>2021-06-16T11:05:35Z</time>
      </trkpt>
      <trkpt lat="47.17531" lon="5.83094">
        <ele>267.6</ele>
        <time>2021-06-16T11:05:36Z</time>
      </trkpt>
      <trkpt lat="47.17534" lon="5.83094">
        <ele>267.6</ele>
        <time>2021-06-16T11:05:37Z</time>
      </trkpt>
      <trkpt lat="47.17536" lon="5.83093">
        <ele>267.8</ele>
        <time>2021-06-16T11:05:38Z</time>
      </trkpt>
      <trkpt lat="47.17539" lon="5.83092">
        <ele>267.8</ele>
        <time>2021-06-16T11:05:39Z</time>
      </trkpt>
      <trkpt lat="47.17543" lon="5.83091">
        <ele>268</ele>
        <time>2021-06-16T11:05:40Z</time>
      </trkpt>
      <trkpt lat="47.17547" lon="5.83088">
        <ele>268.2</ele>
        <time>2021-06-16T11:05:41Z</time>
      </trkpt>
      <trkpt lat="47.1755" lon="5.83087">
        <ele>268.2</ele>
        <time>2021-06-16T11:05:42Z</time>
      </trkpt>
      <trkpt lat="47.17552" lon="5.83086">
        <ele>268.4</ele>
        <time>2021-06-16T11:05:43Z</time>
      </trkpt>
      <trkpt lat="47.17554" lon="5.83084">
        <ele>268.4</ele>
        <time>2021-06-16T11:05:44Z</time>
      </trkpt>
      <trkpt lat="47.17558" lon="5.83084">
        <ele>268.6</ele>
        <time>2021-06-16T11:05:45Z</time>
      </trkpt>
      <trkpt lat="47.17561" lon="5.83083">
        <ele>268.8</ele>
        <time>2021-06-16T11:05:46Z</time>
      </trkpt>
      <trkpt lat="47.17564" lon="5.83081">
        <ele>268.8</ele>
        <time>2021-06-16T11:05:47Z</time>
      </trkpt>
      <trkpt lat="47.17567" lon="5.8308">
        <ele>269</ele>
        <time>2021-06-16T11:05:48Z</time>
      </trkpt>
      <trkpt lat="47.1757" lon="5.83079">
        <ele>269.2</ele>
        <time>2021-06-16T11:05:49Z</time>
      </trkpt>
      <trkpt lat="47.1757" lon="5.83079">
        <ele>269.4</ele>
        <time>2021-06-16T11:05:50Z</time>
      </trkpt>
      <trkpt lat="47.17577" lon="5.83078">
        <ele>269.6</ele>
        <time>2021-06-16T11:05:51Z</time>
      </trkpt>
      <trkpt lat="47.1758" lon="5.83077">
        <ele>269.6</ele>
        <time>2021-06-16T11:05:52Z</time>
      </trkpt>
      <trkpt lat="47.17582" lon="5.83073">
        <ele>269.8</ele>
        <time>2021-06-16T11:05:53Z</time>
      </trkpt>
      <trkpt lat="47.17584" lon="5.83072">
        <ele>269.8</ele>
        <time>2021-06-16T11:05:54Z</time>
      </trkpt>
      <trkpt lat="47.17586" lon="5.83073">
        <ele>269.6</ele>
        <time>2021-06-16T11:05:55Z</time>
      </trkpt>
      <trkpt lat="47.17589" lon="5.83072">
        <ele>269.8</ele>
        <time>2021-06-16T11:05:56Z</time>
      </trkpt>
      <trkpt lat="47.17592" lon="5.83071">
        <ele>270</ele>
        <time>2021-06-16T11:05:57Z</time>
      </trkpt>
      <trkpt lat="47.17595" lon="5.8307">
        <ele>270.2</ele>
        <time>2021-06-16T11:05:58Z</time>
      </trkpt>
      <trkpt lat="47.17597" lon="5.83068">
        <ele>270.6</ele>
        <time>2021-06-16T11:05:59Z</time>
      </trkpt>
      <trkpt lat="47.17602" lon="5.83068">
        <ele>271</ele>
        <time>2021-06-16T11:06:00Z</time>
      </trkpt>
      <trkpt lat="47.17605" lon="5.83066">
        <ele>271.2</ele>
        <time>2021-06-16T11:06:01Z</time>
      </trkpt>
      <trkpt lat="47.17609" lon="5.83064">
        <ele>271.6</ele>
        <time>2021-06-16T11:06:02Z</time>
      </trkpt>
      <trkpt lat="47.17612" lon="5.83062">
        <ele>271.6</ele>
        <time>2021-06-16T11:06:03Z</time>
      </trkpt>
      <trkpt lat="47.17614" lon="5.83061">
        <ele>271.8</ele>
        <time>2021-06-16T11:06:04Z</time>
      </trkpt>
      <trkpt lat="47.17616" lon="5.8306">
        <ele>272</ele>
        <time>2021-06-16T11:06:05Z</time>
      </trkpt>
      <trkpt lat="47.17618" lon="5.83059">
        <ele>272</ele>
        <time>2021-06-16T11:06:06Z</time>
      </trkpt>
      <trkpt lat="47.17622" lon="5.83056">
        <ele>272.2</ele>
        <time>2021-06-16T11:06:07Z</time>
      </trkpt>
      <trkpt lat="47.17625" lon="5.83055">
        <ele>272.2</ele>
        <time>2021-06-16T11:06:08Z</time>
      </trkpt>
      <trkpt lat="47.17627" lon="5.83052">
        <ele>272.4</ele>
        <time>2021-06-16T11:06:09Z</time>
      </trkpt>
      <trkpt lat="47.17629" lon="5.83053">
        <ele>272.6</ele>
        <time>2021-06-16T11:06:10Z</time>
      </trkpt>
      <trkpt lat="47.17634" lon="5.83053">
        <ele>272.8</ele>
        <time>2021-06-16T11:06:11Z</time>
      </trkpt>
      <trkpt lat="47.17638" lon="5.83056">
        <ele>273.2</ele>
        <time>2021-06-16T11:06:12Z</time>
      </trkpt>
      <trkpt lat="47.17639" lon="5.83057">
        <ele>273.4</ele>
        <time>2021-06-16T11:06:13Z</time>
      </trkpt>
      <trkpt lat="47.17641" lon="5.83057">
        <ele>273.6</ele>
        <time>2021-06-16T11:06:14Z</time>
      </trkpt>
      <trkpt lat="47.17644" lon="5.83057">
        <ele>273.6</ele>
        <time>2021-06-16T11:06:15Z</time>
      </trkpt>
      <trkpt lat="47.17646" lon="5.83056">
        <ele>273.6</ele>
        <time>2021-06-16T11:06:16Z</time>
      </trkpt>
      <trkpt lat="47.17647" lon="5.83056">
        <ele>273.8</ele>
        <time>2021-06-16T11:06:17Z</time>
      </trkpt>
      <trkpt lat="47.17649" lon="5.83056">
        <ele>273.8</ele>
        <time>2021-06-16T11:06:18Z</time>
      </trkpt>
      <trkpt lat="47.17652" lon="5.83057">
        <ele>274</ele>
        <time>2021-06-16T11:06:19Z</time>
      </trkpt>
      <trkpt lat="47.17655" lon="5.83057">
        <ele>274</ele>
        <time>2021-06-16T11:06:20Z</time>
      </trkpt>
      <trkpt lat="47.17657" lon="5.83056">
        <ele>274.2</ele>
        <time>2021-06-16T11:06:21Z</time>
      </trkpt>
      <trkpt lat="47.17659" lon="5.83057">
        <ele>274.2</ele>
        <time>2021-06-16T11:06:22Z</time>
      </trkpt>
      <trkpt lat="47.17662" lon="5.83057">
        <ele>274.4</ele>
        <time>2021-06-16T11:06:23Z</time>
      </trkpt>
      <trkpt lat="47.17664" lon="5.83057">
        <ele>274.4</ele>
        <time>2021-06-16T11:06:24Z</time>
      </trkpt>
      <trkpt lat="47.17667" lon="5.83058">
        <ele>274.4</ele>
        <time>2021-06-16T11:06:25Z</time>
      </trkpt>
      <trkpt lat="47.1767" lon="5.83058">
        <ele>274.6</ele>
        <time>2021-06-16T11:06:26Z</time>
      </trkpt>
      <trkpt lat="47.17672" lon="5.83059">
        <ele>274.6</ele>
        <time>2021-06-16T11:06:27Z</time>
      </trkpt>
      <trkpt lat="47.17674" lon="5.83059">
        <ele>274.6</ele>
        <time>2021-06-16T11:06:28Z</time>
      </trkpt>
      <trkpt lat="47.17677" lon="5.83058">
        <ele>274.8</ele>
        <time>2021-06-16T11:06:29Z</time>
      </trkpt>
      <trkpt lat="47.17679" lon="5.83058">
        <ele>274.8</ele>
        <time>2021-06-16T11:06:30Z</time>
      </trkpt>
      <trkpt lat="47.17682" lon="5.83057">
        <ele>275</ele>
        <time>2021-06-16T11:06:31Z</time>
      </trkpt>
      <trkpt lat="47.17686" lon="5.83057">
        <ele>275.2</ele>
        <time>2021-06-16T11:06:32Z</time>
      </trkpt>
      <trkpt lat="47.17687" lon="5.83056">
        <ele>275.2</ele>
        <time>2021-06-16T11:06:33Z</time>
      </trkpt>
      <trkpt lat="47.17689" lon="5.83055">
        <ele>275.2</ele>
        <time>2021-06-16T11:06:34Z</time>
      </trkpt>
      <trkpt lat="47.17691" lon="5.83053">
        <ele>275.4</ele>
        <time>2021-06-16T11:06:35Z</time>
      </trkpt>
      <trkpt lat="47.17693" lon="5.83052">
        <ele>275.6</ele>
        <time>2021-06-16T11:06:36Z</time>
      </trkpt>
      <trkpt lat="47.17695" lon="5.83051">
        <ele>275.8</ele>
        <time>2021-06-16T11:06:37Z</time>
      </trkpt>
      <trkpt lat="47.17697" lon="5.83049">
        <ele>276.2</ele>
        <time>2021-06-16T11:06:38Z</time>
      </trkpt>
      <trkpt lat="47.17698" lon="5.83048">
        <ele>276.2</ele>
        <time>2021-06-16T11:06:39Z</time>
      </trkpt>
      <trkpt lat="47.17701" lon="5.83047">
        <ele>276.4</ele>
        <time>2021-06-16T11:06:40Z</time>
      </trkpt>
      <trkpt lat="47.17703" lon="5.83045">
        <ele>276.6</ele>
        <time>2021-06-16T11:06:41Z</time>
      </trkpt>
      <trkpt lat="47.17705" lon="5.83044">
        <ele>277</ele>
        <time>2021-06-16T11:06:42Z</time>
      </trkpt>
      <trkpt lat="47.17706" lon="5.83043">
        <ele>277.2</ele>
        <time>2021-06-16T11:06:43Z</time>
      </trkpt>
      <trkpt lat="47.17708" lon="5.83042">
        <ele>277.4</ele>
        <time>2021-06-16T11:06:44Z</time>
      </trkpt>
      <trkpt lat="47.1771" lon="5.83041">
        <ele>277.6</ele>
        <time>2021-06-16T11:06:45Z</time>
      </trkpt>
      <trkpt lat="47.17711" lon="5.83038">
        <ele>277.8</ele>
        <time>2021-06-16T11:06:46Z</time>
      </trkpt>
      <trkpt lat="47.17714" lon="5.83037">
        <ele>278</ele>
        <time>2021-06-16T11:06:47Z</time>
      </trkpt>
      <trkpt lat="47.17716" lon="5.83032">
        <ele>278.2</ele>
        <time>2021-06-16T11:06:48Z</time>
      </trkpt>
      <trkpt lat="47.17717" lon="5.8303">
        <ele>278.2</ele>
        <time>2021-06-16T11:06:49Z</time>
      </trkpt>
      <trkpt lat="47.17719" lon="5.8303">
        <ele>278.4</ele>
        <time>2021-06-16T11:06:50Z</time>
      </trkpt>
      <trkpt lat="47.1772" lon="5.83028">
        <ele>278.6</ele>
        <time>2021-06-16T11:06:51Z</time>
      </trkpt>
      <trkpt lat="47.17722" lon="5.83025">
        <ele>278.8</ele>
        <time>2021-06-16T11:06:52Z</time>
      </trkpt>
      <trkpt lat="47.17724" lon="5.83022">
        <ele>278.8</ele>
        <time>2021-06-16T11:06:53Z</time>
      </trkpt>
      <trkpt lat="47.17724" lon="5.83022">
        <ele>279</ele>
        <time>2021-06-16T11:06:54Z</time>
      </trkpt>
      <trkpt lat="47.17725" lon="5.83019">
        <ele>279.2</ele>
        <time>2021-06-16T11:06:55Z</time>
      </trkpt>
      <trkpt lat="47.17726" lon="5.83014">
        <ele>279.2</ele>
        <time>2021-06-16T11:06:56Z</time>
      </trkpt>
      <trkpt lat="47.17727" lon="5.83011">
        <ele>279.4</ele>
        <time>2021-06-16T11:06:57Z</time>
      </trkpt>
      <trkpt lat="47.17729" lon="5.83006">
        <ele>279.4</ele>
        <time>2021-06-16T11:06:58Z</time>
      </trkpt>
      <trkpt lat="47.1773" lon="5.83002">
        <ele>279.6</ele>
        <time>2021-06-16T11:06:59Z</time>
      </trkpt>
      <trkpt lat="47.1773" lon="5.82999">
        <ele>279.6</ele>
        <time>2021-06-16T11:07:00Z</time>
      </trkpt>
      <trkpt lat="47.17732" lon="5.82995">
        <ele>279.8</ele>
        <time>2021-06-16T11:07:01Z</time>
      </trkpt>
      <trkpt lat="47.17733" lon="5.82991">
        <ele>279.8</ele>
        <time>2021-06-16T11:07:02Z</time>
      </trkpt>
      <trkpt lat="47.17735" lon="5.82989">
        <ele>280.2</ele>
        <time>2021-06-16T11:07:03Z</time>
      </trkpt>
      <trkpt lat="47.17736" lon="5.82984">
        <ele>280.2</ele>
        <time>2021-06-16T11:07:04Z</time>
      </trkpt>
      <trkpt lat="47.17737" lon="5.82978">
        <ele>280.4</ele>
        <time>2021-06-16T11:07:05Z</time>
      </trkpt>
      <trkpt lat="47.17739" lon="5.82974">
        <ele>280.4</ele>
        <time>2021-06-16T11:07:06Z</time>
      </trkpt>
      <trkpt lat="47.1774" lon="5.82971">
        <ele>280.4</ele>
        <time>2021-06-16T11:07:07Z</time>
      </trkpt>
      <trkpt lat="47.17741" lon="5.82966">
        <ele>280.6</ele>
        <time>2021-06-16T11:07:08Z</time>
      </trkpt>
      <trkpt lat="47.17742" lon="5.82962">
        <ele>280.6</ele>
        <time>2021-06-16T11:07:09Z</time>
      </trkpt>
      <trkpt lat="47.17744" lon="5.82957">
        <ele>280.8</ele>
        <time>2021-06-16T11:07:10Z</time>
      </trkpt>
      <trkpt lat="47.17745" lon="5.82951">
        <ele>280.8</ele>
        <time>2021-06-16T11:07:11Z</time>
      </trkpt>
      <trkpt lat="47.17745" lon="5.82947">
        <ele>281</ele>
        <time>2021-06-16T11:07:12Z</time>
      </trkpt>
      <trkpt lat="47.17744" lon="5.82944">
        <ele>281</ele>
        <time>2021-06-16T11:07:13Z</time>
      </trkpt>
      <trkpt lat="47.17743" lon="5.82941">
        <ele>281</ele>
        <time>2021-06-16T11:07:14Z</time>
      </trkpt>
      <trkpt lat="47.17744" lon="5.82936">
        <ele>281</ele>
        <time>2021-06-16T11:07:15Z</time>
      </trkpt>
      <trkpt lat="47.17745" lon="5.82932">
        <ele>281</ele>
        <time>2021-06-16T11:07:16Z</time>
      </trkpt>
      <trkpt lat="47.17746" lon="5.82926">
        <ele>280.8</ele>
        <time>2021-06-16T11:07:17Z</time>
      </trkpt>
      <trkpt lat="47.17747" lon="5.82921">
        <ele>280.8</ele>
        <time>2021-06-16T11:07:18Z</time>
      </trkpt>
      <trkpt lat="47.17749" lon="5.82917">
        <ele>280.8</ele>
        <time>2021-06-16T11:07:19Z</time>
      </trkpt>
      <trkpt lat="47.1775" lon="5.82913">
        <ele>281</ele>
        <time>2021-06-16T11:07:20Z</time>
      </trkpt>
      <trkpt lat="47.1775" lon="5.82909">
        <ele>281</ele>
        <time>2021-06-16T11:07:21Z</time>
      </trkpt>
      <trkpt lat="47.1775" lon="5.82905">
        <ele>281</ele>
        <time>2021-06-16T11:07:22Z</time>
      </trkpt>
      <trkpt lat="47.1775" lon="5.82902">
        <ele>281</ele>
        <time>2021-06-16T11:07:23Z</time>
      </trkpt>
      <trkpt lat="47.17753" lon="5.82891">
        <ele>280.8</ele>
        <time>2021-06-16T11:07:26Z</time>
      </trkpt>
      <trkpt lat="47.17754" lon="5.82888">
        <ele>280.8</ele>
        <time>2021-06-16T11:07:27Z</time>
      </trkpt>
      <trkpt lat="47.17759" lon="5.82877">
        <ele>280.4</ele>
        <time>2021-06-16T11:07:31Z</time>
      </trkpt>
      <trkpt lat="47.17769" lon="5.82861">
        <ele>280.2</ele>
        <time>2021-06-16T11:07:35Z</time>
      </trkpt>
      <trkpt lat="47.17769" lon="5.82861">
        <ele>280</ele>
        <time>2021-06-16T11:07:36Z</time>
      </trkpt>
      <trkpt lat="47.17776" lon="5.82851">
        <ele>280</ele>
        <time>2021-06-16T11:07:37Z</time>
      </trkpt>
      <trkpt lat="47.17788" lon="5.82839">
        <ele>279.2</ele>
        <time>2021-06-16T11:07:39Z</time>
      </trkpt>
      <trkpt lat="47.17793" lon="5.82834">
        <ele>279</ele>
        <time>2021-06-16T11:07:40Z</time>
      </trkpt>
      <trkpt lat="47.17804" lon="5.82819">
        <ele>278.2</ele>
        <time>2021-06-16T11:07:42Z</time>
      </trkpt>
      <trkpt lat="47.1781" lon="5.82811">
        <ele>277.2</ele>
        <time>2021-06-16T11:07:43Z</time>
      </trkpt>
      <trkpt lat="47.17815" lon="5.82805">
        <ele>275.6</ele>
        <time>2021-06-16T11:07:44Z</time>
      </trkpt>
      <trkpt lat="47.17819" lon="5.82798">
        <ele>275.2</ele>
        <time>2021-06-16T11:07:45Z</time>
      </trkpt>
      <trkpt lat="47.17823" lon="5.82793">
        <ele>273.4</ele>
        <time>2021-06-16T11:07:46Z</time>
      </trkpt>
      <trkpt lat="47.17826" lon="5.82789">
        <ele>273</ele>
        <time>2021-06-16T11:07:47Z</time>
      </trkpt>
      <trkpt lat="47.17829" lon="5.82784">
        <ele>271.4</ele>
        <time>2021-06-16T11:07:48Z</time>
      </trkpt>
      <trkpt lat="47.17833" lon="5.82777">
        <ele>271</ele>
        <time>2021-06-16T11:07:49Z</time>
      </trkpt>
      <trkpt lat="47.17838" lon="5.82769">
        <ele>269.8</ele>
        <time>2021-06-16T11:07:50Z</time>
      </trkpt>
      <trkpt lat="47.1785" lon="5.82753">
        <ele>268.4</ele>
        <time>2021-06-16T11:07:52Z</time>
      </trkpt>
      <trkpt lat="47.17856" lon="5.82746">
        <ele>267.2</ele>
        <time>2021-06-16T11:07:53Z</time>
      </trkpt>
      <trkpt lat="47.17862" lon="5.82737">
        <ele>266.4</ele>
        <time>2021-06-16T11:07:54Z</time>
      </trkpt>
      <trkpt lat="47.17867" lon="5.8273">
        <ele>265.4</ele>
        <time>2021-06-16T11:07:55Z</time>
      </trkpt>
      <trkpt lat="47.1787" lon="5.82724">
        <ele>264.6</ele>
        <time>2021-06-16T11:07:56Z</time>
      </trkpt>
      <trkpt lat="47.17873" lon="5.82717">
        <ele>263.6</ele>
        <time>2021-06-16T11:07:57Z</time>
      </trkpt>
      <trkpt lat="47.17876" lon="5.82713">
        <ele>262.6</ele>
        <time>2021-06-16T11:07:58Z</time>
      </trkpt>
      <trkpt lat="47.17879" lon="5.8271">
        <ele>262</ele>
        <time>2021-06-16T11:07:59Z</time>
      </trkpt>
      <trkpt lat="47.17882" lon="5.82706">
        <ele>261.2</ele>
        <time>2021-06-16T11:08:00Z</time>
      </trkpt>
      <trkpt lat="47.17885" lon="5.82705">
        <ele>260.8</ele>
        <time>2021-06-16T11:08:01Z</time>
      </trkpt>
      <trkpt lat="47.1789" lon="5.82703">
        <ele>260</ele>
        <time>2021-06-16T11:08:02Z</time>
      </trkpt>
      <trkpt lat="47.17894" lon="5.82701">
        <ele>259.6</ele>
        <time>2021-06-16T11:08:03Z</time>
      </trkpt>
      <trkpt lat="47.17902" lon="5.82692">
        <ele>258.8</ele>
        <time>2021-06-16T11:08:05Z</time>
      </trkpt>
      <trkpt lat="47.17906" lon="5.82686">
        <ele>258.6</ele>
        <time>2021-06-16T11:08:06Z</time>
      </trkpt>
      <trkpt lat="47.17909" lon="5.82678">
        <ele>258</ele>
        <time>2021-06-16T11:08:07Z</time>
      </trkpt>
      <trkpt lat="47.17911" lon="5.8267">
        <ele>257.6</ele>
        <time>2021-06-16T11:08:08Z</time>
      </trkpt>
      <trkpt lat="47.17914" lon="5.8266">
        <ele>257.4</ele>
        <time>2021-06-16T11:08:09Z</time>
      </trkpt>
      <trkpt lat="47.17925" lon="5.82646">
        <ele>256.4</ele>
        <time>2021-06-16T11:08:11Z</time>
      </trkpt>
      <trkpt lat="47.17932" lon="5.82643">
        <ele>255.6</ele>
        <time>2021-06-16T11:08:12Z</time>
      </trkpt>
      <trkpt lat="47.1794" lon="5.82637">
        <ele>255.4</ele>
        <time>2021-06-16T11:08:13Z</time>
      </trkpt>
      <trkpt lat="47.17947" lon="5.82631">
        <ele>254.8</ele>
        <time>2021-06-16T11:08:14Z</time>
      </trkpt>
      <trkpt lat="47.17947" lon="5.82631">
        <ele>254.2</ele>
        <time>2021-06-16T11:08:15Z</time>
      </trkpt>
      <trkpt lat="47.17971" lon="5.82619">
        <ele>252.6</ele>
        <time>2021-06-16T11:08:17Z</time>
      </trkpt>
      <trkpt lat="47.17986" lon="5.82609">
        <ele>251.8</ele>
        <time>2021-06-16T11:08:19Z</time>
      </trkpt>
      <trkpt lat="47.17993" lon="5.82604">
        <ele>251.4</ele>
        <time>2021-06-16T11:08:20Z</time>
      </trkpt>
      <trkpt lat="47.18002" lon="5.826">
        <ele>250.8</ele>
        <time>2021-06-16T11:08:21Z</time>
      </trkpt>
      <trkpt lat="47.18006" lon="5.82597">
        <ele>250.8</ele>
        <time>2021-06-16T11:08:22Z</time>
      </trkpt>
      <trkpt lat="47.18013" lon="5.82593">
        <ele>250.6</ele>
        <time>2021-06-16T11:08:23Z</time>
      </trkpt>
      <trkpt lat="47.18019" lon="5.82588">
        <ele>250.4</ele>
        <time>2021-06-16T11:08:24Z</time>
      </trkpt>
      <trkpt lat="47.18025" lon="5.82583">
        <ele>250.2</ele>
        <time>2021-06-16T11:08:25Z</time>
      </trkpt>
      <trkpt lat="47.18031" lon="5.82577">
        <ele>250.2</ele>
        <time>2021-06-16T11:08:26Z</time>
      </trkpt>
      <trkpt lat="47.18036" lon="5.82572">
        <ele>250.2</ele>
        <time>2021-06-16T11:08:27Z</time>
      </trkpt>
      <trkpt lat="47.18041" lon="5.82567">
        <ele>250.2</ele>
        <time>2021-06-16T11:08:28Z</time>
      </trkpt>
      <trkpt lat="47.18045" lon="5.82561">
        <ele>250.2</ele>
        <time>2021-06-16T11:08:29Z</time>
      </trkpt>
      <trkpt lat="47.1805" lon="5.82556">
        <ele>250.2</ele>
        <time>2021-06-16T11:08:30Z</time>
      </trkpt>
      <trkpt lat="47.18054" lon="5.8255">
        <ele>250.2</ele>
        <time>2021-06-16T11:08:31Z</time>
      </trkpt>
      <trkpt lat="47.18059" lon="5.82543">
        <ele>250.4</ele>
        <time>2021-06-16T11:08:32Z</time>
      </trkpt>
      <trkpt lat="47.18062" lon="5.82539">
        <ele>250.4</ele>
        <time>2021-06-16T11:08:33Z</time>
      </trkpt>
      <trkpt lat="47.18065" lon="5.82534">
        <ele>250.4</ele>
        <time>2021-06-16T11:08:34Z</time>
      </trkpt>
      <trkpt lat="47.18068" lon="5.82528">
        <ele>250.4</ele>
        <time>2021-06-16T11:08:35Z</time>
      </trkpt>
      <trkpt lat="47.18071" lon="5.82522">
        <ele>250.4</ele>
        <time>2021-06-16T11:08:36Z</time>
      </trkpt>
      <trkpt lat="47.18075" lon="5.82516">
        <ele>250.4</ele>
        <time>2021-06-16T11:08:37Z</time>
      </trkpt>
      <trkpt lat="47.18078" lon="5.82511">
        <ele>250.4</ele>
        <time>2021-06-16T11:08:38Z</time>
      </trkpt>
      <trkpt lat="47.18081" lon="5.82506">
        <ele>250.4</ele>
        <time>2021-06-16T11:08:39Z</time>
      </trkpt>
      <trkpt lat="47.18084" lon="5.825">
        <ele>250.4</ele>
        <time>2021-06-16T11:08:40Z</time>
      </trkpt>
      <trkpt lat="47.18087" lon="5.82495">
        <ele>250.4</ele>
        <time>2021-06-16T11:08:41Z</time>
      </trkpt>
      <trkpt lat="47.1809" lon="5.82489">
        <ele>250.2</ele>
        <time>2021-06-16T11:08:42Z</time>
      </trkpt>
      <trkpt lat="47.18092" lon="5.82483">
        <ele>250.4</ele>
        <time>2021-06-16T11:08:43Z</time>
      </trkpt>
      <trkpt lat="47.18095" lon="5.82478">
        <ele>250.4</ele>
        <time>2021-06-16T11:08:44Z</time>
      </trkpt>
      <trkpt lat="47.18097" lon="5.82472">
        <ele>250.4</ele>
        <time>2021-06-16T11:08:45Z</time>
      </trkpt>
      <trkpt lat="47.181" lon="5.82466">
        <ele>250.4</ele>
        <time>2021-06-16T11:08:46Z</time>
      </trkpt>
      <trkpt lat="47.18101" lon="5.82461">
        <ele>250.4</ele>
        <time>2021-06-16T11:08:47Z</time>
      </trkpt>
      <trkpt lat="47.18101" lon="5.82454">
        <ele>250.4</ele>
        <time>2021-06-16T11:08:48Z</time>
      </trkpt>
      <trkpt lat="47.181" lon="5.8245">
        <ele>250.4</ele>
        <time>2021-06-16T11:08:49Z</time>
      </trkpt>
      <trkpt lat="47.18099" lon="5.82445">
        <ele>250.4</ele>
        <time>2021-06-16T11:08:50Z</time>
      </trkpt>
      <trkpt lat="47.18097" lon="5.8244">
        <ele>250.4</ele>
        <time>2021-06-16T11:08:51Z</time>
      </trkpt>
      <trkpt lat="47.18095" lon="5.82435">
        <ele>250.6</ele>
        <time>2021-06-16T11:08:52Z</time>
      </trkpt>
      <trkpt lat="47.18092" lon="5.8243">
        <ele>250.6</ele>
        <time>2021-06-16T11:08:53Z</time>
      </trkpt>
      <trkpt lat="47.18084" lon="5.82415">
        <ele>250.8</ele>
        <time>2021-06-16T11:08:56Z</time>
      </trkpt>
      <trkpt lat="47.18067" lon="5.82384">
        <ele>250.2</ele>
        <time>2021-06-16T11:09:01Z</time>
      </trkpt>
      <trkpt lat="47.18053" lon="5.8236">
        <ele>249.2</ele>
        <time>2021-06-16T11:09:04Z</time>
      </trkpt>
      <trkpt lat="47.18044" lon="5.82342">
        <ele>248.4</ele>
        <time>2021-06-16T11:09:06Z</time>
      </trkpt>
      <trkpt lat="47.18033" lon="5.82321">
        <ele>248</ele>
        <time>2021-06-16T11:09:08Z</time>
      </trkpt>
      <trkpt lat="47.18025" lon="5.82304">
        <ele>247.4</ele>
        <time>2021-06-16T11:09:10Z</time>
      </trkpt>
      <trkpt lat="47.18021" lon="5.82295">
        <ele>247</ele>
        <time>2021-06-16T11:09:11Z</time>
      </trkpt>
      <trkpt lat="47.18017" lon="5.82286">
        <ele>246.8</ele>
        <time>2021-06-16T11:09:12Z</time>
      </trkpt>
      <trkpt lat="47.18012" lon="5.82277">
        <ele>246.6</ele>
        <time>2021-06-16T11:09:13Z</time>
      </trkpt>
      <trkpt lat="47.18008" lon="5.82266">
        <ele>246.4</ele>
        <time>2021-06-16T11:09:14Z</time>
      </trkpt>
      <trkpt lat="47.18005" lon="5.82258">
        <ele>245.6</ele>
        <time>2021-06-16T11:09:15Z</time>
      </trkpt>
      <trkpt lat="47.18003" lon="5.82249">
        <ele>244.2</ele>
        <time>2021-06-16T11:09:16Z</time>
      </trkpt>
      <trkpt lat="47.18" lon="5.82239">
        <ele>244</ele>
        <time>2021-06-16T11:09:17Z</time>
      </trkpt>
      <trkpt lat="47.17998" lon="5.82229">
        <ele>243.6</ele>
        <time>2021-06-16T11:09:18Z</time>
      </trkpt>
      <trkpt lat="47.17994" lon="5.82202">
        <ele>243.2</ele>
        <time>2021-06-16T11:09:21Z</time>
      </trkpt>
      <trkpt lat="47.17992" lon="5.82193">
        <ele>243</ele>
        <time>2021-06-16T11:09:22Z</time>
      </trkpt>
      <trkpt lat="47.17991" lon="5.82183">
        <ele>243</ele>
        <time>2021-06-16T11:09:23Z</time>
      </trkpt>
      <trkpt lat="47.17988" lon="5.82122">
        <ele>242.2</ele>
        <time>2021-06-16T11:09:29Z</time>
      </trkpt>
      <trkpt lat="47.17989" lon="5.82096">
        <ele>241.8</ele>
        <time>2021-06-16T11:09:32Z</time>
      </trkpt>
      <trkpt lat="47.17991" lon="5.82077">
        <ele>242</ele>
        <time>2021-06-16T11:09:34Z</time>
      </trkpt>
      <trkpt lat="47.17993" lon="5.82069">
        <ele>242</ele>
        <time>2021-06-16T11:09:35Z</time>
      </trkpt>
      <trkpt lat="47.17994" lon="5.82063">
        <ele>242</ele>
        <time>2021-06-16T11:09:36Z</time>
      </trkpt>
      <trkpt lat="47.17996" lon="5.82055">
        <ele>242</ele>
        <time>2021-06-16T11:09:37Z</time>
      </trkpt>
      <trkpt lat="47.17997" lon="5.82048">
        <ele>242</ele>
        <time>2021-06-16T11:09:38Z</time>
      </trkpt>
      <trkpt lat="47.17999" lon="5.82042">
        <ele>242.6</ele>
        <time>2021-06-16T11:09:39Z</time>
      </trkpt>
      <trkpt lat="47.18" lon="5.82035">
        <ele>242.8</ele>
        <time>2021-06-16T11:09:40Z</time>
      </trkpt>
      <trkpt lat="47.18002" lon="5.8203">
        <ele>243.2</ele>
        <time>2021-06-16T11:09:41Z</time>
      </trkpt>
      <trkpt lat="47.18003" lon="5.82024">
        <ele>243.6</ele>
        <time>2021-06-16T11:09:42Z</time>
      </trkpt>
      <trkpt lat="47.18005" lon="5.82018">
        <ele>243.8</ele>
        <time>2021-06-16T11:09:43Z</time>
      </trkpt>
      <trkpt lat="47.18006" lon="5.82013">
        <ele>244.2</ele>
        <time>2021-06-16T11:09:44Z</time>
      </trkpt>
      <trkpt lat="47.18008" lon="5.82006">
        <ele>244.2</ele>
        <time>2021-06-16T11:09:45Z</time>
      </trkpt>
      <trkpt lat="47.18011" lon="5.81997">
        <ele>244.6</ele>
        <time>2021-06-16T11:09:47Z</time>
      </trkpt>
      <trkpt lat="47.18017" lon="5.81973">
        <ele>245.4</ele>
        <time>2021-06-16T11:09:51Z</time>
      </trkpt>
      <trkpt lat="47.18018" lon="5.81959">
        <ele>245.6</ele>
        <time>2021-06-16T11:09:53Z</time>
      </trkpt>
      <trkpt lat="47.18017" lon="5.81945">
        <ele>245.6</ele>
        <time>2021-06-16T11:09:55Z</time>
      </trkpt>
      <trkpt lat="47.18015" lon="5.81937">
        <ele>245.6</ele>
        <time>2021-06-16T11:09:56Z</time>
      </trkpt>
      <trkpt lat="47.18014" lon="5.81929">
        <ele>245.6</ele>
        <time>2021-06-16T11:09:57Z</time>
      </trkpt>
      <trkpt lat="47.18013" lon="5.81921">
        <ele>245.6</ele>
        <time>2021-06-16T11:09:58Z</time>
      </trkpt>
      <trkpt lat="47.18011" lon="5.81912">
        <ele>245.6</ele>
        <time>2021-06-16T11:09:59Z</time>
      </trkpt>
      <trkpt lat="47.1801" lon="5.81904">
        <ele>245.4</ele>
        <time>2021-06-16T11:10:00Z</time>
      </trkpt>
      <trkpt lat="47.18008" lon="5.81896">
        <ele>245.2</ele>
        <time>2021-06-16T11:10:01Z</time>
      </trkpt>
      <trkpt lat="47.18004" lon="5.8187">
        <ele>245</ele>
        <time>2021-06-16T11:10:04Z</time>
      </trkpt>
      <trkpt lat="47.17993" lon="5.81797">
        <ele>244</ele>
        <time>2021-06-16T11:10:12Z</time>
      </trkpt>
      <trkpt lat="47.17989" lon="5.81768">
        <ele>243.8</ele>
        <time>2021-06-16T11:10:15Z</time>
      </trkpt>
      <trkpt lat="47.17985" lon="5.81743">
        <ele>243.6</ele>
        <time>2021-06-16T11:10:18Z</time>
      </trkpt>
      <trkpt lat="47.17982" lon="5.81716">
        <ele>243</ele>
        <time>2021-06-16T11:10:21Z</time>
      </trkpt>
      <trkpt lat="47.1798" lon="5.81708">
        <ele>242.8</ele>
        <time>2021-06-16T11:10:22Z</time>
      </trkpt>
      <trkpt lat="47.17979" lon="5.817">
        <ele>242.8</ele>
        <time>2021-06-16T11:10:23Z</time>
      </trkpt>
      <trkpt lat="47.17978" lon="5.81691">
        <ele>242.6</ele>
        <time>2021-06-16T11:10:24Z</time>
      </trkpt>
      <trkpt lat="47.17977" lon="5.81683">
        <ele>242.6</ele>
        <time>2021-06-16T11:10:25Z</time>
      </trkpt>
      <trkpt lat="47.17976" lon="5.81674">
        <ele>242.4</ele>
        <time>2021-06-16T11:10:26Z</time>
      </trkpt>
      <trkpt lat="47.17973" lon="5.81658">
        <ele>242.2</ele>
        <time>2021-06-16T11:10:28Z</time>
      </trkpt>
      <trkpt lat="47.17972" lon="5.8165">
        <ele>242.2</ele>
        <time>2021-06-16T11:10:29Z</time>
      </trkpt>
      <trkpt lat="47.17971" lon="5.81643">
        <ele>242.2</ele>
        <time>2021-06-16T11:10:30Z</time>
      </trkpt>
      <trkpt lat="47.1797" lon="5.81635">
        <ele>242</ele>
        <time>2021-06-16T11:10:31Z</time>
      </trkpt>
      <trkpt lat="47.1797" lon="5.81635">
        <ele>242</ele>
        <time>2021-06-16T11:10:32Z</time>
      </trkpt>
      <trkpt lat="47.17966" lon="5.81607">
        <ele>241.8</ele>
        <time>2021-06-16T11:10:35Z</time>
      </trkpt>
      <trkpt lat="47.17965" lon="5.81601">
        <ele>241.8</ele>
        <time>2021-06-16T11:10:36Z</time>
      </trkpt>
      <trkpt lat="47.17964" lon="5.81594">
        <ele>241.8</ele>
        <time>2021-06-16T11:10:37Z</time>
      </trkpt>
      <trkpt lat="47.17963" lon="5.81588">
        <ele>241.8</ele>
        <time>2021-06-16T11:10:38Z</time>
      </trkpt>
      <trkpt lat="47.17962" lon="5.81581">
        <ele>241.8</ele>
        <time>2021-06-16T11:10:39Z</time>
      </trkpt>
      <trkpt lat="47.17961" lon="5.81574">
        <ele>241.6</ele>
        <time>2021-06-16T11:10:40Z</time>
      </trkpt>
      <trkpt lat="47.1796" lon="5.81568">
        <ele>241.6</ele>
        <time>2021-06-16T11:10:41Z</time>
      </trkpt>
      <trkpt lat="47.17958" lon="5.8156">
        <ele>241.4</ele>
        <time>2021-06-16T11:10:42Z</time>
      </trkpt>
      <trkpt lat="47.17957" lon="5.81555">
        <ele>241.4</ele>
        <time>2021-06-16T11:10:43Z</time>
      </trkpt>
      <trkpt lat="47.17951" lon="5.81508">
        <ele>240.8</ele>
        <time>2021-06-16T11:10:49Z</time>
      </trkpt>
      <trkpt lat="47.17948" lon="5.81481">
        <ele>240.4</ele>
        <time>2021-06-16T11:10:52Z</time>
      </trkpt>
      <trkpt lat="47.17944" lon="5.81451">
        <ele>240.2</ele>
        <time>2021-06-16T11:10:56Z</time>
      </trkpt>
      <trkpt lat="47.17944" lon="5.81441">
        <ele>240.2</ele>
        <time>2021-06-16T11:10:57Z</time>
      </trkpt>
      <trkpt lat="47.17945" lon="5.81434">
        <ele>240.2</ele>
        <time>2021-06-16T11:10:58Z</time>
      </trkpt>
      <trkpt lat="47.17946" lon="5.81428">
        <ele>240.2</ele>
        <time>2021-06-16T11:10:59Z</time>
      </trkpt>
      <trkpt lat="47.17946" lon="5.81423">
        <ele>240.2</ele>
        <time>2021-06-16T11:11:00Z</time>
      </trkpt>
      <trkpt lat="47.17945" lon="5.81418">
        <ele>240.2</ele>
        <time>2021-06-16T11:11:01Z</time>
      </trkpt>
      <trkpt lat="47.17942" lon="5.81415">
        <ele>240.4</ele>
        <time>2021-06-16T11:11:02Z</time>
      </trkpt>
      <trkpt lat="47.17937" lon="5.81415">
        <ele>240.4</ele>
        <time>2021-06-16T11:11:03Z</time>
      </trkpt>
      <trkpt lat="47.17933" lon="5.81416">
        <ele>240.4</ele>
        <time>2021-06-16T11:11:04Z</time>
      </trkpt>
      <trkpt lat="47.17927" lon="5.81418">
        <ele>240.4</ele>
        <time>2021-06-16T11:11:05Z</time>
      </trkpt>
      <trkpt lat="47.17921" lon="5.81421">
        <ele>240.4</ele>
        <time>2021-06-16T11:11:06Z</time>
      </trkpt>
      <trkpt lat="47.17908" lon="5.81423">
        <ele>240.2</ele>
        <time>2021-06-16T11:11:08Z</time>
      </trkpt>
      <trkpt lat="47.17874" lon="5.81421">
        <ele>239.2</ele>
        <time>2021-06-16T11:11:12Z</time>
      </trkpt>
      <trkpt lat="47.17866" lon="5.81417">
        <ele>238.8</ele>
        <time>2021-06-16T11:11:13Z</time>
      </trkpt>
      <trkpt lat="47.1785" lon="5.81405">
        <ele>238</ele>
        <time>2021-06-16T11:11:15Z</time>
      </trkpt>
      <trkpt lat="47.17833" lon="5.81386">
        <ele>236.4</ele>
        <time>2021-06-16T11:11:17Z</time>
      </trkpt>
      <trkpt lat="47.17819" lon="5.81369">
        <ele>234.8</ele>
        <time>2021-06-16T11:11:19Z</time>
      </trkpt>
      <trkpt lat="47.17812" lon="5.8136">
        <ele>234.4</ele>
        <time>2021-06-16T11:11:20Z</time>
      </trkpt>
      <trkpt lat="47.17805" lon="5.81352">
        <ele>233.4</ele>
        <time>2021-06-16T11:11:21Z</time>
      </trkpt>
      <trkpt lat="47.17796" lon="5.81342">
        <ele>233</ele>
        <time>2021-06-16T11:11:22Z</time>
      </trkpt>
      <trkpt lat="47.17789" lon="5.81336">
        <ele>232.4</ele>
        <time>2021-06-16T11:11:23Z</time>
      </trkpt>
      <trkpt lat="47.17783" lon="5.81331">
        <ele>232</ele>
        <time>2021-06-16T11:11:24Z</time>
      </trkpt>
      <trkpt lat="47.17776" lon="5.81327">
        <ele>231.8</ele>
        <time>2021-06-16T11:11:25Z</time>
      </trkpt>
      <trkpt lat="47.17769" lon="5.81323">
        <ele>231.6</ele>
        <time>2021-06-16T11:11:26Z</time>
      </trkpt>
      <trkpt lat="47.17762" lon="5.8132">
        <ele>231.2</ele>
        <time>2021-06-16T11:11:27Z</time>
      </trkpt>
      <trkpt lat="47.17756" lon="5.81317">
        <ele>231</ele>
        <time>2021-06-16T11:11:28Z</time>
      </trkpt>
      <trkpt lat="47.17748" lon="5.81314">
        <ele>230.8</ele>
        <time>2021-06-16T11:11:29Z</time>
      </trkpt>
      <trkpt lat="47.17743" lon="5.81312">
        <ele>230.8</ele>
        <time>2021-06-16T11:11:30Z</time>
      </trkpt>
      <trkpt lat="47.17737" lon="5.81311">
        <ele>230.8</ele>
        <time>2021-06-16T11:11:31Z</time>
      </trkpt>
      <trkpt lat="47.17731" lon="5.81309">
        <ele>230.8</ele>
        <time>2021-06-16T11:11:32Z</time>
      </trkpt>
      <trkpt lat="47.17724" lon="5.81307">
        <ele>230.8</ele>
        <time>2021-06-16T11:11:33Z</time>
      </trkpt>
      <trkpt lat="47.17718" lon="5.81305">
        <ele>230.8</ele>
        <time>2021-06-16T11:11:34Z</time>
      </trkpt>
      <trkpt lat="47.17713" lon="5.81304">
        <ele>230.8</ele>
        <time>2021-06-16T11:11:35Z</time>
      </trkpt>
      <trkpt lat="47.17702" lon="5.81301">
        <ele>230.8</ele>
        <time>2021-06-16T11:11:37Z</time>
      </trkpt>
      <trkpt lat="47.17696" lon="5.81301">
        <ele>230.8</ele>
        <time>2021-06-16T11:11:38Z</time>
      </trkpt>
      <trkpt lat="47.17689" lon="5.813">
        <ele>230.8</ele>
        <time>2021-06-16T11:11:39Z</time>
      </trkpt>
      <trkpt lat="47.17684" lon="5.813">
        <ele>230.8</ele>
        <time>2021-06-16T11:11:40Z</time>
      </trkpt>
      <trkpt lat="47.17636" lon="5.8129">
        <ele>230.4</ele>
        <time>2021-06-16T11:11:48Z</time>
      </trkpt>
      <trkpt lat="47.17582" lon="5.81278">
        <ele>230.2</ele>
        <time>2021-06-16T11:11:57Z</time>
      </trkpt>
      <trkpt lat="47.1757" lon="5.81274">
        <ele>230.2</ele>
        <time>2021-06-16T11:11:59Z</time>
      </trkpt>
      <trkpt lat="47.17514" lon="5.81255">
        <ele>230.2</ele>
        <time>2021-06-16T11:12:08Z</time>
      </trkpt>
      <trkpt lat="47.17501" lon="5.81252">
        <ele>230.2</ele>
        <time>2021-06-16T11:12:10Z</time>
      </trkpt>
      <trkpt lat="47.17497" lon="5.81251">
        <ele>230.2</ele>
        <time>2021-06-16T11:12:11Z</time>
      </trkpt>
      <trkpt lat="47.17479" lon="5.81246">
        <ele>230</ele>
        <time>2021-06-16T11:12:14Z</time>
      </trkpt>
      <trkpt lat="47.17472" lon="5.81244">
        <ele>230</ele>
        <time>2021-06-16T11:12:15Z</time>
      </trkpt>
      <trkpt lat="47.17468" lon="5.81243">
        <ele>230</ele>
        <time>2021-06-16T11:12:16Z</time>
      </trkpt>
      <trkpt lat="47.17464" lon="5.81242">
        <ele>230</ele>
        <time>2021-06-16T11:12:17Z</time>
      </trkpt>
      <trkpt lat="47.17459" lon="5.81241">
        <ele>230</ele>
        <time>2021-06-16T11:12:18Z</time>
      </trkpt>
      <trkpt lat="47.17453" lon="5.81239">
        <ele>230</ele>
        <time>2021-06-16T11:12:19Z</time>
      </trkpt>
      <trkpt lat="47.17448" lon="5.81238">
        <ele>230.4</ele>
        <time>2021-06-16T11:12:20Z</time>
      </trkpt>
      <trkpt lat="47.1744" lon="5.81236">
        <ele>230.4</ele>
        <time>2021-06-16T11:12:22Z</time>
      </trkpt>
      <trkpt lat="47.17434" lon="5.81234">
        <ele>230.6</ele>
        <time>2021-06-16T11:12:23Z</time>
      </trkpt>
      <trkpt lat="47.17429" lon="5.81232">
        <ele>230.6</ele>
        <time>2021-06-16T11:12:24Z</time>
      </trkpt>
      <trkpt lat="47.17425" lon="5.8123">
        <ele>230.6</ele>
        <time>2021-06-16T11:12:25Z</time>
      </trkpt>
      <trkpt lat="47.17387" lon="5.8121">
        <ele>230.6</ele>
        <time>2021-06-16T11:12:33Z</time>
      </trkpt>
      <trkpt lat="47.17349" lon="5.81193">
        <ele>230.2</ele>
        <time>2021-06-16T11:12:40Z</time>
      </trkpt>
      <trkpt lat="47.17321" lon="5.81189">
        <ele>229.8</ele>
        <time>2021-06-16T11:12:45Z</time>
      </trkpt>
      <trkpt lat="47.17316" lon="5.81188">
        <ele>229.8</ele>
        <time>2021-06-16T11:12:46Z</time>
      </trkpt>
      <trkpt lat="47.17311" lon="5.81187">
        <ele>229.8</ele>
        <time>2021-06-16T11:12:47Z</time>
      </trkpt>
      <trkpt lat="47.17305" lon="5.81186">
        <ele>229.8</ele>
        <time>2021-06-16T11:12:48Z</time>
      </trkpt>
      <trkpt lat="47.173" lon="5.81185">
        <ele>229.6</ele>
        <time>2021-06-16T11:12:49Z</time>
      </trkpt>
      <trkpt lat="47.17295" lon="5.81184">
        <ele>229.6</ele>
        <time>2021-06-16T11:12:50Z</time>
      </trkpt>
      <trkpt lat="47.1729" lon="5.81183">
        <ele>229.8</ele>
        <time>2021-06-16T11:12:51Z</time>
      </trkpt>
      <trkpt lat="47.17284" lon="5.81182">
        <ele>229.8</ele>
        <time>2021-06-16T11:12:52Z</time>
      </trkpt>
      <trkpt lat="47.17279" lon="5.81181">
        <ele>229.8</ele>
        <time>2021-06-16T11:12:53Z</time>
      </trkpt>
      <trkpt lat="47.17274" lon="5.8118">
        <ele>229.6</ele>
        <time>2021-06-16T11:12:54Z</time>
      </trkpt>
      <trkpt lat="47.17269" lon="5.81179">
        <ele>229.6</ele>
        <time>2021-06-16T11:12:55Z</time>
      </trkpt>
      <trkpt lat="47.17264" lon="5.81178">
        <ele>229.4</ele>
        <time>2021-06-16T11:12:56Z</time>
      </trkpt>
      <trkpt lat="47.17259" lon="5.81177">
        <ele>229.2</ele>
        <time>2021-06-16T11:12:57Z</time>
      </trkpt>
      <trkpt lat="47.17254" lon="5.81176">
        <ele>229.2</ele>
        <time>2021-06-16T11:12:58Z</time>
      </trkpt>
      <trkpt lat="47.17249" lon="5.81176">
        <ele>229.2</ele>
        <time>2021-06-16T11:12:59Z</time>
      </trkpt>
      <trkpt lat="47.17244" lon="5.81175">
        <ele>229.2</ele>
        <time>2021-06-16T11:13:00Z</time>
      </trkpt>
      <trkpt lat="47.17239" lon="5.81174">
        <ele>229.2</ele>
        <time>2021-06-16T11:13:01Z</time>
      </trkpt>
      <trkpt lat="47.17228" lon="5.81172">
        <ele>229.2</ele>
        <time>2021-06-16T11:13:03Z</time>
      </trkpt>
      <trkpt lat="47.17225" lon="5.81171">
        <ele>229.2</ele>
        <time>2021-06-16T11:13:04Z</time>
      </trkpt>
      <trkpt lat="47.1722" lon="5.81169">
        <ele>229.2</ele>
        <time>2021-06-16T11:13:05Z</time>
      </trkpt>
      <trkpt lat="47.17215" lon="5.81168">
        <ele>229.2</ele>
        <time>2021-06-16T11:13:06Z</time>
      </trkpt>
      <trkpt lat="47.17211" lon="5.81167">
        <ele>229.2</ele>
        <time>2021-06-16T11:13:07Z</time>
      </trkpt>
      <trkpt lat="47.17206" lon="5.81166">
        <ele>229.2</ele>
        <time>2021-06-16T11:13:08Z</time>
      </trkpt>
      <trkpt lat="47.17201" lon="5.81164">
        <ele>229.2</ele>
        <time>2021-06-16T11:13:09Z</time>
      </trkpt>
      <trkpt lat="47.17177" lon="5.81159">
        <ele>229.2</ele>
        <time>2021-06-16T11:13:14Z</time>
      </trkpt>
      <trkpt lat="47.17165" lon="5.81157">
        <ele>229.2</ele>
        <time>2021-06-16T11:13:17Z</time>
      </trkpt>
      <trkpt lat="47.17162" lon="5.81156">
        <ele>229.2</ele>
        <time>2021-06-16T11:13:18Z</time>
      </trkpt>
      <trkpt lat="47.17158" lon="5.81155">
        <ele>229.2</ele>
        <time>2021-06-16T11:13:19Z</time>
      </trkpt>
      <trkpt lat="47.17154" lon="5.81154">
        <ele>229.4</ele>
        <time>2021-06-16T11:13:20Z</time>
      </trkpt>
      <trkpt lat="47.17124" lon="5.81146">
        <ele>229.4</ele>
        <time>2021-06-16T11:13:27Z</time>
      </trkpt>
      <trkpt lat="47.17084" lon="5.81135">
        <ele>229.6</ele>
        <time>2021-06-16T11:13:35Z</time>
      </trkpt>
      <trkpt lat="47.17031" lon="5.81122">
        <ele>229.4</ele>
        <time>2021-06-16T11:13:45Z</time>
      </trkpt>
      <trkpt lat="47.17008" lon="5.81116">
        <ele>229.4</ele>
        <time>2021-06-16T11:13:49Z</time>
      </trkpt>
      <trkpt lat="47.16997" lon="5.81119">
        <ele>229.4</ele>
        <time>2021-06-16T11:13:51Z</time>
      </trkpt>
      <trkpt lat="47.16994" lon="5.81122">
        <ele>229.4</ele>
        <time>2021-06-16T11:13:52Z</time>
      </trkpt>
      <trkpt lat="47.1699" lon="5.81128">
        <ele>229.4</ele>
        <time>2021-06-16T11:13:53Z</time>
      </trkpt>
      <trkpt lat="47.16987" lon="5.81134">
        <ele>229.4</ele>
        <time>2021-06-16T11:13:54Z</time>
      </trkpt>
      <trkpt lat="47.16983" lon="5.8114">
        <ele>229.4</ele>
        <time>2021-06-16T11:13:55Z</time>
      </trkpt>
      <trkpt lat="47.16961" lon="5.8117">
        <ele>229.4</ele>
        <time>2021-06-16T11:14:00Z</time>
      </trkpt>
      <trkpt lat="47.16957" lon="5.81177">
        <ele>229.4</ele>
        <time>2021-06-16T11:14:01Z</time>
      </trkpt>
      <trkpt lat="47.16936" lon="5.81217">
        <ele>229.6</ele>
        <time>2021-06-16T11:14:07Z</time>
      </trkpt>
      <trkpt lat="47.16928" lon="5.81228">
        <ele>229.8</ele>
        <time>2021-06-16T11:14:09Z</time>
      </trkpt>
      <trkpt lat="47.16924" lon="5.81233">
        <ele>229.8</ele>
        <time>2021-06-16T11:14:10Z</time>
      </trkpt>
      <trkpt lat="47.16914" lon="5.81243">
        <ele>230</ele>
        <time>2021-06-16T11:14:12Z</time>
      </trkpt>
      <trkpt lat="47.16869" lon="5.81285">
        <ele>230.2</ele>
        <time>2021-06-16T11:14:21Z</time>
      </trkpt>
      <trkpt lat="47.16838" lon="5.81324">
        <ele>230.2</ele>
        <time>2021-06-16T11:14:28Z</time>
      </trkpt>
      <trkpt lat="47.16834" lon="5.8133">
        <ele>230.2</ele>
        <time>2021-06-16T11:14:29Z</time>
      </trkpt>
      <trkpt lat="47.1683" lon="5.81337">
        <ele>230.2</ele>
        <time>2021-06-16T11:14:30Z</time>
      </trkpt>
      <trkpt lat="47.16827" lon="5.81343">
        <ele>230.2</ele>
        <time>2021-06-16T11:14:31Z</time>
      </trkpt>
      <trkpt lat="47.16819" lon="5.81366">
        <ele>230.4</ele>
        <time>2021-06-16T11:14:34Z</time>
      </trkpt>
      <trkpt lat="47.1681" lon="5.81405">
        <ele>230.6</ele>
        <time>2021-06-16T11:14:39Z</time>
      </trkpt>
      <trkpt lat="47.16809" lon="5.81414">
        <ele>230.6</ele>
        <time>2021-06-16T11:14:40Z</time>
      </trkpt>
      <trkpt lat="47.16802" lon="5.81482">
        <ele>230.8</ele>
        <time>2021-06-16T11:14:48Z</time>
      </trkpt>
      <trkpt lat="47.16802" lon="5.8149">
        <ele>230.8</ele>
        <time>2021-06-16T11:14:49Z</time>
      </trkpt>
      <trkpt lat="47.16805" lon="5.81559">
        <ele>231.2</ele>
        <time>2021-06-16T11:14:57Z</time>
      </trkpt>
      <trkpt lat="47.16807" lon="5.8164">
        <ele>231</ele>
        <time>2021-06-16T11:15:06Z</time>
      </trkpt>
      <trkpt lat="47.16809" lon="5.817">
        <ele>231.2</ele>
        <time>2021-06-16T11:15:13Z</time>
      </trkpt>
      <trkpt lat="47.16809" lon="5.81719">
        <ele>231.2</ele>
        <time>2021-06-16T11:15:15Z</time>
      </trkpt>
      <trkpt lat="47.16808" lon="5.81761">
        <ele>231.2</ele>
        <time>2021-06-16T11:15:20Z</time>
      </trkpt>
      <trkpt lat="47.16805" lon="5.81813">
        <ele>231.2</ele>
        <time>2021-06-16T11:15:26Z</time>
      </trkpt>
      <trkpt lat="47.16803" lon="5.81829">
        <ele>231.2</ele>
        <time>2021-06-16T11:15:28Z</time>
      </trkpt>
      <trkpt lat="47.16802" lon="5.81837">
        <ele>231.2</ele>
        <time>2021-06-16T11:15:29Z</time>
      </trkpt>
      <trkpt lat="47.16801" lon="5.81845">
        <ele>231.2</ele>
        <time>2021-06-16T11:15:30Z</time>
      </trkpt>
      <trkpt lat="47.168" lon="5.81855">
        <ele>231.2</ele>
        <time>2021-06-16T11:15:31Z</time>
      </trkpt>
      <trkpt lat="47.16799" lon="5.81863">
        <ele>231.2</ele>
        <time>2021-06-16T11:15:32Z</time>
      </trkpt>
      <trkpt lat="47.16798" lon="5.8187">
        <ele>231.2</ele>
        <time>2021-06-16T11:15:33Z</time>
      </trkpt>
      <trkpt lat="47.16797" lon="5.8188">
        <ele>231.4</ele>
        <time>2021-06-16T11:15:34Z</time>
      </trkpt>
      <trkpt lat="47.16795" lon="5.81888">
        <ele>231.4</ele>
        <time>2021-06-16T11:15:35Z</time>
      </trkpt>
      <trkpt lat="47.16795" lon="5.81894">
        <ele>231.4</ele>
        <time>2021-06-16T11:15:36Z</time>
      </trkpt>
      <trkpt lat="47.16792" lon="5.81909">
        <ele>231.6</ele>
        <time>2021-06-16T11:15:38Z</time>
      </trkpt>
      <trkpt lat="47.16791" lon="5.81916">
        <ele>231.8</ele>
        <time>2021-06-16T11:15:39Z</time>
      </trkpt>
      <trkpt lat="47.16788" lon="5.8193">
        <ele>231.8</ele>
        <time>2021-06-16T11:15:41Z</time>
      </trkpt>
      <trkpt lat="47.16787" lon="5.81938">
        <ele>231.8</ele>
        <time>2021-06-16T11:15:42Z</time>
      </trkpt>
      <trkpt lat="47.16787" lon="5.81946">
        <ele>232</ele>
        <time>2021-06-16T11:15:43Z</time>
      </trkpt>
      <trkpt lat="47.16786" lon="5.81953">
        <ele>232</ele>
        <time>2021-06-16T11:15:44Z</time>
      </trkpt>
      <trkpt lat="47.16781" lon="5.81987">
        <ele>232</ele>
        <time>2021-06-16T11:15:48Z</time>
      </trkpt>
      <trkpt lat="47.16768" lon="5.82057">
        <ele>232.2</ele>
        <time>2021-06-16T11:15:57Z</time>
      </trkpt>
      <trkpt lat="47.16766" lon="5.82064">
        <ele>232.2</ele>
        <time>2021-06-16T11:15:58Z</time>
      </trkpt>
      <trkpt lat="47.16756" lon="5.82102">
        <ele>232.4</ele>
        <time>2021-06-16T11:16:03Z</time>
      </trkpt>
      <trkpt lat="47.16734" lon="5.82171">
        <ele>232.2</ele>
        <time>2021-06-16T11:16:12Z</time>
      </trkpt>
      <trkpt lat="47.16724" lon="5.82201">
        <ele>232.2</ele>
        <time>2021-06-16T11:16:16Z</time>
      </trkpt>
      <trkpt lat="47.16722" lon="5.82207">
        <ele>232.2</ele>
        <time>2021-06-16T11:16:17Z</time>
      </trkpt>
      <trkpt lat="47.16722" lon="5.82213">
        <ele>232.2</ele>
        <time>2021-06-16T11:16:18Z</time>
      </trkpt>
      <trkpt lat="47.16723" lon="5.82217">
        <ele>232.2</ele>
        <time>2021-06-16T11:16:19Z</time>
      </trkpt>
      <trkpt lat="47.16724" lon="5.82221">
        <ele>232.2</ele>
        <time>2021-06-16T11:16:20Z</time>
      </trkpt>
      <trkpt lat="47.16725" lon="5.82226">
        <ele>232.2</ele>
        <time>2021-06-16T11:16:21Z</time>
      </trkpt>
      <trkpt lat="47.16725" lon="5.82229">
        <ele>232.2</ele>
        <time>2021-06-16T11:16:22Z</time>
      </trkpt>
      <trkpt lat="47.16724" lon="5.82233">
        <ele>232.2</ele>
        <time>2021-06-16T11:16:23Z</time>
      </trkpt>
      <trkpt lat="47.16722" lon="5.82236">
        <ele>232</ele>
        <time>2021-06-16T11:16:24Z</time>
      </trkpt>
      <trkpt lat="47.16721" lon="5.82239">
        <ele>232</ele>
        <time>2021-06-16T11:16:25Z</time>
      </trkpt>
      <trkpt lat="47.16719" lon="5.82244">
        <ele>232</ele>
        <time>2021-06-16T11:16:26Z</time>
      </trkpt>
      <trkpt lat="47.16718" lon="5.82253">
        <ele>231.8</ele>
        <time>2021-06-16T11:16:28Z</time>
      </trkpt>
      <trkpt lat="47.16717" lon="5.82258">
        <ele>231.6</ele>
        <time>2021-06-16T11:16:29Z</time>
      </trkpt>
      <trkpt lat="47.16715" lon="5.82268">
        <ele>231.6</ele>
        <time>2021-06-16T11:16:31Z</time>
      </trkpt>
      <trkpt lat="47.16713" lon="5.82274">
        <ele>231.6</ele>
        <time>2021-06-16T11:16:33Z</time>
      </trkpt>
      <trkpt lat="47.16712" lon="5.82276">
        <ele>231.6</ele>
        <time>2021-06-16T11:16:34Z</time>
      </trkpt>
      <trkpt lat="47.1671" lon="5.82279">
        <ele>231.6</ele>
        <time>2021-06-16T11:16:35Z</time>
      </trkpt>
      <trkpt lat="47.16709" lon="5.82281">
        <ele>231.6</ele>
        <time>2021-06-16T11:16:36Z</time>
      </trkpt>
      <trkpt lat="47.16709" lon="5.82283">
        <ele>231.6</ele>
        <time>2021-06-16T11:16:37Z</time>
      </trkpt>
      <trkpt lat="47.16708" lon="5.82285">
        <ele>231.6</ele>
        <time>2021-06-16T11:16:38Z</time>
      </trkpt>
      <trkpt lat="47.16706" lon="5.82286">
        <ele>231.8</ele>
        <time>2021-06-16T11:16:39Z</time>
      </trkpt>
      <trkpt lat="47.16705" lon="5.82288">
        <ele>231.8</ele>
        <time>2021-06-16T11:16:40Z</time>
      </trkpt>
      <trkpt lat="47.16705" lon="5.8229">
        <ele>231.8</ele>
        <time>2021-06-16T11:16:41Z</time>
      </trkpt>
      <trkpt lat="47.16705" lon="5.82292">
        <ele>231.8</ele>
        <time>2021-06-16T11:16:42Z</time>
      </trkpt>
      <trkpt lat="47.16704" lon="5.82294">
        <ele>231.8</ele>
        <time>2021-06-16T11:16:43Z</time>
      </trkpt>
      <trkpt lat="47.16704" lon="5.82296">
        <ele>231.8</ele>
        <time>2021-06-16T11:16:44Z</time>
      </trkpt>
      <trkpt lat="47.16703" lon="5.82298">
        <ele>231.8</ele>
        <time>2021-06-16T11:16:45Z</time>
      </trkpt>
      <trkpt lat="47.16702" lon="5.82302">
        <ele>231.8</ele>
        <time>2021-06-16T11:16:46Z</time>
      </trkpt>
      <trkpt lat="47.167" lon="5.82305">
        <ele>231.8</ele>
        <time>2021-06-16T11:16:47Z</time>
      </trkpt>
      <trkpt lat="47.16699" lon="5.82308">
        <ele>232</ele>
        <time>2021-06-16T11:16:48Z</time>
      </trkpt>
      <trkpt lat="47.16697" lon="5.82311">
        <ele>232</ele>
        <time>2021-06-16T11:16:49Z</time>
      </trkpt>
      <trkpt lat="47.16692" lon="5.82321">
        <ele>232</ele>
        <time>2021-06-16T11:16:52Z</time>
      </trkpt>
      <trkpt lat="47.16691" lon="5.82325">
        <ele>232</ele>
        <time>2021-06-16T11:16:53Z</time>
      </trkpt>
      <trkpt lat="47.16689" lon="5.82331">
        <ele>232</ele>
        <time>2021-06-16T11:16:54Z</time>
      </trkpt>
      <trkpt lat="47.16681" lon="5.82356">
        <ele>231.6</ele>
        <time>2021-06-16T11:16:59Z</time>
      </trkpt>
      <trkpt lat="47.1668" lon="5.82366">
        <ele>231.6</ele>
        <time>2021-06-16T11:17:01Z</time>
      </trkpt>
      <trkpt lat="47.16679" lon="5.82371">
        <ele>231.4</ele>
        <time>2021-06-16T11:17:02Z</time>
      </trkpt>
      <trkpt lat="47.16676" lon="5.82382">
        <ele>231.4</ele>
        <time>2021-06-16T11:17:04Z</time>
      </trkpt>
      <trkpt lat="47.16675" lon="5.82385">
        <ele>231.2</ele>
        <time>2021-06-16T11:17:05Z</time>
      </trkpt>
      <trkpt lat="47.16673" lon="5.82388">
        <ele>231.2</ele>
        <time>2021-06-16T11:17:06Z</time>
      </trkpt>
      <trkpt lat="47.16673" lon="5.82393">
        <ele>231.2</ele>
        <time>2021-06-16T11:17:07Z</time>
      </trkpt>
      <trkpt lat="47.16673" lon="5.82398">
        <ele>231.2</ele>
        <time>2021-06-16T11:17:08Z</time>
      </trkpt>
      <trkpt lat="47.16672" lon="5.82402">
        <ele>231.2</ele>
        <time>2021-06-16T11:17:09Z</time>
      </trkpt>
      <trkpt lat="47.16671" lon="5.82405">
        <ele>231.2</ele>
        <time>2021-06-16T11:17:10Z</time>
      </trkpt>
      <trkpt lat="47.16669" lon="5.82412">
        <ele>231.2</ele>
        <time>2021-06-16T11:17:12Z</time>
      </trkpt>
      <trkpt lat="47.16668" lon="5.82416">
        <ele>231.2</ele>
        <time>2021-06-16T11:17:13Z</time>
      </trkpt>
      <trkpt lat="47.16667" lon="5.82418">
        <ele>231.2</ele>
        <time>2021-06-16T11:17:14Z</time>
      </trkpt>
      <trkpt lat="47.16666" lon="5.8242">
        <ele>231.2</ele>
        <time>2021-06-16T11:17:15Z</time>
      </trkpt>
      <trkpt lat="47.16665" lon="5.82422">
        <ele>231.2</ele>
        <time>2021-06-16T11:17:16Z</time>
      </trkpt>
      <trkpt lat="47.16665" lon="5.82426">
        <ele>231.2</ele>
        <time>2021-06-16T11:17:17Z</time>
      </trkpt>
      <trkpt lat="47.16665" lon="5.82429">
        <ele>231.2</ele>
        <time>2021-06-16T11:17:18Z</time>
      </trkpt>
      <trkpt lat="47.16664" lon="5.82433">
        <ele>231.2</ele>
        <time>2021-06-16T11:17:19Z</time>
      </trkpt>
      <trkpt lat="47.16665" lon="5.82438">
        <ele>231.2</ele>
        <time>2021-06-16T11:17:20Z</time>
      </trkpt>
      <trkpt lat="47.16664" lon="5.82441">
        <ele>231.2</ele>
        <time>2021-06-16T11:17:21Z</time>
      </trkpt>
      <trkpt lat="47.16663" lon="5.82443">
        <ele>231.2</ele>
        <time>2021-06-16T11:17:22Z</time>
      </trkpt>
      <trkpt lat="47.16661" lon="5.82451">
        <ele>231.2</ele>
        <time>2021-06-16T11:17:24Z</time>
      </trkpt>
      <trkpt lat="47.16661" lon="5.82456">
        <ele>231.2</ele>
        <time>2021-06-16T11:17:25Z</time>
      </trkpt>
      <trkpt lat="47.16661" lon="5.8246">
        <ele>231.2</ele>
        <time>2021-06-16T11:17:26Z</time>
      </trkpt>
      <trkpt lat="47.16658" lon="5.82468">
        <ele>231.4</ele>
        <time>2021-06-16T11:17:28Z</time>
      </trkpt>
      <trkpt lat="47.16657" lon="5.82469">
        <ele>231.4</ele>
        <time>2021-06-16T11:17:29Z</time>
      </trkpt>
      <trkpt lat="47.16656" lon="5.82474">
        <ele>231.4</ele>
        <time>2021-06-16T11:17:30Z</time>
      </trkpt>
      <trkpt lat="47.16657" lon="5.82478">
        <ele>231.4</ele>
        <time>2021-06-16T11:17:31Z</time>
      </trkpt>
      <trkpt lat="47.16657" lon="5.82481">
        <ele>231.4</ele>
        <time>2021-06-16T11:17:32Z</time>
      </trkpt>
      <trkpt lat="47.16657" lon="5.82483">
        <ele>231.4</ele>
        <time>2021-06-16T11:17:33Z</time>
      </trkpt>
      <trkpt lat="47.16657" lon="5.82485">
        <ele>231.6</ele>
        <time>2021-06-16T11:17:34Z</time>
      </trkpt>
      <trkpt lat="47.16657" lon="5.82487">
        <ele>231.6</ele>
        <time>2021-06-16T11:17:35Z</time>
      </trkpt>
      <trkpt lat="47.16657" lon="5.8249">
        <ele>231.6</ele>
        <time>2021-06-16T11:17:36Z</time>
      </trkpt>
      <trkpt lat="47.16656" lon="5.82492">
        <ele>231.6</ele>
        <time>2021-06-16T11:17:37Z</time>
      </trkpt>
      <trkpt lat="47.16655" lon="5.82494">
        <ele>231.6</ele>
        <time>2021-06-16T11:17:38Z</time>
      </trkpt>
      <trkpt lat="47.16654" lon="5.82497">
        <ele>231.6</ele>
        <time>2021-06-16T11:17:39Z</time>
      </trkpt>
      <trkpt lat="47.16654" lon="5.82501">
        <ele>231.6</ele>
        <time>2021-06-16T11:17:40Z</time>
      </trkpt>
      <trkpt lat="47.16654" lon="5.82504">
        <ele>231.6</ele>
        <time>2021-06-16T11:17:41Z</time>
      </trkpt>
      <trkpt lat="47.16654" lon="5.82511">
        <ele>231.6</ele>
        <time>2021-06-16T11:17:43Z</time>
      </trkpt>
      <trkpt lat="47.16654" lon="5.82515">
        <ele>231.6</ele>
        <time>2021-06-16T11:17:44Z</time>
      </trkpt>
      <trkpt lat="47.16655" lon="5.82519">
        <ele>231.6</ele>
        <time>2021-06-16T11:17:45Z</time>
      </trkpt>
      <trkpt lat="47.16654" lon="5.82522">
        <ele>231.8</ele>
        <time>2021-06-16T11:17:46Z</time>
      </trkpt>
      <trkpt lat="47.16653" lon="5.82528">
        <ele>231.6</ele>
        <time>2021-06-16T11:17:48Z</time>
      </trkpt>
      <trkpt lat="47.16652" lon="5.82532">
        <ele>231.6</ele>
        <time>2021-06-16T11:17:49Z</time>
      </trkpt>
      <trkpt lat="47.1665" lon="5.8254">
        <ele>231.4</ele>
        <time>2021-06-16T11:17:51Z</time>
      </trkpt>
      <trkpt lat="47.1665" lon="5.82544">
        <ele>231.6</ele>
        <time>2021-06-16T11:17:52Z</time>
      </trkpt>
      <trkpt lat="47.16651" lon="5.82548">
        <ele>231.4</ele>
        <time>2021-06-16T11:17:53Z</time>
      </trkpt>
      <trkpt lat="47.16651" lon="5.82563">
        <ele>231.6</ele>
        <time>2021-06-16T11:17:56Z</time>
      </trkpt>
      <trkpt lat="47.16654" lon="5.8259">
        <ele>231.6</ele>
        <time>2021-06-16T11:18:01Z</time>
      </trkpt>
      <trkpt lat="47.16654" lon="5.82591">
        <ele>231.6</ele>
        <time>2021-06-16T11:18:02Z</time>
      </trkpt>
      <trkpt lat="47.16654" lon="5.82591">
        <ele>231.4</ele>
        <time>2021-06-16T11:18:05Z</time>
      </trkpt>
      <trkpt lat="47.16654" lon="5.82591">
        <ele>230.4</ele>
        <time>2021-06-16T11:18:24Z</time>
      </trkpt>
      <trkpt lat="47.16654" lon="5.82591">
        <ele>230.4</ele>
        <time>2021-06-16T11:18:28Z</time>
      </trkpt>
      <trkpt lat="47.16654" lon="5.82591">
        <ele>230.2</ele>
        <time>2021-06-16T11:18:43Z</time>
      </trkpt>
      <trkpt lat="47.16654" lon="5.82591">
        <ele>230.2</ele>
        <time>2021-06-16T11:19:55Z</time>
      </trkpt>
      <trkpt lat="47.16655" lon="5.82594">
        <ele>230.6</ele>
        <time>2021-06-16T11:20:37Z</time>
      </trkpt>
      <trkpt lat="47.16657" lon="5.82599">
        <ele>230.6</ele>
        <time>2021-06-16T11:20:39Z</time>
      </trkpt>
      <trkpt lat="47.16658" lon="5.82602">
        <ele>230.6</ele>
        <time>2021-06-16T11:20:40Z</time>
      </trkpt>
      <trkpt lat="47.1666" lon="5.82605">
        <ele>230.6</ele>
        <time>2021-06-16T11:20:41Z</time>
      </trkpt>
      <trkpt lat="47.16662" lon="5.82608">
        <ele>230.4</ele>
        <time>2021-06-16T11:20:42Z</time>
      </trkpt>
      <trkpt lat="47.16666" lon="5.82611">
        <ele>230.4</ele>
        <time>2021-06-16T11:20:43Z</time>
      </trkpt>
      <trkpt lat="47.16668" lon="5.82614">
        <ele>230.4</ele>
        <time>2021-06-16T11:20:44Z</time>
      </trkpt>
      <trkpt lat="47.16681" lon="5.82624">
        <ele>230.4</ele>
        <time>2021-06-16T11:20:48Z</time>
      </trkpt>
      <trkpt lat="47.16688" lon="5.8263">
        <ele>230.4</ele>
        <time>2021-06-16T11:20:50Z</time>
      </trkpt>
      <trkpt lat="47.16717" lon="5.8265">
        <ele>230.4</ele>
        <time>2021-06-16T11:20:57Z</time>
      </trkpt>
      <trkpt lat="47.16747" lon="5.82665">
        <ele>230.4</ele>
        <time>2021-06-16T11:21:04Z</time>
      </trkpt>
      <trkpt lat="47.16752" lon="5.82666">
        <ele>230.4</ele>
        <time>2021-06-16T11:21:05Z</time>
      </trkpt>
      <trkpt lat="47.16771" lon="5.82667">
        <ele>230.4</ele>
        <time>2021-06-16T11:21:09Z</time>
      </trkpt>
      <trkpt lat="47.16782" lon="5.82664">
        <ele>230.6</ele>
        <time>2021-06-16T11:21:11Z</time>
      </trkpt>
      <trkpt lat="47.16821" lon="5.8266">
        <ele>230.8</ele>
        <time>2021-06-16T11:21:18Z</time>
      </trkpt>
      <trkpt lat="47.1686" lon="5.82666">
        <ele>230.6</ele>
        <time>2021-06-16T11:21:25Z</time>
      </trkpt>
      <trkpt lat="47.16865" lon="5.82668">
        <ele>230.6</ele>
        <time>2021-06-16T11:21:26Z</time>
      </trkpt>
      <trkpt lat="47.16868" lon="5.82669">
        <ele>230.4</ele>
        <time>2021-06-16T11:21:27Z</time>
      </trkpt>
      <trkpt lat="47.16873" lon="5.82671">
        <ele>230.6</ele>
        <time>2021-06-16T11:21:28Z</time>
      </trkpt>
      <trkpt lat="47.16877" lon="5.82673">
        <ele>230.6</ele>
        <time>2021-06-16T11:21:29Z</time>
      </trkpt>
      <trkpt lat="47.16881" lon="5.82675">
        <ele>230.6</ele>
        <time>2021-06-16T11:21:30Z</time>
      </trkpt>
      <trkpt lat="47.16884" lon="5.82677">
        <ele>230.6</ele>
        <time>2021-06-16T11:21:31Z</time>
      </trkpt>
      <trkpt lat="47.16887" lon="5.82679">
        <ele>230.6</ele>
        <time>2021-06-16T11:21:32Z</time>
      </trkpt>
      <trkpt lat="47.16889" lon="5.82682">
        <ele>230.6</ele>
        <time>2021-06-16T11:21:33Z</time>
      </trkpt>
      <trkpt lat="47.16892" lon="5.82685">
        <ele>230.6</ele>
        <time>2021-06-16T11:21:34Z</time>
      </trkpt>
      <trkpt lat="47.16894" lon="5.82689">
        <ele>230.8</ele>
        <time>2021-06-16T11:21:35Z</time>
      </trkpt>
      <trkpt lat="47.16896" lon="5.82692">
        <ele>230.8</ele>
        <time>2021-06-16T11:21:36Z</time>
      </trkpt>
      <trkpt lat="47.16897" lon="5.82696">
        <ele>230.8</ele>
        <time>2021-06-16T11:21:37Z</time>
      </trkpt>
      <trkpt lat="47.16898" lon="5.827">
        <ele>230.8</ele>
        <time>2021-06-16T11:21:38Z</time>
      </trkpt>
      <trkpt lat="47.16898" lon="5.82704">
        <ele>230.8</ele>
        <time>2021-06-16T11:21:39Z</time>
      </trkpt>
      <trkpt lat="47.16898" lon="5.82709">
        <ele>230.8</ele>
        <time>2021-06-16T11:21:40Z</time>
      </trkpt>
      <trkpt lat="47.16898" lon="5.82713">
        <ele>230.8</ele>
        <time>2021-06-16T11:21:41Z</time>
      </trkpt>
      <trkpt lat="47.16897" lon="5.82718">
        <ele>230.8</ele>
        <time>2021-06-16T11:21:42Z</time>
      </trkpt>
      <trkpt lat="47.16895" lon="5.82722">
        <ele>230.8</ele>
        <time>2021-06-16T11:21:43Z</time>
      </trkpt>
      <trkpt lat="47.16893" lon="5.82723">
        <ele>230.8</ele>
        <time>2021-06-16T11:21:44Z</time>
      </trkpt>
      <trkpt lat="47.16891" lon="5.82723">
        <ele>230.8</ele>
        <time>2021-06-16T11:21:45Z</time>
      </trkpt>
      <trkpt lat="47.16889" lon="5.82724">
        <ele>230.8</ele>
        <time>2021-06-16T11:21:46Z</time>
      </trkpt>
      <trkpt lat="47.16887" lon="5.82727">
        <ele>230.8</ele>
        <time>2021-06-16T11:21:47Z</time>
      </trkpt>
      <trkpt lat="47.16885" lon="5.82732">
        <ele>230.8</ele>
        <time>2021-06-16T11:21:48Z</time>
      </trkpt>
      <trkpt lat="47.16881" lon="5.82748">
        <ele>230.8</ele>
        <time>2021-06-16T11:21:52Z</time>
      </trkpt>
      <trkpt lat="47.16879" lon="5.82752">
        <ele>230.8</ele>
        <time>2021-06-16T11:21:53Z</time>
      </trkpt>
      <trkpt lat="47.16879" lon="5.82752">
        <ele>230.8</ele>
        <time>2021-06-16T11:21:54Z</time>
      </trkpt>
      <trkpt lat="47.16879" lon="5.82752">
        <ele>230.8</ele>
        <time>2021-06-16T11:21:55Z</time>
      </trkpt>
      <trkpt lat="47.16879" lon="5.82752">
        <ele>230.6</ele>
        <time>2021-06-16T11:22:21Z</time>
      </trkpt>
      <trkpt lat="47.16876" lon="5.8276">
        <ele>230.6</ele>
        <time>2021-06-16T11:22:26Z</time>
      </trkpt>
      <trkpt lat="47.16876" lon="5.82763">
        <ele>230.6</ele>
        <time>2021-06-16T11:22:27Z</time>
      </trkpt>
      <trkpt lat="47.16875" lon="5.82766">
        <ele>230.6</ele>
        <time>2021-06-16T11:22:28Z</time>
      </trkpt>
      <trkpt lat="47.16873" lon="5.82773">
        <ele>230.6</ele>
        <time>2021-06-16T11:22:30Z</time>
      </trkpt>
      <trkpt lat="47.16871" lon="5.82777">
        <ele>230.6</ele>
        <time>2021-06-16T11:22:31Z</time>
      </trkpt>
      <trkpt lat="47.16869" lon="5.82781">
        <ele>230.6</ele>
        <time>2021-06-16T11:22:32Z</time>
      </trkpt>
      <trkpt lat="47.16866" lon="5.82789">
        <ele>230.6</ele>
        <time>2021-06-16T11:22:34Z</time>
      </trkpt>
      <trkpt lat="47.1686" lon="5.82806">
        <ele>230.4</ele>
        <time>2021-06-16T11:22:38Z</time>
      </trkpt>
      <trkpt lat="47.16845" lon="5.82843">
        <ele>230.2</ele>
        <time>2021-06-16T11:22:46Z</time>
      </trkpt>
      <trkpt lat="47.16836" lon="5.82855">
        <ele>230.2</ele>
        <time>2021-06-16T11:22:49Z</time>
      </trkpt>
      <trkpt lat="47.16827" lon="5.82868">
        <ele>229.8</ele>
        <time>2021-06-16T11:22:52Z</time>
      </trkpt>
      <trkpt lat="47.16813" lon="5.82889">
        <ele>229.2</ele>
        <time>2021-06-16T11:22:57Z</time>
      </trkpt>
      <trkpt lat="47.16811" lon="5.82892">
        <ele>229.2</ele>
        <time>2021-06-16T11:22:58Z</time>
      </trkpt>
      <trkpt lat="47.16808" lon="5.82896">
        <ele>229.4</ele>
        <time>2021-06-16T11:22:59Z</time>
      </trkpt>
      <trkpt lat="47.16806" lon="5.82899">
        <ele>229.6</ele>
        <time>2021-06-16T11:23:00Z</time>
      </trkpt>
      <trkpt lat="47.16803" lon="5.82903">
        <ele>229.6</ele>
        <time>2021-06-16T11:23:01Z</time>
      </trkpt>
      <trkpt lat="47.16797" lon="5.82915">
        <ele>229.8</ele>
        <time>2021-06-16T11:23:04Z</time>
      </trkpt>
      <trkpt lat="47.16793" lon="5.82924">
        <ele>230</ele>
        <time>2021-06-16T11:23:06Z</time>
      </trkpt>
      <trkpt lat="47.16791" lon="5.82929">
        <ele>230</ele>
        <time>2021-06-16T11:23:07Z</time>
      </trkpt>
      <trkpt lat="47.16789" lon="5.82933">
        <ele>230</ele>
        <time>2021-06-16T11:23:08Z</time>
      </trkpt>
      <trkpt lat="47.16787" lon="5.82937">
        <ele>230</ele>
        <time>2021-06-16T11:23:09Z</time>
      </trkpt>
      <trkpt lat="47.16785" lon="5.8294">
        <ele>230</ele>
        <time>2021-06-16T11:23:10Z</time>
      </trkpt>
      <trkpt lat="47.16782" lon="5.82943">
        <ele>230</ele>
        <time>2021-06-16T11:23:11Z</time>
      </trkpt>
      <trkpt lat="47.16779" lon="5.82944">
        <ele>230</ele>
        <time>2021-06-16T11:23:12Z</time>
      </trkpt>
      <trkpt lat="47.16776" lon="5.82944">
        <ele>230</ele>
        <time>2021-06-16T11:23:13Z</time>
      </trkpt>
      <trkpt lat="47.16772" lon="5.82944">
        <ele>230</ele>
        <time>2021-06-16T11:23:14Z</time>
      </trkpt>
      <trkpt lat="47.16768" lon="5.82943">
        <ele>230.2</ele>
        <time>2021-06-16T11:23:15Z</time>
      </trkpt>
      <trkpt lat="47.16765" lon="5.82941">
        <ele>230.2</ele>
        <time>2021-06-16T11:23:16Z</time>
      </trkpt>
      <trkpt lat="47.1675" lon="5.82937">
        <ele>230.6</ele>
        <time>2021-06-16T11:23:20Z</time>
      </trkpt>
      <trkpt lat="47.16746" lon="5.82936">
        <ele>230.6</ele>
        <time>2021-06-16T11:23:21Z</time>
      </trkpt>
      <trkpt lat="47.16725" lon="5.82932">
        <ele>231</ele>
        <time>2021-06-16T11:23:27Z</time>
      </trkpt>
      <trkpt lat="47.16722" lon="5.82932">
        <ele>231</ele>
        <time>2021-06-16T11:23:28Z</time>
      </trkpt>
      <trkpt lat="47.16719" lon="5.82932">
        <ele>231</ele>
        <time>2021-06-16T11:23:29Z</time>
      </trkpt>
      <trkpt lat="47.16716" lon="5.82932">
        <ele>231.4</ele>
        <time>2021-06-16T11:23:30Z</time>
      </trkpt>
      <trkpt lat="47.16699" lon="5.82933">
        <ele>232.2</ele>
        <time>2021-06-16T11:23:35Z</time>
      </trkpt>
      <trkpt lat="47.16695" lon="5.82933">
        <ele>232.4</ele>
        <time>2021-06-16T11:23:36Z</time>
      </trkpt>
      <trkpt lat="47.16692" lon="5.82934">
        <ele>232.4</ele>
        <time>2021-06-16T11:23:37Z</time>
      </trkpt>
      <trkpt lat="47.1668" lon="5.82938">
        <ele>233.2</ele>
        <time>2021-06-16T11:23:41Z</time>
      </trkpt>
      <trkpt lat="47.16677" lon="5.82939">
        <ele>233.6</ele>
        <time>2021-06-16T11:23:42Z</time>
      </trkpt>
      <trkpt lat="47.16674" lon="5.82941">
        <ele>233.8</ele>
        <time>2021-06-16T11:23:43Z</time>
      </trkpt>
      <trkpt lat="47.16671" lon="5.82942">
        <ele>234</ele>
        <time>2021-06-16T11:23:44Z</time>
      </trkpt>
      <trkpt lat="47.16668" lon="5.82944">
        <ele>234</ele>
        <time>2021-06-16T11:23:45Z</time>
      </trkpt>
      <trkpt lat="47.16665" lon="5.82946">
        <ele>234.2</ele>
        <time>2021-06-16T11:23:46Z</time>
      </trkpt>
      <trkpt lat="47.16662" lon="5.82948">
        <ele>234.4</ele>
        <time>2021-06-16T11:23:47Z</time>
      </trkpt>
      <trkpt lat="47.16659" lon="5.8295">
        <ele>234.4</ele>
        <time>2021-06-16T11:23:48Z</time>
      </trkpt>
      <trkpt lat="47.16656" lon="5.82951">
        <ele>234.8</ele>
        <time>2021-06-16T11:23:49Z</time>
      </trkpt>
      <trkpt lat="47.16653" lon="5.82952">
        <ele>234.8</ele>
        <time>2021-06-16T11:23:50Z</time>
      </trkpt>
      <trkpt lat="47.16651" lon="5.82954">
        <ele>235</ele>
        <time>2021-06-16T11:23:51Z</time>
      </trkpt>
      <trkpt lat="47.16648" lon="5.82955">
        <ele>235</ele>
        <time>2021-06-16T11:23:52Z</time>
      </trkpt>
      <trkpt lat="47.16646" lon="5.82956">
        <ele>235</ele>
        <time>2021-06-16T11:23:53Z</time>
      </trkpt>
      <trkpt lat="47.16644" lon="5.82957">
        <ele>235.2</ele>
        <time>2021-06-16T11:23:54Z</time>
      </trkpt>
      <trkpt lat="47.16642" lon="5.82958">
        <ele>235.2</ele>
        <time>2021-06-16T11:23:55Z</time>
      </trkpt>
      <trkpt lat="47.16641" lon="5.82959">
        <ele>235.4</ele>
        <time>2021-06-16T11:23:56Z</time>
      </trkpt>
      <trkpt lat="47.16639" lon="5.8296">
        <ele>235.4</ele>
        <time>2021-06-16T11:23:57Z</time>
      </trkpt>
      <trkpt lat="47.16638" lon="5.82961">
        <ele>235.4</ele>
        <time>2021-06-16T11:23:58Z</time>
      </trkpt>
      <trkpt lat="47.16637" lon="5.82961">
        <ele>235.4</ele>
        <time>2021-06-16T11:23:59Z</time>
      </trkpt>
      <trkpt lat="47.16637" lon="5.82961">
        <ele>235.4</ele>
        <time>2021-06-16T11:24:00Z</time>
      </trkpt>
      <trkpt lat="47.16635" lon="5.82962">
        <ele>235.4</ele>
        <time>2021-06-16T11:24:01Z</time>
      </trkpt>
      <trkpt lat="47.16635" lon="5.82963">
        <ele>235.4</ele>
        <time>2021-06-16T11:24:02Z</time>
      </trkpt>
      <trkpt lat="47.16633" lon="5.82965">
        <ele>235.4</ele>
        <time>2021-06-16T11:24:03Z</time>
      </trkpt>
      <trkpt lat="47.16631" lon="5.82966">
        <ele>235.4</ele>
        <time>2021-06-16T11:24:04Z</time>
      </trkpt>
      <trkpt lat="47.16628" lon="5.82968">
        <ele>235.4</ele>
        <time>2021-06-16T11:24:05Z</time>
      </trkpt>
      <trkpt lat="47.16625" lon="5.8297">
        <ele>235.4</ele>
        <time>2021-06-16T11:24:06Z</time>
      </trkpt>
      <trkpt lat="47.16614" lon="5.82978">
        <ele>235.4</ele>
        <time>2021-06-16T11:24:10Z</time>
      </trkpt>
      <trkpt lat="47.16611" lon="5.82979">
        <ele>235.4</ele>
        <time>2021-06-16T11:24:11Z</time>
      </trkpt>
      <trkpt lat="47.16592" lon="5.82991">
        <ele>235.8</ele>
        <time>2021-06-16T11:24:17Z</time>
      </trkpt>
      <trkpt lat="47.16589" lon="5.82993">
        <ele>235.8</ele>
        <time>2021-06-16T11:24:18Z</time>
      </trkpt>
      <trkpt lat="47.16554" lon="5.83014">
        <ele>236</ele>
        <time>2021-06-16T11:24:27Z</time>
      </trkpt>
      <trkpt lat="47.16524" lon="5.83032">
        <ele>236</ele>
        <time>2021-06-16T11:24:34Z</time>
      </trkpt>
      <trkpt lat="47.16498" lon="5.83051">
        <ele>235.6</ele>
        <time>2021-06-16T11:24:40Z</time>
      </trkpt>
      <trkpt lat="47.16495" lon="5.83056">
        <ele>235.6</ele>
        <time>2021-06-16T11:24:41Z</time>
      </trkpt>
      <trkpt lat="47.16493" lon="5.83062">
        <ele>235.6</ele>
        <time>2021-06-16T11:24:42Z</time>
      </trkpt>
      <trkpt lat="47.16494" lon="5.83076">
        <ele>235.4</ele>
        <time>2021-06-16T11:24:44Z</time>
      </trkpt>
      <trkpt lat="47.16498" lon="5.8309">
        <ele>235</ele>
        <time>2021-06-16T11:24:46Z</time>
      </trkpt>
      <trkpt lat="47.16501" lon="5.83097">
        <ele>234.8</ele>
        <time>2021-06-16T11:24:47Z</time>
      </trkpt>
      <trkpt lat="47.16503" lon="5.83105">
        <ele>234.6</ele>
        <time>2021-06-16T11:24:48Z</time>
      </trkpt>
      <trkpt lat="47.16505" lon="5.83113">
        <ele>234.6</ele>
        <time>2021-06-16T11:24:49Z</time>
      </trkpt>
      <trkpt lat="47.16519" lon="5.83157">
        <ele>233.6</ele>
        <time>2021-06-16T11:24:54Z</time>
      </trkpt>
      <trkpt lat="47.16528" lon="5.83185">
        <ele>232.8</ele>
        <time>2021-06-16T11:24:57Z</time>
      </trkpt>
      <trkpt lat="47.16531" lon="5.83195">
        <ele>232.6</ele>
        <time>2021-06-16T11:24:58Z</time>
      </trkpt>
      <trkpt lat="47.16536" lon="5.83213">
        <ele>232.2</ele>
        <time>2021-06-16T11:25:00Z</time>
      </trkpt>
      <trkpt lat="47.16547" lon="5.83256">
        <ele>231.6</ele>
        <time>2021-06-16T11:25:05Z</time>
      </trkpt>
      <trkpt lat="47.16548" lon="5.83264">
        <ele>231.6</ele>
        <time>2021-06-16T11:25:06Z</time>
      </trkpt>
      <trkpt lat="47.16549" lon="5.83272">
        <ele>231.6</ele>
        <time>2021-06-16T11:25:07Z</time>
      </trkpt>
      <trkpt lat="47.16551" lon="5.8328">
        <ele>231.4</ele>
        <time>2021-06-16T11:25:08Z</time>
      </trkpt>
      <trkpt lat="47.16552" lon="5.83288">
        <ele>231.4</ele>
        <time>2021-06-16T11:25:09Z</time>
      </trkpt>
      <trkpt lat="47.16554" lon="5.83296">
        <ele>231.2</ele>
        <time>2021-06-16T11:25:10Z</time>
      </trkpt>
      <trkpt lat="47.16556" lon="5.83303">
        <ele>231.2</ele>
        <time>2021-06-16T11:25:11Z</time>
      </trkpt>
      <trkpt lat="47.16557" lon="5.83311">
        <ele>231.2</ele>
        <time>2021-06-16T11:25:12Z</time>
      </trkpt>
      <trkpt lat="47.16559" lon="5.83318">
        <ele>231.2</ele>
        <time>2021-06-16T11:25:13Z</time>
      </trkpt>
      <trkpt lat="47.16561" lon="5.83326">
        <ele>231.2</ele>
        <time>2021-06-16T11:25:14Z</time>
      </trkpt>
      <trkpt lat="47.16563" lon="5.83333">
        <ele>231.2</ele>
        <time>2021-06-16T11:25:15Z</time>
      </trkpt>
      <trkpt lat="47.16587" lon="5.83412">
        <ele>230.8</ele>
        <time>2021-06-16T11:25:26Z</time>
      </trkpt>
      <trkpt lat="47.16589" lon="5.8342">
        <ele>230.6</ele>
        <time>2021-06-16T11:25:27Z</time>
      </trkpt>
      <trkpt lat="47.16601" lon="5.8348">
        <ele>230.6</ele>
        <time>2021-06-16T11:25:35Z</time>
      </trkpt>
      <trkpt lat="47.16609" lon="5.83548">
        <ele>230.8</ele>
        <time>2021-06-16T11:25:44Z</time>
      </trkpt>
      <trkpt lat="47.16609" lon="5.83556">
        <ele>231</ele>
        <time>2021-06-16T11:25:45Z</time>
      </trkpt>
      <trkpt lat="47.1661" lon="5.83563">
        <ele>231</ele>
        <time>2021-06-16T11:25:46Z</time>
      </trkpt>
      <trkpt lat="47.1661" lon="5.83571">
        <ele>231</ele>
        <time>2021-06-16T11:25:47Z</time>
      </trkpt>
      <trkpt lat="47.16611" lon="5.83578">
        <ele>231.2</ele>
        <time>2021-06-16T11:25:48Z</time>
      </trkpt>
      <trkpt lat="47.16611" lon="5.83586">
        <ele>231.2</ele>
        <time>2021-06-16T11:25:49Z</time>
      </trkpt>
      <trkpt lat="47.16611" lon="5.83593">
        <ele>231.2</ele>
        <time>2021-06-16T11:25:50Z</time>
      </trkpt>
      <trkpt lat="47.16612" lon="5.836">
        <ele>231.4</ele>
        <time>2021-06-16T11:25:51Z</time>
      </trkpt>
      <trkpt lat="47.16613" lon="5.83614">
        <ele>231.6</ele>
        <time>2021-06-16T11:25:53Z</time>
      </trkpt>
      <trkpt lat="47.16614" lon="5.83621">
        <ele>231.6</ele>
        <time>2021-06-16T11:25:54Z</time>
      </trkpt>
      <trkpt lat="47.16614" lon="5.83628">
        <ele>231.6</ele>
        <time>2021-06-16T11:25:55Z</time>
      </trkpt>
      <trkpt lat="47.16615" lon="5.83635">
        <ele>231.8</ele>
        <time>2021-06-16T11:25:56Z</time>
      </trkpt>
      <trkpt lat="47.16615" lon="5.83642">
        <ele>231.8</ele>
        <time>2021-06-16T11:25:57Z</time>
      </trkpt>
      <trkpt lat="47.16615" lon="5.83649">
        <ele>231.8</ele>
        <time>2021-06-16T11:25:58Z</time>
      </trkpt>
      <trkpt lat="47.16615" lon="5.83715">
        <ele>232.2</ele>
        <time>2021-06-16T11:26:07Z</time>
      </trkpt>
      <trkpt lat="47.16614" lon="5.8373">
        <ele>232.2</ele>
        <time>2021-06-16T11:26:09Z</time>
      </trkpt>
      <trkpt lat="47.16609" lon="5.83775">
        <ele>232.2</ele>
        <time>2021-06-16T11:26:15Z</time>
      </trkpt>
      <trkpt lat="47.16603" lon="5.83811">
        <ele>232.2</ele>
        <time>2021-06-16T11:26:20Z</time>
      </trkpt>
      <trkpt lat="47.16597" lon="5.83823">
        <ele>232.2</ele>
        <time>2021-06-16T11:26:22Z</time>
      </trkpt>
      <trkpt lat="47.16587" lon="5.83827">
        <ele>232.2</ele>
        <time>2021-06-16T11:26:24Z</time>
      </trkpt>
      <trkpt lat="47.16581" lon="5.83826">
        <ele>232.2</ele>
        <time>2021-06-16T11:26:25Z</time>
      </trkpt>
      <trkpt lat="47.16576" lon="5.83825">
        <ele>232.2</ele>
        <time>2021-06-16T11:26:26Z</time>
      </trkpt>
      <trkpt lat="47.1657" lon="5.83823">
        <ele>232.2</ele>
        <time>2021-06-16T11:26:27Z</time>
      </trkpt>
      <trkpt lat="47.16535" lon="5.83811">
        <ele>232</ele>
        <time>2021-06-16T11:26:34Z</time>
      </trkpt>
      <trkpt lat="47.1653" lon="5.8381">
        <ele>231.8</ele>
        <time>2021-06-16T11:26:35Z</time>
      </trkpt>
      <trkpt lat="47.16496" lon="5.838">
        <ele>231.8</ele>
        <time>2021-06-16T11:26:42Z</time>
      </trkpt>
      <trkpt lat="47.1645" lon="5.83788">
        <ele>232</ele>
        <time>2021-06-16T11:26:51Z</time>
      </trkpt>
      <trkpt lat="47.16407" lon="5.83777">
        <ele>231.8</ele>
        <time>2021-06-16T11:26:59Z</time>
      </trkpt>
      <trkpt lat="47.16381" lon="5.83769">
        <ele>232.2</ele>
        <time>2021-06-16T11:27:04Z</time>
      </trkpt>
      <trkpt lat="47.16376" lon="5.83767">
        <ele>232.2</ele>
        <time>2021-06-16T11:27:05Z</time>
      </trkpt>
      <trkpt lat="47.1637" lon="5.83766">
        <ele>232.2</ele>
        <time>2021-06-16T11:27:06Z</time>
      </trkpt>
      <trkpt lat="47.16365" lon="5.83764">
        <ele>232.2</ele>
        <time>2021-06-16T11:27:07Z</time>
      </trkpt>
      <trkpt lat="47.1636" lon="5.83763">
        <ele>232.2</ele>
        <time>2021-06-16T11:27:08Z</time>
      </trkpt>
      <trkpt lat="47.16355" lon="5.83761">
        <ele>232.2</ele>
        <time>2021-06-16T11:27:09Z</time>
      </trkpt>
      <trkpt lat="47.1635" lon="5.83759">
        <ele>232.2</ele>
        <time>2021-06-16T11:27:10Z</time>
      </trkpt>
      <trkpt lat="47.16345" lon="5.83757">
        <ele>232.4</ele>
        <time>2021-06-16T11:27:11Z</time>
      </trkpt>
      <trkpt lat="47.16337" lon="5.83748">
        <ele>232.4</ele>
        <time>2021-06-16T11:27:13Z</time>
      </trkpt>
      <trkpt lat="47.16333" lon="5.83743">
        <ele>232.4</ele>
        <time>2021-06-16T11:27:14Z</time>
      </trkpt>
      <trkpt lat="47.16331" lon="5.83737">
        <ele>232.4</ele>
        <time>2021-06-16T11:27:15Z</time>
      </trkpt>
      <trkpt lat="47.1633" lon="5.8373">
        <ele>232.4</ele>
        <time>2021-06-16T11:27:16Z</time>
      </trkpt>
      <trkpt lat="47.16329" lon="5.83723">
        <ele>232.4</ele>
        <time>2021-06-16T11:27:17Z</time>
      </trkpt>
      <trkpt lat="47.16329" lon="5.83717">
        <ele>232.6</ele>
        <time>2021-06-16T11:27:18Z</time>
      </trkpt>
      <trkpt lat="47.16329" lon="5.83712">
        <ele>232.8</ele>
        <time>2021-06-16T11:27:19Z</time>
      </trkpt>
      <trkpt lat="47.16329" lon="5.83706">
        <ele>232.8</ele>
        <time>2021-06-16T11:27:20Z</time>
      </trkpt>
      <trkpt lat="47.16329" lon="5.83702">
        <ele>233</ele>
        <time>2021-06-16T11:27:21Z</time>
      </trkpt>
      <trkpt lat="47.16329" lon="5.83699">
        <ele>233</ele>
        <time>2021-06-16T11:27:22Z</time>
      </trkpt>
      <trkpt lat="47.1633" lon="5.83696">
        <ele>233.2</ele>
        <time>2021-06-16T11:27:23Z</time>
      </trkpt>
      <trkpt lat="47.1633" lon="5.83694">
        <ele>233.4</ele>
        <time>2021-06-16T11:27:24Z</time>
      </trkpt>
      <trkpt lat="47.1633" lon="5.83693">
        <ele>233.6</ele>
        <time>2021-06-16T11:27:25Z</time>
      </trkpt>
      <trkpt lat="47.1633" lon="5.83693">
        <ele>233.8</ele>
        <time>2021-06-16T11:27:28Z</time>
      </trkpt>
      <trkpt lat="47.1633" lon="5.83693">
        <ele>234</ele>
        <time>2021-06-16T11:27:39Z</time>
      </trkpt>
      <trkpt lat="47.1633" lon="5.83693">
        <ele>234.2</ele>
        <time>2021-06-16T11:27:40Z</time>
      </trkpt>
      <trkpt lat="47.16329" lon="5.83685">
        <ele>234.2</ele>
        <time>2021-06-16T11:27:55Z</time>
      </trkpt>
      <trkpt lat="47.16325" lon="5.83671">
        <ele>234.2</ele>
        <time>2021-06-16T11:27:59Z</time>
      </trkpt>
      <trkpt lat="47.16322" lon="5.8366">
        <ele>234.2</ele>
        <time>2021-06-16T11:28:02Z</time>
      </trkpt>
      <trkpt lat="47.16314" lon="5.83646">
        <ele>234.6</ele>
        <time>2021-06-16T11:28:07Z</time>
      </trkpt>
      <trkpt lat="47.16313" lon="5.83644">
        <ele>234.8</ele>
        <time>2021-06-16T11:28:08Z</time>
      </trkpt>
      <trkpt lat="47.16312" lon="5.83642">
        <ele>235</ele>
        <time>2021-06-16T11:28:09Z</time>
      </trkpt>
      <trkpt lat="47.16311" lon="5.83641">
        <ele>235.2</ele>
        <time>2021-06-16T11:28:10Z</time>
      </trkpt>
      <trkpt lat="47.16309" lon="5.83639">
        <ele>235.2</ele>
        <time>2021-06-16T11:28:11Z</time>
      </trkpt>
      <trkpt lat="47.16304" lon="5.83634">
        <ele>236</ele>
        <time>2021-06-16T11:28:14Z</time>
      </trkpt>
      <trkpt lat="47.16303" lon="5.83633">
        <ele>236.2</ele>
        <time>2021-06-16T11:28:15Z</time>
      </trkpt>
      <trkpt lat="47.16301" lon="5.83632">
        <ele>236.4</ele>
        <time>2021-06-16T11:28:16Z</time>
      </trkpt>
      <trkpt lat="47.16299" lon="5.8363">
        <ele>236.8</ele>
        <time>2021-06-16T11:28:17Z</time>
      </trkpt>
      <trkpt lat="47.16297" lon="5.8363">
        <ele>236.8</ele>
        <time>2021-06-16T11:28:18Z</time>
      </trkpt>
      <trkpt lat="47.16296" lon="5.83628">
        <ele>237</ele>
        <time>2021-06-16T11:28:19Z</time>
      </trkpt>
      <trkpt lat="47.16293" lon="5.83625">
        <ele>237.4</ele>
        <time>2021-06-16T11:28:21Z</time>
      </trkpt>
      <trkpt lat="47.16291" lon="5.83623">
        <ele>237.6</ele>
        <time>2021-06-16T11:28:22Z</time>
      </trkpt>
      <trkpt lat="47.16288" lon="5.83622">
        <ele>237.8</ele>
        <time>2021-06-16T11:28:23Z</time>
      </trkpt>
      <trkpt lat="47.16286" lon="5.83621">
        <ele>238</ele>
        <time>2021-06-16T11:28:24Z</time>
      </trkpt>
      <trkpt lat="47.16283" lon="5.8362">
        <ele>238.2</ele>
        <time>2021-06-16T11:28:25Z</time>
      </trkpt>
      <trkpt lat="47.16282" lon="5.83619">
        <ele>238.4</ele>
        <time>2021-06-16T11:28:26Z</time>
      </trkpt>
      <trkpt lat="47.1628" lon="5.83617">
        <ele>238.4</ele>
        <time>2021-06-16T11:28:27Z</time>
      </trkpt>
      <trkpt lat="47.16279" lon="5.83615">
        <ele>238.6</ele>
        <time>2021-06-16T11:28:28Z</time>
      </trkpt>
      <trkpt lat="47.16278" lon="5.83614">
        <ele>238.8</ele>
        <time>2021-06-16T11:28:29Z</time>
      </trkpt>
      <trkpt lat="47.16276" lon="5.83613">
        <ele>238.8</ele>
        <time>2021-06-16T11:28:30Z</time>
      </trkpt>
      <trkpt lat="47.16275" lon="5.83612">
        <ele>239.2</ele>
        <time>2021-06-16T11:28:31Z</time>
      </trkpt>
      <trkpt lat="47.16274" lon="5.83611">
        <ele>239.4</ele>
        <time>2021-06-16T11:28:32Z</time>
      </trkpt>
      <trkpt lat="47.16273" lon="5.83608">
        <ele>239.6</ele>
        <time>2021-06-16T11:28:33Z</time>
      </trkpt>
      <trkpt lat="47.16272" lon="5.83607">
        <ele>239.8</ele>
        <time>2021-06-16T11:28:34Z</time>
      </trkpt>
      <trkpt lat="47.16271" lon="5.83606">
        <ele>239.8</ele>
        <time>2021-06-16T11:28:35Z</time>
      </trkpt>
      <trkpt lat="47.16269" lon="5.83606">
        <ele>240</ele>
        <time>2021-06-16T11:28:36Z</time>
      </trkpt>
      <trkpt lat="47.16268" lon="5.83605">
        <ele>240.2</ele>
        <time>2021-06-16T11:28:37Z</time>
      </trkpt>
      <trkpt lat="47.16267" lon="5.83604">
        <ele>240.4</ele>
        <time>2021-06-16T11:28:38Z</time>
      </trkpt>
      <trkpt lat="47.16265" lon="5.83603">
        <ele>240.6</ele>
        <time>2021-06-16T11:28:39Z</time>
      </trkpt>
      <trkpt lat="47.16264" lon="5.83602">
        <ele>240.8</ele>
        <time>2021-06-16T11:28:40Z</time>
      </trkpt>
      <trkpt lat="47.16262" lon="5.83601">
        <ele>241.2</ele>
        <time>2021-06-16T11:28:41Z</time>
      </trkpt>
      <trkpt lat="47.16261" lon="5.836">
        <ele>241.4</ele>
        <time>2021-06-16T11:28:42Z</time>
      </trkpt>
      <trkpt lat="47.1626" lon="5.83599">
        <ele>241.6</ele>
        <time>2021-06-16T11:28:43Z</time>
      </trkpt>
      <trkpt lat="47.16259" lon="5.83598">
        <ele>241.8</ele>
        <time>2021-06-16T11:28:44Z</time>
      </trkpt>
      <trkpt lat="47.16257" lon="5.83598">
        <ele>242.2</ele>
        <time>2021-06-16T11:28:45Z</time>
      </trkpt>
      <trkpt lat="47.16257" lon="5.83597">
        <ele>242.2</ele>
        <time>2021-06-16T11:28:46Z</time>
      </trkpt>
      <trkpt lat="47.16256" lon="5.83596">
        <ele>242.4</ele>
        <time>2021-06-16T11:28:47Z</time>
      </trkpt>
      <trkpt lat="47.16254" lon="5.83596">
        <ele>242.6</ele>
        <time>2021-06-16T11:28:48Z</time>
      </trkpt>
      <trkpt lat="47.16252" lon="5.83595">
        <ele>242.6</ele>
        <time>2021-06-16T11:28:49Z</time>
      </trkpt>
      <trkpt lat="47.1625" lon="5.83594">
        <ele>242.8</ele>
        <time>2021-06-16T11:28:50Z</time>
      </trkpt>
      <trkpt lat="47.16248" lon="5.83593">
        <ele>243</ele>
        <time>2021-06-16T11:28:51Z</time>
      </trkpt>
      <trkpt lat="47.16248" lon="5.83593">
        <ele>243.2</ele>
        <time>2021-06-16T11:28:52Z</time>
      </trkpt>
      <trkpt lat="47.16246" lon="5.83592">
        <ele>243.4</ele>
        <time>2021-06-16T11:28:53Z</time>
      </trkpt>
      <trkpt lat="47.16245" lon="5.83591">
        <ele>243.4</ele>
        <time>2021-06-16T11:28:54Z</time>
      </trkpt>
      <trkpt lat="47.16243" lon="5.8359">
        <ele>243.6</ele>
        <time>2021-06-16T11:28:55Z</time>
      </trkpt>
      <trkpt lat="47.16243" lon="5.83589">
        <ele>243.8</ele>
        <time>2021-06-16T11:28:56Z</time>
      </trkpt>
      <trkpt lat="47.16241" lon="5.83587">
        <ele>244.2</ele>
        <time>2021-06-16T11:28:57Z</time>
      </trkpt>
      <trkpt lat="47.1624" lon="5.83586">
        <ele>244.4</ele>
        <time>2021-06-16T11:28:58Z</time>
      </trkpt>
      <trkpt lat="47.1624" lon="5.83586">
        <ele>244.6</ele>
        <time>2021-06-16T11:28:59Z</time>
      </trkpt>
      <trkpt lat="47.16238" lon="5.83585">
        <ele>244.8</ele>
        <time>2021-06-16T11:29:00Z</time>
      </trkpt>
      <trkpt lat="47.16236" lon="5.83583">
        <ele>244.8</ele>
        <time>2021-06-16T11:29:01Z</time>
      </trkpt>
      <trkpt lat="47.16234" lon="5.83582">
        <ele>245</ele>
        <time>2021-06-16T11:29:02Z</time>
      </trkpt>
      <trkpt lat="47.16233" lon="5.8358">
        <ele>245.2</ele>
        <time>2021-06-16T11:29:03Z</time>
      </trkpt>
      <trkpt lat="47.16232" lon="5.83578">
        <ele>245.2</ele>
        <time>2021-06-16T11:29:04Z</time>
      </trkpt>
      <trkpt lat="47.16231" lon="5.83575">
        <ele>245.6</ele>
        <time>2021-06-16T11:29:05Z</time>
      </trkpt>
      <trkpt lat="47.1623" lon="5.83571">
        <ele>245.8</ele>
        <time>2021-06-16T11:29:06Z</time>
      </trkpt>
      <trkpt lat="47.16229" lon="5.83568">
        <ele>246</ele>
        <time>2021-06-16T11:29:07Z</time>
      </trkpt>
      <trkpt lat="47.16228" lon="5.83566">
        <ele>246.2</ele>
        <time>2021-06-16T11:29:08Z</time>
      </trkpt>
      <trkpt lat="47.16228" lon="5.83563">
        <ele>246.4</ele>
        <time>2021-06-16T11:29:09Z</time>
      </trkpt>
      <trkpt lat="47.16227" lon="5.8356">
        <ele>246.8</ele>
        <time>2021-06-16T11:29:10Z</time>
      </trkpt>
      <trkpt lat="47.16227" lon="5.83558">
        <ele>246.8</ele>
        <time>2021-06-16T11:29:11Z</time>
      </trkpt>
      <trkpt lat="47.16227" lon="5.83555">
        <ele>247</ele>
        <time>2021-06-16T11:29:12Z</time>
      </trkpt>
      <trkpt lat="47.16228" lon="5.83553">
        <ele>247</ele>
        <time>2021-06-16T11:29:13Z</time>
      </trkpt>
      <trkpt lat="47.16229" lon="5.8355">
        <ele>247</ele>
        <time>2021-06-16T11:29:14Z</time>
      </trkpt>
      <trkpt lat="47.16231" lon="5.83548">
        <ele>247.2</ele>
        <time>2021-06-16T11:29:15Z</time>
      </trkpt>
      <trkpt lat="47.16232" lon="5.83545">
        <ele>247.4</ele>
        <time>2021-06-16T11:29:16Z</time>
      </trkpt>
      <trkpt lat="47.16233" lon="5.83543">
        <ele>247.4</ele>
        <time>2021-06-16T11:29:17Z</time>
      </trkpt>
      <trkpt lat="47.16233" lon="5.8354">
        <ele>247.6</ele>
        <time>2021-06-16T11:29:18Z</time>
      </trkpt>
      <trkpt lat="47.16234" lon="5.83538">
        <ele>247.8</ele>
        <time>2021-06-16T11:29:19Z</time>
      </trkpt>
      <trkpt lat="47.16234" lon="5.83536">
        <ele>248</ele>
        <time>2021-06-16T11:29:20Z</time>
      </trkpt>
      <trkpt lat="47.16235" lon="5.83533">
        <ele>248.2</ele>
        <time>2021-06-16T11:29:21Z</time>
      </trkpt>
      <trkpt lat="47.16235" lon="5.83531">
        <ele>248.6</ele>
        <time>2021-06-16T11:29:22Z</time>
      </trkpt>
      <trkpt lat="47.16236" lon="5.83528">
        <ele>248.6</ele>
        <time>2021-06-16T11:29:23Z</time>
      </trkpt>
      <trkpt lat="47.16236" lon="5.83525">
        <ele>248.8</ele>
        <time>2021-06-16T11:29:24Z</time>
      </trkpt>
      <trkpt lat="47.16237" lon="5.83523">
        <ele>248.8</ele>
        <time>2021-06-16T11:29:25Z</time>
      </trkpt>
      <trkpt lat="47.16237" lon="5.8352">
        <ele>249</ele>
        <time>2021-06-16T11:29:26Z</time>
      </trkpt>
      <trkpt lat="47.16238" lon="5.83517">
        <ele>249.2</ele>
        <time>2021-06-16T11:29:27Z</time>
      </trkpt>
      <trkpt lat="47.16238" lon="5.83514">
        <ele>249.2</ele>
        <time>2021-06-16T11:29:28Z</time>
      </trkpt>
      <trkpt lat="47.16238" lon="5.83511">
        <ele>249.4</ele>
        <time>2021-06-16T11:29:29Z</time>
      </trkpt>
      <trkpt lat="47.16239" lon="5.83507">
        <ele>249.4</ele>
        <time>2021-06-16T11:29:30Z</time>
      </trkpt>
      <trkpt lat="47.16239" lon="5.83504">
        <ele>249.4</ele>
        <time>2021-06-16T11:29:31Z</time>
      </trkpt>
      <trkpt lat="47.1624" lon="5.835">
        <ele>249.4</ele>
        <time>2021-06-16T11:29:32Z</time>
      </trkpt>
      <trkpt lat="47.1624" lon="5.83496">
        <ele>249.6</ele>
        <time>2021-06-16T11:29:33Z</time>
      </trkpt>
      <trkpt lat="47.1624" lon="5.83492">
        <ele>249.6</ele>
        <time>2021-06-16T11:29:34Z</time>
      </trkpt>
      <trkpt lat="47.16241" lon="5.83488">
        <ele>249.6</ele>
        <time>2021-06-16T11:29:35Z</time>
      </trkpt>
      <trkpt lat="47.16241" lon="5.83484">
        <ele>249.6</ele>
        <time>2021-06-16T11:29:36Z</time>
      </trkpt>
      <trkpt lat="47.16241" lon="5.83479">
        <ele>249.8</ele>
        <time>2021-06-16T11:29:37Z</time>
      </trkpt>
      <trkpt lat="47.16242" lon="5.83474">
        <ele>249.8</ele>
        <time>2021-06-16T11:29:38Z</time>
      </trkpt>
      <trkpt lat="47.16243" lon="5.83469">
        <ele>249.8</ele>
        <time>2021-06-16T11:29:39Z</time>
      </trkpt>
      <trkpt lat="47.16243" lon="5.83465">
        <ele>249.8</ele>
        <time>2021-06-16T11:29:40Z</time>
      </trkpt>
      <trkpt lat="47.16243" lon="5.8346">
        <ele>249.6</ele>
        <time>2021-06-16T11:29:41Z</time>
      </trkpt>
      <trkpt lat="47.16243" lon="5.83456">
        <ele>249.6</ele>
        <time>2021-06-16T11:29:42Z</time>
      </trkpt>
      <trkpt lat="47.16242" lon="5.8345">
        <ele>249.6</ele>
        <time>2021-06-16T11:29:43Z</time>
      </trkpt>
      <trkpt lat="47.16237" lon="5.83429">
        <ele>249.8</ele>
        <time>2021-06-16T11:29:48Z</time>
      </trkpt>
      <trkpt lat="47.16235" lon="5.83425">
        <ele>249.8</ele>
        <time>2021-06-16T11:29:49Z</time>
      </trkpt>
      <trkpt lat="47.16218" lon="5.83407">
        <ele>250.8</ele>
        <time>2021-06-16T11:29:55Z</time>
      </trkpt>
      <trkpt lat="47.16213" lon="5.83402">
        <ele>250.8</ele>
        <time>2021-06-16T11:29:57Z</time>
      </trkpt>
      <trkpt lat="47.16208" lon="5.83397">
        <ele>251</ele>
        <time>2021-06-16T11:29:59Z</time>
      </trkpt>
      <trkpt lat="47.16201" lon="5.83388">
        <ele>251.4</ele>
        <time>2021-06-16T11:30:02Z</time>
      </trkpt>
      <trkpt lat="47.16199" lon="5.83386">
        <ele>251.6</ele>
        <time>2021-06-16T11:30:03Z</time>
      </trkpt>
      <trkpt lat="47.16197" lon="5.83384">
        <ele>251.6</ele>
        <time>2021-06-16T11:30:04Z</time>
      </trkpt>
      <trkpt lat="47.16194" lon="5.83382">
        <ele>251.8</ele>
        <time>2021-06-16T11:30:05Z</time>
      </trkpt>
      <trkpt lat="47.16192" lon="5.83379">
        <ele>252</ele>
        <time>2021-06-16T11:30:06Z</time>
      </trkpt>
      <trkpt lat="47.16184" lon="5.83372">
        <ele>252.2</ele>
        <time>2021-06-16T11:30:09Z</time>
      </trkpt>
      <trkpt lat="47.16176" lon="5.83361">
        <ele>252.8</ele>
        <time>2021-06-16T11:30:13Z</time>
      </trkpt>
      <trkpt lat="47.16174" lon="5.83357">
        <ele>253</ele>
        <time>2021-06-16T11:30:14Z</time>
      </trkpt>
      <trkpt lat="47.16172" lon="5.83354">
        <ele>253</ele>
        <time>2021-06-16T11:30:15Z</time>
      </trkpt>
      <trkpt lat="47.16169" lon="5.8335">
        <ele>253.2</ele>
        <time>2021-06-16T11:30:16Z</time>
      </trkpt>
      <trkpt lat="47.16167" lon="5.83346">
        <ele>253.2</ele>
        <time>2021-06-16T11:30:17Z</time>
      </trkpt>
      <trkpt lat="47.16165" lon="5.83344">
        <ele>253.2</ele>
        <time>2021-06-16T11:30:18Z</time>
      </trkpt>
      <trkpt lat="47.16162" lon="5.8334">
        <ele>253.2</ele>
        <time>2021-06-16T11:30:19Z</time>
      </trkpt>
      <trkpt lat="47.1616" lon="5.83337">
        <ele>253.4</ele>
        <time>2021-06-16T11:30:20Z</time>
      </trkpt>
      <trkpt lat="47.16157" lon="5.83333">
        <ele>253.4</ele>
        <time>2021-06-16T11:30:21Z</time>
      </trkpt>
      <trkpt lat="47.16155" lon="5.83331">
        <ele>253.4</ele>
        <time>2021-06-16T11:30:22Z</time>
      </trkpt>
      <trkpt lat="47.16154" lon="5.83328">
        <ele>253.2</ele>
        <time>2021-06-16T11:30:23Z</time>
      </trkpt>
      <trkpt lat="47.16151" lon="5.83325">
        <ele>253.2</ele>
        <time>2021-06-16T11:30:24Z</time>
      </trkpt>
      <trkpt lat="47.1615" lon="5.83323">
        <ele>253.2</ele>
        <time>2021-06-16T11:30:25Z</time>
      </trkpt>
      <trkpt lat="47.16148" lon="5.83321">
        <ele>253.2</ele>
        <time>2021-06-16T11:30:26Z</time>
      </trkpt>
      <trkpt lat="47.16144" lon="5.83316">
        <ele>253.2</ele>
        <time>2021-06-16T11:30:28Z</time>
      </trkpt>
      <trkpt lat="47.16123" lon="5.83288">
        <ele>253.6</ele>
        <time>2021-06-16T11:30:37Z</time>
      </trkpt>
      <trkpt lat="47.1611" lon="5.83272">
        <ele>253.8</ele>
        <time>2021-06-16T11:30:41Z</time>
      </trkpt>
      <trkpt lat="47.16101" lon="5.83261">
        <ele>253.8</ele>
        <time>2021-06-16T11:30:44Z</time>
      </trkpt>
      <trkpt lat="47.16075" lon="5.83231">
        <ele>253.6</ele>
        <time>2021-06-16T11:30:52Z</time>
      </trkpt>
      <trkpt lat="47.16072" lon="5.83227">
        <ele>253.6</ele>
        <time>2021-06-16T11:30:53Z</time>
      </trkpt>
      <trkpt lat="47.16069" lon="5.83224">
        <ele>253.6</ele>
        <time>2021-06-16T11:30:54Z</time>
      </trkpt>
      <trkpt lat="47.16066" lon="5.83221">
        <ele>253.6</ele>
        <time>2021-06-16T11:30:55Z</time>
      </trkpt>
      <trkpt lat="47.16063" lon="5.83217">
        <ele>253.6</ele>
        <time>2021-06-16T11:30:56Z</time>
      </trkpt>
      <trkpt lat="47.16046" lon="5.83203">
        <ele>253.8</ele>
        <time>2021-06-16T11:31:01Z</time>
      </trkpt>
      <trkpt lat="47.16042" lon="5.83203">
        <ele>253.8</ele>
        <time>2021-06-16T11:31:02Z</time>
      </trkpt>
      <trkpt lat="47.16037" lon="5.83211">
        <ele>253.8</ele>
        <time>2021-06-16T11:31:04Z</time>
      </trkpt>
      <trkpt lat="47.16032" lon="5.8322">
        <ele>254</ele>
        <time>2021-06-16T11:31:06Z</time>
      </trkpt>
      <trkpt lat="47.16029" lon="5.83224">
        <ele>254</ele>
        <time>2021-06-16T11:31:07Z</time>
      </trkpt>
      <trkpt lat="47.16016" lon="5.83245">
        <ele>254.2</ele>
        <time>2021-06-16T11:31:12Z</time>
      </trkpt>
      <trkpt lat="47.16006" lon="5.83261">
        <ele>254.6</ele>
        <time>2021-06-16T11:31:16Z</time>
      </trkpt>
      <trkpt lat="47.16004" lon="5.83265">
        <ele>255</ele>
        <time>2021-06-16T11:31:17Z</time>
      </trkpt>
      <trkpt lat="47.16002" lon="5.83268">
        <ele>255</ele>
        <time>2021-06-16T11:31:18Z</time>
      </trkpt>
      <trkpt lat="47.16" lon="5.83272">
        <ele>255.4</ele>
        <time>2021-06-16T11:31:19Z</time>
      </trkpt>
      <trkpt lat="47.15997" lon="5.83275">
        <ele>255.6</ele>
        <time>2021-06-16T11:31:20Z</time>
      </trkpt>
      <trkpt lat="47.15995" lon="5.83279">
        <ele>255.8</ele>
        <time>2021-06-16T11:31:21Z</time>
      </trkpt>
      <trkpt lat="47.15993" lon="5.83282">
        <ele>256</ele>
        <time>2021-06-16T11:31:22Z</time>
      </trkpt>
      <trkpt lat="47.15991" lon="5.83286">
        <ele>256</ele>
        <time>2021-06-16T11:31:23Z</time>
      </trkpt>
      <trkpt lat="47.15986" lon="5.83293">
        <ele>256.4</ele>
        <time>2021-06-16T11:31:25Z</time>
      </trkpt>
      <trkpt lat="47.15984" lon="5.83296">
        <ele>256.6</ele>
        <time>2021-06-16T11:31:26Z</time>
      </trkpt>
      <trkpt lat="47.15981" lon="5.83298">
        <ele>256.8</ele>
        <time>2021-06-16T11:31:27Z</time>
      </trkpt>
      <trkpt lat="47.15978" lon="5.833">
        <ele>257</ele>
        <time>2021-06-16T11:31:28Z</time>
      </trkpt>
      <trkpt lat="47.15975" lon="5.833">
        <ele>257</ele>
        <time>2021-06-16T11:31:29Z</time>
      </trkpt>
      <trkpt lat="47.15972" lon="5.83298">
        <ele>257.2</ele>
        <time>2021-06-16T11:31:30Z</time>
      </trkpt>
      <trkpt lat="47.15969" lon="5.83296">
        <ele>257.4</ele>
        <time>2021-06-16T11:31:31Z</time>
      </trkpt>
      <trkpt lat="47.15966" lon="5.83292">
        <ele>257.6</ele>
        <time>2021-06-16T11:31:32Z</time>
      </trkpt>
      <trkpt lat="47.15964" lon="5.83289">
        <ele>257.6</ele>
        <time>2021-06-16T11:31:33Z</time>
      </trkpt>
      <trkpt lat="47.15961" lon="5.83285">
        <ele>257.8</ele>
        <time>2021-06-16T11:31:34Z</time>
      </trkpt>
      <trkpt lat="47.15959" lon="5.83282">
        <ele>257.8</ele>
        <time>2021-06-16T11:31:35Z</time>
      </trkpt>
      <trkpt lat="47.15956" lon="5.83278">
        <ele>257.8</ele>
        <time>2021-06-16T11:31:36Z</time>
      </trkpt>
      <trkpt lat="47.15954" lon="5.83274">
        <ele>258</ele>
        <time>2021-06-16T11:31:37Z</time>
      </trkpt>
      <trkpt lat="47.15951" lon="5.83271">
        <ele>258</ele>
        <time>2021-06-16T11:31:38Z</time>
      </trkpt>
      <trkpt lat="47.15949" lon="5.83267">
        <ele>258</ele>
        <time>2021-06-16T11:31:39Z</time>
      </trkpt>
      <trkpt lat="47.15946" lon="5.83264">
        <ele>258.2</ele>
        <time>2021-06-16T11:31:40Z</time>
      </trkpt>
      <trkpt lat="47.15944" lon="5.8326">
        <ele>258.2</ele>
        <time>2021-06-16T11:31:41Z</time>
      </trkpt>
      <trkpt lat="47.15942" lon="5.83257">
        <ele>258.2</ele>
        <time>2021-06-16T11:31:42Z</time>
      </trkpt>
      <trkpt lat="47.15939" lon="5.83254">
        <ele>258.4</ele>
        <time>2021-06-16T11:31:43Z</time>
      </trkpt>
      <trkpt lat="47.15937" lon="5.83251">
        <ele>258.6</ele>
        <time>2021-06-16T11:31:44Z</time>
      </trkpt>
      <trkpt lat="47.15935" lon="5.83249">
        <ele>258.6</ele>
        <time>2021-06-16T11:31:45Z</time>
      </trkpt>
      <trkpt lat="47.15933" lon="5.83246">
        <ele>259</ele>
        <time>2021-06-16T11:31:46Z</time>
      </trkpt>
      <trkpt lat="47.15931" lon="5.83243">
        <ele>259</ele>
        <time>2021-06-16T11:31:47Z</time>
      </trkpt>
      <trkpt lat="47.15929" lon="5.83241">
        <ele>259.2</ele>
        <time>2021-06-16T11:31:48Z</time>
      </trkpt>
      <trkpt lat="47.15927" lon="5.83238">
        <ele>259.2</ele>
        <time>2021-06-16T11:31:49Z</time>
      </trkpt>
      <trkpt lat="47.15925" lon="5.83235">
        <ele>259.4</ele>
        <time>2021-06-16T11:31:50Z</time>
      </trkpt>
      <trkpt lat="47.15923" lon="5.83233">
        <ele>259.6</ele>
        <time>2021-06-16T11:31:51Z</time>
      </trkpt>
      <trkpt lat="47.15921" lon="5.83231">
        <ele>259.6</ele>
        <time>2021-06-16T11:31:52Z</time>
      </trkpt>
      <trkpt lat="47.15918" lon="5.8323">
        <ele>260</ele>
        <time>2021-06-16T11:31:53Z</time>
      </trkpt>
      <trkpt lat="47.15916" lon="5.83228">
        <ele>260</ele>
        <time>2021-06-16T11:31:54Z</time>
      </trkpt>
      <trkpt lat="47.15914" lon="5.83226">
        <ele>260.6</ele>
        <time>2021-06-16T11:31:55Z</time>
      </trkpt>
      <trkpt lat="47.15912" lon="5.83224">
        <ele>260.6</ele>
        <time>2021-06-16T11:31:56Z</time>
      </trkpt>
      <trkpt lat="47.1591" lon="5.83223">
        <ele>260.8</ele>
        <time>2021-06-16T11:31:57Z</time>
      </trkpt>
      <trkpt lat="47.15908" lon="5.83221">
        <ele>261</ele>
        <time>2021-06-16T11:31:58Z</time>
      </trkpt>
      <trkpt lat="47.15905" lon="5.83219">
        <ele>261.2</ele>
        <time>2021-06-16T11:31:59Z</time>
      </trkpt>
      <trkpt lat="47.15903" lon="5.83217">
        <ele>261.2</ele>
        <time>2021-06-16T11:32:00Z</time>
      </trkpt>
      <trkpt lat="47.15901" lon="5.83216">
        <ele>261.4</ele>
        <time>2021-06-16T11:32:01Z</time>
      </trkpt>
      <trkpt lat="47.15898" lon="5.83214">
        <ele>261.4</ele>
        <time>2021-06-16T11:32:02Z</time>
      </trkpt>
      <trkpt lat="47.15896" lon="5.83212">
        <ele>261.4</ele>
        <time>2021-06-16T11:32:03Z</time>
      </trkpt>
      <trkpt lat="47.15894" lon="5.83211">
        <ele>261.6</ele>
        <time>2021-06-16T11:32:04Z</time>
      </trkpt>
      <trkpt lat="47.15891" lon="5.8321">
        <ele>261.6</ele>
        <time>2021-06-16T11:32:05Z</time>
      </trkpt>
      <trkpt lat="47.15889" lon="5.83208">
        <ele>261.8</ele>
        <time>2021-06-16T11:32:06Z</time>
      </trkpt>
      <trkpt lat="47.15886" lon="5.83206">
        <ele>261.8</ele>
        <time>2021-06-16T11:32:07Z</time>
      </trkpt>
      <trkpt lat="47.15883" lon="5.83204">
        <ele>262</ele>
        <time>2021-06-16T11:32:08Z</time>
      </trkpt>
      <trkpt lat="47.1588" lon="5.83203">
        <ele>262</ele>
        <time>2021-06-16T11:32:09Z</time>
      </trkpt>
      <trkpt lat="47.15878" lon="5.83201">
        <ele>262</ele>
        <time>2021-06-16T11:32:10Z</time>
      </trkpt>
      <trkpt lat="47.15874" lon="5.83199">
        <ele>262</ele>
        <time>2021-06-16T11:32:11Z</time>
      </trkpt>
      <trkpt lat="47.15871" lon="5.83198">
        <ele>262.2</ele>
        <time>2021-06-16T11:32:12Z</time>
      </trkpt>
      <trkpt lat="47.15868" lon="5.83196">
        <ele>262.2</ele>
        <time>2021-06-16T11:32:13Z</time>
      </trkpt>
      <trkpt lat="47.15865" lon="5.83194">
        <ele>262.2</ele>
        <time>2021-06-16T11:32:14Z</time>
      </trkpt>
      <trkpt lat="47.15861" lon="5.83192">
        <ele>262.4</ele>
        <time>2021-06-16T11:32:15Z</time>
      </trkpt>
      <trkpt lat="47.15857" lon="5.8319">
        <ele>262.4</ele>
        <time>2021-06-16T11:32:16Z</time>
      </trkpt>
      <trkpt lat="47.15854" lon="5.83188">
        <ele>262.2</ele>
        <time>2021-06-16T11:32:17Z</time>
      </trkpt>
      <trkpt lat="47.1585" lon="5.83186">
        <ele>262.2</ele>
        <time>2021-06-16T11:32:18Z</time>
      </trkpt>
      <trkpt lat="47.15846" lon="5.83184">
        <ele>262.2</ele>
        <time>2021-06-16T11:32:19Z</time>
      </trkpt>
      <trkpt lat="47.15834" lon="5.83175">
        <ele>262</ele>
        <time>2021-06-16T11:32:23Z</time>
      </trkpt>
      <trkpt lat="47.15825" lon="5.83169">
        <ele>262</ele>
        <time>2021-06-16T11:32:26Z</time>
      </trkpt>
      <trkpt lat="47.15822" lon="5.83167">
        <ele>262</ele>
        <time>2021-06-16T11:32:27Z</time>
      </trkpt>
      <trkpt lat="47.1582" lon="5.83166">
        <ele>262</ele>
        <time>2021-06-16T11:32:28Z</time>
      </trkpt>
      <trkpt lat="47.15818" lon="5.83164">
        <ele>262</ele>
        <time>2021-06-16T11:32:29Z</time>
      </trkpt>
      <trkpt lat="47.15815" lon="5.83162">
        <ele>262</ele>
        <time>2021-06-16T11:32:30Z</time>
      </trkpt>
      <trkpt lat="47.15813" lon="5.8316">
        <ele>262</ele>
        <time>2021-06-16T11:32:31Z</time>
      </trkpt>
      <trkpt lat="47.1581" lon="5.83159">
        <ele>262.2</ele>
        <time>2021-06-16T11:32:32Z</time>
      </trkpt>
      <trkpt lat="47.15808" lon="5.83157">
        <ele>262.2</ele>
        <time>2021-06-16T11:32:33Z</time>
      </trkpt>
      <trkpt lat="47.15805" lon="5.83156">
        <ele>262.2</ele>
        <time>2021-06-16T11:32:34Z</time>
      </trkpt>
      <trkpt lat="47.15803" lon="5.83154">
        <ele>262.2</ele>
        <time>2021-06-16T11:32:35Z</time>
      </trkpt>
      <trkpt lat="47.15801" lon="5.83153">
        <ele>262.4</ele>
        <time>2021-06-16T11:32:36Z</time>
      </trkpt>
      <trkpt lat="47.15799" lon="5.83152">
        <ele>262.6</ele>
        <time>2021-06-16T11:32:37Z</time>
      </trkpt>
      <trkpt lat="47.15797" lon="5.8315">
        <ele>262.8</ele>
        <time>2021-06-16T11:32:38Z</time>
      </trkpt>
      <trkpt lat="47.15795" lon="5.83149">
        <ele>263.2</ele>
        <time>2021-06-16T11:32:39Z</time>
      </trkpt>
      <trkpt lat="47.15793" lon="5.83148">
        <ele>263.4</ele>
        <time>2021-06-16T11:32:40Z</time>
      </trkpt>
      <trkpt lat="47.15791" lon="5.83146">
        <ele>263.8</ele>
        <time>2021-06-16T11:32:41Z</time>
      </trkpt>
      <trkpt lat="47.15789" lon="5.83145">
        <ele>264</ele>
        <time>2021-06-16T11:32:42Z</time>
      </trkpt>
      <trkpt lat="47.15787" lon="5.83143">
        <ele>264.2</ele>
        <time>2021-06-16T11:32:43Z</time>
      </trkpt>
      <trkpt lat="47.15785" lon="5.83142">
        <ele>264.6</ele>
        <time>2021-06-16T11:32:44Z</time>
      </trkpt>
      <trkpt lat="47.15783" lon="5.83141">
        <ele>264.8</ele>
        <time>2021-06-16T11:32:45Z</time>
      </trkpt>
      <trkpt lat="47.15781" lon="5.8314">
        <ele>265.4</ele>
        <time>2021-06-16T11:32:46Z</time>
      </trkpt>
      <trkpt lat="47.15779" lon="5.83139">
        <ele>265.4</ele>
        <time>2021-06-16T11:32:47Z</time>
      </trkpt>
      <trkpt lat="47.15778" lon="5.83138">
        <ele>266</ele>
        <time>2021-06-16T11:32:48Z</time>
      </trkpt>
      <trkpt lat="47.15776" lon="5.83137">
        <ele>266.4</ele>
        <time>2021-06-16T11:32:49Z</time>
      </trkpt>
      <trkpt lat="47.15774" lon="5.83136">
        <ele>266.6</ele>
        <time>2021-06-16T11:32:50Z</time>
      </trkpt>
      <trkpt lat="47.15772" lon="5.83135">
        <ele>267</ele>
        <time>2021-06-16T11:32:51Z</time>
      </trkpt>
      <trkpt lat="47.1577" lon="5.83134">
        <ele>267</ele>
        <time>2021-06-16T11:32:52Z</time>
      </trkpt>
      <trkpt lat="47.15769" lon="5.83133">
        <ele>267.2</ele>
        <time>2021-06-16T11:32:53Z</time>
      </trkpt>
      <trkpt lat="47.15767" lon="5.83132">
        <ele>267.4</ele>
        <time>2021-06-16T11:32:54Z</time>
      </trkpt>
      <trkpt lat="47.15765" lon="5.83131">
        <ele>267.6</ele>
        <time>2021-06-16T11:32:55Z</time>
      </trkpt>
      <trkpt lat="47.15763" lon="5.83129">
        <ele>268</ele>
        <time>2021-06-16T11:32:56Z</time>
      </trkpt>
      <trkpt lat="47.15762" lon="5.83128">
        <ele>268</ele>
        <time>2021-06-16T11:32:57Z</time>
      </trkpt>
      <trkpt lat="47.1576" lon="5.83127">
        <ele>268.4</ele>
        <time>2021-06-16T11:32:58Z</time>
      </trkpt>
      <trkpt lat="47.15758" lon="5.83126">
        <ele>268.4</ele>
        <time>2021-06-16T11:32:59Z</time>
      </trkpt>
      <trkpt lat="47.15756" lon="5.83125">
        <ele>268.6</ele>
        <time>2021-06-16T11:33:00Z</time>
      </trkpt>
      <trkpt lat="47.15755" lon="5.83124">
        <ele>268.8</ele>
        <time>2021-06-16T11:33:01Z</time>
      </trkpt>
      <trkpt lat="47.15753" lon="5.83123">
        <ele>268.8</ele>
        <time>2021-06-16T11:33:02Z</time>
      </trkpt>
      <trkpt lat="47.15751" lon="5.83122">
        <ele>269</ele>
        <time>2021-06-16T11:33:03Z</time>
      </trkpt>
      <trkpt lat="47.15749" lon="5.83121">
        <ele>269.2</ele>
        <time>2021-06-16T11:33:04Z</time>
      </trkpt>
      <trkpt lat="47.15747" lon="5.83121">
        <ele>269.2</ele>
        <time>2021-06-16T11:33:05Z</time>
      </trkpt>
      <trkpt lat="47.15746" lon="5.8312">
        <ele>269.4</ele>
        <time>2021-06-16T11:33:06Z</time>
      </trkpt>
      <trkpt lat="47.15744" lon="5.83119">
        <ele>269.4</ele>
        <time>2021-06-16T11:33:07Z</time>
      </trkpt>
      <trkpt lat="47.15742" lon="5.83118">
        <ele>269.4</ele>
        <time>2021-06-16T11:33:08Z</time>
      </trkpt>
      <trkpt lat="47.1574" lon="5.83117">
        <ele>269.6</ele>
        <time>2021-06-16T11:33:09Z</time>
      </trkpt>
      <trkpt lat="47.15738" lon="5.83116">
        <ele>270</ele>
        <time>2021-06-16T11:33:10Z</time>
      </trkpt>
      <trkpt lat="47.15737" lon="5.83115">
        <ele>270</ele>
        <time>2021-06-16T11:33:11Z</time>
      </trkpt>
      <trkpt lat="47.15735" lon="5.83114">
        <ele>270.2</ele>
        <time>2021-06-16T11:33:12Z</time>
      </trkpt>
      <trkpt lat="47.15733" lon="5.83113">
        <ele>270.4</ele>
        <time>2021-06-16T11:33:13Z</time>
      </trkpt>
      <trkpt lat="47.1573" lon="5.83112">
        <ele>270.4</ele>
        <time>2021-06-16T11:33:14Z</time>
      </trkpt>
      <trkpt lat="47.15729" lon="5.83112">
        <ele>270.6</ele>
        <time>2021-06-16T11:33:15Z</time>
      </trkpt>
      <trkpt lat="47.15726" lon="5.83111">
        <ele>270.6</ele>
        <time>2021-06-16T11:33:16Z</time>
      </trkpt>
      <trkpt lat="47.15724" lon="5.83109">
        <ele>270.8</ele>
        <time>2021-06-16T11:33:17Z</time>
      </trkpt>
      <trkpt lat="47.15722" lon="5.83107">
        <ele>270.8</ele>
        <time>2021-06-16T11:33:18Z</time>
      </trkpt>
      <trkpt lat="47.1572" lon="5.83106">
        <ele>270.8</ele>
        <time>2021-06-16T11:33:19Z</time>
      </trkpt>
      <trkpt lat="47.15718" lon="5.83105">
        <ele>271</ele>
        <time>2021-06-16T11:33:20Z</time>
      </trkpt>
      <trkpt lat="47.15715" lon="5.83104">
        <ele>271</ele>
        <time>2021-06-16T11:33:21Z</time>
      </trkpt>
      <trkpt lat="47.15714" lon="5.83102">
        <ele>271</ele>
        <time>2021-06-16T11:33:22Z</time>
      </trkpt>
      <trkpt lat="47.15711" lon="5.83101">
        <ele>271</ele>
        <time>2021-06-16T11:33:23Z</time>
      </trkpt>
      <trkpt lat="47.1571" lon="5.831">
        <ele>271</ele>
        <time>2021-06-16T11:33:24Z</time>
      </trkpt>
      <trkpt lat="47.15708" lon="5.83099">
        <ele>271.2</ele>
        <time>2021-06-16T11:33:25Z</time>
      </trkpt>
      <trkpt lat="47.15706" lon="5.83099">
        <ele>271.2</ele>
        <time>2021-06-16T11:33:26Z</time>
      </trkpt>
      <trkpt lat="47.15704" lon="5.83098">
        <ele>271.2</ele>
        <time>2021-06-16T11:33:27Z</time>
      </trkpt>
      <trkpt lat="47.15702" lon="5.83097">
        <ele>271.2</ele>
        <time>2021-06-16T11:33:28Z</time>
      </trkpt>
      <trkpt lat="47.15699" lon="5.83095">
        <ele>271.2</ele>
        <time>2021-06-16T11:33:29Z</time>
      </trkpt>
      <trkpt lat="47.15697" lon="5.83094">
        <ele>271.2</ele>
        <time>2021-06-16T11:33:30Z</time>
      </trkpt>
      <trkpt lat="47.15695" lon="5.83093">
        <ele>271.2</ele>
        <time>2021-06-16T11:33:31Z</time>
      </trkpt>
      <trkpt lat="47.1569" lon="5.8309">
        <ele>271.2</ele>
        <time>2021-06-16T11:33:33Z</time>
      </trkpt>
      <trkpt lat="47.15688" lon="5.83088">
        <ele>271.4</ele>
        <time>2021-06-16T11:33:34Z</time>
      </trkpt>
      <trkpt lat="47.15666" lon="5.83075">
        <ele>271.2</ele>
        <time>2021-06-16T11:33:43Z</time>
      </trkpt>
      <trkpt lat="47.15659" lon="5.83071">
        <ele>271</ele>
        <time>2021-06-16T11:33:45Z</time>
      </trkpt>
      <trkpt lat="47.15644" lon="5.83066">
        <ele>270.8</ele>
        <time>2021-06-16T11:33:49Z</time>
      </trkpt>
      <trkpt lat="47.15617" lon="5.83052">
        <ele>269.8</ele>
        <time>2021-06-16T11:33:57Z</time>
      </trkpt>
      <trkpt lat="47.15614" lon="5.8305">
        <ele>269.8</ele>
        <time>2021-06-16T11:33:58Z</time>
      </trkpt>
      <trkpt lat="47.1561" lon="5.83048">
        <ele>269.8</ele>
        <time>2021-06-16T11:33:59Z</time>
      </trkpt>
      <trkpt lat="47.15608" lon="5.83047">
        <ele>269.6</ele>
        <time>2021-06-16T11:34:00Z</time>
      </trkpt>
      <trkpt lat="47.15605" lon="5.83045">
        <ele>269.6</ele>
        <time>2021-06-16T11:34:01Z</time>
      </trkpt>
      <trkpt lat="47.15601" lon="5.83043">
        <ele>269.6</ele>
        <time>2021-06-16T11:34:02Z</time>
      </trkpt>
      <trkpt lat="47.15589" lon="5.83035">
        <ele>269.6</ele>
        <time>2021-06-16T11:34:06Z</time>
      </trkpt>
      <trkpt lat="47.15586" lon="5.83033">
        <ele>269.8</ele>
        <time>2021-06-16T11:34:07Z</time>
      </trkpt>
      <trkpt lat="47.1556" lon="5.83017">
        <ele>270</ele>
        <time>2021-06-16T11:34:14Z</time>
      </trkpt>
      <trkpt lat="47.15548" lon="5.83008">
        <ele>270</ele>
        <time>2021-06-16T11:34:17Z</time>
      </trkpt>
      <trkpt lat="47.15543" lon="5.83004">
        <ele>269.8</ele>
        <time>2021-06-16T11:34:18Z</time>
      </trkpt>
      <trkpt lat="47.15531" lon="5.82995">
        <ele>269.6</ele>
        <time>2021-06-16T11:34:21Z</time>
      </trkpt>
      <trkpt lat="47.15525" lon="5.82992">
        <ele>269.6</ele>
        <time>2021-06-16T11:34:22Z</time>
      </trkpt>
      <trkpt lat="47.15516" lon="5.82991">
        <ele>269.4</ele>
        <time>2021-06-16T11:34:24Z</time>
      </trkpt>
      <trkpt lat="47.15512" lon="5.82993">
        <ele>269.2</ele>
        <time>2021-06-16T11:34:25Z</time>
      </trkpt>
      <trkpt lat="47.15508" lon="5.82996">
        <ele>269.2</ele>
        <time>2021-06-16T11:34:26Z</time>
      </trkpt>
      <trkpt lat="47.15505" lon="5.83">
        <ele>269.2</ele>
        <time>2021-06-16T11:34:27Z</time>
      </trkpt>
      <trkpt lat="47.15502" lon="5.83004">
        <ele>269.2</ele>
        <time>2021-06-16T11:34:28Z</time>
      </trkpt>
      <trkpt lat="47.15499" lon="5.83009">
        <ele>269.2</ele>
        <time>2021-06-16T11:34:29Z</time>
      </trkpt>
      <trkpt lat="47.15497" lon="5.83014">
        <ele>269.2</ele>
        <time>2021-06-16T11:34:30Z</time>
      </trkpt>
      <trkpt lat="47.15492" lon="5.83023">
        <ele>269</ele>
        <time>2021-06-16T11:34:32Z</time>
      </trkpt>
      <trkpt lat="47.15489" lon="5.83027">
        <ele>269.2</ele>
        <time>2021-06-16T11:34:33Z</time>
      </trkpt>
      <trkpt lat="47.15487" lon="5.83032">
        <ele>269</ele>
        <time>2021-06-16T11:34:34Z</time>
      </trkpt>
      <trkpt lat="47.15485" lon="5.83037">
        <ele>269</ele>
        <time>2021-06-16T11:34:35Z</time>
      </trkpt>
      <trkpt lat="47.15482" lon="5.83045">
        <ele>269.4</ele>
        <time>2021-06-16T11:34:37Z</time>
      </trkpt>
      <trkpt lat="47.1548" lon="5.8305">
        <ele>269.4</ele>
        <time>2021-06-16T11:34:38Z</time>
      </trkpt>
      <trkpt lat="47.15478" lon="5.83054">
        <ele>269.4</ele>
        <time>2021-06-16T11:34:39Z</time>
      </trkpt>
      <trkpt lat="47.15476" lon="5.83059">
        <ele>269.4</ele>
        <time>2021-06-16T11:34:40Z</time>
      </trkpt>
      <trkpt lat="47.15474" lon="5.83063">
        <ele>269.4</ele>
        <time>2021-06-16T11:34:41Z</time>
      </trkpt>
      <trkpt lat="47.15473" lon="5.83068">
        <ele>269.4</ele>
        <time>2021-06-16T11:34:42Z</time>
      </trkpt>
      <trkpt lat="47.15471" lon="5.83072">
        <ele>269.6</ele>
        <time>2021-06-16T11:34:43Z</time>
      </trkpt>
      <trkpt lat="47.1547" lon="5.83075">
        <ele>270.2</ele>
        <time>2021-06-16T11:34:44Z</time>
      </trkpt>
      <trkpt lat="47.15468" lon="5.83079">
        <ele>270.4</ele>
        <time>2021-06-16T11:34:45Z</time>
      </trkpt>
      <trkpt lat="47.15467" lon="5.83082">
        <ele>270.4</ele>
        <time>2021-06-16T11:34:46Z</time>
      </trkpt>
      <trkpt lat="47.15466" lon="5.83086">
        <ele>270.6</ele>
        <time>2021-06-16T11:34:47Z</time>
      </trkpt>
      <trkpt lat="47.15465" lon="5.8309">
        <ele>270.8</ele>
        <time>2021-06-16T11:34:48Z</time>
      </trkpt>
      <trkpt lat="47.15463" lon="5.83106">
        <ele>271.8</ele>
        <time>2021-06-16T11:34:52Z</time>
      </trkpt>
      <trkpt lat="47.15463" lon="5.8311">
        <ele>272.4</ele>
        <time>2021-06-16T11:34:53Z</time>
      </trkpt>
      <trkpt lat="47.15462" lon="5.83112">
        <ele>272.6</ele>
        <time>2021-06-16T11:34:54Z</time>
      </trkpt>
      <trkpt lat="47.15461" lon="5.83115">
        <ele>273</ele>
        <time>2021-06-16T11:34:55Z</time>
      </trkpt>
      <trkpt lat="47.1546" lon="5.83117">
        <ele>273.2</ele>
        <time>2021-06-16T11:34:56Z</time>
      </trkpt>
      <trkpt lat="47.15459" lon="5.8312">
        <ele>273.2</ele>
        <time>2021-06-16T11:34:57Z</time>
      </trkpt>
      <trkpt lat="47.15458" lon="5.83123">
        <ele>273.4</ele>
        <time>2021-06-16T11:34:58Z</time>
      </trkpt>
      <trkpt lat="47.15458" lon="5.83125">
        <ele>273.6</ele>
        <time>2021-06-16T11:34:59Z</time>
      </trkpt>
      <trkpt lat="47.15457" lon="5.83129">
        <ele>273.6</ele>
        <time>2021-06-16T11:35:00Z</time>
      </trkpt>
      <trkpt lat="47.15455" lon="5.83132">
        <ele>273.6</ele>
        <time>2021-06-16T11:35:01Z</time>
      </trkpt>
      <trkpt lat="47.15453" lon="5.83134">
        <ele>273.8</ele>
        <time>2021-06-16T11:35:02Z</time>
      </trkpt>
      <trkpt lat="47.15451" lon="5.83136">
        <ele>274</ele>
        <time>2021-06-16T11:35:03Z</time>
      </trkpt>
      <trkpt lat="47.1545" lon="5.83139">
        <ele>274</ele>
        <time>2021-06-16T11:35:04Z</time>
      </trkpt>
      <trkpt lat="47.15448" lon="5.83141">
        <ele>274</ele>
        <time>2021-06-16T11:35:05Z</time>
      </trkpt>
      <trkpt lat="47.15445" lon="5.83143">
        <ele>274</ele>
        <time>2021-06-16T11:35:06Z</time>
      </trkpt>
      <trkpt lat="47.15442" lon="5.83146">
        <ele>274.2</ele>
        <time>2021-06-16T11:35:07Z</time>
      </trkpt>
      <trkpt lat="47.15438" lon="5.83149">
        <ele>274.2</ele>
        <time>2021-06-16T11:35:08Z</time>
      </trkpt>
      <trkpt lat="47.15436" lon="5.83152">
        <ele>274.2</ele>
        <time>2021-06-16T11:35:09Z</time>
      </trkpt>
      <trkpt lat="47.15431" lon="5.83155">
        <ele>274.2</ele>
        <time>2021-06-16T11:35:10Z</time>
      </trkpt>
      <trkpt lat="47.15427" lon="5.83157">
        <ele>274.2</ele>
        <time>2021-06-16T11:35:11Z</time>
      </trkpt>
      <trkpt lat="47.15423" lon="5.83159">
        <ele>274</ele>
        <time>2021-06-16T11:35:12Z</time>
      </trkpt>
      <trkpt lat="47.15418" lon="5.83163">
        <ele>274</ele>
        <time>2021-06-16T11:35:13Z</time>
      </trkpt>
      <trkpt lat="47.15415" lon="5.83165">
        <ele>274</ele>
        <time>2021-06-16T11:35:14Z</time>
      </trkpt>
      <trkpt lat="47.15411" lon="5.83167">
        <ele>274</ele>
        <time>2021-06-16T11:35:15Z</time>
      </trkpt>
      <trkpt lat="47.15408" lon="5.8317">
        <ele>274</ele>
        <time>2021-06-16T11:35:16Z</time>
      </trkpt>
      <trkpt lat="47.15405" lon="5.83171">
        <ele>274</ele>
        <time>2021-06-16T11:35:17Z</time>
      </trkpt>
      <trkpt lat="47.15402" lon="5.83172">
        <ele>274.2</ele>
        <time>2021-06-16T11:35:18Z</time>
      </trkpt>
      <trkpt lat="47.154" lon="5.83174">
        <ele>274.2</ele>
        <time>2021-06-16T11:35:19Z</time>
      </trkpt>
      <trkpt lat="47.15397" lon="5.83177">
        <ele>274.2</ele>
        <time>2021-06-16T11:35:20Z</time>
      </trkpt>
      <trkpt lat="47.15394" lon="5.83179">
        <ele>274.2</ele>
        <time>2021-06-16T11:35:21Z</time>
      </trkpt>
      <trkpt lat="47.15391" lon="5.83181">
        <ele>274.2</ele>
        <time>2021-06-16T11:35:22Z</time>
      </trkpt>
      <trkpt lat="47.15388" lon="5.83182">
        <ele>274.2</ele>
        <time>2021-06-16T11:35:23Z</time>
      </trkpt>
      <trkpt lat="47.15385" lon="5.83184">
        <ele>274.4</ele>
        <time>2021-06-16T11:35:24Z</time>
      </trkpt>
      <trkpt lat="47.15382" lon="5.83186">
        <ele>274.8</ele>
        <time>2021-06-16T11:35:25Z</time>
      </trkpt>
      <trkpt lat="47.15379" lon="5.83188">
        <ele>274.8</ele>
        <time>2021-06-16T11:35:26Z</time>
      </trkpt>
      <trkpt lat="47.15354" lon="5.83205">
        <ele>276</ele>
        <time>2021-06-16T11:35:34Z</time>
      </trkpt>
      <trkpt lat="47.1533" lon="5.83218">
        <ele>275.2</ele>
        <time>2021-06-16T11:35:41Z</time>
      </trkpt>
      <trkpt lat="47.15321" lon="5.83222">
        <ele>274.8</ele>
        <time>2021-06-16T11:35:43Z</time>
      </trkpt>
      <trkpt lat="47.15317" lon="5.83224">
        <ele>274.6</ele>
        <time>2021-06-16T11:35:44Z</time>
      </trkpt>
      <trkpt lat="47.15313" lon="5.83226">
        <ele>274.6</ele>
        <time>2021-06-16T11:35:45Z</time>
      </trkpt>
      <trkpt lat="47.15309" lon="5.83226">
        <ele>274.6</ele>
        <time>2021-06-16T11:35:46Z</time>
      </trkpt>
      <trkpt lat="47.15306" lon="5.83226">
        <ele>274.6</ele>
        <time>2021-06-16T11:35:47Z</time>
      </trkpt>
      <trkpt lat="47.15301" lon="5.83228">
        <ele>274.6</ele>
        <time>2021-06-16T11:35:48Z</time>
      </trkpt>
      <trkpt lat="47.15297" lon="5.8323">
        <ele>274.4</ele>
        <time>2021-06-16T11:35:49Z</time>
      </trkpt>
      <trkpt lat="47.15289" lon="5.83234">
        <ele>274.6</ele>
        <time>2021-06-16T11:35:51Z</time>
      </trkpt>
      <trkpt lat="47.15283" lon="5.83239">
        <ele>274.4</ele>
        <time>2021-06-16T11:35:53Z</time>
      </trkpt>
      <trkpt lat="47.15279" lon="5.83242">
        <ele>274.6</ele>
        <time>2021-06-16T11:35:54Z</time>
      </trkpt>
      <trkpt lat="47.15276" lon="5.83243">
        <ele>274.4</ele>
        <time>2021-06-16T11:35:55Z</time>
      </trkpt>
      <trkpt lat="47.15273" lon="5.83245">
        <ele>274.4</ele>
        <time>2021-06-16T11:35:56Z</time>
      </trkpt>
      <trkpt lat="47.1527" lon="5.83247">
        <ele>274.4</ele>
        <time>2021-06-16T11:35:57Z</time>
      </trkpt>
      <trkpt lat="47.15267" lon="5.83249">
        <ele>274.8</ele>
        <time>2021-06-16T11:35:58Z</time>
      </trkpt>
      <trkpt lat="47.15264" lon="5.83252">
        <ele>274.8</ele>
        <time>2021-06-16T11:35:59Z</time>
      </trkpt>
      <trkpt lat="47.15261" lon="5.83255">
        <ele>275</ele>
        <time>2021-06-16T11:36:00Z</time>
      </trkpt>
      <trkpt lat="47.15258" lon="5.83258">
        <ele>275.2</ele>
        <time>2021-06-16T11:36:01Z</time>
      </trkpt>
      <trkpt lat="47.15255" lon="5.83262">
        <ele>275.4</ele>
        <time>2021-06-16T11:36:02Z</time>
      </trkpt>
      <trkpt lat="47.15251" lon="5.83264">
        <ele>275.8</ele>
        <time>2021-06-16T11:36:03Z</time>
      </trkpt>
      <trkpt lat="47.15248" lon="5.83266">
        <ele>276</ele>
        <time>2021-06-16T11:36:04Z</time>
      </trkpt>
      <trkpt lat="47.15244" lon="5.83268">
        <ele>276.2</ele>
        <time>2021-06-16T11:36:05Z</time>
      </trkpt>
      <trkpt lat="47.15241" lon="5.83271">
        <ele>276.4</ele>
        <time>2021-06-16T11:36:06Z</time>
      </trkpt>
      <trkpt lat="47.15238" lon="5.83273">
        <ele>276.8</ele>
        <time>2021-06-16T11:36:07Z</time>
      </trkpt>
      <trkpt lat="47.15234" lon="5.83275">
        <ele>277.2</ele>
        <time>2021-06-16T11:36:08Z</time>
      </trkpt>
      <trkpt lat="47.15229" lon="5.8328">
        <ele>277.4</ele>
        <time>2021-06-16T11:36:10Z</time>
      </trkpt>
      <trkpt lat="47.15226" lon="5.83282">
        <ele>277.6</ele>
        <time>2021-06-16T11:36:11Z</time>
      </trkpt>
      <trkpt lat="47.15224" lon="5.83283">
        <ele>277.8</ele>
        <time>2021-06-16T11:36:12Z</time>
      </trkpt>
      <trkpt lat="47.15222" lon="5.83284">
        <ele>278</ele>
        <time>2021-06-16T11:36:13Z</time>
      </trkpt>
      <trkpt lat="47.15219" lon="5.83287">
        <ele>278</ele>
        <time>2021-06-16T11:36:14Z</time>
      </trkpt>
      <trkpt lat="47.15216" lon="5.83291">
        <ele>278.2</ele>
        <time>2021-06-16T11:36:15Z</time>
      </trkpt>
      <trkpt lat="47.15214" lon="5.83293">
        <ele>278.2</ele>
        <time>2021-06-16T11:36:16Z</time>
      </trkpt>
      <trkpt lat="47.15212" lon="5.83296">
        <ele>278.4</ele>
        <time>2021-06-16T11:36:17Z</time>
      </trkpt>
      <trkpt lat="47.1521" lon="5.833">
        <ele>278.8</ele>
        <time>2021-06-16T11:36:18Z</time>
      </trkpt>
      <trkpt lat="47.15208" lon="5.83304">
        <ele>278.8</ele>
        <time>2021-06-16T11:36:19Z</time>
      </trkpt>
      <trkpt lat="47.15204" lon="5.8331">
        <ele>279.2</ele>
        <time>2021-06-16T11:36:20Z</time>
      </trkpt>
      <trkpt lat="47.152" lon="5.83316">
        <ele>279.2</ele>
        <time>2021-06-16T11:36:21Z</time>
      </trkpt>
      <trkpt lat="47.15198" lon="5.83319">
        <ele>279.4</ele>
        <time>2021-06-16T11:36:22Z</time>
      </trkpt>
      <trkpt lat="47.15197" lon="5.83322">
        <ele>279.6</ele>
        <time>2021-06-16T11:36:23Z</time>
      </trkpt>
      <trkpt lat="47.15195" lon="5.83326">
        <ele>279.8</ele>
        <time>2021-06-16T11:36:24Z</time>
      </trkpt>
      <trkpt lat="47.15192" lon="5.8333">
        <ele>280</ele>
        <time>2021-06-16T11:36:25Z</time>
      </trkpt>
      <trkpt lat="47.15188" lon="5.83332">
        <ele>280</ele>
        <time>2021-06-16T11:36:26Z</time>
      </trkpt>
      <trkpt lat="47.15186" lon="5.83336">
        <ele>280.2</ele>
        <time>2021-06-16T11:36:27Z</time>
      </trkpt>
      <trkpt lat="47.15186" lon="5.83338">
        <ele>280.2</ele>
        <time>2021-06-16T11:36:28Z</time>
      </trkpt>
      <trkpt lat="47.15183" lon="5.83341">
        <ele>280.4</ele>
        <time>2021-06-16T11:36:29Z</time>
      </trkpt>
      <trkpt lat="47.15181" lon="5.83344">
        <ele>280.8</ele>
        <time>2021-06-16T11:36:30Z</time>
      </trkpt>
      <trkpt lat="47.15178" lon="5.83347">
        <ele>280.8</ele>
        <time>2021-06-16T11:36:31Z</time>
      </trkpt>
      <trkpt lat="47.15176" lon="5.83351">
        <ele>281.2</ele>
        <time>2021-06-16T11:36:32Z</time>
      </trkpt>
      <trkpt lat="47.15174" lon="5.83354">
        <ele>281.4</ele>
        <time>2021-06-16T11:36:33Z</time>
      </trkpt>
      <trkpt lat="47.15173" lon="5.83358">
        <ele>281.6</ele>
        <time>2021-06-16T11:36:34Z</time>
      </trkpt>
      <trkpt lat="47.15173" lon="5.83361">
        <ele>281.6</ele>
        <time>2021-06-16T11:36:35Z</time>
      </trkpt>
      <trkpt lat="47.15171" lon="5.83364">
        <ele>281.8</ele>
        <time>2021-06-16T11:36:36Z</time>
      </trkpt>
      <trkpt lat="47.15167" lon="5.83368">
        <ele>282</ele>
        <time>2021-06-16T11:36:37Z</time>
      </trkpt>
      <trkpt lat="47.15163" lon="5.83371">
        <ele>282</ele>
        <time>2021-06-16T11:36:38Z</time>
      </trkpt>
      <trkpt lat="47.15162" lon="5.83374">
        <ele>282.2</ele>
        <time>2021-06-16T11:36:39Z</time>
      </trkpt>
      <trkpt lat="47.1516" lon="5.83377">
        <ele>282.4</ele>
        <time>2021-06-16T11:36:40Z</time>
      </trkpt>
      <trkpt lat="47.15158" lon="5.83383">
        <ele>282.6</ele>
        <time>2021-06-16T11:36:41Z</time>
      </trkpt>
      <trkpt lat="47.15156" lon="5.83389">
        <ele>283</ele>
        <time>2021-06-16T11:36:42Z</time>
      </trkpt>
      <trkpt lat="47.15155" lon="5.83394">
        <ele>283</ele>
        <time>2021-06-16T11:36:43Z</time>
      </trkpt>
      <trkpt lat="47.15155" lon="5.83396">
        <ele>283.2</ele>
        <time>2021-06-16T11:36:44Z</time>
      </trkpt>
      <trkpt lat="47.15153" lon="5.83399">
        <ele>283.4</ele>
        <time>2021-06-16T11:36:45Z</time>
      </trkpt>
      <trkpt lat="47.1515" lon="5.83401">
        <ele>283.4</ele>
        <time>2021-06-16T11:36:46Z</time>
      </trkpt>
      <trkpt lat="47.15147" lon="5.83406">
        <ele>283.6</ele>
        <time>2021-06-16T11:36:47Z</time>
      </trkpt>
      <trkpt lat="47.15143" lon="5.83408">
        <ele>283.6</ele>
        <time>2021-06-16T11:36:48Z</time>
      </trkpt>
      <trkpt lat="47.15141" lon="5.83409">
        <ele>283.8</ele>
        <time>2021-06-16T11:36:49Z</time>
      </trkpt>
      <trkpt lat="47.15138" lon="5.83408">
        <ele>283.8</ele>
        <time>2021-06-16T11:36:50Z</time>
      </trkpt>
      <trkpt lat="47.15135" lon="5.83407">
        <ele>284</ele>
        <time>2021-06-16T11:36:51Z</time>
      </trkpt>
      <trkpt lat="47.15131" lon="5.83406">
        <ele>284</ele>
        <time>2021-06-16T11:36:52Z</time>
      </trkpt>
      <trkpt lat="47.15128" lon="5.83406">
        <ele>284</ele>
        <time>2021-06-16T11:36:53Z</time>
      </trkpt>
      <trkpt lat="47.15125" lon="5.83406">
        <ele>284.2</ele>
        <time>2021-06-16T11:36:54Z</time>
      </trkpt>
      <trkpt lat="47.15122" lon="5.83406">
        <ele>284.2</ele>
        <time>2021-06-16T11:36:55Z</time>
      </trkpt>
      <trkpt lat="47.15119" lon="5.83406">
        <ele>284.2</ele>
        <time>2021-06-16T11:36:56Z</time>
      </trkpt>
      <trkpt lat="47.15117" lon="5.83406">
        <ele>284.2</ele>
        <time>2021-06-16T11:36:57Z</time>
      </trkpt>
      <trkpt lat="47.15114" lon="5.83406">
        <ele>284.4</ele>
        <time>2021-06-16T11:36:58Z</time>
      </trkpt>
      <trkpt lat="47.15111" lon="5.83406">
        <ele>284.4</ele>
        <time>2021-06-16T11:36:59Z</time>
      </trkpt>
      <trkpt lat="47.15108" lon="5.83407">
        <ele>284.4</ele>
        <time>2021-06-16T11:37:00Z</time>
      </trkpt>
      <trkpt lat="47.15106" lon="5.83407">
        <ele>284.4</ele>
        <time>2021-06-16T11:37:01Z</time>
      </trkpt>
      <trkpt lat="47.15102" lon="5.83405">
        <ele>284.4</ele>
        <time>2021-06-16T11:37:02Z</time>
      </trkpt>
      <trkpt lat="47.15098" lon="5.83403">
        <ele>284.4</ele>
        <time>2021-06-16T11:37:03Z</time>
      </trkpt>
      <trkpt lat="47.15095" lon="5.834">
        <ele>284.4</ele>
        <time>2021-06-16T11:37:04Z</time>
      </trkpt>
      <trkpt lat="47.15093" lon="5.83397">
        <ele>284.2</ele>
        <time>2021-06-16T11:37:05Z</time>
      </trkpt>
      <trkpt lat="47.15089" lon="5.83392">
        <ele>284.2</ele>
        <time>2021-06-16T11:37:06Z</time>
      </trkpt>
      <trkpt lat="47.15087" lon="5.83388">
        <ele>284.2</ele>
        <time>2021-06-16T11:37:07Z</time>
      </trkpt>
      <trkpt lat="47.15079" lon="5.8337">
        <ele>283.8</ele>
        <time>2021-06-16T11:37:11Z</time>
      </trkpt>
      <trkpt lat="47.15057" lon="5.83332">
        <ele>283.6</ele>
        <time>2021-06-16T11:37:19Z</time>
      </trkpt>
      <trkpt lat="47.15033" lon="5.83297">
        <ele>283.8</ele>
        <time>2021-06-16T11:37:26Z</time>
      </trkpt>
      <trkpt lat="47.15022" lon="5.8328">
        <ele>283.2</ele>
        <time>2021-06-16T11:37:29Z</time>
      </trkpt>
      <trkpt lat="47.15006" lon="5.83258">
        <ele>282.2</ele>
        <time>2021-06-16T11:37:33Z</time>
      </trkpt>
      <trkpt lat="47.14996" lon="5.83242">
        <ele>282</ele>
        <time>2021-06-16T11:37:36Z</time>
      </trkpt>
      <trkpt lat="47.14966" lon="5.83197">
        <ele>281.6</ele>
        <time>2021-06-16T11:37:44Z</time>
      </trkpt>
      <trkpt lat="47.14936" lon="5.83147">
        <ele>281.6</ele>
        <time>2021-06-16T11:37:52Z</time>
      </trkpt>
      <trkpt lat="47.14926" lon="5.83129">
        <ele>281.8</ele>
        <time>2021-06-16T11:37:55Z</time>
      </trkpt>
      <trkpt lat="47.14923" lon="5.83124">
        <ele>282</ele>
        <time>2021-06-16T11:37:56Z</time>
      </trkpt>
      <trkpt lat="47.14921" lon="5.83119">
        <ele>282</ele>
        <time>2021-06-16T11:37:57Z</time>
      </trkpt>
      <trkpt lat="47.14918" lon="5.83114">
        <ele>282.4</ele>
        <time>2021-06-16T11:37:58Z</time>
      </trkpt>
      <trkpt lat="47.14903" lon="5.83085">
        <ele>283</ele>
        <time>2021-06-16T11:38:03Z</time>
      </trkpt>
      <trkpt lat="47.14897" lon="5.83074">
        <ele>283.4</ele>
        <time>2021-06-16T11:38:05Z</time>
      </trkpt>
      <trkpt lat="47.14874" lon="5.83032">
        <ele>283.6</ele>
        <time>2021-06-16T11:38:12Z</time>
      </trkpt>
      <trkpt lat="47.14853" lon="5.82997">
        <ele>283.6</ele>
        <time>2021-06-16T11:38:18Z</time>
      </trkpt>
      <trkpt lat="47.1485" lon="5.82993">
        <ele>283.6</ele>
        <time>2021-06-16T11:38:19Z</time>
      </trkpt>
      <trkpt lat="47.14847" lon="5.82986">
        <ele>283.6</ele>
        <time>2021-06-16T11:38:20Z</time>
      </trkpt>
      <trkpt lat="47.1484" lon="5.82974">
        <ele>283.8</ele>
        <time>2021-06-16T11:38:22Z</time>
      </trkpt>
      <trkpt lat="47.14837" lon="5.82969">
        <ele>283.8</ele>
        <time>2021-06-16T11:38:23Z</time>
      </trkpt>
      <trkpt lat="47.14834" lon="5.82963">
        <ele>283.8</ele>
        <time>2021-06-16T11:38:24Z</time>
      </trkpt>
      <trkpt lat="47.14832" lon="5.82958">
        <ele>283.8</ele>
        <time>2021-06-16T11:38:25Z</time>
      </trkpt>
      <trkpt lat="47.14829" lon="5.82952">
        <ele>284</ele>
        <time>2021-06-16T11:38:26Z</time>
      </trkpt>
      <trkpt lat="47.14826" lon="5.82946">
        <ele>284</ele>
        <time>2021-06-16T11:38:27Z</time>
      </trkpt>
      <trkpt lat="47.14823" lon="5.8294">
        <ele>284</ele>
        <time>2021-06-16T11:38:28Z</time>
      </trkpt>
      <trkpt lat="47.14821" lon="5.82935">
        <ele>283.6</ele>
        <time>2021-06-16T11:38:29Z</time>
      </trkpt>
      <trkpt lat="47.14817" lon="5.8293">
        <ele>283.6</ele>
        <time>2021-06-16T11:38:30Z</time>
      </trkpt>
      <trkpt lat="47.14814" lon="5.82924">
        <ele>283.4</ele>
        <time>2021-06-16T11:38:31Z</time>
      </trkpt>
      <trkpt lat="47.14808" lon="5.82913">
        <ele>283</ele>
        <time>2021-06-16T11:38:33Z</time>
      </trkpt>
      <trkpt lat="47.14799" lon="5.82896">
        <ele>282.4</ele>
        <time>2021-06-16T11:38:36Z</time>
      </trkpt>
      <trkpt lat="47.14794" lon="5.82886">
        <ele>282</ele>
        <time>2021-06-16T11:38:38Z</time>
      </trkpt>
      <trkpt lat="47.14786" lon="5.82873">
        <ele>282</ele>
        <time>2021-06-16T11:38:40Z</time>
      </trkpt>
      <trkpt lat="47.14776" lon="5.82851">
        <ele>281.6</ele>
        <time>2021-06-16T11:38:43Z</time>
      </trkpt>
      <trkpt lat="47.14773" lon="5.82846">
        <ele>281.2</ele>
        <time>2021-06-16T11:38:44Z</time>
      </trkpt>
      <trkpt lat="47.1476" lon="5.82822">
        <ele>280.6</ele>
        <time>2021-06-16T11:38:47Z</time>
      </trkpt>
      <trkpt lat="47.14756" lon="5.82815">
        <ele>280</ele>
        <time>2021-06-16T11:38:48Z</time>
      </trkpt>
      <trkpt lat="47.14753" lon="5.8281">
        <ele>279.8</ele>
        <time>2021-06-16T11:38:49Z</time>
      </trkpt>
      <trkpt lat="47.14749" lon="5.82803">
        <ele>279.8</ele>
        <time>2021-06-16T11:38:50Z</time>
      </trkpt>
      <trkpt lat="47.14716" lon="5.82746">
        <ele>278.8</ele>
        <time>2021-06-16T11:38:58Z</time>
      </trkpt>
      <trkpt lat="47.14712" lon="5.82739">
        <ele>278.8</ele>
        <time>2021-06-16T11:38:59Z</time>
      </trkpt>
      <trkpt lat="47.14687" lon="5.827">
        <ele>277.8</ele>
        <time>2021-06-16T11:39:05Z</time>
      </trkpt>
      <trkpt lat="47.14682" lon="5.82693">
        <ele>277.8</ele>
        <time>2021-06-16T11:39:06Z</time>
      </trkpt>
      <trkpt lat="47.14647" lon="5.82636">
        <ele>277.6</ele>
        <time>2021-06-16T11:39:14Z</time>
      </trkpt>
      <trkpt lat="47.14623" lon="5.82601">
        <ele>277.6</ele>
        <time>2021-06-16T11:39:19Z</time>
      </trkpt>
      <trkpt lat="47.14592" lon="5.82553">
        <ele>277.4</ele>
        <time>2021-06-16T11:39:26Z</time>
      </trkpt>
      <trkpt lat="47.14588" lon="5.82546">
        <ele>277.6</ele>
        <time>2021-06-16T11:39:27Z</time>
      </trkpt>
      <trkpt lat="47.14583" lon="5.8254">
        <ele>277.6</ele>
        <time>2021-06-16T11:39:28Z</time>
      </trkpt>
      <trkpt lat="47.14579" lon="5.82533">
        <ele>277.6</ele>
        <time>2021-06-16T11:39:29Z</time>
      </trkpt>
      <trkpt lat="47.14575" lon="5.82526">
        <ele>277.6</ele>
        <time>2021-06-16T11:39:30Z</time>
      </trkpt>
      <trkpt lat="47.14571" lon="5.82519">
        <ele>277.6</ele>
        <time>2021-06-16T11:39:31Z</time>
      </trkpt>
      <trkpt lat="47.14568" lon="5.82511">
        <ele>277.6</ele>
        <time>2021-06-16T11:39:32Z</time>
      </trkpt>
      <trkpt lat="47.14566" lon="5.82502">
        <ele>277.6</ele>
        <time>2021-06-16T11:39:33Z</time>
      </trkpt>
      <trkpt lat="47.14564" lon="5.82493">
        <ele>277.6</ele>
        <time>2021-06-16T11:39:34Z</time>
      </trkpt>
      <trkpt lat="47.14565" lon="5.82484">
        <ele>277.6</ele>
        <time>2021-06-16T11:39:35Z</time>
      </trkpt>
      <trkpt lat="47.14565" lon="5.82475">
        <ele>277.6</ele>
        <time>2021-06-16T11:39:36Z</time>
      </trkpt>
      <trkpt lat="47.14567" lon="5.82466">
        <ele>277.6</ele>
        <time>2021-06-16T11:39:37Z</time>
      </trkpt>
      <trkpt lat="47.14569" lon="5.82442">
        <ele>277.6</ele>
        <time>2021-06-16T11:39:40Z</time>
      </trkpt>
      <trkpt lat="47.1457" lon="5.82434">
        <ele>277.8</ele>
        <time>2021-06-16T11:39:41Z</time>
      </trkpt>
      <trkpt lat="47.1457" lon="5.82427">
        <ele>277.8</ele>
        <time>2021-06-16T11:39:42Z</time>
      </trkpt>
      <trkpt lat="47.1457" lon="5.8242">
        <ele>277.8</ele>
        <time>2021-06-16T11:39:43Z</time>
      </trkpt>
      <trkpt lat="47.14569" lon="5.82413">
        <ele>278</ele>
        <time>2021-06-16T11:39:44Z</time>
      </trkpt>
      <trkpt lat="47.14568" lon="5.82406">
        <ele>278.2</ele>
        <time>2021-06-16T11:39:45Z</time>
      </trkpt>
      <trkpt lat="47.14564" lon="5.82393">
        <ele>278.4</ele>
        <time>2021-06-16T11:39:47Z</time>
      </trkpt>
      <trkpt lat="47.14562" lon="5.82387">
        <ele>278.4</ele>
        <time>2021-06-16T11:39:48Z</time>
      </trkpt>
      <trkpt lat="47.1456" lon="5.82381">
        <ele>278.6</ele>
        <time>2021-06-16T11:39:49Z</time>
      </trkpt>
      <trkpt lat="47.14557" lon="5.82376">
        <ele>278.6</ele>
        <time>2021-06-16T11:39:50Z</time>
      </trkpt>
      <trkpt lat="47.14554" lon="5.82371">
        <ele>278.6</ele>
        <time>2021-06-16T11:39:51Z</time>
      </trkpt>
      <trkpt lat="47.14551" lon="5.82367">
        <ele>278.6</ele>
        <time>2021-06-16T11:39:52Z</time>
      </trkpt>
      <trkpt lat="47.14546" lon="5.82364">
        <ele>278.8</ele>
        <time>2021-06-16T11:39:53Z</time>
      </trkpt>
      <trkpt lat="47.14541" lon="5.82364">
        <ele>278.8</ele>
        <time>2021-06-16T11:39:54Z</time>
      </trkpt>
      <trkpt lat="47.14536" lon="5.82364">
        <ele>278.8</ele>
        <time>2021-06-16T11:39:55Z</time>
      </trkpt>
      <trkpt lat="47.14523" lon="5.82366">
        <ele>278.8</ele>
        <time>2021-06-16T11:39:57Z</time>
      </trkpt>
      <trkpt lat="47.14518" lon="5.82366">
        <ele>278.8</ele>
        <time>2021-06-16T11:39:58Z</time>
      </trkpt>
      <trkpt lat="47.14492" lon="5.82362">
        <ele>278.2</ele>
        <time>2021-06-16T11:40:01Z</time>
      </trkpt>
      <trkpt lat="47.14474" lon="5.82365">
        <ele>277.4</ele>
        <time>2021-06-16T11:40:03Z</time>
      </trkpt>
      <trkpt lat="47.14466" lon="5.82369">
        <ele>276.6</ele>
        <time>2021-06-16T11:40:04Z</time>
      </trkpt>
      <trkpt lat="47.14458" lon="5.82374">
        <ele>275.6</ele>
        <time>2021-06-16T11:40:05Z</time>
      </trkpt>
      <trkpt lat="47.1445" lon="5.82379">
        <ele>275</ele>
        <time>2021-06-16T11:40:06Z</time>
      </trkpt>
      <trkpt lat="47.14442" lon="5.82383">
        <ele>274.6</ele>
        <time>2021-06-16T11:40:07Z</time>
      </trkpt>
      <trkpt lat="47.14435" lon="5.82387">
        <ele>274</ele>
        <time>2021-06-16T11:40:08Z</time>
      </trkpt>
      <trkpt lat="47.14428" lon="5.8239">
        <ele>273.8</ele>
        <time>2021-06-16T11:40:09Z</time>
      </trkpt>
      <trkpt lat="47.14422" lon="5.82393">
        <ele>273.6</ele>
        <time>2021-06-16T11:40:10Z</time>
      </trkpt>
      <trkpt lat="47.14416" lon="5.82396">
        <ele>273.4</ele>
        <time>2021-06-16T11:40:11Z</time>
      </trkpt>
      <trkpt lat="47.14411" lon="5.824">
        <ele>273.4</ele>
        <time>2021-06-16T11:40:12Z</time>
      </trkpt>
      <trkpt lat="47.14405" lon="5.82404">
        <ele>273.8</ele>
        <time>2021-06-16T11:40:13Z</time>
      </trkpt>
      <trkpt lat="47.144" lon="5.82407">
        <ele>273.8</ele>
        <time>2021-06-16T11:40:14Z</time>
      </trkpt>
      <trkpt lat="47.14385" lon="5.82421">
        <ele>274.4</ele>
        <time>2021-06-16T11:40:17Z</time>
      </trkpt>
      <trkpt lat="47.1438" lon="5.82426">
        <ele>274.4</ele>
        <time>2021-06-16T11:40:18Z</time>
      </trkpt>
      <trkpt lat="47.1437" lon="5.82436">
        <ele>274.4</ele>
        <time>2021-06-16T11:40:20Z</time>
      </trkpt>
      <trkpt lat="47.14359" lon="5.82446">
        <ele>274.4</ele>
        <time>2021-06-16T11:40:22Z</time>
      </trkpt>
      <trkpt lat="47.14343" lon="5.82468">
        <ele>274.2</ele>
        <time>2021-06-16T11:40:25Z</time>
      </trkpt>
      <trkpt lat="47.14318" lon="5.82505">
        <ele>272.8</ele>
        <time>2021-06-16T11:40:29Z</time>
      </trkpt>
      <trkpt lat="47.14313" lon="5.82514">
        <ele>272.6</ele>
        <time>2021-06-16T11:40:30Z</time>
      </trkpt>
      <trkpt lat="47.14307" lon="5.82522">
        <ele>272.4</ele>
        <time>2021-06-16T11:40:31Z</time>
      </trkpt>
      <trkpt lat="47.14301" lon="5.8253">
        <ele>272.2</ele>
        <time>2021-06-16T11:40:32Z</time>
      </trkpt>
      <trkpt lat="47.14295" lon="5.82536">
        <ele>272</ele>
        <time>2021-06-16T11:40:33Z</time>
      </trkpt>
      <trkpt lat="47.14289" lon="5.82542">
        <ele>271.8</ele>
        <time>2021-06-16T11:40:34Z</time>
      </trkpt>
      <trkpt lat="47.14284" lon="5.82547">
        <ele>271.6</ele>
        <time>2021-06-16T11:40:35Z</time>
      </trkpt>
      <trkpt lat="47.14279" lon="5.8255">
        <ele>271.6</ele>
        <time>2021-06-16T11:40:36Z</time>
      </trkpt>
      <trkpt lat="47.14274" lon="5.82553">
        <ele>271.4</ele>
        <time>2021-06-16T11:40:37Z</time>
      </trkpt>
      <trkpt lat="47.1427" lon="5.82556">
        <ele>271.4</ele>
        <time>2021-06-16T11:40:38Z</time>
      </trkpt>
      <trkpt lat="47.14266" lon="5.82558">
        <ele>271.6</ele>
        <time>2021-06-16T11:40:39Z</time>
      </trkpt>
      <trkpt lat="47.14262" lon="5.82559">
        <ele>271.6</ele>
        <time>2021-06-16T11:40:40Z</time>
      </trkpt>
      <trkpt lat="47.14259" lon="5.8256">
        <ele>272</ele>
        <time>2021-06-16T11:40:41Z</time>
      </trkpt>
      <trkpt lat="47.14255" lon="5.82561">
        <ele>272.2</ele>
        <time>2021-06-16T11:40:42Z</time>
      </trkpt>
      <trkpt lat="47.14252" lon="5.82562">
        <ele>272.2</ele>
        <time>2021-06-16T11:40:43Z</time>
      </trkpt>
      <trkpt lat="47.14249" lon="5.82562">
        <ele>272.6</ele>
        <time>2021-06-16T11:40:44Z</time>
      </trkpt>
      <trkpt lat="47.14247" lon="5.82563">
        <ele>272.8</ele>
        <time>2021-06-16T11:40:45Z</time>
      </trkpt>
      <trkpt lat="47.14245" lon="5.82564">
        <ele>273.2</ele>
        <time>2021-06-16T11:40:46Z</time>
      </trkpt>
      <trkpt lat="47.14242" lon="5.82565">
        <ele>273.8</ele>
        <time>2021-06-16T11:40:47Z</time>
      </trkpt>
      <trkpt lat="47.1424" lon="5.82565">
        <ele>274</ele>
        <time>2021-06-16T11:40:48Z</time>
      </trkpt>
      <trkpt lat="47.14239" lon="5.82565">
        <ele>274.2</ele>
        <time>2021-06-16T11:40:49Z</time>
      </trkpt>
      <trkpt lat="47.14237" lon="5.82566">
        <ele>274.4</ele>
        <time>2021-06-16T11:40:50Z</time>
      </trkpt>
      <trkpt lat="47.14233" lon="5.82567">
        <ele>275</ele>
        <time>2021-06-16T11:40:52Z</time>
      </trkpt>
      <trkpt lat="47.14231" lon="5.82568">
        <ele>275.2</ele>
        <time>2021-06-16T11:40:53Z</time>
      </trkpt>
      <trkpt lat="47.14229" lon="5.82569">
        <ele>275.6</ele>
        <time>2021-06-16T11:40:54Z</time>
      </trkpt>
      <trkpt lat="47.14227" lon="5.82569">
        <ele>275.6</ele>
        <time>2021-06-16T11:40:55Z</time>
      </trkpt>
      <trkpt lat="47.14225" lon="5.82569">
        <ele>275.8</ele>
        <time>2021-06-16T11:40:56Z</time>
      </trkpt>
      <trkpt lat="47.14223" lon="5.8257">
        <ele>276</ele>
        <time>2021-06-16T11:40:57Z</time>
      </trkpt>
      <trkpt lat="47.14222" lon="5.8257">
        <ele>276.2</ele>
        <time>2021-06-16T11:40:58Z</time>
      </trkpt>
      <trkpt lat="47.1422" lon="5.8257">
        <ele>276.6</ele>
        <time>2021-06-16T11:40:59Z</time>
      </trkpt>
      <trkpt lat="47.14218" lon="5.82571">
        <ele>276.8</ele>
        <time>2021-06-16T11:41:00Z</time>
      </trkpt>
      <trkpt lat="47.14216" lon="5.82571">
        <ele>277</ele>
        <time>2021-06-16T11:41:01Z</time>
      </trkpt>
      <trkpt lat="47.14214" lon="5.82572">
        <ele>277.2</ele>
        <time>2021-06-16T11:41:02Z</time>
      </trkpt>
      <trkpt lat="47.14212" lon="5.82572">
        <ele>277.4</ele>
        <time>2021-06-16T11:41:03Z</time>
      </trkpt>
      <trkpt lat="47.1421" lon="5.82572">
        <ele>277.4</ele>
        <time>2021-06-16T11:41:04Z</time>
      </trkpt>
      <trkpt lat="47.14207" lon="5.82571">
        <ele>277.4</ele>
        <time>2021-06-16T11:41:05Z</time>
      </trkpt>
      <trkpt lat="47.14205" lon="5.82572">
        <ele>277.6</ele>
        <time>2021-06-16T11:41:06Z</time>
      </trkpt>
      <trkpt lat="47.14203" lon="5.82572">
        <ele>277.8</ele>
        <time>2021-06-16T11:41:07Z</time>
      </trkpt>
      <trkpt lat="47.142" lon="5.82573">
        <ele>278</ele>
        <time>2021-06-16T11:41:08Z</time>
      </trkpt>
      <trkpt lat="47.14198" lon="5.82574">
        <ele>278.2</ele>
        <time>2021-06-16T11:41:09Z</time>
      </trkpt>
      <trkpt lat="47.14196" lon="5.82575">
        <ele>278.4</ele>
        <time>2021-06-16T11:41:10Z</time>
      </trkpt>
      <trkpt lat="47.14194" lon="5.82575">
        <ele>278.6</ele>
        <time>2021-06-16T11:41:11Z</time>
      </trkpt>
      <trkpt lat="47.14192" lon="5.82576">
        <ele>278.8</ele>
        <time>2021-06-16T11:41:12Z</time>
      </trkpt>
      <trkpt lat="47.1419" lon="5.82577">
        <ele>278.8</ele>
        <time>2021-06-16T11:41:13Z</time>
      </trkpt>
      <trkpt lat="47.14188" lon="5.82578">
        <ele>279</ele>
        <time>2021-06-16T11:41:14Z</time>
      </trkpt>
      <trkpt lat="47.14186" lon="5.82579">
        <ele>279.2</ele>
        <time>2021-06-16T11:41:15Z</time>
      </trkpt>
      <trkpt lat="47.14184" lon="5.82581">
        <ele>279.2</ele>
        <time>2021-06-16T11:41:16Z</time>
      </trkpt>
      <trkpt lat="47.14183" lon="5.82582">
        <ele>279.4</ele>
        <time>2021-06-16T11:41:17Z</time>
      </trkpt>
      <trkpt lat="47.14181" lon="5.82584">
        <ele>279.4</ele>
        <time>2021-06-16T11:41:18Z</time>
      </trkpt>
      <trkpt lat="47.14179" lon="5.82586">
        <ele>279.4</ele>
        <time>2021-06-16T11:41:19Z</time>
      </trkpt>
      <trkpt lat="47.14178" lon="5.82587">
        <ele>279.6</ele>
        <time>2021-06-16T11:41:20Z</time>
      </trkpt>
      <trkpt lat="47.14176" lon="5.82588">
        <ele>279.8</ele>
        <time>2021-06-16T11:41:21Z</time>
      </trkpt>
      <trkpt lat="47.14174" lon="5.82589">
        <ele>280</ele>
        <time>2021-06-16T11:41:22Z</time>
      </trkpt>
      <trkpt lat="47.14172" lon="5.82591">
        <ele>280.2</ele>
        <time>2021-06-16T11:41:23Z</time>
      </trkpt>
      <trkpt lat="47.14169" lon="5.82592">
        <ele>280.4</ele>
        <time>2021-06-16T11:41:24Z</time>
      </trkpt>
      <trkpt lat="47.14168" lon="5.82593">
        <ele>280.8</ele>
        <time>2021-06-16T11:41:25Z</time>
      </trkpt>
      <trkpt lat="47.14166" lon="5.82594">
        <ele>281</ele>
        <time>2021-06-16T11:41:26Z</time>
      </trkpt>
      <trkpt lat="47.14164" lon="5.82595">
        <ele>281.2</ele>
        <time>2021-06-16T11:41:27Z</time>
      </trkpt>
      <trkpt lat="47.14162" lon="5.82595">
        <ele>281.6</ele>
        <time>2021-06-16T11:41:28Z</time>
      </trkpt>
      <trkpt lat="47.1416" lon="5.82596">
        <ele>281.8</ele>
        <time>2021-06-16T11:41:29Z</time>
      </trkpt>
      <trkpt lat="47.14158" lon="5.82597">
        <ele>282</ele>
        <time>2021-06-16T11:41:30Z</time>
      </trkpt>
      <trkpt lat="47.14156" lon="5.82598">
        <ele>282.2</ele>
        <time>2021-06-16T11:41:31Z</time>
      </trkpt>
      <trkpt lat="47.14154" lon="5.82598">
        <ele>282.4</ele>
        <time>2021-06-16T11:41:32Z</time>
      </trkpt>
      <trkpt lat="47.14152" lon="5.82599">
        <ele>282.4</ele>
        <time>2021-06-16T11:41:33Z</time>
      </trkpt>
      <trkpt lat="47.1415" lon="5.82599">
        <ele>282.6</ele>
        <time>2021-06-16T11:41:34Z</time>
      </trkpt>
      <trkpt lat="47.14148" lon="5.82599">
        <ele>282.6</ele>
        <time>2021-06-16T11:41:35Z</time>
      </trkpt>
      <trkpt lat="47.14146" lon="5.82599">
        <ele>282.6</ele>
        <time>2021-06-16T11:41:36Z</time>
      </trkpt>
      <trkpt lat="47.14144" lon="5.82599">
        <ele>282.8</ele>
        <time>2021-06-16T11:41:37Z</time>
      </trkpt>
      <trkpt lat="47.14142" lon="5.82599">
        <ele>283</ele>
        <time>2021-06-16T11:41:38Z</time>
      </trkpt>
      <trkpt lat="47.1414" lon="5.82599">
        <ele>283</ele>
        <time>2021-06-16T11:41:39Z</time>
      </trkpt>
      <trkpt lat="47.14138" lon="5.82599">
        <ele>283.2</ele>
        <time>2021-06-16T11:41:40Z</time>
      </trkpt>
      <trkpt lat="47.14137" lon="5.82599">
        <ele>283.2</ele>
        <time>2021-06-16T11:41:41Z</time>
      </trkpt>
      <trkpt lat="47.14135" lon="5.826">
        <ele>283.4</ele>
        <time>2021-06-16T11:41:42Z</time>
      </trkpt>
      <trkpt lat="47.14133" lon="5.826">
        <ele>283.4</ele>
        <time>2021-06-16T11:41:43Z</time>
      </trkpt>
      <trkpt lat="47.14131" lon="5.82601">
        <ele>283.6</ele>
        <time>2021-06-16T11:41:44Z</time>
      </trkpt>
      <trkpt lat="47.14129" lon="5.82601">
        <ele>284</ele>
        <time>2021-06-16T11:41:45Z</time>
      </trkpt>
      <trkpt lat="47.14128" lon="5.82602">
        <ele>284.2</ele>
        <time>2021-06-16T11:41:46Z</time>
      </trkpt>
      <trkpt lat="47.14125" lon="5.82602">
        <ele>284.4</ele>
        <time>2021-06-16T11:41:47Z</time>
      </trkpt>
      <trkpt lat="47.14123" lon="5.82601">
        <ele>284.6</ele>
        <time>2021-06-16T11:41:48Z</time>
      </trkpt>
      <trkpt lat="47.14122" lon="5.82601">
        <ele>285</ele>
        <time>2021-06-16T11:41:49Z</time>
      </trkpt>
      <trkpt lat="47.1412" lon="5.82601">
        <ele>285.2</ele>
        <time>2021-06-16T11:41:50Z</time>
      </trkpt>
      <trkpt lat="47.14118" lon="5.82601">
        <ele>285.6</ele>
        <time>2021-06-16T11:41:51Z</time>
      </trkpt>
      <trkpt lat="47.14117" lon="5.826">
        <ele>286</ele>
        <time>2021-06-16T11:41:52Z</time>
      </trkpt>
      <trkpt lat="47.14115" lon="5.82599">
        <ele>286.2</ele>
        <time>2021-06-16T11:41:53Z</time>
      </trkpt>
      <trkpt lat="47.14114" lon="5.82599">
        <ele>286.6</ele>
        <time>2021-06-16T11:41:54Z</time>
      </trkpt>
      <trkpt lat="47.14112" lon="5.82598">
        <ele>286.8</ele>
        <time>2021-06-16T11:41:55Z</time>
      </trkpt>
      <trkpt lat="47.1411" lon="5.82597">
        <ele>287</ele>
        <time>2021-06-16T11:41:56Z</time>
      </trkpt>
      <trkpt lat="47.14109" lon="5.82596">
        <ele>287.2</ele>
        <time>2021-06-16T11:41:57Z</time>
      </trkpt>
      <trkpt lat="47.14108" lon="5.82595">
        <ele>287.6</ele>
        <time>2021-06-16T11:41:58Z</time>
      </trkpt>
      <trkpt lat="47.14106" lon="5.82594">
        <ele>288</ele>
        <time>2021-06-16T11:41:59Z</time>
      </trkpt>
      <trkpt lat="47.14105" lon="5.82594">
        <ele>287.8</ele>
        <time>2021-06-16T11:42:00Z</time>
      </trkpt>
      <trkpt lat="47.14103" lon="5.82593">
        <ele>288.4</ele>
        <time>2021-06-16T11:42:01Z</time>
      </trkpt>
      <trkpt lat="47.14101" lon="5.82591">
        <ele>288.4</ele>
        <time>2021-06-16T11:42:02Z</time>
      </trkpt>
      <trkpt lat="47.141" lon="5.82591">
        <ele>288.8</ele>
        <time>2021-06-16T11:42:03Z</time>
      </trkpt>
      <trkpt lat="47.14098" lon="5.8259">
        <ele>289</ele>
        <time>2021-06-16T11:42:04Z</time>
      </trkpt>
      <trkpt lat="47.14096" lon="5.8259">
        <ele>289</ele>
        <time>2021-06-16T11:42:05Z</time>
      </trkpt>
      <trkpt lat="47.14095" lon="5.82589">
        <ele>289.2</ele>
        <time>2021-06-16T11:42:06Z</time>
      </trkpt>
      <trkpt lat="47.14094" lon="5.82588">
        <ele>289.2</ele>
        <time>2021-06-16T11:42:07Z</time>
      </trkpt>
      <trkpt lat="47.14092" lon="5.82587">
        <ele>289.6</ele>
        <time>2021-06-16T11:42:08Z</time>
      </trkpt>
      <trkpt lat="47.14091" lon="5.82587">
        <ele>289.8</ele>
        <time>2021-06-16T11:42:09Z</time>
      </trkpt>
      <trkpt lat="47.14089" lon="5.82586">
        <ele>289.8</ele>
        <time>2021-06-16T11:42:10Z</time>
      </trkpt>
      <trkpt lat="47.14088" lon="5.82585">
        <ele>290.2</ele>
        <time>2021-06-16T11:42:11Z</time>
      </trkpt>
      <trkpt lat="47.14086" lon="5.82585">
        <ele>290.4</ele>
        <time>2021-06-16T11:42:12Z</time>
      </trkpt>
      <trkpt lat="47.14084" lon="5.82584">
        <ele>290.4</ele>
        <time>2021-06-16T11:42:13Z</time>
      </trkpt>
      <trkpt lat="47.14083" lon="5.82583">
        <ele>290.8</ele>
        <time>2021-06-16T11:42:14Z</time>
      </trkpt>
      <trkpt lat="47.14081" lon="5.82583">
        <ele>290.8</ele>
        <time>2021-06-16T11:42:15Z</time>
      </trkpt>
      <trkpt lat="47.14079" lon="5.82582">
        <ele>291</ele>
        <time>2021-06-16T11:42:16Z</time>
      </trkpt>
      <trkpt lat="47.14078" lon="5.82581">
        <ele>291</ele>
        <time>2021-06-16T11:42:17Z</time>
      </trkpt>
      <trkpt lat="47.14076" lon="5.8258">
        <ele>291.2</ele>
        <time>2021-06-16T11:42:18Z</time>
      </trkpt>
      <trkpt lat="47.14074" lon="5.82579">
        <ele>291.4</ele>
        <time>2021-06-16T11:42:19Z</time>
      </trkpt>
      <trkpt lat="47.14071" lon="5.82577">
        <ele>291.6</ele>
        <time>2021-06-16T11:42:20Z</time>
      </trkpt>
      <trkpt lat="47.14069" lon="5.82576">
        <ele>292</ele>
        <time>2021-06-16T11:42:21Z</time>
      </trkpt>
      <trkpt lat="47.14066" lon="5.82575">
        <ele>292</ele>
        <time>2021-06-16T11:42:22Z</time>
      </trkpt>
      <trkpt lat="47.14064" lon="5.82574">
        <ele>292.2</ele>
        <time>2021-06-16T11:42:23Z</time>
      </trkpt>
      <trkpt lat="47.14062" lon="5.82573">
        <ele>292.2</ele>
        <time>2021-06-16T11:42:24Z</time>
      </trkpt>
      <trkpt lat="47.1406" lon="5.82572">
        <ele>292.4</ele>
        <time>2021-06-16T11:42:25Z</time>
      </trkpt>
      <trkpt lat="47.14058" lon="5.82571">
        <ele>292.6</ele>
        <time>2021-06-16T11:42:26Z</time>
      </trkpt>
      <trkpt lat="47.14054" lon="5.8257">
        <ele>292.8</ele>
        <time>2021-06-16T11:42:27Z</time>
      </trkpt>
      <trkpt lat="47.14052" lon="5.8257">
        <ele>293</ele>
        <time>2021-06-16T11:42:28Z</time>
      </trkpt>
      <trkpt lat="47.1405" lon="5.8257">
        <ele>293.2</ele>
        <time>2021-06-16T11:42:29Z</time>
      </trkpt>
      <trkpt lat="47.1405" lon="5.8257">
        <ele>293.4</ele>
        <time>2021-06-16T11:42:30Z</time>
      </trkpt>
      <trkpt lat="47.14047" lon="5.82569">
        <ele>293.6</ele>
        <time>2021-06-16T11:42:31Z</time>
      </trkpt>
      <trkpt lat="47.14044" lon="5.82567">
        <ele>294</ele>
        <time>2021-06-16T11:42:32Z</time>
      </trkpt>
      <trkpt lat="47.14042" lon="5.82566">
        <ele>294.4</ele>
        <time>2021-06-16T11:42:33Z</time>
      </trkpt>
      <trkpt lat="47.1404" lon="5.82566">
        <ele>294.6</ele>
        <time>2021-06-16T11:42:34Z</time>
      </trkpt>
      <trkpt lat="47.14039" lon="5.82565">
        <ele>294.8</ele>
        <time>2021-06-16T11:42:35Z</time>
      </trkpt>
      <trkpt lat="47.14037" lon="5.82565">
        <ele>295</ele>
        <time>2021-06-16T11:42:36Z</time>
      </trkpt>
      <trkpt lat="47.14036" lon="5.82565">
        <ele>295.4</ele>
        <time>2021-06-16T11:42:37Z</time>
      </trkpt>
      <trkpt lat="47.14034" lon="5.82565">
        <ele>295.6</ele>
        <time>2021-06-16T11:42:38Z</time>
      </trkpt>
      <trkpt lat="47.14032" lon="5.82564">
        <ele>295.8</ele>
        <time>2021-06-16T11:42:39Z</time>
      </trkpt>
      <trkpt lat="47.14032" lon="5.82564">
        <ele>296</ele>
        <time>2021-06-16T11:42:40Z</time>
      </trkpt>
      <trkpt lat="47.14031" lon="5.82564">
        <ele>296</ele>
        <time>2021-06-16T11:42:41Z</time>
      </trkpt>
      <trkpt lat="47.14027" lon="5.82563">
        <ele>296.2</ele>
        <time>2021-06-16T11:42:42Z</time>
      </trkpt>
      <trkpt lat="47.14026" lon="5.82563">
        <ele>296.4</ele>
        <time>2021-06-16T11:42:43Z</time>
      </trkpt>
      <trkpt lat="47.14024" lon="5.82563">
        <ele>296.4</ele>
        <time>2021-06-16T11:42:44Z</time>
      </trkpt>
      <trkpt lat="47.14024" lon="5.82563">
        <ele>296.8</ele>
        <time>2021-06-16T11:42:45Z</time>
      </trkpt>
      <trkpt lat="47.14021" lon="5.82562">
        <ele>297</ele>
        <time>2021-06-16T11:42:46Z</time>
      </trkpt>
      <trkpt lat="47.14021" lon="5.82562">
        <ele>297</ele>
        <time>2021-06-16T11:42:47Z</time>
      </trkpt>
      <trkpt lat="47.14019" lon="5.82561">
        <ele>297.2</ele>
        <time>2021-06-16T11:42:48Z</time>
      </trkpt>
      <trkpt lat="47.14018" lon="5.82561">
        <ele>297.2</ele>
        <time>2021-06-16T11:42:49Z</time>
      </trkpt>
      <trkpt lat="47.14016" lon="5.82561">
        <ele>297.6</ele>
        <time>2021-06-16T11:42:50Z</time>
      </trkpt>
      <trkpt lat="47.14015" lon="5.8256">
        <ele>297.6</ele>
        <time>2021-06-16T11:42:51Z</time>
      </trkpt>
      <trkpt lat="47.14013" lon="5.8256">
        <ele>297.8</ele>
        <time>2021-06-16T11:42:52Z</time>
      </trkpt>
      <trkpt lat="47.14012" lon="5.82559">
        <ele>298</ele>
        <time>2021-06-16T11:42:53Z</time>
      </trkpt>
      <trkpt lat="47.1401" lon="5.82558">
        <ele>298.2</ele>
        <time>2021-06-16T11:42:54Z</time>
      </trkpt>
      <trkpt lat="47.14009" lon="5.82558">
        <ele>298.4</ele>
        <time>2021-06-16T11:42:55Z</time>
      </trkpt>
      <trkpt lat="47.14007" lon="5.82558">
        <ele>298.4</ele>
        <time>2021-06-16T11:42:56Z</time>
      </trkpt>
      <trkpt lat="47.14007" lon="5.82558">
        <ele>298.6</ele>
        <time>2021-06-16T11:42:57Z</time>
      </trkpt>
      <trkpt lat="47.14003" lon="5.82556">
        <ele>298.6</ele>
        <time>2021-06-16T11:42:58Z</time>
      </trkpt>
      <trkpt lat="47.14001" lon="5.82555">
        <ele>298.8</ele>
        <time>2021-06-16T11:42:59Z</time>
      </trkpt>
      <trkpt lat="47.13999" lon="5.82555">
        <ele>299</ele>
        <time>2021-06-16T11:43:00Z</time>
      </trkpt>
      <trkpt lat="47.13998" lon="5.82554">
        <ele>299.2</ele>
        <time>2021-06-16T11:43:01Z</time>
      </trkpt>
      <trkpt lat="47.13998" lon="5.82554">
        <ele>299.4</ele>
        <time>2021-06-16T11:43:02Z</time>
      </trkpt>
      <trkpt lat="47.13994" lon="5.82552">
        <ele>299.4</ele>
        <time>2021-06-16T11:43:03Z</time>
      </trkpt>
      <trkpt lat="47.13992" lon="5.82551">
        <ele>299.4</ele>
        <time>2021-06-16T11:43:04Z</time>
      </trkpt>
      <trkpt lat="47.1399" lon="5.82551">
        <ele>299.6</ele>
        <time>2021-06-16T11:43:05Z</time>
      </trkpt>
      <trkpt lat="47.13988" lon="5.82551">
        <ele>299.8</ele>
        <time>2021-06-16T11:43:06Z</time>
      </trkpt>
      <trkpt lat="47.13988" lon="5.82551">
        <ele>299.8</ele>
        <time>2021-06-16T11:43:07Z</time>
      </trkpt>
      <trkpt lat="47.13986" lon="5.8255">
        <ele>299.8</ele>
        <time>2021-06-16T11:43:08Z</time>
      </trkpt>
      <trkpt lat="47.13984" lon="5.82549">
        <ele>300</ele>
        <time>2021-06-16T11:43:09Z</time>
      </trkpt>
      <trkpt lat="47.13981" lon="5.82548">
        <ele>300</ele>
        <time>2021-06-16T11:43:10Z</time>
      </trkpt>
      <trkpt lat="47.13979" lon="5.82548">
        <ele>300</ele>
        <time>2021-06-16T11:43:11Z</time>
      </trkpt>
      <trkpt lat="47.13978" lon="5.82547">
        <ele>300</ele>
        <time>2021-06-16T11:43:12Z</time>
      </trkpt>
      <trkpt lat="47.13976" lon="5.82547">
        <ele>300.2</ele>
        <time>2021-06-16T11:43:13Z</time>
      </trkpt>
      <trkpt lat="47.13974" lon="5.82546">
        <ele>300.2</ele>
        <time>2021-06-16T11:43:14Z</time>
      </trkpt>
      <trkpt lat="47.13972" lon="5.82546">
        <ele>300.4</ele>
        <time>2021-06-16T11:43:15Z</time>
      </trkpt>
      <trkpt lat="47.1397" lon="5.82547">
        <ele>300.4</ele>
        <time>2021-06-16T11:43:16Z</time>
      </trkpt>
      <trkpt lat="47.13969" lon="5.82547">
        <ele>300.4</ele>
        <time>2021-06-16T11:43:17Z</time>
      </trkpt>
      <trkpt lat="47.13967" lon="5.82547">
        <ele>300.8</ele>
        <time>2021-06-16T11:43:18Z</time>
      </trkpt>
      <trkpt lat="47.13965" lon="5.82547">
        <ele>300.8</ele>
        <time>2021-06-16T11:43:19Z</time>
      </trkpt>
      <trkpt lat="47.13963" lon="5.82547">
        <ele>301</ele>
        <time>2021-06-16T11:43:20Z</time>
      </trkpt>
      <trkpt lat="47.13961" lon="5.82548">
        <ele>301.2</ele>
        <time>2021-06-16T11:43:21Z</time>
      </trkpt>
      <trkpt lat="47.13958" lon="5.82548">
        <ele>301.2</ele>
        <time>2021-06-16T11:43:22Z</time>
      </trkpt>
      <trkpt lat="47.13956" lon="5.82548">
        <ele>301.4</ele>
        <time>2021-06-16T11:43:23Z</time>
      </trkpt>
      <trkpt lat="47.13954" lon="5.82547">
        <ele>301.4</ele>
        <time>2021-06-16T11:43:24Z</time>
      </trkpt>
      <trkpt lat="47.13952" lon="5.82547">
        <ele>301.6</ele>
        <time>2021-06-16T11:43:25Z</time>
      </trkpt>
      <trkpt lat="47.13952" lon="5.82547">
        <ele>301.4</ele>
        <time>2021-06-16T11:43:26Z</time>
      </trkpt>
      <trkpt lat="47.13947" lon="5.82546">
        <ele>301.8</ele>
        <time>2021-06-16T11:43:27Z</time>
      </trkpt>
      <trkpt lat="47.13945" lon="5.82545">
        <ele>301.8</ele>
        <time>2021-06-16T11:43:28Z</time>
      </trkpt>
      <trkpt lat="47.13943" lon="5.82544">
        <ele>301.8</ele>
        <time>2021-06-16T11:43:29Z</time>
      </trkpt>
      <trkpt lat="47.13942" lon="5.82542">
        <ele>301.8</ele>
        <time>2021-06-16T11:43:30Z</time>
      </trkpt>
      <trkpt lat="47.13942" lon="5.82542">
        <ele>302</ele>
        <time>2021-06-16T11:43:31Z</time>
      </trkpt>
      <trkpt lat="47.1394" lon="5.82539">
        <ele>302</ele>
        <time>2021-06-16T11:43:32Z</time>
      </trkpt>
      <trkpt lat="47.1394" lon="5.82537">
        <ele>302</ele>
        <time>2021-06-16T11:43:33Z</time>
      </trkpt>
      <trkpt lat="47.1394" lon="5.82537">
        <ele>302</ele>
        <time>2021-06-16T11:43:34Z</time>
      </trkpt>
      <trkpt lat="47.1394" lon="5.82537">
        <ele>302.2</ele>
        <time>2021-06-16T11:43:35Z</time>
      </trkpt>
      <trkpt lat="47.1394" lon="5.82537">
        <ele>302.2</ele>
        <time>2021-06-16T11:43:41Z</time>
      </trkpt>
      <trkpt lat="47.1394" lon="5.82537">
        <ele>302.4</ele>
        <time>2021-06-16T11:43:48Z</time>
      </trkpt>
      <trkpt lat="47.13939" lon="5.82533">
        <ele>302.2</ele>
        <time>2021-06-16T11:44:19Z</time>
      </trkpt>
      <trkpt lat="47.13937" lon="5.82526">
        <ele>302.2</ele>
        <time>2021-06-16T11:44:21Z</time>
      </trkpt>
      <trkpt lat="47.1393" lon="5.82503">
        <ele>302</ele>
        <time>2021-06-16T11:44:26Z</time>
      </trkpt>
      <trkpt lat="47.13928" lon="5.82498">
        <ele>302</ele>
        <time>2021-06-16T11:44:27Z</time>
      </trkpt>
      <trkpt lat="47.13927" lon="5.82494">
        <ele>301.8</ele>
        <time>2021-06-16T11:44:28Z</time>
      </trkpt>
      <trkpt lat="47.13921" lon="5.82479">
        <ele>301.4</ele>
        <time>2021-06-16T11:44:32Z</time>
      </trkpt>
      <trkpt lat="47.13914" lon="5.82461">
        <ele>301.4</ele>
        <time>2021-06-16T11:44:34Z</time>
      </trkpt>
      <trkpt lat="47.13912" lon="5.82456">
        <ele>301.2</ele>
        <time>2021-06-16T11:44:35Z</time>
      </trkpt>
      <trkpt lat="47.13909" lon="5.82451">
        <ele>301.2</ele>
        <time>2021-06-16T11:44:36Z</time>
      </trkpt>
      <trkpt lat="47.13906" lon="5.82446">
        <ele>301.4</ele>
        <time>2021-06-16T11:44:37Z</time>
      </trkpt>
      <trkpt lat="47.13885" lon="5.82409">
        <ele>301.4</ele>
        <time>2021-06-16T11:44:43Z</time>
      </trkpt>
      <trkpt lat="47.13873" lon="5.8239">
        <ele>301.6</ele>
        <time>2021-06-16T11:44:47Z</time>
      </trkpt>
      <trkpt lat="47.13872" lon="5.82386">
        <ele>301.8</ele>
        <time>2021-06-16T11:44:48Z</time>
      </trkpt>
      <trkpt lat="47.1387" lon="5.82384">
        <ele>301.8</ele>
        <time>2021-06-16T11:44:49Z</time>
      </trkpt>
      <trkpt lat="47.13868" lon="5.82381">
        <ele>301.8</ele>
        <time>2021-06-16T11:44:50Z</time>
      </trkpt>
      <trkpt lat="47.13868" lon="5.82381">
        <ele>301.8</ele>
        <time>2021-06-16T11:44:51Z</time>
      </trkpt>
      <trkpt lat="47.13864" lon="5.82379">
        <ele>302</ele>
        <time>2021-06-16T11:44:52Z</time>
      </trkpt>
      <trkpt lat="47.13862" lon="5.82377">
        <ele>302.2</ele>
        <time>2021-06-16T11:44:53Z</time>
      </trkpt>
      <trkpt lat="47.1386" lon="5.82375">
        <ele>302.4</ele>
        <time>2021-06-16T11:44:54Z</time>
      </trkpt>
      <trkpt lat="47.13851" lon="5.82358">
        <ele>302.8</ele>
        <time>2021-06-16T11:44:59Z</time>
      </trkpt>
      <trkpt lat="47.13849" lon="5.82354">
        <ele>302.8</ele>
        <time>2021-06-16T11:45:00Z</time>
      </trkpt>
      <trkpt lat="47.13849" lon="5.82354">
        <ele>302.8</ele>
        <time>2021-06-16T11:45:01Z</time>
      </trkpt>
      <trkpt lat="47.13846" lon="5.82349">
        <ele>303</ele>
        <time>2021-06-16T11:45:02Z</time>
      </trkpt>
      <trkpt lat="47.13843" lon="5.82345">
        <ele>303</ele>
        <time>2021-06-16T11:45:03Z</time>
      </trkpt>
      <trkpt lat="47.13838" lon="5.82337">
        <ele>303.4</ele>
        <time>2021-06-16T11:45:05Z</time>
      </trkpt>
      <trkpt lat="47.13825" lon="5.82315">
        <ele>303.6</ele>
        <time>2021-06-16T11:45:10Z</time>
      </trkpt>
      <trkpt lat="47.13823" lon="5.82311">
        <ele>303.6</ele>
        <time>2021-06-16T11:45:11Z</time>
      </trkpt>
      <trkpt lat="47.13806" lon="5.82285">
        <ele>303.2</ele>
        <time>2021-06-16T11:45:16Z</time>
      </trkpt>
      <trkpt lat="47.13801" lon="5.82279">
        <ele>303.2</ele>
        <time>2021-06-16T11:45:17Z</time>
      </trkpt>
      <trkpt lat="47.13792" lon="5.8227">
        <ele>303</ele>
        <time>2021-06-16T11:45:19Z</time>
      </trkpt>
      <trkpt lat="47.13788" lon="5.82267">
        <ele>303</ele>
        <time>2021-06-16T11:45:20Z</time>
      </trkpt>
      <trkpt lat="47.13783" lon="5.82263">
        <ele>303</ele>
        <time>2021-06-16T11:45:21Z</time>
      </trkpt>
      <trkpt lat="47.13778" lon="5.8226">
        <ele>303</ele>
        <time>2021-06-16T11:45:22Z</time>
      </trkpt>
      <trkpt lat="47.13751" lon="5.82238">
        <ele>303.2</ele>
        <time>2021-06-16T11:45:27Z</time>
      </trkpt>
      <trkpt lat="47.13744" lon="5.82232">
        <ele>303</ele>
        <time>2021-06-16T11:45:28Z</time>
      </trkpt>
      <trkpt lat="47.13738" lon="5.82229">
        <ele>302.8</ele>
        <time>2021-06-16T11:45:29Z</time>
      </trkpt>
      <trkpt lat="47.13733" lon="5.82226">
        <ele>302.6</ele>
        <time>2021-06-16T11:45:30Z</time>
      </trkpt>
      <trkpt lat="47.13728" lon="5.82221">
        <ele>302.6</ele>
        <time>2021-06-16T11:45:31Z</time>
      </trkpt>
      <trkpt lat="47.13717" lon="5.82208">
        <ele>302.2</ele>
        <time>2021-06-16T11:45:33Z</time>
      </trkpt>
      <trkpt lat="47.13717" lon="5.82208">
        <ele>301.8</ele>
        <time>2021-06-16T11:45:34Z</time>
      </trkpt>
      <trkpt lat="47.13708" lon="5.82198">
        <ele>301.8</ele>
        <time>2021-06-16T11:45:35Z</time>
      </trkpt>
      <trkpt lat="47.13692" lon="5.82187">
        <ele>301.6</ele>
        <time>2021-06-16T11:45:37Z</time>
      </trkpt>
      <trkpt lat="47.13679" lon="5.82178">
        <ele>301</ele>
        <time>2021-06-16T11:45:39Z</time>
      </trkpt>
      <trkpt lat="47.13654" lon="5.82165">
        <ele>300</ele>
        <time>2021-06-16T11:45:42Z</time>
      </trkpt>
      <trkpt lat="47.13648" lon="5.8216">
        <ele>299.2</ele>
        <time>2021-06-16T11:45:43Z</time>
      </trkpt>
      <trkpt lat="47.13643" lon="5.82154">
        <ele>298.8</ele>
        <time>2021-06-16T11:45:44Z</time>
      </trkpt>
      <trkpt lat="47.13637" lon="5.82146">
        <ele>297.4</ele>
        <time>2021-06-16T11:45:45Z</time>
      </trkpt>
      <trkpt lat="47.13632" lon="5.82135">
        <ele>296.2</ele>
        <time>2021-06-16T11:45:46Z</time>
      </trkpt>
      <trkpt lat="47.13629" lon="5.82124">
        <ele>295.8</ele>
        <time>2021-06-16T11:45:47Z</time>
      </trkpt>
      <trkpt lat="47.13626" lon="5.82115">
        <ele>295.4</ele>
        <time>2021-06-16T11:45:48Z</time>
      </trkpt>
      <trkpt lat="47.13622" lon="5.82108">
        <ele>295</ele>
        <time>2021-06-16T11:45:49Z</time>
      </trkpt>
      <trkpt lat="47.13612" lon="5.82089">
        <ele>293.6</ele>
        <time>2021-06-16T11:45:51Z</time>
      </trkpt>
      <trkpt lat="47.136" lon="5.82074">
        <ele>292</ele>
        <time>2021-06-16T11:45:53Z</time>
      </trkpt>
      <trkpt lat="47.13583" lon="5.82057">
        <ele>290</ele>
        <time>2021-06-16T11:45:55Z</time>
      </trkpt>
      <trkpt lat="47.13556" lon="5.8203">
        <ele>288.2</ele>
        <time>2021-06-16T11:45:58Z</time>
      </trkpt>
      <trkpt lat="47.1355" lon="5.82022">
        <ele>288</ele>
        <time>2021-06-16T11:45:59Z</time>
      </trkpt>
      <trkpt lat="47.13542" lon="5.8201">
        <ele>287</ele>
        <time>2021-06-16T11:46:00Z</time>
      </trkpt>
      <trkpt lat="47.13536" lon="5.81998">
        <ele>286.4</ele>
        <time>2021-06-16T11:46:01Z</time>
      </trkpt>
      <trkpt lat="47.13532" lon="5.81984">
        <ele>284.8</ele>
        <time>2021-06-16T11:46:02Z</time>
      </trkpt>
      <trkpt lat="47.13528" lon="5.81972">
        <ele>282.8</ele>
        <time>2021-06-16T11:46:03Z</time>
      </trkpt>
      <trkpt lat="47.13519" lon="5.81949">
        <ele>280.2</ele>
        <time>2021-06-16T11:46:05Z</time>
      </trkpt>
      <trkpt lat="47.13506" lon="5.81921">
        <ele>278.6</ele>
        <time>2021-06-16T11:46:07Z</time>
      </trkpt>
      <trkpt lat="47.13493" lon="5.81899">
        <ele>277.6</ele>
        <time>2021-06-16T11:46:09Z</time>
      </trkpt>
      <trkpt lat="47.1347" lon="5.81859">
        <ele>275.6</ele>
        <time>2021-06-16T11:46:12Z</time>
      </trkpt>
      <trkpt lat="47.13458" lon="5.81833">
        <ele>274.4</ele>
        <time>2021-06-16T11:46:14Z</time>
      </trkpt>
      <trkpt lat="47.13458" lon="5.81833">
        <ele>272.6</ele>
        <time>2021-06-16T11:46:15Z</time>
      </trkpt>
      <trkpt lat="47.13448" lon="5.8181">
        <ele>272</ele>
        <time>2021-06-16T11:46:16Z</time>
      </trkpt>
      <trkpt lat="47.13441" lon="5.81799">
        <ele>271</ele>
        <time>2021-06-16T11:46:17Z</time>
      </trkpt>
      <trkpt lat="47.13434" lon="5.81789">
        <ele>270.8</ele>
        <time>2021-06-16T11:46:18Z</time>
      </trkpt>
      <trkpt lat="47.13426" lon="5.81779">
        <ele>270.2</ele>
        <time>2021-06-16T11:46:19Z</time>
      </trkpt>
      <trkpt lat="47.13419" lon="5.8177">
        <ele>270.2</ele>
        <time>2021-06-16T11:46:20Z</time>
      </trkpt>
      <trkpt lat="47.13413" lon="5.81762">
        <ele>269.8</ele>
        <time>2021-06-16T11:46:21Z</time>
      </trkpt>
      <trkpt lat="47.13408" lon="5.81756">
        <ele>269.4</ele>
        <time>2021-06-16T11:46:22Z</time>
      </trkpt>
      <trkpt lat="47.13401" lon="5.81749">
        <ele>269.4</ele>
        <time>2021-06-16T11:46:23Z</time>
      </trkpt>
      <trkpt lat="47.13394" lon="5.81741">
        <ele>269.2</ele>
        <time>2021-06-16T11:46:24Z</time>
      </trkpt>
      <trkpt lat="47.1339" lon="5.81736">
        <ele>269.2</ele>
        <time>2021-06-16T11:46:25Z</time>
      </trkpt>
      <trkpt lat="47.13384" lon="5.81728">
        <ele>269</ele>
        <time>2021-06-16T11:46:26Z</time>
      </trkpt>
      <trkpt lat="47.1338" lon="5.81723">
        <ele>269</ele>
        <time>2021-06-16T11:46:27Z</time>
      </trkpt>
      <trkpt lat="47.13376" lon="5.81718">
        <ele>269</ele>
        <time>2021-06-16T11:46:28Z</time>
      </trkpt>
      <trkpt lat="47.13372" lon="5.81712">
        <ele>269</ele>
        <time>2021-06-16T11:46:29Z</time>
      </trkpt>
      <trkpt lat="47.13369" lon="5.81708">
        <ele>269</ele>
        <time>2021-06-16T11:46:30Z</time>
      </trkpt>
      <trkpt lat="47.13367" lon="5.81705">
        <ele>269.2</ele>
        <time>2021-06-16T11:46:31Z</time>
      </trkpt>
      <trkpt lat="47.13365" lon="5.81703">
        <ele>269.2</ele>
        <time>2021-06-16T11:46:32Z</time>
      </trkpt>
      <trkpt lat="47.13362" lon="5.817">
        <ele>269.6</ele>
        <time>2021-06-16T11:46:33Z</time>
      </trkpt>
      <trkpt lat="47.13362" lon="5.817">
        <ele>270</ele>
        <time>2021-06-16T11:46:34Z</time>
      </trkpt>
      <trkpt lat="47.13358" lon="5.81695">
        <ele>270.2</ele>
        <time>2021-06-16T11:46:35Z</time>
      </trkpt>
      <trkpt lat="47.13356" lon="5.81693">
        <ele>270.4</ele>
        <time>2021-06-16T11:46:36Z</time>
      </trkpt>
      <trkpt lat="47.13355" lon="5.81691">
        <ele>270.6</ele>
        <time>2021-06-16T11:46:37Z</time>
      </trkpt>
      <trkpt lat="47.13354" lon="5.8169">
        <ele>271</ele>
        <time>2021-06-16T11:46:38Z</time>
      </trkpt>
      <trkpt lat="47.13352" lon="5.81688">
        <ele>271.4</ele>
        <time>2021-06-16T11:46:39Z</time>
      </trkpt>
      <trkpt lat="47.13351" lon="5.81687">
        <ele>271.8</ele>
        <time>2021-06-16T11:46:40Z</time>
      </trkpt>
      <trkpt lat="47.1335" lon="5.81685">
        <ele>272.2</ele>
        <time>2021-06-16T11:46:41Z</time>
      </trkpt>
      <trkpt lat="47.13347" lon="5.81682">
        <ele>272.8</ele>
        <time>2021-06-16T11:46:44Z</time>
      </trkpt>
      <trkpt lat="47.13346" lon="5.81681">
        <ele>273.2</ele>
        <time>2021-06-16T11:46:45Z</time>
      </trkpt>
      <trkpt lat="47.13345" lon="5.81679">
        <ele>273.4</ele>
        <time>2021-06-16T11:46:46Z</time>
      </trkpt>
      <trkpt lat="47.13344" lon="5.81678">
        <ele>273.4</ele>
        <time>2021-06-16T11:46:47Z</time>
      </trkpt>
      <trkpt lat="47.13343" lon="5.81677">
        <ele>273.8</ele>
        <time>2021-06-16T11:46:48Z</time>
      </trkpt>
      <trkpt lat="47.13342" lon="5.81677">
        <ele>274</ele>
        <time>2021-06-16T11:46:49Z</time>
      </trkpt>
      <trkpt lat="47.13341" lon="5.81675">
        <ele>274.4</ele>
        <time>2021-06-16T11:46:50Z</time>
      </trkpt>
      <trkpt lat="47.13339" lon="5.81674">
        <ele>274.6</ele>
        <time>2021-06-16T11:46:51Z</time>
      </trkpt>
      <trkpt lat="47.13339" lon="5.81673">
        <ele>274.6</ele>
        <time>2021-06-16T11:46:52Z</time>
      </trkpt>
      <trkpt lat="47.13338" lon="5.81673">
        <ele>274.8</ele>
        <time>2021-06-16T11:46:53Z</time>
      </trkpt>
      <trkpt lat="47.13338" lon="5.81672">
        <ele>275</ele>
        <time>2021-06-16T11:46:54Z</time>
      </trkpt>
      <trkpt lat="47.13337" lon="5.81671">
        <ele>275.4</ele>
        <time>2021-06-16T11:46:55Z</time>
      </trkpt>
      <trkpt lat="47.13336" lon="5.8167">
        <ele>275.6</ele>
        <time>2021-06-16T11:46:56Z</time>
      </trkpt>
      <trkpt lat="47.13335" lon="5.81669">
        <ele>275.8</ele>
        <time>2021-06-16T11:46:57Z</time>
      </trkpt>
      <trkpt lat="47.13335" lon="5.81668">
        <ele>276</ele>
        <time>2021-06-16T11:46:58Z</time>
      </trkpt>
      <trkpt lat="47.13334" lon="5.81667">
        <ele>276</ele>
        <time>2021-06-16T11:46:59Z</time>
      </trkpt>
      <trkpt lat="47.13332" lon="5.81665">
        <ele>276.2</ele>
        <time>2021-06-16T11:47:00Z</time>
      </trkpt>
      <trkpt lat="47.13331" lon="5.81664">
        <ele>276.4</ele>
        <time>2021-06-16T11:47:01Z</time>
      </trkpt>
      <trkpt lat="47.1333" lon="5.81663">
        <ele>276.6</ele>
        <time>2021-06-16T11:47:02Z</time>
      </trkpt>
      <trkpt lat="47.13329" lon="5.81661">
        <ele>276.8</ele>
        <time>2021-06-16T11:47:03Z</time>
      </trkpt>
      <trkpt lat="47.13328" lon="5.8166">
        <ele>277</ele>
        <time>2021-06-16T11:47:04Z</time>
      </trkpt>
      <trkpt lat="47.13327" lon="5.81658">
        <ele>277.2</ele>
        <time>2021-06-16T11:47:05Z</time>
      </trkpt>
      <trkpt lat="47.13325" lon="5.81656">
        <ele>277.2</ele>
        <time>2021-06-16T11:47:06Z</time>
      </trkpt>
      <trkpt lat="47.13324" lon="5.81654">
        <ele>277.4</ele>
        <time>2021-06-16T11:47:07Z</time>
      </trkpt>
      <trkpt lat="47.13324" lon="5.81653">
        <ele>277.6</ele>
        <time>2021-06-16T11:47:08Z</time>
      </trkpt>
      <trkpt lat="47.13323" lon="5.81651">
        <ele>278</ele>
        <time>2021-06-16T11:47:09Z</time>
      </trkpt>
      <trkpt lat="47.13322" lon="5.81649">
        <ele>278.2</ele>
        <time>2021-06-16T11:47:10Z</time>
      </trkpt>
      <trkpt lat="47.13321" lon="5.81648">
        <ele>278.4</ele>
        <time>2021-06-16T11:47:11Z</time>
      </trkpt>
      <trkpt lat="47.1332" lon="5.81648">
        <ele>278.6</ele>
        <time>2021-06-16T11:47:12Z</time>
      </trkpt>
      <trkpt lat="47.13318" lon="5.81647">
        <ele>278.8</ele>
        <time>2021-06-16T11:47:13Z</time>
      </trkpt>
      <trkpt lat="47.13318" lon="5.81647">
        <ele>279.2</ele>
        <time>2021-06-16T11:47:14Z</time>
      </trkpt>
      <trkpt lat="47.13316" lon="5.81646">
        <ele>279.4</ele>
        <time>2021-06-16T11:47:15Z</time>
      </trkpt>
      <trkpt lat="47.13315" lon="5.81645">
        <ele>279.4</ele>
        <time>2021-06-16T11:47:16Z</time>
      </trkpt>
      <trkpt lat="47.13313" lon="5.81645">
        <ele>279.6</ele>
        <time>2021-06-16T11:47:17Z</time>
      </trkpt>
      <trkpt lat="47.13312" lon="5.81644">
        <ele>279.6</ele>
        <time>2021-06-16T11:47:18Z</time>
      </trkpt>
      <trkpt lat="47.13312" lon="5.81644">
        <ele>279.8</ele>
        <time>2021-06-16T11:47:19Z</time>
      </trkpt>
      <trkpt lat="47.13311" lon="5.81644">
        <ele>280</ele>
        <time>2021-06-16T11:47:23Z</time>
      </trkpt>
      <trkpt lat="47.13311" lon="5.81644">
        <ele>280.2</ele>
        <time>2021-06-16T11:47:29Z</time>
      </trkpt>
      <trkpt lat="47.13311" lon="5.81644">
        <ele>280.2</ele>
        <time>2021-06-16T11:47:32Z</time>
      </trkpt>
      <trkpt lat="47.1331" lon="5.81644">
        <ele>280.2</ele>
        <time>2021-06-16T11:47:33Z</time>
      </trkpt>
      <trkpt lat="47.13308" lon="5.81643">
        <ele>280.2</ele>
        <time>2021-06-16T11:47:34Z</time>
      </trkpt>
      <trkpt lat="47.13307" lon="5.81642">
        <ele>280.2</ele>
        <time>2021-06-16T11:47:35Z</time>
      </trkpt>
      <trkpt lat="47.13306" lon="5.81641">
        <ele>280.2</ele>
        <time>2021-06-16T11:47:36Z</time>
      </trkpt>
      <trkpt lat="47.13305" lon="5.81639">
        <ele>280.2</ele>
        <time>2021-06-16T11:47:37Z</time>
      </trkpt>
      <trkpt lat="47.13304" lon="5.81637">
        <ele>280.2</ele>
        <time>2021-06-16T11:47:38Z</time>
      </trkpt>
      <trkpt lat="47.13301" lon="5.81633">
        <ele>280.4</ele>
        <time>2021-06-16T11:47:40Z</time>
      </trkpt>
      <trkpt lat="47.13293" lon="5.81622">
        <ele>281.4</ele>
        <time>2021-06-16T11:47:46Z</time>
      </trkpt>
      <trkpt lat="47.13292" lon="5.81621">
        <ele>281.4</ele>
        <time>2021-06-16T11:47:47Z</time>
      </trkpt>
      <trkpt lat="47.1329" lon="5.81616">
        <ele>281.6</ele>
        <time>2021-06-16T11:47:49Z</time>
      </trkpt>
      <trkpt lat="47.1329" lon="5.81613">
        <ele>281.8</ele>
        <time>2021-06-16T11:47:50Z</time>
      </trkpt>
      <trkpt lat="47.13289" lon="5.81612">
        <ele>282</ele>
        <time>2021-06-16T11:47:51Z</time>
      </trkpt>
      <trkpt lat="47.13288" lon="5.8161">
        <ele>282</ele>
        <time>2021-06-16T11:47:52Z</time>
      </trkpt>
      <trkpt lat="47.13287" lon="5.81607">
        <ele>282.2</ele>
        <time>2021-06-16T11:47:53Z</time>
      </trkpt>
      <trkpt lat="47.13287" lon="5.81607">
        <ele>282.2</ele>
        <time>2021-06-16T11:47:54Z</time>
      </trkpt>
      <trkpt lat="47.13285" lon="5.81603">
        <ele>282.4</ele>
        <time>2021-06-16T11:47:55Z</time>
      </trkpt>
      <trkpt lat="47.13281" lon="5.81597">
        <ele>283.2</ele>
        <time>2021-06-16T11:47:58Z</time>
      </trkpt>
      <trkpt lat="47.13281" lon="5.81597">
        <ele>283.2</ele>
        <time>2021-06-16T11:47:59Z</time>
      </trkpt>
      <trkpt lat="47.13278" lon="5.81594">
        <ele>283.4</ele>
        <time>2021-06-16T11:48:00Z</time>
      </trkpt>
      <trkpt lat="47.13277" lon="5.81592">
        <ele>283.4</ele>
        <time>2021-06-16T11:48:01Z</time>
      </trkpt>
      <trkpt lat="47.13276" lon="5.81591">
        <ele>283.6</ele>
        <time>2021-06-16T11:48:02Z</time>
      </trkpt>
      <trkpt lat="47.13274" lon="5.8159">
        <ele>283.8</ele>
        <time>2021-06-16T11:48:03Z</time>
      </trkpt>
      <trkpt lat="47.13273" lon="5.81588">
        <ele>284</ele>
        <time>2021-06-16T11:48:04Z</time>
      </trkpt>
      <trkpt lat="47.13271" lon="5.81587">
        <ele>284.2</ele>
        <time>2021-06-16T11:48:05Z</time>
      </trkpt>
      <trkpt lat="47.1327" lon="5.81586">
        <ele>284.2</ele>
        <time>2021-06-16T11:48:06Z</time>
      </trkpt>
      <trkpt lat="47.13269" lon="5.81585">
        <ele>284.6</ele>
        <time>2021-06-16T11:48:07Z</time>
      </trkpt>
      <trkpt lat="47.13267" lon="5.81583">
        <ele>284.6</ele>
        <time>2021-06-16T11:48:08Z</time>
      </trkpt>
      <trkpt lat="47.13266" lon="5.81582">
        <ele>284.8</ele>
        <time>2021-06-16T11:48:09Z</time>
      </trkpt>
      <trkpt lat="47.13264" lon="5.8158">
        <ele>285</ele>
        <time>2021-06-16T11:48:10Z</time>
      </trkpt>
      <trkpt lat="47.13263" lon="5.81579">
        <ele>285</ele>
        <time>2021-06-16T11:48:11Z</time>
      </trkpt>
      <trkpt lat="47.13262" lon="5.81578">
        <ele>285.2</ele>
        <time>2021-06-16T11:48:12Z</time>
      </trkpt>
      <trkpt lat="47.1326" lon="5.81577">
        <ele>285.4</ele>
        <time>2021-06-16T11:48:13Z</time>
      </trkpt>
      <trkpt lat="47.13258" lon="5.81576">
        <ele>285.6</ele>
        <time>2021-06-16T11:48:14Z</time>
      </trkpt>
      <trkpt lat="47.13257" lon="5.81576">
        <ele>285.8</ele>
        <time>2021-06-16T11:48:15Z</time>
      </trkpt>
      <trkpt lat="47.13256" lon="5.81575">
        <ele>286</ele>
        <time>2021-06-16T11:48:16Z</time>
      </trkpt>
      <trkpt lat="47.13255" lon="5.81574">
        <ele>286</ele>
        <time>2021-06-16T11:48:17Z</time>
      </trkpt>
      <trkpt lat="47.13254" lon="5.81573">
        <ele>286.2</ele>
        <time>2021-06-16T11:48:18Z</time>
      </trkpt>
      <trkpt lat="47.13252" lon="5.81572">
        <ele>286.2</ele>
        <time>2021-06-16T11:48:19Z</time>
      </trkpt>
      <trkpt lat="47.13251" lon="5.81571">
        <ele>286.4</ele>
        <time>2021-06-16T11:48:20Z</time>
      </trkpt>
      <trkpt lat="47.13249" lon="5.8157">
        <ele>286.4</ele>
        <time>2021-06-16T11:48:21Z</time>
      </trkpt>
      <trkpt lat="47.13247" lon="5.81569">
        <ele>286.6</ele>
        <time>2021-06-16T11:48:22Z</time>
      </trkpt>
      <trkpt lat="47.13246" lon="5.81568">
        <ele>286.6</ele>
        <time>2021-06-16T11:48:23Z</time>
      </trkpt>
      <trkpt lat="47.13244" lon="5.81567">
        <ele>286.8</ele>
        <time>2021-06-16T11:48:24Z</time>
      </trkpt>
      <trkpt lat="47.13242" lon="5.81566">
        <ele>286.8</ele>
        <time>2021-06-16T11:48:25Z</time>
      </trkpt>
      <trkpt lat="47.13241" lon="5.81564">
        <ele>287</ele>
        <time>2021-06-16T11:48:26Z</time>
      </trkpt>
      <trkpt lat="47.1324" lon="5.81563">
        <ele>287.2</ele>
        <time>2021-06-16T11:48:27Z</time>
      </trkpt>
      <trkpt lat="47.1324" lon="5.81563">
        <ele>287.4</ele>
        <time>2021-06-16T11:48:28Z</time>
      </trkpt>
      <trkpt lat="47.13236" lon="5.81561">
        <ele>287.6</ele>
        <time>2021-06-16T11:48:29Z</time>
      </trkpt>
      <trkpt lat="47.13234" lon="5.8156">
        <ele>287.6</ele>
        <time>2021-06-16T11:48:30Z</time>
      </trkpt>
      <trkpt lat="47.13233" lon="5.8156">
        <ele>287.8</ele>
        <time>2021-06-16T11:48:31Z</time>
      </trkpt>
      <trkpt lat="47.13231" lon="5.81559">
        <ele>288.4</ele>
        <time>2021-06-16T11:48:32Z</time>
      </trkpt>
      <trkpt lat="47.1323" lon="5.81558">
        <ele>288.4</ele>
        <time>2021-06-16T11:48:33Z</time>
      </trkpt>
      <trkpt lat="47.13228" lon="5.81557">
        <ele>288.8</ele>
        <time>2021-06-16T11:48:34Z</time>
      </trkpt>
      <trkpt lat="47.13226" lon="5.81555">
        <ele>289</ele>
        <time>2021-06-16T11:48:35Z</time>
      </trkpt>
      <trkpt lat="47.13224" lon="5.81554">
        <ele>289.2</ele>
        <time>2021-06-16T11:48:36Z</time>
      </trkpt>
      <trkpt lat="47.13223" lon="5.81553">
        <ele>289.4</ele>
        <time>2021-06-16T11:48:37Z</time>
      </trkpt>
      <trkpt lat="47.13222" lon="5.81553">
        <ele>289.8</ele>
        <time>2021-06-16T11:48:38Z</time>
      </trkpt>
      <trkpt lat="47.1322" lon="5.81553">
        <ele>290.2</ele>
        <time>2021-06-16T11:48:39Z</time>
      </trkpt>
      <trkpt lat="47.13219" lon="5.81552">
        <ele>290.4</ele>
        <time>2021-06-16T11:48:40Z</time>
      </trkpt>
      <trkpt lat="47.13217" lon="5.81551">
        <ele>290.6</ele>
        <time>2021-06-16T11:48:41Z</time>
      </trkpt>
      <trkpt lat="47.13216" lon="5.8155">
        <ele>290.8</ele>
        <time>2021-06-16T11:48:42Z</time>
      </trkpt>
      <trkpt lat="47.13215" lon="5.81549">
        <ele>291</ele>
        <time>2021-06-16T11:48:43Z</time>
      </trkpt>
      <trkpt lat="47.13213" lon="5.81548">
        <ele>291.4</ele>
        <time>2021-06-16T11:48:44Z</time>
      </trkpt>
      <trkpt lat="47.13212" lon="5.81547">
        <ele>291.4</ele>
        <time>2021-06-16T11:48:45Z</time>
      </trkpt>
      <trkpt lat="47.1321" lon="5.81546">
        <ele>291.8</ele>
        <time>2021-06-16T11:48:46Z</time>
      </trkpt>
      <trkpt lat="47.13208" lon="5.81544">
        <ele>292</ele>
        <time>2021-06-16T11:48:47Z</time>
      </trkpt>
      <trkpt lat="47.13207" lon="5.81542">
        <ele>292</ele>
        <time>2021-06-16T11:48:48Z</time>
      </trkpt>
      <trkpt lat="47.13205" lon="5.81541">
        <ele>292.2</ele>
        <time>2021-06-16T11:48:49Z</time>
      </trkpt>
      <trkpt lat="47.13204" lon="5.8154">
        <ele>292.2</ele>
        <time>2021-06-16T11:48:50Z</time>
      </trkpt>
      <trkpt lat="47.13202" lon="5.81539">
        <ele>292.4</ele>
        <time>2021-06-16T11:48:51Z</time>
      </trkpt>
      <trkpt lat="47.13201" lon="5.81537">
        <ele>292.4</ele>
        <time>2021-06-16T11:48:52Z</time>
      </trkpt>
      <trkpt lat="47.13199" lon="5.81535">
        <ele>292.6</ele>
        <time>2021-06-16T11:48:53Z</time>
      </trkpt>
      <trkpt lat="47.13198" lon="5.81535">
        <ele>292.6</ele>
        <time>2021-06-16T11:48:54Z</time>
      </trkpt>
      <trkpt lat="47.13197" lon="5.81533">
        <ele>292.8</ele>
        <time>2021-06-16T11:48:55Z</time>
      </trkpt>
      <trkpt lat="47.13195" lon="5.81531">
        <ele>292.8</ele>
        <time>2021-06-16T11:48:56Z</time>
      </trkpt>
      <trkpt lat="47.13193" lon="5.8153">
        <ele>293</ele>
        <time>2021-06-16T11:48:57Z</time>
      </trkpt>
      <trkpt lat="47.13191" lon="5.81528">
        <ele>293.2</ele>
        <time>2021-06-16T11:48:58Z</time>
      </trkpt>
      <trkpt lat="47.1319" lon="5.81527">
        <ele>293.2</ele>
        <time>2021-06-16T11:48:59Z</time>
      </trkpt>
      <trkpt lat="47.13188" lon="5.81526">
        <ele>293.4</ele>
        <time>2021-06-16T11:49:00Z</time>
      </trkpt>
      <trkpt lat="47.13187" lon="5.81524">
        <ele>293.4</ele>
        <time>2021-06-16T11:49:01Z</time>
      </trkpt>
      <trkpt lat="47.13186" lon="5.81523">
        <ele>293.4</ele>
        <time>2021-06-16T11:49:02Z</time>
      </trkpt>
      <trkpt lat="47.13184" lon="5.81521">
        <ele>293.4</ele>
        <time>2021-06-16T11:49:03Z</time>
      </trkpt>
      <trkpt lat="47.13183" lon="5.8152">
        <ele>293.6</ele>
        <time>2021-06-16T11:49:04Z</time>
      </trkpt>
      <trkpt lat="47.13182" lon="5.81519">
        <ele>293.6</ele>
        <time>2021-06-16T11:49:05Z</time>
      </trkpt>
      <trkpt lat="47.1318" lon="5.81517">
        <ele>293.8</ele>
        <time>2021-06-16T11:49:06Z</time>
      </trkpt>
      <trkpt lat="47.13178" lon="5.81515">
        <ele>293.8</ele>
        <time>2021-06-16T11:49:07Z</time>
      </trkpt>
      <trkpt lat="47.13176" lon="5.81513">
        <ele>293.8</ele>
        <time>2021-06-16T11:49:08Z</time>
      </trkpt>
      <trkpt lat="47.13175" lon="5.81512">
        <ele>293.8</ele>
        <time>2021-06-16T11:49:09Z</time>
      </trkpt>
      <trkpt lat="47.13173" lon="5.8151">
        <ele>294</ele>
        <time>2021-06-16T11:49:10Z</time>
      </trkpt>
      <trkpt lat="47.13172" lon="5.81509">
        <ele>294</ele>
        <time>2021-06-16T11:49:11Z</time>
      </trkpt>
      <trkpt lat="47.1317" lon="5.81507">
        <ele>294.2</ele>
        <time>2021-06-16T11:49:12Z</time>
      </trkpt>
      <trkpt lat="47.13168" lon="5.81504">
        <ele>294.2</ele>
        <time>2021-06-16T11:49:13Z</time>
      </trkpt>
      <trkpt lat="47.13166" lon="5.81502">
        <ele>294.2</ele>
        <time>2021-06-16T11:49:14Z</time>
      </trkpt>
      <trkpt lat="47.13164" lon="5.815">
        <ele>294.2</ele>
        <time>2021-06-16T11:49:15Z</time>
      </trkpt>
      <trkpt lat="47.13156" lon="5.81491">
        <ele>294.4</ele>
        <time>2021-06-16T11:49:18Z</time>
      </trkpt>
      <trkpt lat="47.13148" lon="5.81483">
        <ele>294.8</ele>
        <time>2021-06-16T11:49:22Z</time>
      </trkpt>
      <trkpt lat="47.13138" lon="5.81477">
        <ele>295</ele>
        <time>2021-06-16T11:49:26Z</time>
      </trkpt>
      <trkpt lat="47.13134" lon="5.81474">
        <ele>295</ele>
        <time>2021-06-16T11:49:28Z</time>
      </trkpt>
      <trkpt lat="47.13132" lon="5.81473">
        <ele>295.2</ele>
        <time>2021-06-16T11:49:29Z</time>
      </trkpt>
      <trkpt lat="47.1313" lon="5.8147">
        <ele>295.2</ele>
        <time>2021-06-16T11:49:30Z</time>
      </trkpt>
      <trkpt lat="47.13127" lon="5.81469">
        <ele>295.2</ele>
        <time>2021-06-16T11:49:31Z</time>
      </trkpt>
      <trkpt lat="47.13125" lon="5.81468">
        <ele>295.2</ele>
        <time>2021-06-16T11:49:32Z</time>
      </trkpt>
      <trkpt lat="47.13124" lon="5.81467">
        <ele>295.2</ele>
        <time>2021-06-16T11:49:33Z</time>
      </trkpt>
      <trkpt lat="47.13122" lon="5.81466">
        <ele>295.2</ele>
        <time>2021-06-16T11:49:34Z</time>
      </trkpt>
      <trkpt lat="47.13121" lon="5.81464">
        <ele>295.2</ele>
        <time>2021-06-16T11:49:35Z</time>
      </trkpt>
      <trkpt lat="47.13119" lon="5.81463">
        <ele>295.2</ele>
        <time>2021-06-16T11:49:36Z</time>
      </trkpt>
      <trkpt lat="47.13115" lon="5.81459">
        <ele>295.2</ele>
        <time>2021-06-16T11:49:39Z</time>
      </trkpt>
      <trkpt lat="47.13107" lon="5.81452">
        <ele>295</ele>
        <time>2021-06-16T11:49:43Z</time>
      </trkpt>
      <trkpt lat="47.13103" lon="5.81447">
        <ele>294.8</ele>
        <time>2021-06-16T11:49:45Z</time>
      </trkpt>
      <trkpt lat="47.13085" lon="5.81439">
        <ele>295.2</ele>
        <time>2021-06-16T11:49:51Z</time>
      </trkpt>
      <trkpt lat="47.13083" lon="5.81437">
        <ele>294.8</ele>
        <time>2021-06-16T11:49:52Z</time>
      </trkpt>
      <trkpt lat="47.1308" lon="5.81433">
        <ele>295</ele>
        <time>2021-06-16T11:49:53Z</time>
      </trkpt>
      <trkpt lat="47.13078" lon="5.81429">
        <ele>294.8</ele>
        <time>2021-06-16T11:49:54Z</time>
      </trkpt>
      <trkpt lat="47.13076" lon="5.81426">
        <ele>294.8</ele>
        <time>2021-06-16T11:49:55Z</time>
      </trkpt>
      <trkpt lat="47.13074" lon="5.81424">
        <ele>294.6</ele>
        <time>2021-06-16T11:49:56Z</time>
      </trkpt>
      <trkpt lat="47.13073" lon="5.81421">
        <ele>294.6</ele>
        <time>2021-06-16T11:49:57Z</time>
      </trkpt>
      <trkpt lat="47.13071" lon="5.81417">
        <ele>294.6</ele>
        <time>2021-06-16T11:49:58Z</time>
      </trkpt>
      <trkpt lat="47.1307" lon="5.81416">
        <ele>294.6</ele>
        <time>2021-06-16T11:49:59Z</time>
      </trkpt>
      <trkpt lat="47.13068" lon="5.81415">
        <ele>294.6</ele>
        <time>2021-06-16T11:50:00Z</time>
      </trkpt>
      <trkpt lat="47.13066" lon="5.81414">
        <ele>294.8</ele>
        <time>2021-06-16T11:50:01Z</time>
      </trkpt>
      <trkpt lat="47.13063" lon="5.81412">
        <ele>294.8</ele>
        <time>2021-06-16T11:50:02Z</time>
      </trkpt>
      <trkpt lat="47.13052" lon="5.81405">
        <ele>295.4</ele>
        <time>2021-06-16T11:50:06Z</time>
      </trkpt>
      <trkpt lat="47.13049" lon="5.81401">
        <ele>295.6</ele>
        <time>2021-06-16T11:50:08Z</time>
      </trkpt>
      <trkpt lat="47.13046" lon="5.81399">
        <ele>295.6</ele>
        <time>2021-06-16T11:50:09Z</time>
      </trkpt>
      <trkpt lat="47.13043" lon="5.81396">
        <ele>295.6</ele>
        <time>2021-06-16T11:50:10Z</time>
      </trkpt>
      <trkpt lat="47.13034" lon="5.81388">
        <ele>295.8</ele>
        <time>2021-06-16T11:50:13Z</time>
      </trkpt>
      <trkpt lat="47.1303" lon="5.81385">
        <ele>296</ele>
        <time>2021-06-16T11:50:14Z</time>
      </trkpt>
      <trkpt lat="47.13027" lon="5.81383">
        <ele>296</ele>
        <time>2021-06-16T11:50:15Z</time>
      </trkpt>
      <trkpt lat="47.13025" lon="5.81382">
        <ele>296</ele>
        <time>2021-06-16T11:50:16Z</time>
      </trkpt>
      <trkpt lat="47.13023" lon="5.8138">
        <ele>296.2</ele>
        <time>2021-06-16T11:50:17Z</time>
      </trkpt>
      <trkpt lat="47.13018" lon="5.81375">
        <ele>296.4</ele>
        <time>2021-06-16T11:50:19Z</time>
      </trkpt>
      <trkpt lat="47.13016" lon="5.81375">
        <ele>296.6</ele>
        <time>2021-06-16T11:50:20Z</time>
      </trkpt>
      <trkpt lat="47.1301" lon="5.81369">
        <ele>296.8</ele>
        <time>2021-06-16T11:50:23Z</time>
      </trkpt>
      <trkpt lat="47.13008" lon="5.81367">
        <ele>297.2</ele>
        <time>2021-06-16T11:50:24Z</time>
      </trkpt>
      <trkpt lat="47.12995" lon="5.81354">
        <ele>297.6</ele>
        <time>2021-06-16T11:50:29Z</time>
      </trkpt>
      <trkpt lat="47.12992" lon="5.81352">
        <ele>297.6</ele>
        <time>2021-06-16T11:50:30Z</time>
      </trkpt>
      <trkpt lat="47.12989" lon="5.81349">
        <ele>297.8</ele>
        <time>2021-06-16T11:50:31Z</time>
      </trkpt>
      <trkpt lat="47.12985" lon="5.81345">
        <ele>297.8</ele>
        <time>2021-06-16T11:50:33Z</time>
      </trkpt>
      <trkpt lat="47.12983" lon="5.81343">
        <ele>297.8</ele>
        <time>2021-06-16T11:50:34Z</time>
      </trkpt>
      <trkpt lat="47.12978" lon="5.8134">
        <ele>298.2</ele>
        <time>2021-06-16T11:50:36Z</time>
      </trkpt>
      <trkpt lat="47.12976" lon="5.81338">
        <ele>298.4</ele>
        <time>2021-06-16T11:50:37Z</time>
      </trkpt>
      <trkpt lat="47.12973" lon="5.81335">
        <ele>298.6</ele>
        <time>2021-06-16T11:50:38Z</time>
      </trkpt>
      <trkpt lat="47.12971" lon="5.81333">
        <ele>299.2</ele>
        <time>2021-06-16T11:50:39Z</time>
      </trkpt>
      <trkpt lat="47.12969" lon="5.81331">
        <ele>299.4</ele>
        <time>2021-06-16T11:50:40Z</time>
      </trkpt>
      <trkpt lat="47.12966" lon="5.81329">
        <ele>299.4</ele>
        <time>2021-06-16T11:50:41Z</time>
      </trkpt>
      <trkpt lat="47.12964" lon="5.81328">
        <ele>299.6</ele>
        <time>2021-06-16T11:50:42Z</time>
      </trkpt>
      <trkpt lat="47.1296" lon="5.81325">
        <ele>299.8</ele>
        <time>2021-06-16T11:50:43Z</time>
      </trkpt>
      <trkpt lat="47.12957" lon="5.81323">
        <ele>300</ele>
        <time>2021-06-16T11:50:44Z</time>
      </trkpt>
      <trkpt lat="47.12955" lon="5.81321">
        <ele>300.2</ele>
        <time>2021-06-16T11:50:45Z</time>
      </trkpt>
      <trkpt lat="47.12952" lon="5.8132">
        <ele>300.2</ele>
        <time>2021-06-16T11:50:46Z</time>
      </trkpt>
      <trkpt lat="47.12949" lon="5.81318">
        <ele>300.2</ele>
        <time>2021-06-16T11:50:47Z</time>
      </trkpt>
      <trkpt lat="47.12946" lon="5.81317">
        <ele>300.4</ele>
        <time>2021-06-16T11:50:48Z</time>
      </trkpt>
      <trkpt lat="47.12942" lon="5.81315">
        <ele>300.4</ele>
        <time>2021-06-16T11:50:49Z</time>
      </trkpt>
      <trkpt lat="47.1294" lon="5.81313">
        <ele>300.6</ele>
        <time>2021-06-16T11:50:50Z</time>
      </trkpt>
      <trkpt lat="47.12937" lon="5.81311">
        <ele>300.6</ele>
        <time>2021-06-16T11:50:51Z</time>
      </trkpt>
      <trkpt lat="47.12933" lon="5.81309">
        <ele>300.6</ele>
        <time>2021-06-16T11:50:52Z</time>
      </trkpt>
      <trkpt lat="47.12929" lon="5.81307">
        <ele>300.6</ele>
        <time>2021-06-16T11:50:53Z</time>
      </trkpt>
      <trkpt lat="47.12926" lon="5.81305">
        <ele>300.8</ele>
        <time>2021-06-16T11:50:54Z</time>
      </trkpt>
      <trkpt lat="47.12923" lon="5.81304">
        <ele>300.8</ele>
        <time>2021-06-16T11:50:55Z</time>
      </trkpt>
      <trkpt lat="47.12921" lon="5.81303">
        <ele>300.8</ele>
        <time>2021-06-16T11:50:56Z</time>
      </trkpt>
      <trkpt lat="47.12918" lon="5.813">
        <ele>300.8</ele>
        <time>2021-06-16T11:50:57Z</time>
      </trkpt>
      <trkpt lat="47.12918" lon="5.81297">
        <ele>300.8</ele>
        <time>2021-06-16T11:50:58Z</time>
      </trkpt>
      <trkpt lat="47.12916" lon="5.81294">
        <ele>301</ele>
        <time>2021-06-16T11:50:59Z</time>
      </trkpt>
      <trkpt lat="47.12915" lon="5.8129">
        <ele>301.2</ele>
        <time>2021-06-16T11:51:00Z</time>
      </trkpt>
      <trkpt lat="47.12913" lon="5.81287">
        <ele>301.2</ele>
        <time>2021-06-16T11:51:01Z</time>
      </trkpt>
      <trkpt lat="47.1291" lon="5.81284">
        <ele>301.6</ele>
        <time>2021-06-16T11:51:02Z</time>
      </trkpt>
      <trkpt lat="47.12907" lon="5.81281">
        <ele>302.2</ele>
        <time>2021-06-16T11:51:03Z</time>
      </trkpt>
      <trkpt lat="47.12905" lon="5.8128">
        <ele>302.4</ele>
        <time>2021-06-16T11:51:04Z</time>
      </trkpt>
      <trkpt lat="47.12903" lon="5.81278">
        <ele>302.6</ele>
        <time>2021-06-16T11:51:05Z</time>
      </trkpt>
      <trkpt lat="47.12901" lon="5.81276">
        <ele>302.8</ele>
        <time>2021-06-16T11:51:06Z</time>
      </trkpt>
      <trkpt lat="47.129" lon="5.81276">
        <ele>303</ele>
        <time>2021-06-16T11:51:07Z</time>
      </trkpt>
      <trkpt lat="47.129" lon="5.81276">
        <ele>303.2</ele>
        <time>2021-06-16T11:51:08Z</time>
      </trkpt>
      <trkpt lat="47.12897" lon="5.81273">
        <ele>303.2</ele>
        <time>2021-06-16T11:51:09Z</time>
      </trkpt>
      <trkpt lat="47.12895" lon="5.81271">
        <ele>303.4</ele>
        <time>2021-06-16T11:51:10Z</time>
      </trkpt>
      <trkpt lat="47.12893" lon="5.81269">
        <ele>303.4</ele>
        <time>2021-06-16T11:51:11Z</time>
      </trkpt>
      <trkpt lat="47.12891" lon="5.81267">
        <ele>303.6</ele>
        <time>2021-06-16T11:51:12Z</time>
      </trkpt>
      <trkpt lat="47.12891" lon="5.81267">
        <ele>303.8</ele>
        <time>2021-06-16T11:51:13Z</time>
      </trkpt>
      <trkpt lat="47.12887" lon="5.81264">
        <ele>303.8</ele>
        <time>2021-06-16T11:51:14Z</time>
      </trkpt>
      <trkpt lat="47.12885" lon="5.81262">
        <ele>304</ele>
        <time>2021-06-16T11:51:15Z</time>
      </trkpt>
      <trkpt lat="47.12885" lon="5.81262">
        <ele>304</ele>
        <time>2021-06-16T11:51:16Z</time>
      </trkpt>
      <trkpt lat="47.1288" lon="5.81258">
        <ele>304.2</ele>
        <time>2021-06-16T11:51:17Z</time>
      </trkpt>
      <trkpt lat="47.12879" lon="5.81256">
        <ele>304.2</ele>
        <time>2021-06-16T11:51:18Z</time>
      </trkpt>
      <trkpt lat="47.12877" lon="5.81255">
        <ele>304.2</ele>
        <time>2021-06-16T11:51:19Z</time>
      </trkpt>
      <trkpt lat="47.12875" lon="5.81255">
        <ele>304.4</ele>
        <time>2021-06-16T11:51:20Z</time>
      </trkpt>
      <trkpt lat="47.12872" lon="5.81255">
        <ele>304.4</ele>
        <time>2021-06-16T11:51:21Z</time>
      </trkpt>
      <trkpt lat="47.1287" lon="5.81254">
        <ele>304.4</ele>
        <time>2021-06-16T11:51:22Z</time>
      </trkpt>
      <trkpt lat="47.12867" lon="5.81254">
        <ele>304.4</ele>
        <time>2021-06-16T11:51:23Z</time>
      </trkpt>
      <trkpt lat="47.12864" lon="5.81252">
        <ele>304.4</ele>
        <time>2021-06-16T11:51:24Z</time>
      </trkpt>
      <trkpt lat="47.12861" lon="5.8125">
        <ele>304.4</ele>
        <time>2021-06-16T11:51:25Z</time>
      </trkpt>
      <trkpt lat="47.12859" lon="5.81248">
        <ele>304.4</ele>
        <time>2021-06-16T11:51:26Z</time>
      </trkpt>
      <trkpt lat="47.12856" lon="5.81246">
        <ele>304.4</ele>
        <time>2021-06-16T11:51:27Z</time>
      </trkpt>
      <trkpt lat="47.12854" lon="5.81244">
        <ele>304.4</ele>
        <time>2021-06-16T11:51:28Z</time>
      </trkpt>
      <trkpt lat="47.12854" lon="5.81244">
        <ele>304.6</ele>
        <time>2021-06-16T11:51:29Z</time>
      </trkpt>
      <trkpt lat="47.12848" lon="5.81241">
        <ele>304.6</ele>
        <time>2021-06-16T11:51:30Z</time>
      </trkpt>
      <trkpt lat="47.1283" lon="5.81232">
        <ele>304.6</ele>
        <time>2021-06-16T11:51:36Z</time>
      </trkpt>
      <trkpt lat="47.12822" lon="5.81229">
        <ele>304.8</ele>
        <time>2021-06-16T11:51:39Z</time>
      </trkpt>
      <trkpt lat="47.12819" lon="5.81229">
        <ele>304.8</ele>
        <time>2021-06-16T11:51:40Z</time>
      </trkpt>
      <trkpt lat="47.12803" lon="5.81229">
        <ele>305</ele>
        <time>2021-06-16T11:51:45Z</time>
      </trkpt>
      <trkpt lat="47.12781" lon="5.81219">
        <ele>304</ele>
        <time>2021-06-16T11:51:52Z</time>
      </trkpt>
      <trkpt lat="47.12757" lon="5.81207">
        <ele>303.8</ele>
        <time>2021-06-16T11:51:58Z</time>
      </trkpt>
      <trkpt lat="47.12753" lon="5.81203">
        <ele>303.8</ele>
        <time>2021-06-16T11:51:59Z</time>
      </trkpt>
      <trkpt lat="47.1275" lon="5.812">
        <ele>303.8</ele>
        <time>2021-06-16T11:52:00Z</time>
      </trkpt>
      <trkpt lat="47.12746" lon="5.81197">
        <ele>303.6</ele>
        <time>2021-06-16T11:52:01Z</time>
      </trkpt>
      <trkpt lat="47.12743" lon="5.81194">
        <ele>303.6</ele>
        <time>2021-06-16T11:52:02Z</time>
      </trkpt>
      <trkpt lat="47.1274" lon="5.81191">
        <ele>303.6</ele>
        <time>2021-06-16T11:52:03Z</time>
      </trkpt>
      <trkpt lat="47.12731" lon="5.81183">
        <ele>303.6</ele>
        <time>2021-06-16T11:52:06Z</time>
      </trkpt>
      <trkpt lat="47.12728" lon="5.8118">
        <ele>303.4</ele>
        <time>2021-06-16T11:52:07Z</time>
      </trkpt>
      <trkpt lat="47.12725" lon="5.81176">
        <ele>303.6</ele>
        <time>2021-06-16T11:52:08Z</time>
      </trkpt>
      <trkpt lat="47.12722" lon="5.81173">
        <ele>303.6</ele>
        <time>2021-06-16T11:52:09Z</time>
      </trkpt>
      <trkpt lat="47.12719" lon="5.8117">
        <ele>303.4</ele>
        <time>2021-06-16T11:52:10Z</time>
      </trkpt>
      <trkpt lat="47.12716" lon="5.81166">
        <ele>303.4</ele>
        <time>2021-06-16T11:52:11Z</time>
      </trkpt>
      <trkpt lat="47.12714" lon="5.81163">
        <ele>303.6</ele>
        <time>2021-06-16T11:52:12Z</time>
      </trkpt>
      <trkpt lat="47.12711" lon="5.81159">
        <ele>303.8</ele>
        <time>2021-06-16T11:52:13Z</time>
      </trkpt>
      <trkpt lat="47.12709" lon="5.81156">
        <ele>303.8</ele>
        <time>2021-06-16T11:52:14Z</time>
      </trkpt>
      <trkpt lat="47.12707" lon="5.81153">
        <ele>304</ele>
        <time>2021-06-16T11:52:15Z</time>
      </trkpt>
      <trkpt lat="47.12701" lon="5.81146">
        <ele>304</ele>
        <time>2021-06-16T11:52:17Z</time>
      </trkpt>
      <trkpt lat="47.12672" lon="5.8113">
        <ele>303.8</ele>
        <time>2021-06-16T11:52:25Z</time>
      </trkpt>
      <trkpt lat="47.1266" lon="5.81121">
        <ele>303.8</ele>
        <time>2021-06-16T11:52:29Z</time>
      </trkpt>
      <trkpt lat="47.12656" lon="5.81119">
        <ele>303.8</ele>
        <time>2021-06-16T11:52:30Z</time>
      </trkpt>
      <trkpt lat="47.12653" lon="5.81116">
        <ele>303.8</ele>
        <time>2021-06-16T11:52:31Z</time>
      </trkpt>
      <trkpt lat="47.1265" lon="5.81114">
        <ele>303.6</ele>
        <time>2021-06-16T11:52:32Z</time>
      </trkpt>
      <trkpt lat="47.12647" lon="5.81112">
        <ele>303.6</ele>
        <time>2021-06-16T11:52:33Z</time>
      </trkpt>
      <trkpt lat="47.12644" lon="5.8111">
        <ele>303.8</ele>
        <time>2021-06-16T11:52:34Z</time>
      </trkpt>
      <trkpt lat="47.12641" lon="5.81108">
        <ele>303.8</ele>
        <time>2021-06-16T11:52:35Z</time>
      </trkpt>
      <trkpt lat="47.12639" lon="5.81107">
        <ele>303.8</ele>
        <time>2021-06-16T11:52:36Z</time>
      </trkpt>
      <trkpt lat="47.12636" lon="5.81105">
        <ele>303.8</ele>
        <time>2021-06-16T11:52:37Z</time>
      </trkpt>
      <trkpt lat="47.12634" lon="5.81103">
        <ele>303.8</ele>
        <time>2021-06-16T11:52:38Z</time>
      </trkpt>
      <trkpt lat="47.12629" lon="5.81099">
        <ele>304</ele>
        <time>2021-06-16T11:52:40Z</time>
      </trkpt>
      <trkpt lat="47.12627" lon="5.81097">
        <ele>304.2</ele>
        <time>2021-06-16T11:52:41Z</time>
      </trkpt>
      <trkpt lat="47.12625" lon="5.81096">
        <ele>304.4</ele>
        <time>2021-06-16T11:52:42Z</time>
      </trkpt>
      <trkpt lat="47.12623" lon="5.81094">
        <ele>304.6</ele>
        <time>2021-06-16T11:52:43Z</time>
      </trkpt>
      <trkpt lat="47.12621" lon="5.81093">
        <ele>304.8</ele>
        <time>2021-06-16T11:52:44Z</time>
      </trkpt>
      <trkpt lat="47.12619" lon="5.81092">
        <ele>304.8</ele>
        <time>2021-06-16T11:52:45Z</time>
      </trkpt>
      <trkpt lat="47.12619" lon="5.81092">
        <ele>305</ele>
        <time>2021-06-16T11:52:46Z</time>
      </trkpt>
      <trkpt lat="47.12619" lon="5.81092">
        <ele>305.2</ele>
        <time>2021-06-16T11:52:47Z</time>
      </trkpt>
      <trkpt lat="47.12617" lon="5.81092">
        <ele>305.8</ele>
        <time>2021-06-16T11:52:57Z</time>
      </trkpt>
      <trkpt lat="47.12617" lon="5.81092">
        <ele>305.8</ele>
        <time>2021-06-16T11:52:59Z</time>
      </trkpt>
      <trkpt lat="47.12617" lon="5.81092">
        <ele>306</ele>
        <time>2021-06-16T11:53:06Z</time>
      </trkpt>
      <trkpt lat="47.12617" lon="5.81092">
        <ele>306</ele>
        <time>2021-06-16T11:53:27Z</time>
      </trkpt>
      <trkpt lat="47.12617" lon="5.81092">
        <ele>306</ele>
        <time>2021-06-16T11:53:32Z</time>
      </trkpt>
      <trkpt lat="47.1261" lon="5.81086">
        <ele>306.2</ele>
        <time>2021-06-16T11:53:36Z</time>
      </trkpt>
      <trkpt lat="47.12609" lon="5.81084">
        <ele>306.2</ele>
        <time>2021-06-16T11:53:37Z</time>
      </trkpt>
      <trkpt lat="47.12608" lon="5.81081">
        <ele>306.4</ele>
        <time>2021-06-16T11:53:38Z</time>
      </trkpt>
      <trkpt lat="47.12607" lon="5.81078">
        <ele>306.6</ele>
        <time>2021-06-16T11:53:39Z</time>
      </trkpt>
      <trkpt lat="47.12605" lon="5.81075">
        <ele>306.8</ele>
        <time>2021-06-16T11:53:40Z</time>
      </trkpt>
      <trkpt lat="47.126" lon="5.81071">
        <ele>307</ele>
        <time>2021-06-16T11:53:42Z</time>
      </trkpt>
      <trkpt lat="47.12598" lon="5.81069">
        <ele>307.2</ele>
        <time>2021-06-16T11:53:43Z</time>
      </trkpt>
      <trkpt lat="47.12595" lon="5.81067">
        <ele>307.4</ele>
        <time>2021-06-16T11:53:44Z</time>
      </trkpt>
      <trkpt lat="47.12585" lon="5.81059">
        <ele>308.4</ele>
        <time>2021-06-16T11:53:48Z</time>
      </trkpt>
      <trkpt lat="47.12583" lon="5.81057">
        <ele>308.6</ele>
        <time>2021-06-16T11:53:49Z</time>
      </trkpt>
      <trkpt lat="47.12574" lon="5.8105">
        <ele>309.2</ele>
        <time>2021-06-16T11:53:54Z</time>
      </trkpt>
      <trkpt lat="47.12573" lon="5.81049">
        <ele>309.4</ele>
        <time>2021-06-16T11:53:55Z</time>
      </trkpt>
      <trkpt lat="47.1257" lon="5.81047">
        <ele>309.4</ele>
        <time>2021-06-16T11:53:56Z</time>
      </trkpt>
      <trkpt lat="47.12568" lon="5.81046">
        <ele>309.6</ele>
        <time>2021-06-16T11:53:57Z</time>
      </trkpt>
      <trkpt lat="47.12567" lon="5.81045">
        <ele>309.8</ele>
        <time>2021-06-16T11:53:58Z</time>
      </trkpt>
      <trkpt lat="47.12565" lon="5.81044">
        <ele>309.8</ele>
        <time>2021-06-16T11:53:59Z</time>
      </trkpt>
      <trkpt lat="47.12563" lon="5.81043">
        <ele>309.8</ele>
        <time>2021-06-16T11:54:00Z</time>
      </trkpt>
      <trkpt lat="47.12561" lon="5.81043">
        <ele>310</ele>
        <time>2021-06-16T11:54:01Z</time>
      </trkpt>
      <trkpt lat="47.12559" lon="5.81042">
        <ele>310.2</ele>
        <time>2021-06-16T11:54:02Z</time>
      </trkpt>
      <trkpt lat="47.12557" lon="5.81042">
        <ele>310.2</ele>
        <time>2021-06-16T11:54:03Z</time>
      </trkpt>
      <trkpt lat="47.12554" lon="5.8104">
        <ele>310.4</ele>
        <time>2021-06-16T11:54:04Z</time>
      </trkpt>
      <trkpt lat="47.12552" lon="5.81038">
        <ele>310.4</ele>
        <time>2021-06-16T11:54:05Z</time>
      </trkpt>
      <trkpt lat="47.1255" lon="5.81036">
        <ele>310.6</ele>
        <time>2021-06-16T11:54:06Z</time>
      </trkpt>
      <trkpt lat="47.12548" lon="5.81034">
        <ele>310.8</ele>
        <time>2021-06-16T11:54:07Z</time>
      </trkpt>
      <trkpt lat="47.12546" lon="5.81032">
        <ele>310.8</ele>
        <time>2021-06-16T11:54:08Z</time>
      </trkpt>
      <trkpt lat="47.12545" lon="5.8103">
        <ele>311</ele>
        <time>2021-06-16T11:54:09Z</time>
      </trkpt>
      <trkpt lat="47.12545" lon="5.8103">
        <ele>311</ele>
        <time>2021-06-16T11:54:10Z</time>
      </trkpt>
      <trkpt lat="47.12541" lon="5.81026">
        <ele>311.2</ele>
        <time>2021-06-16T11:54:11Z</time>
      </trkpt>
      <trkpt lat="47.12539" lon="5.81024">
        <ele>311.4</ele>
        <time>2021-06-16T11:54:12Z</time>
      </trkpt>
      <trkpt lat="47.12539" lon="5.81024">
        <ele>311.4</ele>
        <time>2021-06-16T11:54:13Z</time>
      </trkpt>
      <trkpt lat="47.12534" lon="5.81022">
        <ele>311.6</ele>
        <time>2021-06-16T11:54:14Z</time>
      </trkpt>
      <trkpt lat="47.12532" lon="5.8102">
        <ele>311.8</ele>
        <time>2021-06-16T11:54:15Z</time>
      </trkpt>
      <trkpt lat="47.12532" lon="5.8102">
        <ele>311.8</ele>
        <time>2021-06-16T11:54:16Z</time>
      </trkpt>
      <trkpt lat="47.12528" lon="5.81015">
        <ele>312</ele>
        <time>2021-06-16T11:54:17Z</time>
      </trkpt>
      <trkpt lat="47.12526" lon="5.81011">
        <ele>312</ele>
        <time>2021-06-16T11:54:18Z</time>
      </trkpt>
      <trkpt lat="47.12525" lon="5.81009">
        <ele>312.2</ele>
        <time>2021-06-16T11:54:19Z</time>
      </trkpt>
      <trkpt lat="47.12523" lon="5.81006">
        <ele>312.2</ele>
        <time>2021-06-16T11:54:20Z</time>
      </trkpt>
      <trkpt lat="47.12521" lon="5.81002">
        <ele>312.2</ele>
        <time>2021-06-16T11:54:21Z</time>
      </trkpt>
      <trkpt lat="47.12519" lon="5.80999">
        <ele>312.2</ele>
        <time>2021-06-16T11:54:22Z</time>
      </trkpt>
      <trkpt lat="47.12516" lon="5.80996">
        <ele>312.2</ele>
        <time>2021-06-16T11:54:23Z</time>
      </trkpt>
      <trkpt lat="47.12514" lon="5.80994">
        <ele>312.2</ele>
        <time>2021-06-16T11:54:24Z</time>
      </trkpt>
      <trkpt lat="47.12511" lon="5.80991">
        <ele>312.2</ele>
        <time>2021-06-16T11:54:25Z</time>
      </trkpt>
      <trkpt lat="47.12509" lon="5.80989">
        <ele>312.2</ele>
        <time>2021-06-16T11:54:26Z</time>
      </trkpt>
      <trkpt lat="47.12509" lon="5.80989">
        <ele>312.2</ele>
        <time>2021-06-16T11:54:27Z</time>
      </trkpt>
      <trkpt lat="47.12503" lon="5.80983">
        <ele>312.2</ele>
        <time>2021-06-16T11:54:28Z</time>
      </trkpt>
      <trkpt lat="47.125" lon="5.80981">
        <ele>312.2</ele>
        <time>2021-06-16T11:54:30Z</time>
      </trkpt>
      <trkpt lat="47.12478" lon="5.80968">
        <ele>312</ele>
        <time>2021-06-16T11:54:35Z</time>
      </trkpt>
      <trkpt lat="47.1246" lon="5.80953">
        <ele>311.4</ele>
        <time>2021-06-16T11:54:40Z</time>
      </trkpt>
      <trkpt lat="47.12459" lon="5.8095">
        <ele>311.4</ele>
        <time>2021-06-16T11:54:41Z</time>
      </trkpt>
      <trkpt lat="47.12457" lon="5.80946">
        <ele>311.2</ele>
        <time>2021-06-16T11:54:42Z</time>
      </trkpt>
      <trkpt lat="47.12456" lon="5.80942">
        <ele>311.2</ele>
        <time>2021-06-16T11:54:43Z</time>
      </trkpt>
      <trkpt lat="47.12453" lon="5.80938">
        <ele>311</ele>
        <time>2021-06-16T11:54:44Z</time>
      </trkpt>
      <trkpt lat="47.1245" lon="5.80935">
        <ele>311</ele>
        <time>2021-06-16T11:54:45Z</time>
      </trkpt>
      <trkpt lat="47.12446" lon="5.80932">
        <ele>310.8</ele>
        <time>2021-06-16T11:54:46Z</time>
      </trkpt>
      <trkpt lat="47.12442" lon="5.8093">
        <ele>310.4</ele>
        <time>2021-06-16T11:54:47Z</time>
      </trkpt>
      <trkpt lat="47.12437" lon="5.80928">
        <ele>310.4</ele>
        <time>2021-06-16T11:54:48Z</time>
      </trkpt>
      <trkpt lat="47.12433" lon="5.80926">
        <ele>309.8</ele>
        <time>2021-06-16T11:54:49Z</time>
      </trkpt>
      <trkpt lat="47.12424" lon="5.80924">
        <ele>309.4</ele>
        <time>2021-06-16T11:54:51Z</time>
      </trkpt>
      <trkpt lat="47.12415" lon="5.80924">
        <ele>309.2</ele>
        <time>2021-06-16T11:54:54Z</time>
      </trkpt>
      <trkpt lat="47.12399" lon="5.8092">
        <ele>309</ele>
        <time>2021-06-16T11:54:59Z</time>
      </trkpt>
      <trkpt lat="47.12396" lon="5.80919">
        <ele>309</ele>
        <time>2021-06-16T11:55:00Z</time>
      </trkpt>
      <trkpt lat="47.12393" lon="5.80918">
        <ele>309</ele>
        <time>2021-06-16T11:55:01Z</time>
      </trkpt>
      <trkpt lat="47.12386" lon="5.80915">
        <ele>309</ele>
        <time>2021-06-16T11:55:04Z</time>
      </trkpt>
      <trkpt lat="47.12367" lon="5.80908">
        <ele>309</ele>
        <time>2021-06-16T11:55:09Z</time>
      </trkpt>
      <trkpt lat="47.12346" lon="5.80899">
        <ele>308.6</ele>
        <time>2021-06-16T11:55:15Z</time>
      </trkpt>
      <trkpt lat="47.12337" lon="5.80896">
        <ele>308.6</ele>
        <time>2021-06-16T11:55:18Z</time>
      </trkpt>
      <trkpt lat="47.12334" lon="5.80895">
        <ele>308.6</ele>
        <time>2021-06-16T11:55:19Z</time>
      </trkpt>
      <trkpt lat="47.12331" lon="5.80896">
        <ele>308.6</ele>
        <time>2021-06-16T11:55:20Z</time>
      </trkpt>
      <trkpt lat="47.12328" lon="5.80896">
        <ele>308.6</ele>
        <time>2021-06-16T11:55:21Z</time>
      </trkpt>
      <trkpt lat="47.12326" lon="5.80896">
        <ele>308.6</ele>
        <time>2021-06-16T11:55:22Z</time>
      </trkpt>
      <trkpt lat="47.12322" lon="5.80894">
        <ele>308.6</ele>
        <time>2021-06-16T11:55:23Z</time>
      </trkpt>
      <trkpt lat="47.12319" lon="5.80892">
        <ele>308.8</ele>
        <time>2021-06-16T11:55:24Z</time>
      </trkpt>
      <trkpt lat="47.12317" lon="5.8089">
        <ele>308.8</ele>
        <time>2021-06-16T11:55:25Z</time>
      </trkpt>
      <trkpt lat="47.12315" lon="5.80887">
        <ele>308.8</ele>
        <time>2021-06-16T11:55:26Z</time>
      </trkpt>
      <trkpt lat="47.12312" lon="5.80884">
        <ele>309</ele>
        <time>2021-06-16T11:55:27Z</time>
      </trkpt>
      <trkpt lat="47.12307" lon="5.8088">
        <ele>309</ele>
        <time>2021-06-16T11:55:29Z</time>
      </trkpt>
      <trkpt lat="47.12305" lon="5.8088">
        <ele>309</ele>
        <time>2021-06-16T11:55:30Z</time>
      </trkpt>
      <trkpt lat="47.12303" lon="5.80879">
        <ele>309.2</ele>
        <time>2021-06-16T11:55:31Z</time>
      </trkpt>
      <trkpt lat="47.12302" lon="5.80879">
        <ele>309.2</ele>
        <time>2021-06-16T11:55:32Z</time>
      </trkpt>
      <trkpt lat="47.123" lon="5.80879">
        <ele>309.4</ele>
        <time>2021-06-16T11:55:33Z</time>
      </trkpt>
      <trkpt lat="47.123" lon="5.80879">
        <ele>309.4</ele>
        <time>2021-06-16T11:55:34Z</time>
      </trkpt>
      <trkpt lat="47.12298" lon="5.80878">
        <ele>309.6</ele>
        <time>2021-06-16T11:55:36Z</time>
      </trkpt>
      <trkpt lat="47.12296" lon="5.80878">
        <ele>309.6</ele>
        <time>2021-06-16T11:55:37Z</time>
      </trkpt>
      <trkpt lat="47.12295" lon="5.80877">
        <ele>309.6</ele>
        <time>2021-06-16T11:55:38Z</time>
      </trkpt>
      <trkpt lat="47.12293" lon="5.80877">
        <ele>309.6</ele>
        <time>2021-06-16T11:55:39Z</time>
      </trkpt>
      <trkpt lat="47.12293" lon="5.80877">
        <ele>309.8</ele>
        <time>2021-06-16T11:55:40Z</time>
      </trkpt>
      <trkpt lat="47.12292" lon="5.80877">
        <ele>309.8</ele>
        <time>2021-06-16T11:55:41Z</time>
      </trkpt>
      <trkpt lat="47.12291" lon="5.80877">
        <ele>309.8</ele>
        <time>2021-06-16T11:55:42Z</time>
      </trkpt>
      <trkpt lat="47.12289" lon="5.80876">
        <ele>310</ele>
        <time>2021-06-16T11:55:43Z</time>
      </trkpt>
      <trkpt lat="47.12287" lon="5.80876">
        <ele>310</ele>
        <time>2021-06-16T11:55:44Z</time>
      </trkpt>
      <trkpt lat="47.12285" lon="5.80875">
        <ele>310.2</ele>
        <time>2021-06-16T11:55:45Z</time>
      </trkpt>
      <trkpt lat="47.12284" lon="5.80875">
        <ele>310.2</ele>
        <time>2021-06-16T11:55:46Z</time>
      </trkpt>
      <trkpt lat="47.12283" lon="5.80875">
        <ele>310.4</ele>
        <time>2021-06-16T11:55:47Z</time>
      </trkpt>
      <trkpt lat="47.12282" lon="5.80874">
        <ele>310.4</ele>
        <time>2021-06-16T11:55:48Z</time>
      </trkpt>
      <trkpt lat="47.12275" lon="5.80871">
        <ele>310.6</ele>
        <time>2021-06-16T11:55:52Z</time>
      </trkpt>
      <trkpt lat="47.12262" lon="5.80864">
        <ele>310.8</ele>
        <time>2021-06-16T11:55:59Z</time>
      </trkpt>
      <trkpt lat="47.12254" lon="5.80861">
        <ele>311.2</ele>
        <time>2021-06-16T11:56:02Z</time>
      </trkpt>
      <trkpt lat="47.12249" lon="5.80857">
        <ele>311.2</ele>
        <time>2021-06-16T11:56:04Z</time>
      </trkpt>
      <trkpt lat="47.12246" lon="5.80855">
        <ele>311.2</ele>
        <time>2021-06-16T11:56:05Z</time>
      </trkpt>
      <trkpt lat="47.12244" lon="5.80852">
        <ele>311.2</ele>
        <time>2021-06-16T11:56:06Z</time>
      </trkpt>
      <trkpt lat="47.12228" lon="5.80839">
        <ele>311.2</ele>
        <time>2021-06-16T11:56:12Z</time>
      </trkpt>
      <trkpt lat="47.12224" lon="5.80835">
        <ele>311.4</ele>
        <time>2021-06-16T11:56:14Z</time>
      </trkpt>
      <trkpt lat="47.12221" lon="5.80834">
        <ele>311.4</ele>
        <time>2021-06-16T11:56:15Z</time>
      </trkpt>
      <trkpt lat="47.12218" lon="5.80833">
        <ele>311.4</ele>
        <time>2021-06-16T11:56:16Z</time>
      </trkpt>
      <trkpt lat="47.12211" lon="5.8083">
        <ele>311.4</ele>
        <time>2021-06-16T11:56:18Z</time>
      </trkpt>
      <trkpt lat="47.12207" lon="5.80828">
        <ele>311.4</ele>
        <time>2021-06-16T11:56:19Z</time>
      </trkpt>
      <trkpt lat="47.12202" lon="5.80825">
        <ele>311.2</ele>
        <time>2021-06-16T11:56:21Z</time>
      </trkpt>
      <trkpt lat="47.12194" lon="5.80823">
        <ele>311.2</ele>
        <time>2021-06-16T11:56:22Z</time>
      </trkpt>
      <trkpt lat="47.12191" lon="5.80822">
        <ele>311</ele>
        <time>2021-06-16T11:56:23Z</time>
      </trkpt>
      <trkpt lat="47.12189" lon="5.80821">
        <ele>310.8</ele>
        <time>2021-06-16T11:56:24Z</time>
      </trkpt>
      <trkpt lat="47.12187" lon="5.8082">
        <ele>310.8</ele>
        <time>2021-06-16T11:56:25Z</time>
      </trkpt>
      <trkpt lat="47.12184" lon="5.80818">
        <ele>310.6</ele>
        <time>2021-06-16T11:56:26Z</time>
      </trkpt>
      <trkpt lat="47.12166" lon="5.80812">
        <ele>310</ele>
        <time>2021-06-16T11:56:31Z</time>
      </trkpt>
      <trkpt lat="47.12164" lon="5.80812">
        <ele>310</ele>
        <time>2021-06-16T11:56:32Z</time>
      </trkpt>
      <trkpt lat="47.12162" lon="5.80815">
        <ele>309.8</ele>
        <time>2021-06-16T11:56:33Z</time>
      </trkpt>
      <trkpt lat="47.12161" lon="5.80822">
        <ele>309.6</ele>
        <time>2021-06-16T11:56:34Z</time>
      </trkpt>
      <trkpt lat="47.12161" lon="5.80828">
        <ele>309.2</ele>
        <time>2021-06-16T11:56:35Z</time>
      </trkpt>
      <trkpt lat="47.1216" lon="5.80848">
        <ele>307.6</ele>
        <time>2021-06-16T11:56:38Z</time>
      </trkpt>
      <trkpt lat="47.1216" lon="5.8086">
        <ele>307</ele>
        <time>2021-06-16T11:56:40Z</time>
      </trkpt>
      <trkpt lat="47.12159" lon="5.80865">
        <ele>306.2</ele>
        <time>2021-06-16T11:56:41Z</time>
      </trkpt>
      <trkpt lat="47.12159" lon="5.80869">
        <ele>306</ele>
        <time>2021-06-16T11:56:42Z</time>
      </trkpt>
      <trkpt lat="47.12158" lon="5.80875">
        <ele>305.6</ele>
        <time>2021-06-16T11:56:43Z</time>
      </trkpt>
      <trkpt lat="47.12157" lon="5.80885">
        <ele>304.8</ele>
        <time>2021-06-16T11:56:45Z</time>
      </trkpt>
      <trkpt lat="47.12156" lon="5.8089">
        <ele>304.2</ele>
        <time>2021-06-16T11:56:46Z</time>
      </trkpt>
      <trkpt lat="47.12157" lon="5.80894">
        <ele>304.2</ele>
        <time>2021-06-16T11:56:47Z</time>
      </trkpt>
      <trkpt lat="47.12159" lon="5.809">
        <ele>303.8</ele>
        <time>2021-06-16T11:56:48Z</time>
      </trkpt>
      <trkpt lat="47.12161" lon="5.80906">
        <ele>303.6</ele>
        <time>2021-06-16T11:56:49Z</time>
      </trkpt>
      <trkpt lat="47.12164" lon="5.80914">
        <ele>303</ele>
        <time>2021-06-16T11:56:50Z</time>
      </trkpt>
      <trkpt lat="47.12165" lon="5.80923">
        <ele>302.2</ele>
        <time>2021-06-16T11:56:51Z</time>
      </trkpt>
      <trkpt lat="47.12166" lon="5.80932">
        <ele>301.8</ele>
        <time>2021-06-16T11:56:52Z</time>
      </trkpt>
      <trkpt lat="47.12168" lon="5.80941">
        <ele>301.4</ele>
        <time>2021-06-16T11:56:53Z</time>
      </trkpt>
      <trkpt lat="47.12171" lon="5.80959">
        <ele>300.8</ele>
        <time>2021-06-16T11:56:55Z</time>
      </trkpt>
      <trkpt lat="47.12172" lon="5.80967">
        <ele>300.2</ele>
        <time>2021-06-16T11:56:56Z</time>
      </trkpt>
      <trkpt lat="47.12173" lon="5.80974">
        <ele>300</ele>
        <time>2021-06-16T11:56:57Z</time>
      </trkpt>
      <trkpt lat="47.12174" lon="5.80981">
        <ele>299.8</ele>
        <time>2021-06-16T11:56:58Z</time>
      </trkpt>
      <trkpt lat="47.12174" lon="5.80986">
        <ele>299.8</ele>
        <time>2021-06-16T11:56:59Z</time>
      </trkpt>
      <trkpt lat="47.12175" lon="5.80991">
        <ele>299.6</ele>
        <time>2021-06-16T11:57:00Z</time>
      </trkpt>
      <trkpt lat="47.12176" lon="5.80995">
        <ele>299.6</ele>
        <time>2021-06-16T11:57:01Z</time>
      </trkpt>
      <trkpt lat="47.12176" lon="5.81">
        <ele>299.2</ele>
        <time>2021-06-16T11:57:02Z</time>
      </trkpt>
      <trkpt lat="47.12175" lon="5.81003">
        <ele>299.6</ele>
        <time>2021-06-16T11:57:03Z</time>
      </trkpt>
      <trkpt lat="47.12175" lon="5.81007">
        <ele>299.6</ele>
        <time>2021-06-16T11:57:04Z</time>
      </trkpt>
      <trkpt lat="47.12175" lon="5.8101">
        <ele>299.8</ele>
        <time>2021-06-16T11:57:05Z</time>
      </trkpt>
      <trkpt lat="47.12175" lon="5.81013">
        <ele>300</ele>
        <time>2021-06-16T11:57:06Z</time>
      </trkpt>
      <trkpt lat="47.12175" lon="5.81017">
        <ele>300.2</ele>
        <time>2021-06-16T11:57:07Z</time>
      </trkpt>
      <trkpt lat="47.12175" lon="5.81024">
        <ele>300.4</ele>
        <time>2021-06-16T11:57:09Z</time>
      </trkpt>
      <trkpt lat="47.12175" lon="5.81028">
        <ele>300.6</ele>
        <time>2021-06-16T11:57:10Z</time>
      </trkpt>
      <trkpt lat="47.12174" lon="5.81042">
        <ele>300.8</ele>
        <time>2021-06-16T11:57:14Z</time>
      </trkpt>
      <trkpt lat="47.12174" lon="5.81045">
        <ele>301</ele>
        <time>2021-06-16T11:57:15Z</time>
      </trkpt>
      <trkpt lat="47.12174" lon="5.81068">
        <ele>301.8</ele>
        <time>2021-06-16T11:57:21Z</time>
      </trkpt>
      <trkpt lat="47.12174" lon="5.81071">
        <ele>302</ele>
        <time>2021-06-16T11:57:22Z</time>
      </trkpt>
      <trkpt lat="47.12167" lon="5.81109">
        <ele>302.8</ele>
        <time>2021-06-16T11:57:31Z</time>
      </trkpt>
      <trkpt lat="47.12166" lon="5.81114">
        <ele>303</ele>
        <time>2021-06-16T11:57:32Z</time>
      </trkpt>
      <trkpt lat="47.12159" lon="5.81151">
        <ele>303.4</ele>
        <time>2021-06-16T11:57:39Z</time>
      </trkpt>
      <trkpt lat="47.12146" lon="5.81186">
        <ele>303.8</ele>
        <time>2021-06-16T11:57:45Z</time>
      </trkpt>
      <trkpt lat="47.12119" lon="5.81233">
        <ele>302.2</ele>
        <time>2021-06-16T11:57:54Z</time>
      </trkpt>
      <trkpt lat="47.12116" lon="5.81239">
        <ele>301.6</ele>
        <time>2021-06-16T11:57:55Z</time>
      </trkpt>
      <trkpt lat="47.12112" lon="5.81245">
        <ele>301.4</ele>
        <time>2021-06-16T11:57:56Z</time>
      </trkpt>
      <trkpt lat="47.12098" lon="5.81264">
        <ele>301</ele>
        <time>2021-06-16T11:57:59Z</time>
      </trkpt>
      <trkpt lat="47.12081" lon="5.81283">
        <ele>300.6</ele>
        <time>2021-06-16T11:58:02Z</time>
      </trkpt>
      <trkpt lat="47.12063" lon="5.81303">
        <ele>300</ele>
        <time>2021-06-16T11:58:05Z</time>
      </trkpt>
      <trkpt lat="47.12057" lon="5.8131">
        <ele>300</ele>
        <time>2021-06-16T11:58:06Z</time>
      </trkpt>
      <trkpt lat="47.12052" lon="5.81318">
        <ele>299.4</ele>
        <time>2021-06-16T11:58:07Z</time>
      </trkpt>
      <trkpt lat="47.12047" lon="5.81328">
        <ele>299</ele>
        <time>2021-06-16T11:58:08Z</time>
      </trkpt>
      <trkpt lat="47.12042" lon="5.81337">
        <ele>299</ele>
        <time>2021-06-16T11:58:09Z</time>
      </trkpt>
      <trkpt lat="47.12029" lon="5.81367">
        <ele>298.2</ele>
        <time>2021-06-16T11:58:12Z</time>
      </trkpt>
      <trkpt lat="47.12002" lon="5.81429">
        <ele>297.2</ele>
        <time>2021-06-16T11:58:18Z</time>
      </trkpt>
      <trkpt lat="47.11992" lon="5.8145">
        <ele>297</ele>
        <time>2021-06-16T11:58:20Z</time>
      </trkpt>
      <trkpt lat="47.11972" lon="5.81491">
        <ele>296.4</ele>
        <time>2021-06-16T11:58:24Z</time>
      </trkpt>
      <trkpt lat="47.11962" lon="5.8151">
        <ele>295.8</ele>
        <time>2021-06-16T11:58:26Z</time>
      </trkpt>
      <trkpt lat="47.11957" lon="5.81519">
        <ele>295.4</ele>
        <time>2021-06-16T11:58:27Z</time>
      </trkpt>
      <trkpt lat="47.11953" lon="5.81529">
        <ele>295.2</ele>
        <time>2021-06-16T11:58:28Z</time>
      </trkpt>
      <trkpt lat="47.11949" lon="5.81538">
        <ele>295</ele>
        <time>2021-06-16T11:58:29Z</time>
      </trkpt>
      <trkpt lat="47.11945" lon="5.81547">
        <ele>295</ele>
        <time>2021-06-16T11:58:30Z</time>
      </trkpt>
      <trkpt lat="47.1194" lon="5.81555">
        <ele>294.8</ele>
        <time>2021-06-16T11:58:31Z</time>
      </trkpt>
      <trkpt lat="47.11936" lon="5.81564">
        <ele>294.8</ele>
        <time>2021-06-16T11:58:32Z</time>
      </trkpt>
      <trkpt lat="47.11931" lon="5.81572">
        <ele>294.6</ele>
        <time>2021-06-16T11:58:33Z</time>
      </trkpt>
      <trkpt lat="47.11923" lon="5.81591">
        <ele>294.8</ele>
        <time>2021-06-16T11:58:35Z</time>
      </trkpt>
      <trkpt lat="47.11891" lon="5.81662">
        <ele>294.6</ele>
        <time>2021-06-16T11:58:43Z</time>
      </trkpt>
      <trkpt lat="47.11886" lon="5.81671">
        <ele>294.6</ele>
        <time>2021-06-16T11:58:44Z</time>
      </trkpt>
      <trkpt lat="47.11862" lon="5.817">
        <ele>294.4</ele>
        <time>2021-06-16T11:58:48Z</time>
      </trkpt>
      <trkpt lat="47.11836" lon="5.81731">
        <ele>294</ele>
        <time>2021-06-16T11:58:52Z</time>
      </trkpt>
      <trkpt lat="47.11828" lon="5.81739">
        <ele>293.6</ele>
        <time>2021-06-16T11:58:53Z</time>
      </trkpt>
      <trkpt lat="47.11822" lon="5.81745">
        <ele>293</ele>
        <time>2021-06-16T11:58:54Z</time>
      </trkpt>
      <trkpt lat="47.11808" lon="5.8176">
        <ele>292.4</ele>
        <time>2021-06-16T11:58:56Z</time>
      </trkpt>
      <trkpt lat="47.11797" lon="5.81779">
        <ele>291.6</ele>
        <time>2021-06-16T11:58:58Z</time>
      </trkpt>
      <trkpt lat="47.11792" lon="5.8179">
        <ele>291.2</ele>
        <time>2021-06-16T11:58:59Z</time>
      </trkpt>
      <trkpt lat="47.11781" lon="5.81824">
        <ele>290.8</ele>
        <time>2021-06-16T11:59:02Z</time>
      </trkpt>
      <trkpt lat="47.11777" lon="5.81834">
        <ele>290.2</ele>
        <time>2021-06-16T11:59:03Z</time>
      </trkpt>
      <trkpt lat="47.11773" lon="5.81843">
        <ele>290</ele>
        <time>2021-06-16T11:59:04Z</time>
      </trkpt>
      <trkpt lat="47.11769" lon="5.81852">
        <ele>289.8</ele>
        <time>2021-06-16T11:59:05Z</time>
      </trkpt>
      <trkpt lat="47.11764" lon="5.81858">
        <ele>289.8</ele>
        <time>2021-06-16T11:59:06Z</time>
      </trkpt>
      <trkpt lat="47.11759" lon="5.81863">
        <ele>289.8</ele>
        <time>2021-06-16T11:59:07Z</time>
      </trkpt>
      <trkpt lat="47.11754" lon="5.81867">
        <ele>289.8</ele>
        <time>2021-06-16T11:59:08Z</time>
      </trkpt>
      <trkpt lat="47.11749" lon="5.81871">
        <ele>289.8</ele>
        <time>2021-06-16T11:59:09Z</time>
      </trkpt>
      <trkpt lat="47.11744" lon="5.81874">
        <ele>289.8</ele>
        <time>2021-06-16T11:59:10Z</time>
      </trkpt>
      <trkpt lat="47.11739" lon="5.81877">
        <ele>290.2</ele>
        <time>2021-06-16T11:59:11Z</time>
      </trkpt>
      <trkpt lat="47.11734" lon="5.81879">
        <ele>290.4</ele>
        <time>2021-06-16T11:59:12Z</time>
      </trkpt>
      <trkpt lat="47.11729" lon="5.81878">
        <ele>290.8</ele>
        <time>2021-06-16T11:59:13Z</time>
      </trkpt>
      <trkpt lat="47.11724" lon="5.81875">
        <ele>290.8</ele>
        <time>2021-06-16T11:59:14Z</time>
      </trkpt>
      <trkpt lat="47.11714" lon="5.81866">
        <ele>291</ele>
        <time>2021-06-16T11:59:16Z</time>
      </trkpt>
      <trkpt lat="47.11709" lon="5.81861">
        <ele>291</ele>
        <time>2021-06-16T11:59:17Z</time>
      </trkpt>
      <trkpt lat="47.11698" lon="5.81852">
        <ele>291.2</ele>
        <time>2021-06-16T11:59:19Z</time>
      </trkpt>
      <trkpt lat="47.11683" lon="5.81837">
        <ele>290.8</ele>
        <time>2021-06-16T11:59:22Z</time>
      </trkpt>
      <trkpt lat="47.11654" lon="5.81811">
        <ele>290.2</ele>
        <time>2021-06-16T11:59:28Z</time>
      </trkpt>
      <trkpt lat="47.11649" lon="5.81807">
        <ele>290</ele>
        <time>2021-06-16T11:59:29Z</time>
      </trkpt>
      <trkpt lat="47.11645" lon="5.81803">
        <ele>290</ele>
        <time>2021-06-16T11:59:30Z</time>
      </trkpt>
      <trkpt lat="47.1164" lon="5.818">
        <ele>289.8</ele>
        <time>2021-06-16T11:59:31Z</time>
      </trkpt>
      <trkpt lat="47.11636" lon="5.81796">
        <ele>289.8</ele>
        <time>2021-06-16T11:59:32Z</time>
      </trkpt>
      <trkpt lat="47.11632" lon="5.81793">
        <ele>289.8</ele>
        <time>2021-06-16T11:59:33Z</time>
      </trkpt>
      <trkpt lat="47.11627" lon="5.81789">
        <ele>289.8</ele>
        <time>2021-06-16T11:59:34Z</time>
      </trkpt>
      <trkpt lat="47.11623" lon="5.81785">
        <ele>289.8</ele>
        <time>2021-06-16T11:59:35Z</time>
      </trkpt>
      <trkpt lat="47.11618" lon="5.81781">
        <ele>289.8</ele>
        <time>2021-06-16T11:59:36Z</time>
      </trkpt>
      <trkpt lat="47.11614" lon="5.81778">
        <ele>289.8</ele>
        <time>2021-06-16T11:59:37Z</time>
      </trkpt>
      <trkpt lat="47.11595" lon="5.81767">
        <ele>289.8</ele>
        <time>2021-06-16T11:59:41Z</time>
      </trkpt>
      <trkpt lat="47.11585" lon="5.81766">
        <ele>289.8</ele>
        <time>2021-06-16T11:59:43Z</time>
      </trkpt>
      <trkpt lat="47.1158" lon="5.81768">
        <ele>289.8</ele>
        <time>2021-06-16T11:59:44Z</time>
      </trkpt>
      <trkpt lat="47.11577" lon="5.81772">
        <ele>290</ele>
        <time>2021-06-16T11:59:45Z</time>
      </trkpt>
      <trkpt lat="47.11574" lon="5.81775">
        <ele>290</ele>
        <time>2021-06-16T11:59:46Z</time>
      </trkpt>
      <trkpt lat="47.11571" lon="5.81778">
        <ele>290.2</ele>
        <time>2021-06-16T11:59:47Z</time>
      </trkpt>
      <trkpt lat="47.11568" lon="5.81781">
        <ele>290.2</ele>
        <time>2021-06-16T11:59:48Z</time>
      </trkpt>
      <trkpt lat="47.11565" lon="5.81784">
        <ele>290.2</ele>
        <time>2021-06-16T11:59:49Z</time>
      </trkpt>
      <trkpt lat="47.11562" lon="5.81788">
        <ele>290.2</ele>
        <time>2021-06-16T11:59:50Z</time>
      </trkpt>
      <trkpt lat="47.11558" lon="5.81794">
        <ele>290.4</ele>
        <time>2021-06-16T11:59:52Z</time>
      </trkpt>
      <trkpt lat="47.11556" lon="5.81797">
        <ele>290.4</ele>
        <time>2021-06-16T11:59:53Z</time>
      </trkpt>
      <trkpt lat="47.11555" lon="5.818">
        <ele>290.4</ele>
        <time>2021-06-16T11:59:54Z</time>
      </trkpt>
      <trkpt lat="47.11554" lon="5.81803">
        <ele>290.6</ele>
        <time>2021-06-16T11:59:55Z</time>
      </trkpt>
      <trkpt lat="47.11552" lon="5.81805">
        <ele>290.6</ele>
        <time>2021-06-16T11:59:56Z</time>
      </trkpt>
      <trkpt lat="47.1155" lon="5.81806">
        <ele>290.8</ele>
        <time>2021-06-16T11:59:57Z</time>
      </trkpt>
      <trkpt lat="47.11546" lon="5.8181">
        <ele>291.2</ele>
        <time>2021-06-16T11:59:59Z</time>
      </trkpt>
      <trkpt lat="47.11538" lon="5.81822">
        <ele>291.6</ele>
        <time>2021-06-16T12:00:03Z</time>
      </trkpt>
      <trkpt lat="47.11531" lon="5.81834">
        <ele>291.8</ele>
        <time>2021-06-16T12:00:09Z</time>
      </trkpt>
      <trkpt lat="47.11531" lon="5.81834">
        <ele>292.4</ele>
        <time>2021-06-16T12:00:15Z</time>
      </trkpt>
      <trkpt lat="47.11531" lon="5.81834">
        <ele>292.8</ele>
        <time>2021-06-16T12:00:43Z</time>
      </trkpt>
      <trkpt lat="47.11531" lon="5.81834">
        <ele>293</ele>
        <time>2021-06-16T12:01:35Z</time>
      </trkpt>
      <trkpt lat="47.11531" lon="5.81837">
        <ele>292.8</ele>
        <time>2021-06-16T12:02:04Z</time>
      </trkpt>
      <trkpt lat="47.11529" lon="5.81842">
        <ele>292.8</ele>
        <time>2021-06-16T12:02:06Z</time>
      </trkpt>
      <trkpt lat="47.1152" lon="5.81866">
        <ele>292.6</ele>
        <time>2021-06-16T12:02:11Z</time>
      </trkpt>
      <trkpt lat="47.11508" lon="5.81898">
        <ele>292.2</ele>
        <time>2021-06-16T12:02:16Z</time>
      </trkpt>
      <trkpt lat="47.11505" lon="5.81905">
        <ele>291.8</ele>
        <time>2021-06-16T12:02:17Z</time>
      </trkpt>
      <trkpt lat="47.11502" lon="5.81911">
        <ele>291.6</ele>
        <time>2021-06-16T12:02:18Z</time>
      </trkpt>
      <trkpt lat="47.11475" lon="5.81948">
        <ele>291.4</ele>
        <time>2021-06-16T12:02:25Z</time>
      </trkpt>
      <trkpt lat="47.11471" lon="5.81952">
        <ele>291.4</ele>
        <time>2021-06-16T12:02:26Z</time>
      </trkpt>
      <trkpt lat="47.11468" lon="5.81955">
        <ele>291.4</ele>
        <time>2021-06-16T12:02:27Z</time>
      </trkpt>
      <trkpt lat="47.11464" lon="5.81959">
        <ele>291.6</ele>
        <time>2021-06-16T12:02:28Z</time>
      </trkpt>
      <trkpt lat="47.11461" lon="5.81962">
        <ele>292</ele>
        <time>2021-06-16T12:02:29Z</time>
      </trkpt>
      <trkpt lat="47.11457" lon="5.81965">
        <ele>292.2</ele>
        <time>2021-06-16T12:02:30Z</time>
      </trkpt>
      <trkpt lat="47.11447" lon="5.81974">
        <ele>292.8</ele>
        <time>2021-06-16T12:02:33Z</time>
      </trkpt>
      <trkpt lat="47.11444" lon="5.81978">
        <ele>293</ele>
        <time>2021-06-16T12:02:34Z</time>
      </trkpt>
      <trkpt lat="47.1144" lon="5.81981">
        <ele>293.2</ele>
        <time>2021-06-16T12:02:35Z</time>
      </trkpt>
      <trkpt lat="47.11437" lon="5.81985">
        <ele>293.4</ele>
        <time>2021-06-16T12:02:36Z</time>
      </trkpt>
      <trkpt lat="47.11434" lon="5.81988">
        <ele>293.6</ele>
        <time>2021-06-16T12:02:37Z</time>
      </trkpt>
      <trkpt lat="47.11431" lon="5.81992">
        <ele>293.6</ele>
        <time>2021-06-16T12:02:38Z</time>
      </trkpt>
      <trkpt lat="47.11428" lon="5.81996">
        <ele>293.8</ele>
        <time>2021-06-16T12:02:39Z</time>
      </trkpt>
      <trkpt lat="47.11422" lon="5.82003">
        <ele>294</ele>
        <time>2021-06-16T12:02:41Z</time>
      </trkpt>
      <trkpt lat="47.11409" lon="5.82019">
        <ele>294.6</ele>
        <time>2021-06-16T12:02:45Z</time>
      </trkpt>
      <trkpt lat="47.11397" lon="5.82029">
        <ele>294.6</ele>
        <time>2021-06-16T12:02:48Z</time>
      </trkpt>
      <trkpt lat="47.11393" lon="5.82032">
        <ele>294.8</ele>
        <time>2021-06-16T12:02:49Z</time>
      </trkpt>
      <trkpt lat="47.11388" lon="5.82035">
        <ele>294.8</ele>
        <time>2021-06-16T12:02:50Z</time>
      </trkpt>
      <trkpt lat="47.11384" lon="5.82037">
        <ele>294.8</ele>
        <time>2021-06-16T12:02:51Z</time>
      </trkpt>
      <trkpt lat="47.11379" lon="5.8204">
        <ele>294.8</ele>
        <time>2021-06-16T12:02:52Z</time>
      </trkpt>
      <trkpt lat="47.11375" lon="5.82042">
        <ele>294.8</ele>
        <time>2021-06-16T12:02:53Z</time>
      </trkpt>
      <trkpt lat="47.11371" lon="5.82044">
        <ele>294.8</ele>
        <time>2021-06-16T12:02:54Z</time>
      </trkpt>
      <trkpt lat="47.11359" lon="5.82052">
        <ele>295</ele>
        <time>2021-06-16T12:02:57Z</time>
      </trkpt>
      <trkpt lat="47.11355" lon="5.82055">
        <ele>295.2</ele>
        <time>2021-06-16T12:02:58Z</time>
      </trkpt>
      <trkpt lat="47.11352" lon="5.82058">
        <ele>295.2</ele>
        <time>2021-06-16T12:02:59Z</time>
      </trkpt>
      <trkpt lat="47.1135" lon="5.82061">
        <ele>295.6</ele>
        <time>2021-06-16T12:03:00Z</time>
      </trkpt>
      <trkpt lat="47.11347" lon="5.82065">
        <ele>296</ele>
        <time>2021-06-16T12:03:01Z</time>
      </trkpt>
      <trkpt lat="47.11344" lon="5.82068">
        <ele>296.2</ele>
        <time>2021-06-16T12:03:02Z</time>
      </trkpt>
      <trkpt lat="47.11342" lon="5.82071">
        <ele>296.4</ele>
        <time>2021-06-16T12:03:03Z</time>
      </trkpt>
      <trkpt lat="47.11333" lon="5.82082">
        <ele>297</ele>
        <time>2021-06-16T12:03:06Z</time>
      </trkpt>
      <trkpt lat="47.11331" lon="5.82085">
        <ele>297</ele>
        <time>2021-06-16T12:03:07Z</time>
      </trkpt>
      <trkpt lat="47.11328" lon="5.82089">
        <ele>297.2</ele>
        <time>2021-06-16T12:03:08Z</time>
      </trkpt>
      <trkpt lat="47.11325" lon="5.82092">
        <ele>297.2</ele>
        <time>2021-06-16T12:03:09Z</time>
      </trkpt>
      <trkpt lat="47.11322" lon="5.82096">
        <ele>297.4</ele>
        <time>2021-06-16T12:03:10Z</time>
      </trkpt>
      <trkpt lat="47.11319" lon="5.821">
        <ele>297.4</ele>
        <time>2021-06-16T12:03:11Z</time>
      </trkpt>
      <trkpt lat="47.11316" lon="5.82104">
        <ele>297.4</ele>
        <time>2021-06-16T12:03:12Z</time>
      </trkpt>
      <trkpt lat="47.11312" lon="5.82109">
        <ele>297.6</ele>
        <time>2021-06-16T12:03:13Z</time>
      </trkpt>
      <trkpt lat="47.11309" lon="5.82113">
        <ele>297.6</ele>
        <time>2021-06-16T12:03:14Z</time>
      </trkpt>
      <trkpt lat="47.11306" lon="5.82118">
        <ele>297.6</ele>
        <time>2021-06-16T12:03:15Z</time>
      </trkpt>
      <trkpt lat="47.11302" lon="5.82122">
        <ele>297.4</ele>
        <time>2021-06-16T12:03:16Z</time>
      </trkpt>
      <trkpt lat="47.11298" lon="5.82127">
        <ele>297.4</ele>
        <time>2021-06-16T12:03:17Z</time>
      </trkpt>
      <trkpt lat="47.11294" lon="5.82131">
        <ele>297.4</ele>
        <time>2021-06-16T12:03:18Z</time>
      </trkpt>
      <trkpt lat="47.1129" lon="5.82135">
        <ele>297.4</ele>
        <time>2021-06-16T12:03:19Z</time>
      </trkpt>
      <trkpt lat="47.11286" lon="5.8214">
        <ele>297.2</ele>
        <time>2021-06-16T12:03:20Z</time>
      </trkpt>
      <trkpt lat="47.11281" lon="5.82145">
        <ele>297.2</ele>
        <time>2021-06-16T12:03:21Z</time>
      </trkpt>
      <trkpt lat="47.11276" lon="5.8215">
        <ele>297</ele>
        <time>2021-06-16T12:03:22Z</time>
      </trkpt>
      <trkpt lat="47.11264" lon="5.82173">
        <ele>296.4</ele>
        <time>2021-06-16T12:03:25Z</time>
      </trkpt>
      <trkpt lat="47.11257" lon="5.82191">
        <ele>295.8</ele>
        <time>2021-06-16T12:03:27Z</time>
      </trkpt>
      <trkpt lat="47.11244" lon="5.82213">
        <ele>294.6</ele>
        <time>2021-06-16T12:03:29Z</time>
      </trkpt>
      <trkpt lat="47.11238" lon="5.82222">
        <ele>293</ele>
        <time>2021-06-16T12:03:30Z</time>
      </trkpt>
      <trkpt lat="47.11221" lon="5.82243">
        <ele>291.6</ele>
        <time>2021-06-16T12:03:32Z</time>
      </trkpt>
      <trkpt lat="47.11213" lon="5.82252">
        <ele>291</ele>
        <time>2021-06-16T12:03:33Z</time>
      </trkpt>
      <trkpt lat="47.11204" lon="5.8226">
        <ele>289.8</ele>
        <time>2021-06-16T12:03:34Z</time>
      </trkpt>
      <trkpt lat="47.11198" lon="5.82264">
        <ele>288.4</ele>
        <time>2021-06-16T12:03:35Z</time>
      </trkpt>
      <trkpt lat="47.11191" lon="5.82266">
        <ele>288.2</ele>
        <time>2021-06-16T12:03:36Z</time>
      </trkpt>
      <trkpt lat="47.11186" lon="5.82268">
        <ele>287.8</ele>
        <time>2021-06-16T12:03:37Z</time>
      </trkpt>
      <trkpt lat="47.1118" lon="5.8227">
        <ele>287.6</ele>
        <time>2021-06-16T12:03:38Z</time>
      </trkpt>
      <trkpt lat="47.11175" lon="5.82273">
        <ele>287.4</ele>
        <time>2021-06-16T12:03:39Z</time>
      </trkpt>
      <trkpt lat="47.11171" lon="5.82275">
        <ele>287.4</ele>
        <time>2021-06-16T12:03:40Z</time>
      </trkpt>
      <trkpt lat="47.11168" lon="5.82278">
        <ele>287.4</ele>
        <time>2021-06-16T12:03:41Z</time>
      </trkpt>
      <trkpt lat="47.11165" lon="5.8228">
        <ele>287.6</ele>
        <time>2021-06-16T12:03:42Z</time>
      </trkpt>
      <trkpt lat="47.11162" lon="5.82282">
        <ele>287.6</ele>
        <time>2021-06-16T12:03:43Z</time>
      </trkpt>
      <trkpt lat="47.11158" lon="5.82284">
        <ele>288.2</ele>
        <time>2021-06-16T12:03:44Z</time>
      </trkpt>
      <trkpt lat="47.11155" lon="5.82286">
        <ele>288.6</ele>
        <time>2021-06-16T12:03:45Z</time>
      </trkpt>
      <trkpt lat="47.11152" lon="5.82288">
        <ele>289.2</ele>
        <time>2021-06-16T12:03:46Z</time>
      </trkpt>
      <trkpt lat="47.11147" lon="5.82293">
        <ele>289.6</ele>
        <time>2021-06-16T12:03:48Z</time>
      </trkpt>
      <trkpt lat="47.11145" lon="5.82296">
        <ele>289.8</ele>
        <time>2021-06-16T12:03:49Z</time>
      </trkpt>
      <trkpt lat="47.11119" lon="5.82323">
        <ele>290</ele>
        <time>2021-06-16T12:03:58Z</time>
      </trkpt>
      <trkpt lat="47.11106" lon="5.82338">
        <ele>290.6</ele>
        <time>2021-06-16T12:04:03Z</time>
      </trkpt>
      <trkpt lat="47.11105" lon="5.82341">
        <ele>290.6</ele>
        <time>2021-06-16T12:04:04Z</time>
      </trkpt>
      <trkpt lat="47.11103" lon="5.82344">
        <ele>290.6</ele>
        <time>2021-06-16T12:04:05Z</time>
      </trkpt>
      <trkpt lat="47.11101" lon="5.82347">
        <ele>290.4</ele>
        <time>2021-06-16T12:04:06Z</time>
      </trkpt>
      <trkpt lat="47.11098" lon="5.82351">
        <ele>290.4</ele>
        <time>2021-06-16T12:04:07Z</time>
      </trkpt>
      <trkpt lat="47.11097" lon="5.82353">
        <ele>290.6</ele>
        <time>2021-06-16T12:04:08Z</time>
      </trkpt>
      <trkpt lat="47.11095" lon="5.82356">
        <ele>290.6</ele>
        <time>2021-06-16T12:04:09Z</time>
      </trkpt>
      <trkpt lat="47.11094" lon="5.82359">
        <ele>290.6</ele>
        <time>2021-06-16T12:04:10Z</time>
      </trkpt>
      <trkpt lat="47.11094" lon="5.82362">
        <ele>290.6</ele>
        <time>2021-06-16T12:04:11Z</time>
      </trkpt>
      <trkpt lat="47.11094" lon="5.82365">
        <ele>290.6</ele>
        <time>2021-06-16T12:04:12Z</time>
      </trkpt>
      <trkpt lat="47.11095" lon="5.82368">
        <ele>290.4</ele>
        <time>2021-06-16T12:04:13Z</time>
      </trkpt>
      <trkpt lat="47.11099" lon="5.82374">
        <ele>290.4</ele>
        <time>2021-06-16T12:04:15Z</time>
      </trkpt>
      <trkpt lat="47.111" lon="5.82377">
        <ele>290.2</ele>
        <time>2021-06-16T12:04:16Z</time>
      </trkpt>
      <trkpt lat="47.11102" lon="5.82381">
        <ele>290.2</ele>
        <time>2021-06-16T12:04:17Z</time>
      </trkpt>
      <trkpt lat="47.11115" lon="5.82401">
        <ele>289.8</ele>
        <time>2021-06-16T12:04:24Z</time>
      </trkpt>
      <trkpt lat="47.11128" lon="5.82421">
        <ele>289.8</ele>
        <time>2021-06-16T12:04:29Z</time>
      </trkpt>
      <trkpt lat="47.11131" lon="5.82425">
        <ele>289.8</ele>
        <time>2021-06-16T12:04:30Z</time>
      </trkpt>
      <trkpt lat="47.11142" lon="5.82434">
        <ele>289.6</ele>
        <time>2021-06-16T12:04:33Z</time>
      </trkpt>
      <trkpt lat="47.11146" lon="5.82439">
        <ele>289.6</ele>
        <time>2021-06-16T12:04:34Z</time>
      </trkpt>
      <trkpt lat="47.1115" lon="5.82443">
        <ele>289.6</ele>
        <time>2021-06-16T12:04:35Z</time>
      </trkpt>
      <trkpt lat="47.11153" lon="5.82446">
        <ele>289.6</ele>
        <time>2021-06-16T12:04:36Z</time>
      </trkpt>
      <trkpt lat="47.11156" lon="5.82448">
        <ele>289.6</ele>
        <time>2021-06-16T12:04:37Z</time>
      </trkpt>
      <trkpt lat="47.11177" lon="5.82466">
        <ele>290</ele>
        <time>2021-06-16T12:04:42Z</time>
      </trkpt>
      <trkpt lat="47.1119" lon="5.8248">
        <ele>290.6</ele>
        <time>2021-06-16T12:04:45Z</time>
      </trkpt>
      <trkpt lat="47.11199" lon="5.82489">
        <ele>290.8</ele>
        <time>2021-06-16T12:04:48Z</time>
      </trkpt>
      <trkpt lat="47.11206" lon="5.82494">
        <ele>290.8</ele>
        <time>2021-06-16T12:04:50Z</time>
      </trkpt>
      <trkpt lat="47.11208" lon="5.82496">
        <ele>291</ele>
        <time>2021-06-16T12:04:51Z</time>
      </trkpt>
      <trkpt lat="47.11211" lon="5.82497">
        <ele>291</ele>
        <time>2021-06-16T12:04:52Z</time>
      </trkpt>
      <trkpt lat="47.11214" lon="5.82499">
        <ele>291</ele>
        <time>2021-06-16T12:04:53Z</time>
      </trkpt>
      <trkpt lat="47.11218" lon="5.82501">
        <ele>291.2</ele>
        <time>2021-06-16T12:04:54Z</time>
      </trkpt>
      <trkpt lat="47.11221" lon="5.82502">
        <ele>291.2</ele>
        <time>2021-06-16T12:04:55Z</time>
      </trkpt>
      <trkpt lat="47.11223" lon="5.82503">
        <ele>291.2</ele>
        <time>2021-06-16T12:04:56Z</time>
      </trkpt>
      <trkpt lat="47.11226" lon="5.82504">
        <ele>291.2</ele>
        <time>2021-06-16T12:04:57Z</time>
      </trkpt>
      <trkpt lat="47.11228" lon="5.82506">
        <ele>291.2</ele>
        <time>2021-06-16T12:04:58Z</time>
      </trkpt>
      <trkpt lat="47.11231" lon="5.82507">
        <ele>291.4</ele>
        <time>2021-06-16T12:04:59Z</time>
      </trkpt>
      <trkpt lat="47.11233" lon="5.82508">
        <ele>291.4</ele>
        <time>2021-06-16T12:05:00Z</time>
      </trkpt>
      <trkpt lat="47.11236" lon="5.82509">
        <ele>291.6</ele>
        <time>2021-06-16T12:05:01Z</time>
      </trkpt>
      <trkpt lat="47.11239" lon="5.82511">
        <ele>291.8</ele>
        <time>2021-06-16T12:05:02Z</time>
      </trkpt>
      <trkpt lat="47.11242" lon="5.82512">
        <ele>291.8</ele>
        <time>2021-06-16T12:05:03Z</time>
      </trkpt>
      <trkpt lat="47.11245" lon="5.82513">
        <ele>292</ele>
        <time>2021-06-16T12:05:04Z</time>
      </trkpt>
      <trkpt lat="47.11249" lon="5.82514">
        <ele>292</ele>
        <time>2021-06-16T12:05:05Z</time>
      </trkpt>
      <trkpt lat="47.11252" lon="5.82515">
        <ele>292.2</ele>
        <time>2021-06-16T12:05:06Z</time>
      </trkpt>
      <trkpt lat="47.11255" lon="5.82515">
        <ele>292.2</ele>
        <time>2021-06-16T12:05:07Z</time>
      </trkpt>
      <trkpt lat="47.11262" lon="5.82517">
        <ele>292.4</ele>
        <time>2021-06-16T12:05:09Z</time>
      </trkpt>
      <trkpt lat="47.11265" lon="5.82518">
        <ele>292.4</ele>
        <time>2021-06-16T12:05:10Z</time>
      </trkpt>
      <trkpt lat="47.1127" lon="5.82519">
        <ele>292.8</ele>
        <time>2021-06-16T12:05:11Z</time>
      </trkpt>
      <trkpt lat="47.11284" lon="5.82524">
        <ele>293.4</ele>
        <time>2021-06-16T12:05:14Z</time>
      </trkpt>
      <trkpt lat="47.11294" lon="5.82527">
        <ele>293.4</ele>
        <time>2021-06-16T12:05:16Z</time>
      </trkpt>
      <trkpt lat="47.11304" lon="5.82528">
        <ele>293.4</ele>
        <time>2021-06-16T12:05:18Z</time>
      </trkpt>
      <trkpt lat="47.11308" lon="5.82529">
        <ele>293.6</ele>
        <time>2021-06-16T12:05:19Z</time>
      </trkpt>
      <trkpt lat="47.11312" lon="5.82531">
        <ele>293.6</ele>
        <time>2021-06-16T12:05:20Z</time>
      </trkpt>
      <trkpt lat="47.11316" lon="5.82531">
        <ele>293.8</ele>
        <time>2021-06-16T12:05:21Z</time>
      </trkpt>
      <trkpt lat="47.1132" lon="5.82532">
        <ele>293.8</ele>
        <time>2021-06-16T12:05:22Z</time>
      </trkpt>
      <trkpt lat="47.11324" lon="5.82532">
        <ele>294</ele>
        <time>2021-06-16T12:05:23Z</time>
      </trkpt>
      <trkpt lat="47.11328" lon="5.82533">
        <ele>294.2</ele>
        <time>2021-06-16T12:05:24Z</time>
      </trkpt>
      <trkpt lat="47.11333" lon="5.82533">
        <ele>294.2</ele>
        <time>2021-06-16T12:05:25Z</time>
      </trkpt>
      <trkpt lat="47.11337" lon="5.82533">
        <ele>294.4</ele>
        <time>2021-06-16T12:05:26Z</time>
      </trkpt>
      <trkpt lat="47.11342" lon="5.82534">
        <ele>294.4</ele>
        <time>2021-06-16T12:05:27Z</time>
      </trkpt>
      <trkpt lat="47.11346" lon="5.82534">
        <ele>294.4</ele>
        <time>2021-06-16T12:05:28Z</time>
      </trkpt>
      <trkpt lat="47.1135" lon="5.82536">
        <ele>294.4</ele>
        <time>2021-06-16T12:05:29Z</time>
      </trkpt>
      <trkpt lat="47.11354" lon="5.82537">
        <ele>294.4</ele>
        <time>2021-06-16T12:05:30Z</time>
      </trkpt>
      <trkpt lat="47.11356" lon="5.82536">
        <ele>294.4</ele>
        <time>2021-06-16T12:05:31Z</time>
      </trkpt>
      <trkpt lat="47.1136" lon="5.82536">
        <ele>294.6</ele>
        <time>2021-06-16T12:05:32Z</time>
      </trkpt>
      <trkpt lat="47.11364" lon="5.82535">
        <ele>294.8</ele>
        <time>2021-06-16T12:05:33Z</time>
      </trkpt>
      <trkpt lat="47.11374" lon="5.82536">
        <ele>294.8</ele>
        <time>2021-06-16T12:05:36Z</time>
      </trkpt>
      <trkpt lat="47.11377" lon="5.82537">
        <ele>294.8</ele>
        <time>2021-06-16T12:05:37Z</time>
      </trkpt>
      <trkpt lat="47.1138" lon="5.82538">
        <ele>295</ele>
        <time>2021-06-16T12:05:38Z</time>
      </trkpt>
      <trkpt lat="47.11385" lon="5.82538">
        <ele>295.2</ele>
        <time>2021-06-16T12:05:39Z</time>
      </trkpt>
      <trkpt lat="47.11388" lon="5.82536">
        <ele>295.4</ele>
        <time>2021-06-16T12:05:40Z</time>
      </trkpt>
      <trkpt lat="47.11391" lon="5.82539">
        <ele>295.4</ele>
        <time>2021-06-16T12:05:41Z</time>
      </trkpt>
      <trkpt lat="47.11394" lon="5.82539">
        <ele>295.6</ele>
        <time>2021-06-16T12:05:42Z</time>
      </trkpt>
      <trkpt lat="47.11396" lon="5.82539">
        <ele>296</ele>
        <time>2021-06-16T12:05:43Z</time>
      </trkpt>
      <trkpt lat="47.114" lon="5.8254">
        <ele>296</ele>
        <time>2021-06-16T12:05:44Z</time>
      </trkpt>
      <trkpt lat="47.11403" lon="5.82541">
        <ele>296.2</ele>
        <time>2021-06-16T12:05:45Z</time>
      </trkpt>
      <trkpt lat="47.11408" lon="5.82543">
        <ele>296.2</ele>
        <time>2021-06-16T12:05:47Z</time>
      </trkpt>
      <trkpt lat="47.11411" lon="5.82544">
        <ele>296.4</ele>
        <time>2021-06-16T12:05:48Z</time>
      </trkpt>
      <trkpt lat="47.11414" lon="5.82545">
        <ele>296.6</ele>
        <time>2021-06-16T12:05:49Z</time>
      </trkpt>
      <trkpt lat="47.11417" lon="5.82546">
        <ele>296.8</ele>
        <time>2021-06-16T12:05:50Z</time>
      </trkpt>
      <trkpt lat="47.1142" lon="5.82548">
        <ele>296.8</ele>
        <time>2021-06-16T12:05:51Z</time>
      </trkpt>
      <trkpt lat="47.11422" lon="5.82551">
        <ele>296.8</ele>
        <time>2021-06-16T12:05:52Z</time>
      </trkpt>
      <trkpt lat="47.11425" lon="5.82554">
        <ele>297</ele>
        <time>2021-06-16T12:05:53Z</time>
      </trkpt>
      <trkpt lat="47.11429" lon="5.82558">
        <ele>297</ele>
        <time>2021-06-16T12:05:54Z</time>
      </trkpt>
      <trkpt lat="47.11432" lon="5.82562">
        <ele>297.2</ele>
        <time>2021-06-16T12:05:55Z</time>
      </trkpt>
      <trkpt lat="47.11435" lon="5.82566">
        <ele>297.2</ele>
        <time>2021-06-16T12:05:56Z</time>
      </trkpt>
      <trkpt lat="47.11438" lon="5.82571">
        <ele>297.4</ele>
        <time>2021-06-16T12:05:57Z</time>
      </trkpt>
      <trkpt lat="47.1144" lon="5.82576">
        <ele>297.6</ele>
        <time>2021-06-16T12:05:58Z</time>
      </trkpt>
      <trkpt lat="47.11443" lon="5.82579">
        <ele>297.6</ele>
        <time>2021-06-16T12:05:59Z</time>
      </trkpt>
      <trkpt lat="47.11446" lon="5.82583">
        <ele>297.6</ele>
        <time>2021-06-16T12:06:00Z</time>
      </trkpt>
      <trkpt lat="47.11448" lon="5.82586">
        <ele>297.6</ele>
        <time>2021-06-16T12:06:01Z</time>
      </trkpt>
      <trkpt lat="47.11451" lon="5.82589">
        <ele>297.6</ele>
        <time>2021-06-16T12:06:02Z</time>
      </trkpt>
      <trkpt lat="47.11454" lon="5.82593">
        <ele>297.6</ele>
        <time>2021-06-16T12:06:03Z</time>
      </trkpt>
      <trkpt lat="47.11457" lon="5.82597">
        <ele>297.4</ele>
        <time>2021-06-16T12:06:04Z</time>
      </trkpt>
      <trkpt lat="47.1146" lon="5.82601">
        <ele>297.4</ele>
        <time>2021-06-16T12:06:05Z</time>
      </trkpt>
      <trkpt lat="47.1146" lon="5.82601">
        <ele>297.2</ele>
        <time>2021-06-16T12:06:06Z</time>
      </trkpt>
      <trkpt lat="47.11461" lon="5.82604">
        <ele>297</ele>
        <time>2021-06-16T12:06:09Z</time>
      </trkpt>
      <trkpt lat="47.11468" lon="5.8261">
        <ele>297</ele>
        <time>2021-06-16T12:06:20Z</time>
      </trkpt>
      <trkpt lat="47.1147" lon="5.82613">
        <ele>297</ele>
        <time>2021-06-16T12:06:21Z</time>
      </trkpt>
      <trkpt lat="47.11475" lon="5.82619">
        <ele>296.8</ele>
        <time>2021-06-16T12:06:23Z</time>
      </trkpt>
      <trkpt lat="47.11479" lon="5.82624">
        <ele>296.8</ele>
        <time>2021-06-16T12:06:25Z</time>
      </trkpt>
      <trkpt lat="47.1148" lon="5.82628">
        <ele>296.6</ele>
        <time>2021-06-16T12:06:27Z</time>
      </trkpt>
      <trkpt lat="47.11487" lon="5.82641">
        <ele>296.2</ele>
        <time>2021-06-16T12:06:31Z</time>
      </trkpt>
      <trkpt lat="47.11488" lon="5.82644">
        <ele>296.2</ele>
        <time>2021-06-16T12:06:32Z</time>
      </trkpt>
      <trkpt lat="47.11491" lon="5.82647">
        <ele>296.2</ele>
        <time>2021-06-16T12:06:33Z</time>
      </trkpt>
      <trkpt lat="47.11499" lon="5.82653">
        <ele>296.2</ele>
        <time>2021-06-16T12:06:36Z</time>
      </trkpt>
      <trkpt lat="47.1151" lon="5.8266">
        <ele>296</ele>
        <time>2021-06-16T12:06:39Z</time>
      </trkpt>
      <trkpt lat="47.11515" lon="5.82662">
        <ele>295.8</ele>
        <time>2021-06-16T12:06:40Z</time>
      </trkpt>
      <trkpt lat="47.11531" lon="5.82665">
        <ele>295.4</ele>
        <time>2021-06-16T12:06:44Z</time>
      </trkpt>
      <trkpt lat="47.11536" lon="5.82666">
        <ele>295.4</ele>
        <time>2021-06-16T12:06:45Z</time>
      </trkpt>
      <trkpt lat="47.1154" lon="5.82668">
        <ele>295.4</ele>
        <time>2021-06-16T12:06:46Z</time>
      </trkpt>
      <trkpt lat="47.1154" lon="5.82668">
        <ele>295.4</ele>
        <time>2021-06-16T12:06:47Z</time>
      </trkpt>
      <trkpt lat="47.11546" lon="5.8267">
        <ele>295.4</ele>
        <time>2021-06-16T12:06:48Z</time>
      </trkpt>
      <trkpt lat="47.1155" lon="5.82672">
        <ele>295.6</ele>
        <time>2021-06-16T12:06:49Z</time>
      </trkpt>
      <trkpt lat="47.11553" lon="5.82673">
        <ele>295.6</ele>
        <time>2021-06-16T12:06:50Z</time>
      </trkpt>
      <trkpt lat="47.11578" lon="5.82678">
        <ele>295.6</ele>
        <time>2021-06-16T12:06:55Z</time>
      </trkpt>
      <trkpt lat="47.11598" lon="5.82692">
        <ele>295</ele>
        <time>2021-06-16T12:06:59Z</time>
      </trkpt>
      <trkpt lat="47.11616" lon="5.82703">
        <ele>294.6</ele>
        <time>2021-06-16T12:07:02Z</time>
      </trkpt>
      <trkpt lat="47.11622" lon="5.82709">
        <ele>294.2</ele>
        <time>2021-06-16T12:07:03Z</time>
      </trkpt>
      <trkpt lat="47.11628" lon="5.82715">
        <ele>293.8</ele>
        <time>2021-06-16T12:07:04Z</time>
      </trkpt>
      <trkpt lat="47.11639" lon="5.82731">
        <ele>293.2</ele>
        <time>2021-06-16T12:07:06Z</time>
      </trkpt>
      <trkpt lat="47.11652" lon="5.8274">
        <ele>292.6</ele>
        <time>2021-06-16T12:07:08Z</time>
      </trkpt>
      <trkpt lat="47.1166" lon="5.82743">
        <ele>292.2</ele>
        <time>2021-06-16T12:07:09Z</time>
      </trkpt>
      <trkpt lat="47.11666" lon="5.82744">
        <ele>292.2</ele>
        <time>2021-06-16T12:07:10Z</time>
      </trkpt>
      <trkpt lat="47.11671" lon="5.82745">
        <ele>291.6</ele>
        <time>2021-06-16T12:07:11Z</time>
      </trkpt>
      <trkpt lat="47.11676" lon="5.82748">
        <ele>291.4</ele>
        <time>2021-06-16T12:07:12Z</time>
      </trkpt>
      <trkpt lat="47.11679" lon="5.82754">
        <ele>291.2</ele>
        <time>2021-06-16T12:07:13Z</time>
      </trkpt>
      <trkpt lat="47.11683" lon="5.82762">
        <ele>291</ele>
        <time>2021-06-16T12:07:14Z</time>
      </trkpt>
      <trkpt lat="47.11686" lon="5.82771">
        <ele>290.8</ele>
        <time>2021-06-16T12:07:15Z</time>
      </trkpt>
      <trkpt lat="47.11691" lon="5.8278">
        <ele>290.6</ele>
        <time>2021-06-16T12:07:16Z</time>
      </trkpt>
      <trkpt lat="47.11696" lon="5.82789">
        <ele>289.8</ele>
        <time>2021-06-16T12:07:17Z</time>
      </trkpt>
      <trkpt lat="47.11706" lon="5.82807">
        <ele>289.2</ele>
        <time>2021-06-16T12:07:19Z</time>
      </trkpt>
      <trkpt lat="47.11711" lon="5.82815">
        <ele>289.2</ele>
        <time>2021-06-16T12:07:20Z</time>
      </trkpt>
      <trkpt lat="47.11717" lon="5.82824">
        <ele>288.8</ele>
        <time>2021-06-16T12:07:21Z</time>
      </trkpt>
      <trkpt lat="47.11723" lon="5.82833">
        <ele>288.4</ele>
        <time>2021-06-16T12:07:22Z</time>
      </trkpt>
      <trkpt lat="47.11729" lon="5.82839">
        <ele>287.6</ele>
        <time>2021-06-16T12:07:23Z</time>
      </trkpt>
      <trkpt lat="47.11743" lon="5.82854">
        <ele>286.2</ele>
        <time>2021-06-16T12:07:25Z</time>
      </trkpt>
      <trkpt lat="47.11751" lon="5.82861">
        <ele>285</ele>
        <time>2021-06-16T12:07:26Z</time>
      </trkpt>
      <trkpt lat="47.11768" lon="5.82878">
        <ele>283.8</ele>
        <time>2021-06-16T12:07:28Z</time>
      </trkpt>
      <trkpt lat="47.11783" lon="5.82896">
        <ele>282.8</ele>
        <time>2021-06-16T12:07:30Z</time>
      </trkpt>
      <trkpt lat="47.11791" lon="5.82904">
        <ele>281.8</ele>
        <time>2021-06-16T12:07:31Z</time>
      </trkpt>
      <trkpt lat="47.11797" lon="5.82912">
        <ele>281.4</ele>
        <time>2021-06-16T12:07:32Z</time>
      </trkpt>
      <trkpt lat="47.11801" lon="5.82922">
        <ele>281.2</ele>
        <time>2021-06-16T12:07:33Z</time>
      </trkpt>
      <trkpt lat="47.11806" lon="5.82932">
        <ele>280.6</ele>
        <time>2021-06-16T12:07:34Z</time>
      </trkpt>
      <trkpt lat="47.11812" lon="5.82941">
        <ele>279.8</ele>
        <time>2021-06-16T12:07:35Z</time>
      </trkpt>
      <trkpt lat="47.1182" lon="5.8295">
        <ele>278.2</ele>
        <time>2021-06-16T12:07:36Z</time>
      </trkpt>
      <trkpt lat="47.11834" lon="5.8296">
        <ele>276.6</ele>
        <time>2021-06-16T12:07:38Z</time>
      </trkpt>
      <trkpt lat="47.11842" lon="5.82965">
        <ele>276.2</ele>
        <time>2021-06-16T12:07:39Z</time>
      </trkpt>
      <trkpt lat="47.1185" lon="5.82968">
        <ele>275.4</ele>
        <time>2021-06-16T12:07:40Z</time>
      </trkpt>
      <trkpt lat="47.11858" lon="5.8297">
        <ele>275</ele>
        <time>2021-06-16T12:07:41Z</time>
      </trkpt>
      <trkpt lat="47.11867" lon="5.82971">
        <ele>274.8</ele>
        <time>2021-06-16T12:07:42Z</time>
      </trkpt>
      <trkpt lat="47.11882" lon="5.82973">
        <ele>274.4</ele>
        <time>2021-06-16T12:07:44Z</time>
      </trkpt>
      <trkpt lat="47.11891" lon="5.82976">
        <ele>274.4</ele>
        <time>2021-06-16T12:07:45Z</time>
      </trkpt>
      <trkpt lat="47.11898" lon="5.8298">
        <ele>274.2</ele>
        <time>2021-06-16T12:07:46Z</time>
      </trkpt>
      <trkpt lat="47.11906" lon="5.82985">
        <ele>274</ele>
        <time>2021-06-16T12:07:47Z</time>
      </trkpt>
      <trkpt lat="47.11913" lon="5.82991">
        <ele>273.8</ele>
        <time>2021-06-16T12:07:48Z</time>
      </trkpt>
      <trkpt lat="47.11918" lon="5.82997">
        <ele>273.6</ele>
        <time>2021-06-16T12:07:49Z</time>
      </trkpt>
      <trkpt lat="47.11924" lon="5.83006">
        <ele>273.2</ele>
        <time>2021-06-16T12:07:50Z</time>
      </trkpt>
      <trkpt lat="47.11931" lon="5.83015">
        <ele>272.8</ele>
        <time>2021-06-16T12:07:51Z</time>
      </trkpt>
      <trkpt lat="47.11936" lon="5.83021">
        <ele>272.2</ele>
        <time>2021-06-16T12:07:52Z</time>
      </trkpt>
      <trkpt lat="47.11941" lon="5.83024">
        <ele>272</ele>
        <time>2021-06-16T12:07:53Z</time>
      </trkpt>
      <trkpt lat="47.11947" lon="5.83026">
        <ele>271.8</ele>
        <time>2021-06-16T12:07:54Z</time>
      </trkpt>
      <trkpt lat="47.11951" lon="5.83027">
        <ele>271.6</ele>
        <time>2021-06-16T12:07:55Z</time>
      </trkpt>
      <trkpt lat="47.11957" lon="5.83028">
        <ele>271.4</ele>
        <time>2021-06-16T12:07:56Z</time>
      </trkpt>
      <trkpt lat="47.11963" lon="5.8303">
        <ele>271.6</ele>
        <time>2021-06-16T12:07:57Z</time>
      </trkpt>
      <trkpt lat="47.11967" lon="5.83032">
        <ele>271.6</ele>
        <time>2021-06-16T12:07:58Z</time>
      </trkpt>
      <trkpt lat="47.1197" lon="5.83033">
        <ele>272</ele>
        <time>2021-06-16T12:07:59Z</time>
      </trkpt>
      <trkpt lat="47.11976" lon="5.83035">
        <ele>272.2</ele>
        <time>2021-06-16T12:08:00Z</time>
      </trkpt>
      <trkpt lat="47.1199" lon="5.83045">
        <ele>272.8</ele>
        <time>2021-06-16T12:08:03Z</time>
      </trkpt>
      <trkpt lat="47.11994" lon="5.83049">
        <ele>272.8</ele>
        <time>2021-06-16T12:08:04Z</time>
      </trkpt>
      <trkpt lat="47.11999" lon="5.83053">
        <ele>273</ele>
        <time>2021-06-16T12:08:05Z</time>
      </trkpt>
      <trkpt lat="47.12003" lon="5.83057">
        <ele>273</ele>
        <time>2021-06-16T12:08:06Z</time>
      </trkpt>
      <trkpt lat="47.12007" lon="5.83061">
        <ele>273</ele>
        <time>2021-06-16T12:08:07Z</time>
      </trkpt>
      <trkpt lat="47.12012" lon="5.83065">
        <ele>273</ele>
        <time>2021-06-16T12:08:08Z</time>
      </trkpt>
      <trkpt lat="47.12017" lon="5.8307">
        <ele>273</ele>
        <time>2021-06-16T12:08:09Z</time>
      </trkpt>
      <trkpt lat="47.12032" lon="5.83092">
        <ele>273</ele>
        <time>2021-06-16T12:08:13Z</time>
      </trkpt>
      <trkpt lat="47.1204" lon="5.831">
        <ele>272.4</ele>
        <time>2021-06-16T12:08:15Z</time>
      </trkpt>
      <trkpt lat="47.12052" lon="5.83111">
        <ele>271.8</ele>
        <time>2021-06-16T12:08:17Z</time>
      </trkpt>
      <trkpt lat="47.12061" lon="5.83117">
        <ele>271.4</ele>
        <time>2021-06-16T12:08:19Z</time>
      </trkpt>
      <trkpt lat="47.12067" lon="5.8312">
        <ele>271.2</ele>
        <time>2021-06-16T12:08:20Z</time>
      </trkpt>
      <trkpt lat="47.12071" lon="5.83124">
        <ele>271</ele>
        <time>2021-06-16T12:08:21Z</time>
      </trkpt>
      <trkpt lat="47.12074" lon="5.83131">
        <ele>270.4</ele>
        <time>2021-06-16T12:08:22Z</time>
      </trkpt>
      <trkpt lat="47.12079" lon="5.83138">
        <ele>269.8</ele>
        <time>2021-06-16T12:08:23Z</time>
      </trkpt>
      <trkpt lat="47.12085" lon="5.83143">
        <ele>269.6</ele>
        <time>2021-06-16T12:08:24Z</time>
      </trkpt>
      <trkpt lat="47.12091" lon="5.83147">
        <ele>269.4</ele>
        <time>2021-06-16T12:08:25Z</time>
      </trkpt>
      <trkpt lat="47.12096" lon="5.83151">
        <ele>269.2</ele>
        <time>2021-06-16T12:08:26Z</time>
      </trkpt>
      <trkpt lat="47.12105" lon="5.83162">
        <ele>269</ele>
        <time>2021-06-16T12:08:28Z</time>
      </trkpt>
      <trkpt lat="47.12108" lon="5.83166">
        <ele>268.8</ele>
        <time>2021-06-16T12:08:29Z</time>
      </trkpt>
      <trkpt lat="47.1211" lon="5.83169">
        <ele>268.6</ele>
        <time>2021-06-16T12:08:30Z</time>
      </trkpt>
      <trkpt lat="47.1211" lon="5.83171">
        <ele>268.2</ele>
        <time>2021-06-16T12:08:31Z</time>
      </trkpt>
      <trkpt lat="47.1211" lon="5.83172">
        <ele>268</ele>
        <time>2021-06-16T12:08:32Z</time>
      </trkpt>
      <trkpt lat="47.1211" lon="5.83172">
        <ele>267.4</ele>
        <time>2021-06-16T12:08:40Z</time>
      </trkpt>
      <trkpt lat="47.1211" lon="5.83174">
        <ele>267.4</ele>
        <time>2021-06-16T12:09:33Z</time>
      </trkpt>
      <trkpt lat="47.12109" lon="5.83176">
        <ele>267.4</ele>
        <time>2021-06-16T12:09:34Z</time>
      </trkpt>
      <trkpt lat="47.12108" lon="5.83178">
        <ele>267.4</ele>
        <time>2021-06-16T12:09:35Z</time>
      </trkpt>
      <trkpt lat="47.12106" lon="5.83184">
        <ele>267.2</ele>
        <time>2021-06-16T12:09:37Z</time>
      </trkpt>
      <trkpt lat="47.12105" lon="5.83187">
        <ele>267.2</ele>
        <time>2021-06-16T12:09:38Z</time>
      </trkpt>
      <trkpt lat="47.12103" lon="5.83193">
        <ele>267.2</ele>
        <time>2021-06-16T12:09:40Z</time>
      </trkpt>
      <trkpt lat="47.12097" lon="5.83208">
        <ele>267</ele>
        <time>2021-06-16T12:09:44Z</time>
      </trkpt>
      <trkpt lat="47.12093" lon="5.8322">
        <ele>267.2</ele>
        <time>2021-06-16T12:09:47Z</time>
      </trkpt>
      <trkpt lat="47.12085" lon="5.83261">
        <ele>267.4</ele>
        <time>2021-06-16T12:09:56Z</time>
      </trkpt>
      <trkpt lat="47.12077" lon="5.83305">
        <ele>268</ele>
        <time>2021-06-16T12:10:05Z</time>
      </trkpt>
      <trkpt lat="47.12075" lon="5.83314">
        <ele>268.4</ele>
        <time>2021-06-16T12:10:07Z</time>
      </trkpt>
      <trkpt lat="47.1207" lon="5.83333">
        <ele>269</ele>
        <time>2021-06-16T12:10:11Z</time>
      </trkpt>
      <trkpt lat="47.12069" lon="5.83337">
        <ele>269.2</ele>
        <time>2021-06-16T12:10:12Z</time>
      </trkpt>
      <trkpt lat="47.12066" lon="5.83346">
        <ele>269.6</ele>
        <time>2021-06-16T12:10:14Z</time>
      </trkpt>
      <trkpt lat="47.12065" lon="5.83351">
        <ele>269.6</ele>
        <time>2021-06-16T12:10:15Z</time>
      </trkpt>
      <trkpt lat="47.12064" lon="5.83355">
        <ele>269.8</ele>
        <time>2021-06-16T12:10:16Z</time>
      </trkpt>
      <trkpt lat="47.12062" lon="5.83359">
        <ele>270</ele>
        <time>2021-06-16T12:10:17Z</time>
      </trkpt>
      <trkpt lat="47.1206" lon="5.83362">
        <ele>270.2</ele>
        <time>2021-06-16T12:10:18Z</time>
      </trkpt>
      <trkpt lat="47.12058" lon="5.83366">
        <ele>270.2</ele>
        <time>2021-06-16T12:10:19Z</time>
      </trkpt>
      <trkpt lat="47.12056" lon="5.8337">
        <ele>270.4</ele>
        <time>2021-06-16T12:10:20Z</time>
      </trkpt>
      <trkpt lat="47.12054" lon="5.83373">
        <ele>270.4</ele>
        <time>2021-06-16T12:10:21Z</time>
      </trkpt>
      <trkpt lat="47.12052" lon="5.83376">
        <ele>270.6</ele>
        <time>2021-06-16T12:10:22Z</time>
      </trkpt>
      <trkpt lat="47.12049" lon="5.83379">
        <ele>270.6</ele>
        <time>2021-06-16T12:10:23Z</time>
      </trkpt>
      <trkpt lat="47.12047" lon="5.83382">
        <ele>270.8</ele>
        <time>2021-06-16T12:10:24Z</time>
      </trkpt>
      <trkpt lat="47.12044" lon="5.83384">
        <ele>270.8</ele>
        <time>2021-06-16T12:10:25Z</time>
      </trkpt>
      <trkpt lat="47.12042" lon="5.83386">
        <ele>271</ele>
        <time>2021-06-16T12:10:26Z</time>
      </trkpt>
      <trkpt lat="47.12039" lon="5.83389">
        <ele>271.2</ele>
        <time>2021-06-16T12:10:27Z</time>
      </trkpt>
      <trkpt lat="47.12036" lon="5.83391">
        <ele>271.2</ele>
        <time>2021-06-16T12:10:28Z</time>
      </trkpt>
      <trkpt lat="47.12033" lon="5.83392">
        <ele>271.4</ele>
        <time>2021-06-16T12:10:29Z</time>
      </trkpt>
      <trkpt lat="47.1203" lon="5.83394">
        <ele>271.4</ele>
        <time>2021-06-16T12:10:30Z</time>
      </trkpt>
      <trkpt lat="47.12027" lon="5.83396">
        <ele>271.6</ele>
        <time>2021-06-16T12:10:31Z</time>
      </trkpt>
      <trkpt lat="47.12023" lon="5.83398">
        <ele>271.6</ele>
        <time>2021-06-16T12:10:32Z</time>
      </trkpt>
      <trkpt lat="47.1202" lon="5.83399">
        <ele>271.8</ele>
        <time>2021-06-16T12:10:33Z</time>
      </trkpt>
      <trkpt lat="47.12016" lon="5.83401">
        <ele>271.8</ele>
        <time>2021-06-16T12:10:34Z</time>
      </trkpt>
      <trkpt lat="47.12014" lon="5.83402">
        <ele>272</ele>
        <time>2021-06-16T12:10:35Z</time>
      </trkpt>
      <trkpt lat="47.1201" lon="5.83404">
        <ele>272.2</ele>
        <time>2021-06-16T12:10:36Z</time>
      </trkpt>
      <trkpt lat="47.12007" lon="5.83405">
        <ele>272.2</ele>
        <time>2021-06-16T12:10:37Z</time>
      </trkpt>
      <trkpt lat="47.12004" lon="5.83407">
        <ele>272.4</ele>
        <time>2021-06-16T12:10:38Z</time>
      </trkpt>
      <trkpt lat="47.12" lon="5.83408">
        <ele>272.6</ele>
        <time>2021-06-16T12:10:39Z</time>
      </trkpt>
      <trkpt lat="47.11997" lon="5.8341">
        <ele>272.8</ele>
        <time>2021-06-16T12:10:40Z</time>
      </trkpt>
      <trkpt lat="47.11993" lon="5.83411">
        <ele>272.8</ele>
        <time>2021-06-16T12:10:41Z</time>
      </trkpt>
      <trkpt lat="47.1199" lon="5.83412">
        <ele>273.2</ele>
        <time>2021-06-16T12:10:42Z</time>
      </trkpt>
      <trkpt lat="47.11987" lon="5.83414">
        <ele>273.4</ele>
        <time>2021-06-16T12:10:43Z</time>
      </trkpt>
      <trkpt lat="47.11984" lon="5.83415">
        <ele>273.4</ele>
        <time>2021-06-16T12:10:44Z</time>
      </trkpt>
      <trkpt lat="47.1198" lon="5.83416">
        <ele>273.6</ele>
        <time>2021-06-16T12:10:45Z</time>
      </trkpt>
      <trkpt lat="47.11977" lon="5.83418">
        <ele>273.6</ele>
        <time>2021-06-16T12:10:46Z</time>
      </trkpt>
      <trkpt lat="47.11974" lon="5.83419">
        <ele>273.8</ele>
        <time>2021-06-16T12:10:47Z</time>
      </trkpt>
      <trkpt lat="47.11971" lon="5.8342">
        <ele>274</ele>
        <time>2021-06-16T12:10:48Z</time>
      </trkpt>
      <trkpt lat="47.11967" lon="5.83421">
        <ele>274</ele>
        <time>2021-06-16T12:10:49Z</time>
      </trkpt>
      <trkpt lat="47.11964" lon="5.83423">
        <ele>274.2</ele>
        <time>2021-06-16T12:10:50Z</time>
      </trkpt>
      <trkpt lat="47.11961" lon="5.83424">
        <ele>274.2</ele>
        <time>2021-06-16T12:10:51Z</time>
      </trkpt>
      <trkpt lat="47.11959" lon="5.83426">
        <ele>274.6</ele>
        <time>2021-06-16T12:10:52Z</time>
      </trkpt>
      <trkpt lat="47.11956" lon="5.83427">
        <ele>274.6</ele>
        <time>2021-06-16T12:10:53Z</time>
      </trkpt>
      <trkpt lat="47.11953" lon="5.83428">
        <ele>274.8</ele>
        <time>2021-06-16T12:10:54Z</time>
      </trkpt>
      <trkpt lat="47.1195" lon="5.83429">
        <ele>275</ele>
        <time>2021-06-16T12:10:55Z</time>
      </trkpt>
      <trkpt lat="47.11947" lon="5.8343">
        <ele>275</ele>
        <time>2021-06-16T12:10:56Z</time>
      </trkpt>
      <trkpt lat="47.11944" lon="5.83431">
        <ele>275.2</ele>
        <time>2021-06-16T12:10:57Z</time>
      </trkpt>
      <trkpt lat="47.11942" lon="5.83432">
        <ele>275.6</ele>
        <time>2021-06-16T12:10:58Z</time>
      </trkpt>
      <trkpt lat="47.11939" lon="5.83433">
        <ele>275.8</ele>
        <time>2021-06-16T12:10:59Z</time>
      </trkpt>
      <trkpt lat="47.11936" lon="5.83434">
        <ele>276</ele>
        <time>2021-06-16T12:11:00Z</time>
      </trkpt>
      <trkpt lat="47.11933" lon="5.83435">
        <ele>276.2</ele>
        <time>2021-06-16T12:11:01Z</time>
      </trkpt>
      <trkpt lat="47.1193" lon="5.83436">
        <ele>276.4</ele>
        <time>2021-06-16T12:11:02Z</time>
      </trkpt>
      <trkpt lat="47.11927" lon="5.83437">
        <ele>276.4</ele>
        <time>2021-06-16T12:11:03Z</time>
      </trkpt>
      <trkpt lat="47.11924" lon="5.83437">
        <ele>276.8</ele>
        <time>2021-06-16T12:11:04Z</time>
      </trkpt>
      <trkpt lat="47.11921" lon="5.83438">
        <ele>276.8</ele>
        <time>2021-06-16T12:11:05Z</time>
      </trkpt>
      <trkpt lat="47.11918" lon="5.83438">
        <ele>277</ele>
        <time>2021-06-16T12:11:06Z</time>
      </trkpt>
      <trkpt lat="47.11915" lon="5.83438">
        <ele>277.2</ele>
        <time>2021-06-16T12:11:07Z</time>
      </trkpt>
      <trkpt lat="47.11912" lon="5.83438">
        <ele>277.4</ele>
        <time>2021-06-16T12:11:08Z</time>
      </trkpt>
      <trkpt lat="47.1191" lon="5.83438">
        <ele>277.6</ele>
        <time>2021-06-16T12:11:09Z</time>
      </trkpt>
      <trkpt lat="47.11907" lon="5.83438">
        <ele>277.6</ele>
        <time>2021-06-16T12:11:10Z</time>
      </trkpt>
      <trkpt lat="47.11904" lon="5.83438">
        <ele>277.6</ele>
        <time>2021-06-16T12:11:11Z</time>
      </trkpt>
      <trkpt lat="47.11901" lon="5.83438">
        <ele>277.8</ele>
        <time>2021-06-16T12:11:12Z</time>
      </trkpt>
      <trkpt lat="47.11898" lon="5.83437">
        <ele>278</ele>
        <time>2021-06-16T12:11:13Z</time>
      </trkpt>
      <trkpt lat="47.11895" lon="5.83437">
        <ele>278.2</ele>
        <time>2021-06-16T12:11:14Z</time>
      </trkpt>
      <trkpt lat="47.11892" lon="5.83437">
        <ele>278.2</ele>
        <time>2021-06-16T12:11:15Z</time>
      </trkpt>
      <trkpt lat="47.11889" lon="5.83437">
        <ele>278.2</ele>
        <time>2021-06-16T12:11:16Z</time>
      </trkpt>
      <trkpt lat="47.11887" lon="5.83436">
        <ele>278.4</ele>
        <time>2021-06-16T12:11:17Z</time>
      </trkpt>
      <trkpt lat="47.11884" lon="5.83436">
        <ele>278.6</ele>
        <time>2021-06-16T12:11:18Z</time>
      </trkpt>
      <trkpt lat="47.11881" lon="5.83436">
        <ele>278.8</ele>
        <time>2021-06-16T12:11:19Z</time>
      </trkpt>
      <trkpt lat="47.11879" lon="5.83435">
        <ele>279</ele>
        <time>2021-06-16T12:11:20Z</time>
      </trkpt>
      <trkpt lat="47.11876" lon="5.83434">
        <ele>279</ele>
        <time>2021-06-16T12:11:21Z</time>
      </trkpt>
      <trkpt lat="47.11874" lon="5.83434">
        <ele>279.2</ele>
        <time>2021-06-16T12:11:22Z</time>
      </trkpt>
      <trkpt lat="47.11871" lon="5.83432">
        <ele>279.4</ele>
        <time>2021-06-16T12:11:23Z</time>
      </trkpt>
      <trkpt lat="47.11869" lon="5.83432">
        <ele>279.6</ele>
        <time>2021-06-16T12:11:24Z</time>
      </trkpt>
      <trkpt lat="47.11866" lon="5.83431">
        <ele>279.8</ele>
        <time>2021-06-16T12:11:25Z</time>
      </trkpt>
      <trkpt lat="47.11863" lon="5.8343">
        <ele>280.2</ele>
        <time>2021-06-16T12:11:26Z</time>
      </trkpt>
      <trkpt lat="47.11861" lon="5.83429">
        <ele>280.2</ele>
        <time>2021-06-16T12:11:27Z</time>
      </trkpt>
      <trkpt lat="47.11858" lon="5.83428">
        <ele>280.4</ele>
        <time>2021-06-16T12:11:28Z</time>
      </trkpt>
      <trkpt lat="47.11856" lon="5.83428">
        <ele>280.4</ele>
        <time>2021-06-16T12:11:29Z</time>
      </trkpt>
      <trkpt lat="47.11854" lon="5.83428">
        <ele>280.8</ele>
        <time>2021-06-16T12:11:30Z</time>
      </trkpt>
      <trkpt lat="47.11852" lon="5.83427">
        <ele>280.8</ele>
        <time>2021-06-16T12:11:31Z</time>
      </trkpt>
      <trkpt lat="47.1185" lon="5.83427">
        <ele>281</ele>
        <time>2021-06-16T12:11:32Z</time>
      </trkpt>
      <trkpt lat="47.11847" lon="5.83427">
        <ele>281.2</ele>
        <time>2021-06-16T12:11:33Z</time>
      </trkpt>
      <trkpt lat="47.11845" lon="5.83426">
        <ele>281.2</ele>
        <time>2021-06-16T12:11:34Z</time>
      </trkpt>
      <trkpt lat="47.11842" lon="5.83425">
        <ele>281.4</ele>
        <time>2021-06-16T12:11:35Z</time>
      </trkpt>
      <trkpt lat="47.11839" lon="5.83425">
        <ele>281.4</ele>
        <time>2021-06-16T12:11:36Z</time>
      </trkpt>
      <trkpt lat="47.11836" lon="5.83424">
        <ele>281.2</ele>
        <time>2021-06-16T12:11:37Z</time>
      </trkpt>
      <trkpt lat="47.11834" lon="5.83424">
        <ele>281.4</ele>
        <time>2021-06-16T12:11:38Z</time>
      </trkpt>
      <trkpt lat="47.11831" lon="5.83423">
        <ele>281.4</ele>
        <time>2021-06-16T12:11:39Z</time>
      </trkpt>
      <trkpt lat="47.11827" lon="5.83422">
        <ele>281.6</ele>
        <time>2021-06-16T12:11:40Z</time>
      </trkpt>
      <trkpt lat="47.11824" lon="5.83421">
        <ele>281.6</ele>
        <time>2021-06-16T12:11:41Z</time>
      </trkpt>
      <trkpt lat="47.11822" lon="5.83421">
        <ele>281.8</ele>
        <time>2021-06-16T12:11:42Z</time>
      </trkpt>
      <trkpt lat="47.1182" lon="5.8342">
        <ele>281.8</ele>
        <time>2021-06-16T12:11:43Z</time>
      </trkpt>
      <trkpt lat="47.11817" lon="5.83419">
        <ele>281.8</ele>
        <time>2021-06-16T12:11:44Z</time>
      </trkpt>
      <trkpt lat="47.11814" lon="5.83418">
        <ele>282.2</ele>
        <time>2021-06-16T12:11:45Z</time>
      </trkpt>
      <trkpt lat="47.11812" lon="5.83417">
        <ele>282.4</ele>
        <time>2021-06-16T12:11:46Z</time>
      </trkpt>
      <trkpt lat="47.11809" lon="5.83416">
        <ele>282.6</ele>
        <time>2021-06-16T12:11:47Z</time>
      </trkpt>
      <trkpt lat="47.11806" lon="5.83416">
        <ele>282.8</ele>
        <time>2021-06-16T12:11:48Z</time>
      </trkpt>
      <trkpt lat="47.11803" lon="5.83415">
        <ele>282.8</ele>
        <time>2021-06-16T12:11:49Z</time>
      </trkpt>
      <trkpt lat="47.118" lon="5.83415">
        <ele>283</ele>
        <time>2021-06-16T12:11:50Z</time>
      </trkpt>
      <trkpt lat="47.11798" lon="5.83414">
        <ele>283.2</ele>
        <time>2021-06-16T12:11:51Z</time>
      </trkpt>
      <trkpt lat="47.11795" lon="5.83414">
        <ele>283.4</ele>
        <time>2021-06-16T12:11:52Z</time>
      </trkpt>
      <trkpt lat="47.11792" lon="5.83413">
        <ele>283.4</ele>
        <time>2021-06-16T12:11:53Z</time>
      </trkpt>
      <trkpt lat="47.11789" lon="5.83414">
        <ele>283.6</ele>
        <time>2021-06-16T12:11:54Z</time>
      </trkpt>
      <trkpt lat="47.11786" lon="5.83413">
        <ele>283.8</ele>
        <time>2021-06-16T12:11:55Z</time>
      </trkpt>
      <trkpt lat="47.11784" lon="5.83413">
        <ele>284</ele>
        <time>2021-06-16T12:11:56Z</time>
      </trkpt>
      <trkpt lat="47.11782" lon="5.83414">
        <ele>284.4</ele>
        <time>2021-06-16T12:11:57Z</time>
      </trkpt>
      <trkpt lat="47.1178" lon="5.83414">
        <ele>284.4</ele>
        <time>2021-06-16T12:11:58Z</time>
      </trkpt>
      <trkpt lat="47.11778" lon="5.83413">
        <ele>284.6</ele>
        <time>2021-06-16T12:11:59Z</time>
      </trkpt>
      <trkpt lat="47.11775" lon="5.83413">
        <ele>284.6</ele>
        <time>2021-06-16T12:12:00Z</time>
      </trkpt>
      <trkpt lat="47.11772" lon="5.83412">
        <ele>284.8</ele>
        <time>2021-06-16T12:12:01Z</time>
      </trkpt>
      <trkpt lat="47.11769" lon="5.83412">
        <ele>285</ele>
        <time>2021-06-16T12:12:02Z</time>
      </trkpt>
      <trkpt lat="47.11766" lon="5.83411">
        <ele>285.2</ele>
        <time>2021-06-16T12:12:03Z</time>
      </trkpt>
      <trkpt lat="47.11763" lon="5.8341">
        <ele>285.6</ele>
        <time>2021-06-16T12:12:04Z</time>
      </trkpt>
      <trkpt lat="47.11761" lon="5.8341">
        <ele>285.6</ele>
        <time>2021-06-16T12:12:05Z</time>
      </trkpt>
      <trkpt lat="47.11758" lon="5.8341">
        <ele>285.8</ele>
        <time>2021-06-16T12:12:06Z</time>
      </trkpt>
      <trkpt lat="47.11755" lon="5.83409">
        <ele>285.8</ele>
        <time>2021-06-16T12:12:07Z</time>
      </trkpt>
      <trkpt lat="47.11751" lon="5.83408">
        <ele>286</ele>
        <time>2021-06-16T12:12:08Z</time>
      </trkpt>
      <trkpt lat="47.11748" lon="5.83408">
        <ele>286</ele>
        <time>2021-06-16T12:12:09Z</time>
      </trkpt>
      <trkpt lat="47.11745" lon="5.83408">
        <ele>286</ele>
        <time>2021-06-16T12:12:10Z</time>
      </trkpt>
      <trkpt lat="47.11742" lon="5.83408">
        <ele>286.2</ele>
        <time>2021-06-16T12:12:11Z</time>
      </trkpt>
      <trkpt lat="47.11739" lon="5.83408">
        <ele>286.2</ele>
        <time>2021-06-16T12:12:12Z</time>
      </trkpt>
      <trkpt lat="47.11736" lon="5.83408">
        <ele>286.4</ele>
        <time>2021-06-16T12:12:13Z</time>
      </trkpt>
      <trkpt lat="47.11733" lon="5.83408">
        <ele>286.4</ele>
        <time>2021-06-16T12:12:14Z</time>
      </trkpt>
      <trkpt lat="47.11731" lon="5.83408">
        <ele>286.6</ele>
        <time>2021-06-16T12:12:15Z</time>
      </trkpt>
      <trkpt lat="47.11728" lon="5.83408">
        <ele>286.8</ele>
        <time>2021-06-16T12:12:16Z</time>
      </trkpt>
      <trkpt lat="47.11725" lon="5.83409">
        <ele>286.8</ele>
        <time>2021-06-16T12:12:17Z</time>
      </trkpt>
      <trkpt lat="47.11722" lon="5.83408">
        <ele>287</ele>
        <time>2021-06-16T12:12:18Z</time>
      </trkpt>
      <trkpt lat="47.11719" lon="5.83407">
        <ele>287.4</ele>
        <time>2021-06-16T12:12:19Z</time>
      </trkpt>
      <trkpt lat="47.11715" lon="5.83406">
        <ele>287.8</ele>
        <time>2021-06-16T12:12:20Z</time>
      </trkpt>
      <trkpt lat="47.11712" lon="5.83405">
        <ele>288.2</ele>
        <time>2021-06-16T12:12:21Z</time>
      </trkpt>
      <trkpt lat="47.11709" lon="5.83405">
        <ele>288.2</ele>
        <time>2021-06-16T12:12:22Z</time>
      </trkpt>
      <trkpt lat="47.11705" lon="5.83405">
        <ele>288.4</ele>
        <time>2021-06-16T12:12:23Z</time>
      </trkpt>
      <trkpt lat="47.11702" lon="5.83404">
        <ele>288.6</ele>
        <time>2021-06-16T12:12:24Z</time>
      </trkpt>
      <trkpt lat="47.11699" lon="5.83403">
        <ele>288.6</ele>
        <time>2021-06-16T12:12:25Z</time>
      </trkpt>
      <trkpt lat="47.11695" lon="5.83401">
        <ele>289</ele>
        <time>2021-06-16T12:12:26Z</time>
      </trkpt>
      <trkpt lat="47.11692" lon="5.83401">
        <ele>289</ele>
        <time>2021-06-16T12:12:27Z</time>
      </trkpt>
      <trkpt lat="47.11689" lon="5.83401">
        <ele>289</ele>
        <time>2021-06-16T12:12:28Z</time>
      </trkpt>
      <trkpt lat="47.11685" lon="5.834">
        <ele>289.2</ele>
        <time>2021-06-16T12:12:29Z</time>
      </trkpt>
      <trkpt lat="47.11682" lon="5.834">
        <ele>289.4</ele>
        <time>2021-06-16T12:12:30Z</time>
      </trkpt>
      <trkpt lat="47.11678" lon="5.834">
        <ele>289.4</ele>
        <time>2021-06-16T12:12:31Z</time>
      </trkpt>
      <trkpt lat="47.11675" lon="5.83399">
        <ele>289.6</ele>
        <time>2021-06-16T12:12:32Z</time>
      </trkpt>
      <trkpt lat="47.11672" lon="5.83398">
        <ele>289.6</ele>
        <time>2021-06-16T12:12:33Z</time>
      </trkpt>
      <trkpt lat="47.11669" lon="5.83398">
        <ele>289.8</ele>
        <time>2021-06-16T12:12:34Z</time>
      </trkpt>
      <trkpt lat="47.11667" lon="5.83396">
        <ele>289.8</ele>
        <time>2021-06-16T12:12:35Z</time>
      </trkpt>
      <trkpt lat="47.11665" lon="5.83399">
        <ele>289.8</ele>
        <time>2021-06-16T12:12:36Z</time>
      </trkpt>
      <trkpt lat="47.11662" lon="5.83401">
        <ele>290</ele>
        <time>2021-06-16T12:12:37Z</time>
      </trkpt>
      <trkpt lat="47.11659" lon="5.83402">
        <ele>290</ele>
        <time>2021-06-16T12:12:38Z</time>
      </trkpt>
      <trkpt lat="47.11656" lon="5.83403">
        <ele>290</ele>
        <time>2021-06-16T12:12:39Z</time>
      </trkpt>
      <trkpt lat="47.11654" lon="5.83404">
        <ele>290.2</ele>
        <time>2021-06-16T12:12:40Z</time>
      </trkpt>
      <trkpt lat="47.11652" lon="5.83405">
        <ele>290.2</ele>
        <time>2021-06-16T12:12:41Z</time>
      </trkpt>
      <trkpt lat="47.11651" lon="5.83408">
        <ele>290.4</ele>
        <time>2021-06-16T12:12:42Z</time>
      </trkpt>
      <trkpt lat="47.11651" lon="5.8341">
        <ele>290.6</ele>
        <time>2021-06-16T12:12:43Z</time>
      </trkpt>
      <trkpt lat="47.11653" lon="5.83412">
        <ele>290.6</ele>
        <time>2021-06-16T12:12:44Z</time>
      </trkpt>
      <trkpt lat="47.11654" lon="5.83413">
        <ele>290.8</ele>
        <time>2021-06-16T12:12:45Z</time>
      </trkpt>
      <trkpt lat="47.11656" lon="5.83414">
        <ele>290.8</ele>
        <time>2021-06-16T12:12:46Z</time>
      </trkpt>
      <trkpt lat="47.11657" lon="5.83415">
        <ele>291.2</ele>
        <time>2021-06-16T12:12:47Z</time>
      </trkpt>
      <trkpt lat="47.11659" lon="5.83416">
        <ele>291.4</ele>
        <time>2021-06-16T12:12:48Z</time>
      </trkpt>
      <trkpt lat="47.11661" lon="5.83417">
        <ele>291.4</ele>
        <time>2021-06-16T12:12:49Z</time>
      </trkpt>
      <trkpt lat="47.11662" lon="5.83418">
        <ele>291.4</ele>
        <time>2021-06-16T12:12:50Z</time>
      </trkpt>
      <trkpt lat="47.11664" lon="5.83419">
        <ele>291.6</ele>
        <time>2021-06-16T12:12:51Z</time>
      </trkpt>
      <trkpt lat="47.11666" lon="5.8342">
        <ele>291.6</ele>
        <time>2021-06-16T12:12:52Z</time>
      </trkpt>
      <trkpt lat="47.11666" lon="5.8342">
        <ele>291.8</ele>
        <time>2021-06-16T12:12:53Z</time>
      </trkpt>
      <trkpt lat="47.11671" lon="5.83423">
        <ele>292</ele>
        <time>2021-06-16T12:12:54Z</time>
      </trkpt>
      <trkpt lat="47.11673" lon="5.83425">
        <ele>292.2</ele>
        <time>2021-06-16T12:12:55Z</time>
      </trkpt>
      <trkpt lat="47.11674" lon="5.83427">
        <ele>292.2</ele>
        <time>2021-06-16T12:12:56Z</time>
      </trkpt>
      <trkpt lat="47.11676" lon="5.83429">
        <ele>292.6</ele>
        <time>2021-06-16T12:12:57Z</time>
      </trkpt>
      <trkpt lat="47.11678" lon="5.83431">
        <ele>292.6</ele>
        <time>2021-06-16T12:12:58Z</time>
      </trkpt>
      <trkpt lat="47.11679" lon="5.83434">
        <ele>292.8</ele>
        <time>2021-06-16T12:12:59Z</time>
      </trkpt>
      <trkpt lat="47.11681" lon="5.83436">
        <ele>293</ele>
        <time>2021-06-16T12:13:00Z</time>
      </trkpt>
      <trkpt lat="47.11683" lon="5.83439">
        <ele>293</ele>
        <time>2021-06-16T12:13:01Z</time>
      </trkpt>
      <trkpt lat="47.11685" lon="5.83442">
        <ele>293</ele>
        <time>2021-06-16T12:13:02Z</time>
      </trkpt>
      <trkpt lat="47.11687" lon="5.83445">
        <ele>293.2</ele>
        <time>2021-06-16T12:13:03Z</time>
      </trkpt>
      <trkpt lat="47.11689" lon="5.83448">
        <ele>293.6</ele>
        <time>2021-06-16T12:13:04Z</time>
      </trkpt>
      <trkpt lat="47.11691" lon="5.83451">
        <ele>293.6</ele>
        <time>2021-06-16T12:13:05Z</time>
      </trkpt>
      <trkpt lat="47.11693" lon="5.83455">
        <ele>294</ele>
        <time>2021-06-16T12:13:06Z</time>
      </trkpt>
      <trkpt lat="47.11694" lon="5.83459">
        <ele>294.2</ele>
        <time>2021-06-16T12:13:07Z</time>
      </trkpt>
      <trkpt lat="47.11696" lon="5.83463">
        <ele>294.2</ele>
        <time>2021-06-16T12:13:08Z</time>
      </trkpt>
      <trkpt lat="47.11698" lon="5.83466">
        <ele>294.4</ele>
        <time>2021-06-16T12:13:09Z</time>
      </trkpt>
      <trkpt lat="47.117" lon="5.83468">
        <ele>294.6</ele>
        <time>2021-06-16T12:13:10Z</time>
      </trkpt>
      <trkpt lat="47.11703" lon="5.83472">
        <ele>294.8</ele>
        <time>2021-06-16T12:13:11Z</time>
      </trkpt>
      <trkpt lat="47.11706" lon="5.83476">
        <ele>294.8</ele>
        <time>2021-06-16T12:13:12Z</time>
      </trkpt>
      <trkpt lat="47.11709" lon="5.8348">
        <ele>294.8</ele>
        <time>2021-06-16T12:13:13Z</time>
      </trkpt>
      <trkpt lat="47.11712" lon="5.83484">
        <ele>295</ele>
        <time>2021-06-16T12:13:14Z</time>
      </trkpt>
      <trkpt lat="47.11714" lon="5.83487">
        <ele>295</ele>
        <time>2021-06-16T12:13:15Z</time>
      </trkpt>
      <trkpt lat="47.11717" lon="5.8349">
        <ele>295</ele>
        <time>2021-06-16T12:13:16Z</time>
      </trkpt>
      <trkpt lat="47.11719" lon="5.83493">
        <ele>295.2</ele>
        <time>2021-06-16T12:13:17Z</time>
      </trkpt>
      <trkpt lat="47.11722" lon="5.83495">
        <ele>295.4</ele>
        <time>2021-06-16T12:13:18Z</time>
      </trkpt>
      <trkpt lat="47.11725" lon="5.83497">
        <ele>295.6</ele>
        <time>2021-06-16T12:13:19Z</time>
      </trkpt>
      <trkpt lat="47.11728" lon="5.835">
        <ele>295.6</ele>
        <time>2021-06-16T12:13:20Z</time>
      </trkpt>
      <trkpt lat="47.1173" lon="5.83504">
        <ele>295.8</ele>
        <time>2021-06-16T12:13:21Z</time>
      </trkpt>
      <trkpt lat="47.11733" lon="5.83506">
        <ele>295.8</ele>
        <time>2021-06-16T12:13:22Z</time>
      </trkpt>
      <trkpt lat="47.11736" lon="5.83509">
        <ele>296</ele>
        <time>2021-06-16T12:13:23Z</time>
      </trkpt>
      <trkpt lat="47.11738" lon="5.83511">
        <ele>296</ele>
        <time>2021-06-16T12:13:24Z</time>
      </trkpt>
      <trkpt lat="47.11741" lon="5.83513">
        <ele>296</ele>
        <time>2021-06-16T12:13:25Z</time>
      </trkpt>
      <trkpt lat="47.11743" lon="5.83514">
        <ele>296.2</ele>
        <time>2021-06-16T12:13:26Z</time>
      </trkpt>
      <trkpt lat="47.11747" lon="5.83515">
        <ele>296.2</ele>
        <time>2021-06-16T12:13:27Z</time>
      </trkpt>
      <trkpt lat="47.11755" lon="5.83521">
        <ele>296.4</ele>
        <time>2021-06-16T12:13:28Z</time>
      </trkpt>
      <trkpt lat="47.11757" lon="5.83523">
        <ele>296.4</ele>
        <time>2021-06-16T12:13:29Z</time>
      </trkpt>
      <trkpt lat="47.11759" lon="5.83524">
        <ele>296.6</ele>
        <time>2021-06-16T12:13:30Z</time>
      </trkpt>
      <trkpt lat="47.11762" lon="5.83525">
        <ele>296.8</ele>
        <time>2021-06-16T12:13:31Z</time>
      </trkpt>
      <trkpt lat="47.11762" lon="5.83525">
        <ele>297</ele>
        <time>2021-06-16T12:13:32Z</time>
      </trkpt>
      <trkpt lat="47.11768" lon="5.83527">
        <ele>297</ele>
        <time>2021-06-16T12:13:33Z</time>
      </trkpt>
      <trkpt lat="47.1177" lon="5.83528">
        <ele>297</ele>
        <time>2021-06-16T12:13:34Z</time>
      </trkpt>
      <trkpt lat="47.11774" lon="5.8353">
        <ele>297.2</ele>
        <time>2021-06-16T12:13:35Z</time>
      </trkpt>
      <trkpt lat="47.11777" lon="5.83533">
        <ele>297.2</ele>
        <time>2021-06-16T12:13:36Z</time>
      </trkpt>
      <trkpt lat="47.11781" lon="5.83533">
        <ele>297.2</ele>
        <time>2021-06-16T12:13:37Z</time>
      </trkpt>
      <trkpt lat="47.11782" lon="5.83534">
        <ele>297.4</ele>
        <time>2021-06-16T12:13:38Z</time>
      </trkpt>
      <trkpt lat="47.11784" lon="5.83535">
        <ele>297.4</ele>
        <time>2021-06-16T12:13:39Z</time>
      </trkpt>
      <trkpt lat="47.11785" lon="5.83536">
        <ele>297.4</ele>
        <time>2021-06-16T12:13:40Z</time>
      </trkpt>
      <trkpt lat="47.11787" lon="5.83537">
        <ele>297.6</ele>
        <time>2021-06-16T12:13:41Z</time>
      </trkpt>
      <trkpt lat="47.11788" lon="5.83538">
        <ele>297.6</ele>
        <time>2021-06-16T12:13:42Z</time>
      </trkpt>
      <trkpt lat="47.1179" lon="5.8354">
        <ele>297.6</ele>
        <time>2021-06-16T12:13:43Z</time>
      </trkpt>
      <trkpt lat="47.11792" lon="5.83542">
        <ele>297.6</ele>
        <time>2021-06-16T12:13:44Z</time>
      </trkpt>
      <trkpt lat="47.11801" lon="5.83544">
        <ele>297.8</ele>
        <time>2021-06-16T12:13:47Z</time>
      </trkpt>
      <trkpt lat="47.11803" lon="5.83545">
        <ele>297.8</ele>
        <time>2021-06-16T12:13:48Z</time>
      </trkpt>
      <trkpt lat="47.11805" lon="5.83546">
        <ele>297.8</ele>
        <time>2021-06-16T12:13:49Z</time>
      </trkpt>
      <trkpt lat="47.11807" lon="5.83547">
        <ele>297.8</ele>
        <time>2021-06-16T12:13:50Z</time>
      </trkpt>
      <trkpt lat="47.11809" lon="5.83547">
        <ele>297.8</ele>
        <time>2021-06-16T12:13:51Z</time>
      </trkpt>
      <trkpt lat="47.1181" lon="5.83547">
        <ele>297.8</ele>
        <time>2021-06-16T12:13:52Z</time>
      </trkpt>
      <trkpt lat="47.11813" lon="5.83548">
        <ele>297.8</ele>
        <time>2021-06-16T12:13:53Z</time>
      </trkpt>
      <trkpt lat="47.11818" lon="5.8355">
        <ele>298</ele>
        <time>2021-06-16T12:13:55Z</time>
      </trkpt>
      <trkpt lat="47.11824" lon="5.83551">
        <ele>298.2</ele>
        <time>2021-06-16T12:13:57Z</time>
      </trkpt>
      <trkpt lat="47.11826" lon="5.83552">
        <ele>298.2</ele>
        <time>2021-06-16T12:13:58Z</time>
      </trkpt>
      <trkpt lat="47.11828" lon="5.83552">
        <ele>298.2</ele>
        <time>2021-06-16T12:13:59Z</time>
      </trkpt>
      <trkpt lat="47.1183" lon="5.83553">
        <ele>298.2</ele>
        <time>2021-06-16T12:14:00Z</time>
      </trkpt>
      <trkpt lat="47.11834" lon="5.83554">
        <ele>298.2</ele>
        <time>2021-06-16T12:14:01Z</time>
      </trkpt>
      <trkpt lat="47.11837" lon="5.83556">
        <ele>298.4</ele>
        <time>2021-06-16T12:14:02Z</time>
      </trkpt>
      <trkpt lat="47.11839" lon="5.83557">
        <ele>298.4</ele>
        <time>2021-06-16T12:14:03Z</time>
      </trkpt>
      <trkpt lat="47.1184" lon="5.83559">
        <ele>298.6</ele>
        <time>2021-06-16T12:14:04Z</time>
      </trkpt>
      <trkpt lat="47.1184" lon="5.83559">
        <ele>298.6</ele>
        <time>2021-06-16T12:14:05Z</time>
      </trkpt>
      <trkpt lat="47.11842" lon="5.8356">
        <ele>298.8</ele>
        <time>2021-06-16T12:14:06Z</time>
      </trkpt>
      <trkpt lat="47.11844" lon="5.83562">
        <ele>298.8</ele>
        <time>2021-06-16T12:14:07Z</time>
      </trkpt>
      <trkpt lat="47.11851" lon="5.83562">
        <ele>299</ele>
        <time>2021-06-16T12:14:10Z</time>
      </trkpt>
      <trkpt lat="47.11853" lon="5.83561">
        <ele>299</ele>
        <time>2021-06-16T12:14:11Z</time>
      </trkpt>
      <trkpt lat="47.11855" lon="5.8356">
        <ele>299</ele>
        <time>2021-06-16T12:14:12Z</time>
      </trkpt>
      <trkpt lat="47.11858" lon="5.83559">
        <ele>299</ele>
        <time>2021-06-16T12:14:13Z</time>
      </trkpt>
      <trkpt lat="47.11863" lon="5.83562">
        <ele>299.2</ele>
        <time>2021-06-16T12:14:15Z</time>
      </trkpt>
      <trkpt lat="47.11866" lon="5.83565">
        <ele>299.2</ele>
        <time>2021-06-16T12:14:16Z</time>
      </trkpt>
      <trkpt lat="47.11869" lon="5.83567">
        <ele>299.4</ele>
        <time>2021-06-16T12:14:17Z</time>
      </trkpt>
      <trkpt lat="47.11894" lon="5.83584">
        <ele>299.4</ele>
        <time>2021-06-16T12:14:24Z</time>
      </trkpt>
      <trkpt lat="47.11902" lon="5.83591">
        <ele>299.6</ele>
        <time>2021-06-16T12:14:28Z</time>
      </trkpt>
      <trkpt lat="47.11911" lon="5.83603">
        <ele>299.8</ele>
        <time>2021-06-16T12:14:32Z</time>
      </trkpt>
      <trkpt lat="47.11913" lon="5.83606">
        <ele>299.8</ele>
        <time>2021-06-16T12:14:33Z</time>
      </trkpt>
      <trkpt lat="47.11919" lon="5.83611">
        <ele>299.6</ele>
        <time>2021-06-16T12:14:35Z</time>
      </trkpt>
      <trkpt lat="47.11921" lon="5.83613">
        <ele>299.6</ele>
        <time>2021-06-16T12:14:36Z</time>
      </trkpt>
      <trkpt lat="47.11923" lon="5.83614">
        <ele>299.6</ele>
        <time>2021-06-16T12:14:37Z</time>
      </trkpt>
      <trkpt lat="47.11924" lon="5.83616">
        <ele>299.6</ele>
        <time>2021-06-16T12:14:38Z</time>
      </trkpt>
      <trkpt lat="47.11927" lon="5.83619">
        <ele>299.6</ele>
        <time>2021-06-16T12:14:39Z</time>
      </trkpt>
      <trkpt lat="47.1193" lon="5.83621">
        <ele>299.4</ele>
        <time>2021-06-16T12:14:40Z</time>
      </trkpt>
      <trkpt lat="47.11933" lon="5.83625">
        <ele>299.4</ele>
        <time>2021-06-16T12:14:42Z</time>
      </trkpt>
      <trkpt lat="47.11935" lon="5.83628">
        <ele>299.2</ele>
        <time>2021-06-16T12:14:43Z</time>
      </trkpt>
      <trkpt lat="47.11937" lon="5.83631">
        <ele>299.2</ele>
        <time>2021-06-16T12:14:44Z</time>
      </trkpt>
      <trkpt lat="47.11939" lon="5.83637">
        <ele>299.2</ele>
        <time>2021-06-16T12:14:45Z</time>
      </trkpt>
      <trkpt lat="47.11949" lon="5.83649">
        <ele>299.4</ele>
        <time>2021-06-16T12:14:47Z</time>
      </trkpt>
      <trkpt lat="47.11952" lon="5.8365">
        <ele>299.4</ele>
        <time>2021-06-16T12:14:48Z</time>
      </trkpt>
      <trkpt lat="47.11954" lon="5.83651">
        <ele>299.4</ele>
        <time>2021-06-16T12:14:49Z</time>
      </trkpt>
      <trkpt lat="47.11957" lon="5.83654">
        <ele>299.4</ele>
        <time>2021-06-16T12:14:50Z</time>
      </trkpt>
      <trkpt lat="47.11959" lon="5.83658">
        <ele>299.4</ele>
        <time>2021-06-16T12:14:51Z</time>
      </trkpt>
      <trkpt lat="47.11959" lon="5.83661">
        <ele>299.4</ele>
        <time>2021-06-16T12:14:52Z</time>
      </trkpt>
      <trkpt lat="47.1196" lon="5.83664">
        <ele>299.4</ele>
        <time>2021-06-16T12:14:53Z</time>
      </trkpt>
      <trkpt lat="47.1196" lon="5.83669">
        <ele>299.4</ele>
        <time>2021-06-16T12:14:54Z</time>
      </trkpt>
      <trkpt lat="47.1196" lon="5.83675">
        <ele>299.4</ele>
        <time>2021-06-16T12:14:55Z</time>
      </trkpt>
      <trkpt lat="47.11959" lon="5.83681">
        <ele>299.2</ele>
        <time>2021-06-16T12:14:56Z</time>
      </trkpt>
      <trkpt lat="47.11959" lon="5.83689">
        <ele>299</ele>
        <time>2021-06-16T12:14:57Z</time>
      </trkpt>
      <trkpt lat="47.1195" lon="5.83715">
        <ele>298.4</ele>
        <time>2021-06-16T12:15:00Z</time>
      </trkpt>
      <trkpt lat="47.11943" lon="5.83723">
        <ele>298</ele>
        <time>2021-06-16T12:15:01Z</time>
      </trkpt>
      <trkpt lat="47.11936" lon="5.83729">
        <ele>297.4</ele>
        <time>2021-06-16T12:15:02Z</time>
      </trkpt>
      <trkpt lat="47.1193" lon="5.83735">
        <ele>297.2</ele>
        <time>2021-06-16T12:15:03Z</time>
      </trkpt>
      <trkpt lat="47.11924" lon="5.83741">
        <ele>296</ele>
        <time>2021-06-16T12:15:04Z</time>
      </trkpt>
      <trkpt lat="47.11919" lon="5.83747">
        <ele>295.2</ele>
        <time>2021-06-16T12:15:05Z</time>
      </trkpt>
      <trkpt lat="47.11914" lon="5.83752">
        <ele>294</ele>
        <time>2021-06-16T12:15:06Z</time>
      </trkpt>
      <trkpt lat="47.11909" lon="5.83756">
        <ele>293.4</ele>
        <time>2021-06-16T12:15:07Z</time>
      </trkpt>
      <trkpt lat="47.11905" lon="5.8376">
        <ele>292.6</ele>
        <time>2021-06-16T12:15:08Z</time>
      </trkpt>
      <trkpt lat="47.11899" lon="5.83767">
        <ele>291.4</ele>
        <time>2021-06-16T12:15:09Z</time>
      </trkpt>
      <trkpt lat="47.11888" lon="5.8378">
        <ele>290</ele>
        <time>2021-06-16T12:15:11Z</time>
      </trkpt>
      <trkpt lat="47.11883" lon="5.83786">
        <ele>289.2</ele>
        <time>2021-06-16T12:15:12Z</time>
      </trkpt>
      <trkpt lat="47.11877" lon="5.83791">
        <ele>288.6</ele>
        <time>2021-06-16T12:15:13Z</time>
      </trkpt>
      <trkpt lat="47.11872" lon="5.83794">
        <ele>287.8</ele>
        <time>2021-06-16T12:15:14Z</time>
      </trkpt>
      <trkpt lat="47.11868" lon="5.83797">
        <ele>287</ele>
        <time>2021-06-16T12:15:15Z</time>
      </trkpt>
      <trkpt lat="47.11865" lon="5.83799">
        <ele>286.4</ele>
        <time>2021-06-16T12:15:16Z</time>
      </trkpt>
      <trkpt lat="47.11861" lon="5.83801">
        <ele>286</ele>
        <time>2021-06-16T12:15:17Z</time>
      </trkpt>
      <trkpt lat="47.11858" lon="5.83803">
        <ele>285.4</ele>
        <time>2021-06-16T12:15:18Z</time>
      </trkpt>
      <trkpt lat="47.11853" lon="5.83806">
        <ele>284.8</ele>
        <time>2021-06-16T12:15:19Z</time>
      </trkpt>
      <trkpt lat="47.11848" lon="5.83808">
        <ele>284.4</ele>
        <time>2021-06-16T12:15:20Z</time>
      </trkpt>
      <trkpt lat="47.11843" lon="5.8381">
        <ele>284</ele>
        <time>2021-06-16T12:15:21Z</time>
      </trkpt>
      <trkpt lat="47.11838" lon="5.83813">
        <ele>283.8</ele>
        <time>2021-06-16T12:15:22Z</time>
      </trkpt>
      <trkpt lat="47.11832" lon="5.83816">
        <ele>283.6</ele>
        <time>2021-06-16T12:15:23Z</time>
      </trkpt>
      <trkpt lat="47.1182" lon="5.83825">
        <ele>283</ele>
        <time>2021-06-16T12:15:25Z</time>
      </trkpt>
      <trkpt lat="47.11812" lon="5.8383">
        <ele>282.2</ele>
        <time>2021-06-16T12:15:26Z</time>
      </trkpt>
      <trkpt lat="47.11789" lon="5.83849">
        <ele>281</ele>
        <time>2021-06-16T12:15:29Z</time>
      </trkpt>
      <trkpt lat="47.11772" lon="5.83869">
        <ele>278.8</ele>
        <time>2021-06-16T12:15:31Z</time>
      </trkpt>
      <trkpt lat="47.11759" lon="5.83887">
        <ele>277.6</ele>
        <time>2021-06-16T12:15:33Z</time>
      </trkpt>
      <trkpt lat="47.11754" lon="5.83895">
        <ele>277</ele>
        <time>2021-06-16T12:15:34Z</time>
      </trkpt>
      <trkpt lat="47.11748" lon="5.83901">
        <ele>275.6</ele>
        <time>2021-06-16T12:15:35Z</time>
      </trkpt>
      <trkpt lat="47.11744" lon="5.83905">
        <ele>274.6</ele>
        <time>2021-06-16T12:15:36Z</time>
      </trkpt>
      <trkpt lat="47.11741" lon="5.8391">
        <ele>274</ele>
        <time>2021-06-16T12:15:37Z</time>
      </trkpt>
      <trkpt lat="47.11739" lon="5.83915">
        <ele>273</ele>
        <time>2021-06-16T12:15:38Z</time>
      </trkpt>
      <trkpt lat="47.11736" lon="5.83921">
        <ele>272.6</ele>
        <time>2021-06-16T12:15:39Z</time>
      </trkpt>
      <trkpt lat="47.11734" lon="5.83927">
        <ele>272</ele>
        <time>2021-06-16T12:15:40Z</time>
      </trkpt>
      <trkpt lat="47.11732" lon="5.83933">
        <ele>271.8</ele>
        <time>2021-06-16T12:15:41Z</time>
      </trkpt>
      <trkpt lat="47.11732" lon="5.83938">
        <ele>271.4</ele>
        <time>2021-06-16T12:15:42Z</time>
      </trkpt>
      <trkpt lat="47.11732" lon="5.83938">
        <ele>271.2</ele>
        <time>2021-06-16T12:15:43Z</time>
      </trkpt>
      <trkpt lat="47.11731" lon="5.83946">
        <ele>271</ele>
        <time>2021-06-16T12:15:44Z</time>
      </trkpt>
      <trkpt lat="47.11732" lon="5.8395">
        <ele>270.8</ele>
        <time>2021-06-16T12:15:45Z</time>
      </trkpt>
      <trkpt lat="47.11731" lon="5.83954">
        <ele>270.6</ele>
        <time>2021-06-16T12:15:46Z</time>
      </trkpt>
      <trkpt lat="47.11731" lon="5.83957">
        <ele>270.6</ele>
        <time>2021-06-16T12:15:47Z</time>
      </trkpt>
      <trkpt lat="47.1173" lon="5.83961">
        <ele>270.4</ele>
        <time>2021-06-16T12:15:48Z</time>
      </trkpt>
      <trkpt lat="47.1173" lon="5.83964">
        <ele>270.4</ele>
        <time>2021-06-16T12:15:49Z</time>
      </trkpt>
      <trkpt lat="47.11729" lon="5.83967">
        <ele>270.2</ele>
        <time>2021-06-16T12:15:50Z</time>
      </trkpt>
      <trkpt lat="47.11728" lon="5.83971">
        <ele>270</ele>
        <time>2021-06-16T12:15:51Z</time>
      </trkpt>
      <trkpt lat="47.11728" lon="5.83974">
        <ele>270</ele>
        <time>2021-06-16T12:15:52Z</time>
      </trkpt>
      <trkpt lat="47.11727" lon="5.83977">
        <ele>270</ele>
        <time>2021-06-16T12:15:53Z</time>
      </trkpt>
      <trkpt lat="47.11727" lon="5.83979">
        <ele>270</ele>
        <time>2021-06-16T12:15:54Z</time>
      </trkpt>
      <trkpt lat="47.11727" lon="5.83981">
        <ele>270</ele>
        <time>2021-06-16T12:15:55Z</time>
      </trkpt>
      <trkpt lat="47.11727" lon="5.83982">
        <ele>270</ele>
        <time>2021-06-16T12:15:56Z</time>
      </trkpt>
      <trkpt lat="47.11727" lon="5.83983">
        <ele>270</ele>
        <time>2021-06-16T12:15:57Z</time>
      </trkpt>
      <trkpt lat="47.11728" lon="5.83983">
        <ele>270</ele>
        <time>2021-06-16T12:15:58Z</time>
      </trkpt>
      <trkpt lat="47.11728" lon="5.83983">
        <ele>270</ele>
        <time>2021-06-16T12:16:03Z</time>
      </trkpt>
      <trkpt lat="47.11728" lon="5.83985">
        <ele>270</ele>
        <time>2021-06-16T12:16:09Z</time>
      </trkpt>
      <trkpt lat="47.11728" lon="5.8399">
        <ele>270</ele>
        <time>2021-06-16T12:16:12Z</time>
      </trkpt>
      <trkpt lat="47.11728" lon="5.83995">
        <ele>270</ele>
        <time>2021-06-16T12:16:14Z</time>
      </trkpt>
      <trkpt lat="47.11728" lon="5.83997">
        <ele>270</ele>
        <time>2021-06-16T12:16:15Z</time>
      </trkpt>
      <trkpt lat="47.11726" lon="5.84009">
        <ele>270.4</ele>
        <time>2021-06-16T12:16:19Z</time>
      </trkpt>
      <trkpt lat="47.11721" lon="5.84038">
        <ele>271.6</ele>
        <time>2021-06-16T12:16:28Z</time>
      </trkpt>
      <trkpt lat="47.11719" lon="5.84045">
        <ele>271.8</ele>
        <time>2021-06-16T12:16:30Z</time>
      </trkpt>
      <trkpt lat="47.11719" lon="5.84049">
        <ele>272</ele>
        <time>2021-06-16T12:16:31Z</time>
      </trkpt>
      <trkpt lat="47.11717" lon="5.84059">
        <ele>272.4</ele>
        <time>2021-06-16T12:16:34Z</time>
      </trkpt>
      <trkpt lat="47.11717" lon="5.84064">
        <ele>272.6</ele>
        <time>2021-06-16T12:16:35Z</time>
      </trkpt>
      <trkpt lat="47.11716" lon="5.84067">
        <ele>273</ele>
        <time>2021-06-16T12:16:36Z</time>
      </trkpt>
      <trkpt lat="47.11715" lon="5.84071">
        <ele>273.2</ele>
        <time>2021-06-16T12:16:37Z</time>
      </trkpt>
      <trkpt lat="47.11713" lon="5.84078">
        <ele>273.4</ele>
        <time>2021-06-16T12:16:39Z</time>
      </trkpt>
      <trkpt lat="47.11711" lon="5.84081">
        <ele>273.6</ele>
        <time>2021-06-16T12:16:40Z</time>
      </trkpt>
      <trkpt lat="47.1171" lon="5.84084">
        <ele>273.6</ele>
        <time>2021-06-16T12:16:41Z</time>
      </trkpt>
      <trkpt lat="47.1171" lon="5.84088">
        <ele>273.8</ele>
        <time>2021-06-16T12:16:42Z</time>
      </trkpt>
      <trkpt lat="47.11709" lon="5.84092">
        <ele>274.2</ele>
        <time>2021-06-16T12:16:43Z</time>
      </trkpt>
      <trkpt lat="47.11707" lon="5.84095">
        <ele>274.2</ele>
        <time>2021-06-16T12:16:44Z</time>
      </trkpt>
      <trkpt lat="47.11706" lon="5.84098">
        <ele>274.6</ele>
        <time>2021-06-16T12:16:45Z</time>
      </trkpt>
      <trkpt lat="47.11704" lon="5.84102">
        <ele>274.8</ele>
        <time>2021-06-16T12:16:46Z</time>
      </trkpt>
      <trkpt lat="47.11702" lon="5.84106">
        <ele>275</ele>
        <time>2021-06-16T12:16:47Z</time>
      </trkpt>
      <trkpt lat="47.11701" lon="5.84109">
        <ele>275.2</ele>
        <time>2021-06-16T12:16:48Z</time>
      </trkpt>
      <trkpt lat="47.11699" lon="5.84112">
        <ele>275.4</ele>
        <time>2021-06-16T12:16:49Z</time>
      </trkpt>
      <trkpt lat="47.11699" lon="5.84116">
        <ele>275.6</ele>
        <time>2021-06-16T12:16:50Z</time>
      </trkpt>
      <trkpt lat="47.11699" lon="5.84119">
        <ele>275.6</ele>
        <time>2021-06-16T12:16:51Z</time>
      </trkpt>
      <trkpt lat="47.11697" lon="5.84123">
        <ele>275.8</ele>
        <time>2021-06-16T12:16:52Z</time>
      </trkpt>
      <trkpt lat="47.11696" lon="5.84125">
        <ele>276</ele>
        <time>2021-06-16T12:16:53Z</time>
      </trkpt>
      <trkpt lat="47.11696" lon="5.84128">
        <ele>276</ele>
        <time>2021-06-16T12:16:54Z</time>
      </trkpt>
      <trkpt lat="47.11696" lon="5.8413">
        <ele>276.2</ele>
        <time>2021-06-16T12:16:55Z</time>
      </trkpt>
      <trkpt lat="47.11696" lon="5.84133">
        <ele>276.2</ele>
        <time>2021-06-16T12:16:56Z</time>
      </trkpt>
      <trkpt lat="47.11695" lon="5.84136">
        <ele>276.4</ele>
        <time>2021-06-16T12:16:57Z</time>
      </trkpt>
      <trkpt lat="47.11694" lon="5.8414">
        <ele>276.4</ele>
        <time>2021-06-16T12:16:58Z</time>
      </trkpt>
      <trkpt lat="47.11693" lon="5.84143">
        <ele>276.6</ele>
        <time>2021-06-16T12:16:59Z</time>
      </trkpt>
      <trkpt lat="47.11693" lon="5.84147">
        <ele>276.8</ele>
        <time>2021-06-16T12:17:00Z</time>
      </trkpt>
      <trkpt lat="47.11692" lon="5.84151">
        <ele>277</ele>
        <time>2021-06-16T12:17:01Z</time>
      </trkpt>
      <trkpt lat="47.11691" lon="5.84154">
        <ele>277.2</ele>
        <time>2021-06-16T12:17:02Z</time>
      </trkpt>
      <trkpt lat="47.11691" lon="5.84158">
        <ele>277.4</ele>
        <time>2021-06-16T12:17:03Z</time>
      </trkpt>
      <trkpt lat="47.1169" lon="5.84162">
        <ele>277.6</ele>
        <time>2021-06-16T12:17:04Z</time>
      </trkpt>
      <trkpt lat="47.11689" lon="5.84165">
        <ele>277.8</ele>
        <time>2021-06-16T12:17:05Z</time>
      </trkpt>
      <trkpt lat="47.11688" lon="5.84168">
        <ele>277.8</ele>
        <time>2021-06-16T12:17:06Z</time>
      </trkpt>
      <trkpt lat="47.11686" lon="5.84171">
        <ele>278</ele>
        <time>2021-06-16T12:17:07Z</time>
      </trkpt>
      <trkpt lat="47.11685" lon="5.84174">
        <ele>278.2</ele>
        <time>2021-06-16T12:17:08Z</time>
      </trkpt>
      <trkpt lat="47.11684" lon="5.84177">
        <ele>278.4</ele>
        <time>2021-06-16T12:17:09Z</time>
      </trkpt>
      <trkpt lat="47.11683" lon="5.8418">
        <ele>278.4</ele>
        <time>2021-06-16T12:17:10Z</time>
      </trkpt>
      <trkpt lat="47.11682" lon="5.84184">
        <ele>278.6</ele>
        <time>2021-06-16T12:17:11Z</time>
      </trkpt>
      <trkpt lat="47.11681" lon="5.84187">
        <ele>278.8</ele>
        <time>2021-06-16T12:17:12Z</time>
      </trkpt>
      <trkpt lat="47.1168" lon="5.84191">
        <ele>278.8</ele>
        <time>2021-06-16T12:17:13Z</time>
      </trkpt>
      <trkpt lat="47.11678" lon="5.84194">
        <ele>278.8</ele>
        <time>2021-06-16T12:17:14Z</time>
      </trkpt>
      <trkpt lat="47.11677" lon="5.84199">
        <ele>278.8</ele>
        <time>2021-06-16T12:17:15Z</time>
      </trkpt>
      <trkpt lat="47.11675" lon="5.84204">
        <ele>279</ele>
        <time>2021-06-16T12:17:16Z</time>
      </trkpt>
      <trkpt lat="47.11673" lon="5.84209">
        <ele>279</ele>
        <time>2021-06-16T12:17:17Z</time>
      </trkpt>
      <trkpt lat="47.11671" lon="5.84214">
        <ele>279</ele>
        <time>2021-06-16T12:17:18Z</time>
      </trkpt>
      <trkpt lat="47.11669" lon="5.84219">
        <ele>279.2</ele>
        <time>2021-06-16T12:17:19Z</time>
      </trkpt>
      <trkpt lat="47.11668" lon="5.84224">
        <ele>279.2</ele>
        <time>2021-06-16T12:17:20Z</time>
      </trkpt>
      <trkpt lat="47.11667" lon="5.8423">
        <ele>279.2</ele>
        <time>2021-06-16T12:17:21Z</time>
      </trkpt>
      <trkpt lat="47.11667" lon="5.84234">
        <ele>279.2</ele>
        <time>2021-06-16T12:17:22Z</time>
      </trkpt>
      <trkpt lat="47.11668" lon="5.84239">
        <ele>279.2</ele>
        <time>2021-06-16T12:17:23Z</time>
      </trkpt>
      <trkpt lat="47.11668" lon="5.84244">
        <ele>279.2</ele>
        <time>2021-06-16T12:17:24Z</time>
      </trkpt>
      <trkpt lat="47.11668" lon="5.84249">
        <ele>279.2</ele>
        <time>2021-06-16T12:17:25Z</time>
      </trkpt>
      <trkpt lat="47.11669" lon="5.84253">
        <ele>279.2</ele>
        <time>2021-06-16T12:17:26Z</time>
      </trkpt>
      <trkpt lat="47.11669" lon="5.84258">
        <ele>279.2</ele>
        <time>2021-06-16T12:17:27Z</time>
      </trkpt>
      <trkpt lat="47.11669" lon="5.84263">
        <ele>279.4</ele>
        <time>2021-06-16T12:17:28Z</time>
      </trkpt>
      <trkpt lat="47.11669" lon="5.84267">
        <ele>279.4</ele>
        <time>2021-06-16T12:17:29Z</time>
      </trkpt>
      <trkpt lat="47.11669" lon="5.84271">
        <ele>279.4</ele>
        <time>2021-06-16T12:17:30Z</time>
      </trkpt>
      <trkpt lat="47.11669" lon="5.84276">
        <ele>279.4</ele>
        <time>2021-06-16T12:17:31Z</time>
      </trkpt>
      <trkpt lat="47.11669" lon="5.8428">
        <ele>279.4</ele>
        <time>2021-06-16T12:17:32Z</time>
      </trkpt>
      <trkpt lat="47.1167" lon="5.84308">
        <ele>280</ele>
        <time>2021-06-16T12:17:38Z</time>
      </trkpt>
      <trkpt lat="47.1167" lon="5.84311">
        <ele>280.2</ele>
        <time>2021-06-16T12:17:39Z</time>
      </trkpt>
      <trkpt lat="47.1167" lon="5.8432">
        <ele>280.4</ele>
        <time>2021-06-16T12:17:41Z</time>
      </trkpt>
      <trkpt lat="47.1167" lon="5.84325">
        <ele>280.8</ele>
        <time>2021-06-16T12:17:42Z</time>
      </trkpt>
      <trkpt lat="47.1167" lon="5.84356">
        <ele>281.4</ele>
        <time>2021-06-16T12:17:49Z</time>
      </trkpt>
      <trkpt lat="47.11671" lon="5.84366">
        <ele>281.6</ele>
        <time>2021-06-16T12:17:51Z</time>
      </trkpt>
      <trkpt lat="47.11671" lon="5.8437">
        <ele>281.8</ele>
        <time>2021-06-16T12:17:52Z</time>
      </trkpt>
      <trkpt lat="47.11675" lon="5.84408">
        <ele>282.4</ele>
        <time>2021-06-16T12:17:59Z</time>
      </trkpt>
      <trkpt lat="47.11675" lon="5.84411">
        <ele>282.4</ele>
        <time>2021-06-16T12:18:00Z</time>
      </trkpt>
      <trkpt lat="47.11678" lon="5.84445">
        <ele>282.8</ele>
        <time>2021-06-16T12:18:07Z</time>
      </trkpt>
      <trkpt lat="47.11678" lon="5.84451">
        <ele>282.8</ele>
        <time>2021-06-16T12:18:08Z</time>
      </trkpt>
      <trkpt lat="47.11681" lon="5.84478">
        <ele>283.2</ele>
        <time>2021-06-16T12:18:14Z</time>
      </trkpt>
      <trkpt lat="47.11683" lon="5.84487">
        <ele>283.4</ele>
        <time>2021-06-16T12:18:16Z</time>
      </trkpt>
      <trkpt lat="47.11689" lon="5.84508">
        <ele>283.8</ele>
        <time>2021-06-16T12:18:20Z</time>
      </trkpt>
      <trkpt lat="47.11696" lon="5.84528">
        <ele>284.2</ele>
        <time>2021-06-16T12:18:25Z</time>
      </trkpt>
      <trkpt lat="47.11697" lon="5.84531">
        <ele>284.4</ele>
        <time>2021-06-16T12:18:26Z</time>
      </trkpt>
      <trkpt lat="47.11698" lon="5.84535">
        <ele>284.4</ele>
        <time>2021-06-16T12:18:27Z</time>
      </trkpt>
      <trkpt lat="47.11698" lon="5.84538">
        <ele>284.6</ele>
        <time>2021-06-16T12:18:28Z</time>
      </trkpt>
      <trkpt lat="47.11699" lon="5.84542">
        <ele>284.6</ele>
        <time>2021-06-16T12:18:29Z</time>
      </trkpt>
      <trkpt lat="47.117" lon="5.84545">
        <ele>284.8</ele>
        <time>2021-06-16T12:18:30Z</time>
      </trkpt>
      <trkpt lat="47.11703" lon="5.84569">
        <ele>285.2</ele>
        <time>2021-06-16T12:18:35Z</time>
      </trkpt>
      <trkpt lat="47.11704" lon="5.84584">
        <ele>285.4</ele>
        <time>2021-06-16T12:18:37Z</time>
      </trkpt>
      <trkpt lat="47.11705" lon="5.846">
        <ele>285.2</ele>
        <time>2021-06-16T12:18:39Z</time>
      </trkpt>
      <trkpt lat="47.11706" lon="5.84607">
        <ele>285.2</ele>
        <time>2021-06-16T12:18:40Z</time>
      </trkpt>
      <trkpt lat="47.11705" lon="5.84613">
        <ele>284.8</ele>
        <time>2021-06-16T12:18:41Z</time>
      </trkpt>
      <trkpt lat="47.11704" lon="5.8462">
        <ele>284.4</ele>
        <time>2021-06-16T12:18:42Z</time>
      </trkpt>
      <trkpt lat="47.11702" lon="5.84631">
        <ele>283.8</ele>
        <time>2021-06-16T12:18:44Z</time>
      </trkpt>
      <trkpt lat="47.117" lon="5.84636">
        <ele>283.8</ele>
        <time>2021-06-16T12:18:45Z</time>
      </trkpt>
      <trkpt lat="47.11698" lon="5.84641">
        <ele>283.6</ele>
        <time>2021-06-16T12:18:46Z</time>
      </trkpt>
      <trkpt lat="47.11696" lon="5.84647">
        <ele>283.6</ele>
        <time>2021-06-16T12:18:47Z</time>
      </trkpt>
      <trkpt lat="47.11694" lon="5.84656">
        <ele>283.6</ele>
        <time>2021-06-16T12:18:49Z</time>
      </trkpt>
      <trkpt lat="47.11692" lon="5.84662">
        <ele>283.6</ele>
        <time>2021-06-16T12:18:50Z</time>
      </trkpt>
      <trkpt lat="47.11691" lon="5.84668">
        <ele>283.6</ele>
        <time>2021-06-16T12:18:51Z</time>
      </trkpt>
      <trkpt lat="47.11689" lon="5.84673">
        <ele>283.6</ele>
        <time>2021-06-16T12:18:52Z</time>
      </trkpt>
      <trkpt lat="47.11688" lon="5.84679">
        <ele>283.6</ele>
        <time>2021-06-16T12:18:53Z</time>
      </trkpt>
      <trkpt lat="47.11687" lon="5.84684">
        <ele>283.6</ele>
        <time>2021-06-16T12:18:54Z</time>
      </trkpt>
      <trkpt lat="47.11686" lon="5.84689">
        <ele>283.6</ele>
        <time>2021-06-16T12:18:55Z</time>
      </trkpt>
      <trkpt lat="47.11684" lon="5.84694">
        <ele>283.6</ele>
        <time>2021-06-16T12:18:56Z</time>
      </trkpt>
      <trkpt lat="47.11682" lon="5.84705">
        <ele>283.8</ele>
        <time>2021-06-16T12:18:58Z</time>
      </trkpt>
      <trkpt lat="47.11678" lon="5.84727">
        <ele>284.2</ele>
        <time>2021-06-16T12:19:02Z</time>
      </trkpt>
      <trkpt lat="47.11677" lon="5.84732">
        <ele>284.2</ele>
        <time>2021-06-16T12:19:03Z</time>
      </trkpt>
      <trkpt lat="47.11677" lon="5.84736">
        <ele>284.4</ele>
        <time>2021-06-16T12:19:04Z</time>
      </trkpt>
      <trkpt lat="47.11676" lon="5.8474">
        <ele>284.4</ele>
        <time>2021-06-16T12:19:05Z</time>
      </trkpt>
      <trkpt lat="47.11676" lon="5.84744">
        <ele>284.4</ele>
        <time>2021-06-16T12:19:06Z</time>
      </trkpt>
      <trkpt lat="47.11676" lon="5.84749">
        <ele>284.6</ele>
        <time>2021-06-16T12:19:07Z</time>
      </trkpt>
      <trkpt lat="47.11675" lon="5.84752">
        <ele>285</ele>
        <time>2021-06-16T12:19:08Z</time>
      </trkpt>
      <trkpt lat="47.11674" lon="5.84756">
        <ele>285.2</ele>
        <time>2021-06-16T12:19:09Z</time>
      </trkpt>
      <trkpt lat="47.11672" lon="5.84766">
        <ele>285.6</ele>
        <time>2021-06-16T12:19:12Z</time>
      </trkpt>
      <trkpt lat="47.11671" lon="5.84769">
        <ele>285.6</ele>
        <time>2021-06-16T12:19:13Z</time>
      </trkpt>
      <trkpt lat="47.1167" lon="5.84773">
        <ele>285.8</ele>
        <time>2021-06-16T12:19:14Z</time>
      </trkpt>
      <trkpt lat="47.11669" lon="5.84776">
        <ele>285.8</ele>
        <time>2021-06-16T12:19:15Z</time>
      </trkpt>
      <trkpt lat="47.11667" lon="5.84779">
        <ele>285.8</ele>
        <time>2021-06-16T12:19:16Z</time>
      </trkpt>
      <trkpt lat="47.11666" lon="5.84783">
        <ele>285.8</ele>
        <time>2021-06-16T12:19:17Z</time>
      </trkpt>
      <trkpt lat="47.11665" lon="5.84786">
        <ele>285.8</ele>
        <time>2021-06-16T12:19:18Z</time>
      </trkpt>
      <trkpt lat="47.11665" lon="5.84789">
        <ele>285.8</ele>
        <time>2021-06-16T12:19:19Z</time>
      </trkpt>
      <trkpt lat="47.11664" lon="5.84792">
        <ele>285.8</ele>
        <time>2021-06-16T12:19:20Z</time>
      </trkpt>
      <trkpt lat="47.11664" lon="5.84796">
        <ele>285.8</ele>
        <time>2021-06-16T12:19:21Z</time>
      </trkpt>
      <trkpt lat="47.11659" lon="5.84811">
        <ele>286</ele>
        <time>2021-06-16T12:19:25Z</time>
      </trkpt>
      <trkpt lat="47.11651" lon="5.84842">
        <ele>286.2</ele>
        <time>2021-06-16T12:19:32Z</time>
      </trkpt>
      <trkpt lat="47.1165" lon="5.84848">
        <ele>286.2</ele>
        <time>2021-06-16T12:19:33Z</time>
      </trkpt>
      <trkpt lat="47.11644" lon="5.84872">
        <ele>286.2</ele>
        <time>2021-06-16T12:19:37Z</time>
      </trkpt>
      <trkpt lat="47.11643" lon="5.84879">
        <ele>286.2</ele>
        <time>2021-06-16T12:19:38Z</time>
      </trkpt>
      <trkpt lat="47.11641" lon="5.84887">
        <ele>286.2</ele>
        <time>2021-06-16T12:19:39Z</time>
      </trkpt>
      <trkpt lat="47.11633" lon="5.8492">
        <ele>286.2</ele>
        <time>2021-06-16T12:19:44Z</time>
      </trkpt>
      <trkpt lat="47.11631" lon="5.84933">
        <ele>286.6</ele>
        <time>2021-06-16T12:19:46Z</time>
      </trkpt>
      <trkpt lat="47.11629" lon="5.84957">
        <ele>287</ele>
        <time>2021-06-16T12:19:50Z</time>
      </trkpt>
      <trkpt lat="47.11628" lon="5.84963">
        <ele>287.4</ele>
        <time>2021-06-16T12:19:51Z</time>
      </trkpt>
      <trkpt lat="47.11627" lon="5.84969">
        <ele>287.4</ele>
        <time>2021-06-16T12:19:52Z</time>
      </trkpt>
      <trkpt lat="47.11626" lon="5.84974">
        <ele>287.6</ele>
        <time>2021-06-16T12:19:53Z</time>
      </trkpt>
      <trkpt lat="47.11624" lon="5.84979">
        <ele>287.6</ele>
        <time>2021-06-16T12:19:54Z</time>
      </trkpt>
      <trkpt lat="47.11622" lon="5.84984">
        <ele>287.8</ele>
        <time>2021-06-16T12:19:55Z</time>
      </trkpt>
      <trkpt lat="47.1162" lon="5.8499">
        <ele>288</ele>
        <time>2021-06-16T12:19:56Z</time>
      </trkpt>
      <trkpt lat="47.11613" lon="5.85006">
        <ele>288.2</ele>
        <time>2021-06-16T12:19:59Z</time>
      </trkpt>
      <trkpt lat="47.1161" lon="5.8501">
        <ele>288.4</ele>
        <time>2021-06-16T12:20:00Z</time>
      </trkpt>
      <trkpt lat="47.11603" lon="5.85025">
        <ele>289</ele>
        <time>2021-06-16T12:20:03Z</time>
      </trkpt>
      <trkpt lat="47.11601" lon="5.85029">
        <ele>289</ele>
        <time>2021-06-16T12:20:04Z</time>
      </trkpt>
      <trkpt lat="47.11599" lon="5.85034">
        <ele>289.2</ele>
        <time>2021-06-16T12:20:05Z</time>
      </trkpt>
      <trkpt lat="47.11596" lon="5.85039">
        <ele>289.2</ele>
        <time>2021-06-16T12:20:06Z</time>
      </trkpt>
      <trkpt lat="47.11593" lon="5.85043">
        <ele>289.4</ele>
        <time>2021-06-16T12:20:07Z</time>
      </trkpt>
      <trkpt lat="47.11591" lon="5.85048">
        <ele>289.4</ele>
        <time>2021-06-16T12:20:08Z</time>
      </trkpt>
      <trkpt lat="47.11589" lon="5.85053">
        <ele>289.6</ele>
        <time>2021-06-16T12:20:09Z</time>
      </trkpt>
      <trkpt lat="47.11586" lon="5.85057">
        <ele>289.6</ele>
        <time>2021-06-16T12:20:10Z</time>
      </trkpt>
      <trkpt lat="47.11584" lon="5.85062">
        <ele>289.8</ele>
        <time>2021-06-16T12:20:11Z</time>
      </trkpt>
      <trkpt lat="47.11581" lon="5.85067">
        <ele>290</ele>
        <time>2021-06-16T12:20:12Z</time>
      </trkpt>
      <trkpt lat="47.11579" lon="5.8507">
        <ele>290</ele>
        <time>2021-06-16T12:20:13Z</time>
      </trkpt>
      <trkpt lat="47.11577" lon="5.85075">
        <ele>290</ele>
        <time>2021-06-16T12:20:14Z</time>
      </trkpt>
      <trkpt lat="47.11575" lon="5.85079">
        <ele>290.2</ele>
        <time>2021-06-16T12:20:15Z</time>
      </trkpt>
      <trkpt lat="47.11573" lon="5.85084">
        <ele>290.2</ele>
        <time>2021-06-16T12:20:16Z</time>
      </trkpt>
      <trkpt lat="47.11571" lon="5.85088">
        <ele>290.2</ele>
        <time>2021-06-16T12:20:17Z</time>
      </trkpt>
      <trkpt lat="47.1157" lon="5.85092">
        <ele>290.2</ele>
        <time>2021-06-16T12:20:18Z</time>
      </trkpt>
      <trkpt lat="47.11568" lon="5.85096">
        <ele>290.2</ele>
        <time>2021-06-16T12:20:19Z</time>
      </trkpt>
      <trkpt lat="47.11566" lon="5.851">
        <ele>290.4</ele>
        <time>2021-06-16T12:20:20Z</time>
      </trkpt>
      <trkpt lat="47.11564" lon="5.85105">
        <ele>290.8</ele>
        <time>2021-06-16T12:20:21Z</time>
      </trkpt>
      <trkpt lat="47.11563" lon="5.8511">
        <ele>291.2</ele>
        <time>2021-06-16T12:20:22Z</time>
      </trkpt>
      <trkpt lat="47.11561" lon="5.85114">
        <ele>291.4</ele>
        <time>2021-06-16T12:20:23Z</time>
      </trkpt>
      <trkpt lat="47.1156" lon="5.85118">
        <ele>291.6</ele>
        <time>2021-06-16T12:20:24Z</time>
      </trkpt>
      <trkpt lat="47.11558" lon="5.85122">
        <ele>291.6</ele>
        <time>2021-06-16T12:20:25Z</time>
      </trkpt>
      <trkpt lat="47.11556" lon="5.85127">
        <ele>291.8</ele>
        <time>2021-06-16T12:20:26Z</time>
      </trkpt>
      <trkpt lat="47.11554" lon="5.8513">
        <ele>291.8</ele>
        <time>2021-06-16T12:20:27Z</time>
      </trkpt>
      <trkpt lat="47.11552" lon="5.85133">
        <ele>292</ele>
        <time>2021-06-16T12:20:28Z</time>
      </trkpt>
      <trkpt lat="47.11549" lon="5.85135">
        <ele>292</ele>
        <time>2021-06-16T12:20:29Z</time>
      </trkpt>
      <trkpt lat="47.11546" lon="5.85136">
        <ele>292.2</ele>
        <time>2021-06-16T12:20:30Z</time>
      </trkpt>
      <trkpt lat="47.11543" lon="5.85137">
        <ele>292.6</ele>
        <time>2021-06-16T12:20:31Z</time>
      </trkpt>
      <trkpt lat="47.11539" lon="5.85136">
        <ele>292.8</ele>
        <time>2021-06-16T12:20:32Z</time>
      </trkpt>
      <trkpt lat="47.11536" lon="5.85136">
        <ele>293</ele>
        <time>2021-06-16T12:20:33Z</time>
      </trkpt>
      <trkpt lat="47.11533" lon="5.85135">
        <ele>293</ele>
        <time>2021-06-16T12:20:34Z</time>
      </trkpt>
      <trkpt lat="47.11529" lon="5.85133">
        <ele>293</ele>
        <time>2021-06-16T12:20:35Z</time>
      </trkpt>
      <trkpt lat="47.11526" lon="5.85131">
        <ele>293.2</ele>
        <time>2021-06-16T12:20:36Z</time>
      </trkpt>
      <trkpt lat="47.11523" lon="5.8513">
        <ele>293.2</ele>
        <time>2021-06-16T12:20:37Z</time>
      </trkpt>
      <trkpt lat="47.11519" lon="5.85128">
        <ele>293.2</ele>
        <time>2021-06-16T12:20:38Z</time>
      </trkpt>
      <trkpt lat="47.11517" lon="5.85127">
        <ele>293.4</ele>
        <time>2021-06-16T12:20:39Z</time>
      </trkpt>
      <trkpt lat="47.11514" lon="5.85125">
        <ele>293.4</ele>
        <time>2021-06-16T12:20:40Z</time>
      </trkpt>
      <trkpt lat="47.11511" lon="5.85124">
        <ele>293.4</ele>
        <time>2021-06-16T12:20:41Z</time>
      </trkpt>
      <trkpt lat="47.11509" lon="5.85123">
        <ele>293.4</ele>
        <time>2021-06-16T12:20:42Z</time>
      </trkpt>
      <trkpt lat="47.11507" lon="5.85122">
        <ele>293.6</ele>
        <time>2021-06-16T12:20:43Z</time>
      </trkpt>
      <trkpt lat="47.11504" lon="5.85121">
        <ele>293.8</ele>
        <time>2021-06-16T12:20:44Z</time>
      </trkpt>
      <trkpt lat="47.11502" lon="5.8512">
        <ele>293.8</ele>
        <time>2021-06-16T12:20:45Z</time>
      </trkpt>
      <trkpt lat="47.11499" lon="5.8512">
        <ele>294</ele>
        <time>2021-06-16T12:20:46Z</time>
      </trkpt>
      <trkpt lat="47.11496" lon="5.85119">
        <ele>294</ele>
        <time>2021-06-16T12:20:47Z</time>
      </trkpt>
      <trkpt lat="47.11493" lon="5.85118">
        <ele>294.2</ele>
        <time>2021-06-16T12:20:48Z</time>
      </trkpt>
      <trkpt lat="47.1149" lon="5.85117">
        <ele>294.2</ele>
        <time>2021-06-16T12:20:49Z</time>
      </trkpt>
      <trkpt lat="47.11488" lon="5.85116">
        <ele>294.4</ele>
        <time>2021-06-16T12:20:50Z</time>
      </trkpt>
      <trkpt lat="47.11486" lon="5.85115">
        <ele>294.6</ele>
        <time>2021-06-16T12:20:51Z</time>
      </trkpt>
      <trkpt lat="47.11483" lon="5.85115">
        <ele>294.6</ele>
        <time>2021-06-16T12:20:52Z</time>
      </trkpt>
      <trkpt lat="47.11481" lon="5.85115">
        <ele>295</ele>
        <time>2021-06-16T12:20:53Z</time>
      </trkpt>
      <trkpt lat="47.11479" lon="5.85116">
        <ele>295</ele>
        <time>2021-06-16T12:20:54Z</time>
      </trkpt>
      <trkpt lat="47.11477" lon="5.85116">
        <ele>295.4</ele>
        <time>2021-06-16T12:20:55Z</time>
      </trkpt>
      <trkpt lat="47.11475" lon="5.85117">
        <ele>295.8</ele>
        <time>2021-06-16T12:20:56Z</time>
      </trkpt>
      <trkpt lat="47.11474" lon="5.8512">
        <ele>295.8</ele>
        <time>2021-06-16T12:20:57Z</time>
      </trkpt>
      <trkpt lat="47.11473" lon="5.85122">
        <ele>296.2</ele>
        <time>2021-06-16T12:20:58Z</time>
      </trkpt>
      <trkpt lat="47.11472" lon="5.85125">
        <ele>296.2</ele>
        <time>2021-06-16T12:20:59Z</time>
      </trkpt>
      <trkpt lat="47.11471" lon="5.85129">
        <ele>296.4</ele>
        <time>2021-06-16T12:21:00Z</time>
      </trkpt>
      <trkpt lat="47.11471" lon="5.85134">
        <ele>296.6</ele>
        <time>2021-06-16T12:21:01Z</time>
      </trkpt>
      <trkpt lat="47.11471" lon="5.85138">
        <ele>296.6</ele>
        <time>2021-06-16T12:21:02Z</time>
      </trkpt>
      <trkpt lat="47.1147" lon="5.85142">
        <ele>296.8</ele>
        <time>2021-06-16T12:21:03Z</time>
      </trkpt>
      <trkpt lat="47.1147" lon="5.85146">
        <ele>296.8</ele>
        <time>2021-06-16T12:21:04Z</time>
      </trkpt>
      <trkpt lat="47.11471" lon="5.8515">
        <ele>296.8</ele>
        <time>2021-06-16T12:21:05Z</time>
      </trkpt>
      <trkpt lat="47.11471" lon="5.85154">
        <ele>297</ele>
        <time>2021-06-16T12:21:06Z</time>
      </trkpt>
      <trkpt lat="47.11472" lon="5.85157">
        <ele>297</ele>
        <time>2021-06-16T12:21:07Z</time>
      </trkpt>
      <trkpt lat="47.11473" lon="5.85162">
        <ele>297.2</ele>
        <time>2021-06-16T12:21:08Z</time>
      </trkpt>
      <trkpt lat="47.11474" lon="5.85165">
        <ele>297.2</ele>
        <time>2021-06-16T12:21:09Z</time>
      </trkpt>
      <trkpt lat="47.11476" lon="5.85168">
        <ele>297.2</ele>
        <time>2021-06-16T12:21:10Z</time>
      </trkpt>
      <trkpt lat="47.11478" lon="5.85171">
        <ele>297.2</ele>
        <time>2021-06-16T12:21:11Z</time>
      </trkpt>
      <trkpt lat="47.11481" lon="5.85173">
        <ele>297.4</ele>
        <time>2021-06-16T12:21:12Z</time>
      </trkpt>
      <trkpt lat="47.11483" lon="5.85175">
        <ele>297.4</ele>
        <time>2021-06-16T12:21:13Z</time>
      </trkpt>
      <trkpt lat="47.11484" lon="5.85178">
        <ele>297.6</ele>
        <time>2021-06-16T12:21:14Z</time>
      </trkpt>
      <trkpt lat="47.11486" lon="5.8518">
        <ele>297.6</ele>
        <time>2021-06-16T12:21:15Z</time>
      </trkpt>
      <trkpt lat="47.11488" lon="5.85182">
        <ele>297.6</ele>
        <time>2021-06-16T12:21:16Z</time>
      </trkpt>
      <trkpt lat="47.1149" lon="5.85183">
        <ele>297.8</ele>
        <time>2021-06-16T12:21:17Z</time>
      </trkpt>
      <trkpt lat="47.11492" lon="5.85184">
        <ele>297.8</ele>
        <time>2021-06-16T12:21:18Z</time>
      </trkpt>
      <trkpt lat="47.11494" lon="5.85186">
        <ele>298</ele>
        <time>2021-06-16T12:21:19Z</time>
      </trkpt>
      <trkpt lat="47.11497" lon="5.85187">
        <ele>298.2</ele>
        <time>2021-06-16T12:21:20Z</time>
      </trkpt>
      <trkpt lat="47.115" lon="5.85189">
        <ele>298.2</ele>
        <time>2021-06-16T12:21:21Z</time>
      </trkpt>
      <trkpt lat="47.11504" lon="5.85191">
        <ele>298.4</ele>
        <time>2021-06-16T12:21:22Z</time>
      </trkpt>
      <trkpt lat="47.11506" lon="5.85194">
        <ele>298.4</ele>
        <time>2021-06-16T12:21:23Z</time>
      </trkpt>
      <trkpt lat="47.11509" lon="5.85197">
        <ele>298.6</ele>
        <time>2021-06-16T12:21:24Z</time>
      </trkpt>
      <trkpt lat="47.11513" lon="5.852">
        <ele>298.6</ele>
        <time>2021-06-16T12:21:25Z</time>
      </trkpt>
      <trkpt lat="47.11517" lon="5.85203">
        <ele>298.6</ele>
        <time>2021-06-16T12:21:26Z</time>
      </trkpt>
      <trkpt lat="47.1152" lon="5.85206">
        <ele>298.6</ele>
        <time>2021-06-16T12:21:27Z</time>
      </trkpt>
      <trkpt lat="47.11523" lon="5.85209">
        <ele>298.6</ele>
        <time>2021-06-16T12:21:28Z</time>
      </trkpt>
      <trkpt lat="47.11525" lon="5.85213">
        <ele>298.6</ele>
        <time>2021-06-16T12:21:29Z</time>
      </trkpt>
      <trkpt lat="47.11528" lon="5.85217">
        <ele>298.8</ele>
        <time>2021-06-16T12:21:30Z</time>
      </trkpt>
      <trkpt lat="47.11533" lon="5.85228">
        <ele>298.6</ele>
        <time>2021-06-16T12:21:33Z</time>
      </trkpt>
      <trkpt lat="47.11535" lon="5.85232">
        <ele>298.6</ele>
        <time>2021-06-16T12:21:34Z</time>
      </trkpt>
      <trkpt lat="47.11536" lon="5.85237">
        <ele>298.6</ele>
        <time>2021-06-16T12:21:35Z</time>
      </trkpt>
      <trkpt lat="47.11537" lon="5.85242">
        <ele>298.6</ele>
        <time>2021-06-16T12:21:36Z</time>
      </trkpt>
      <trkpt lat="47.11538" lon="5.85246">
        <ele>298.6</ele>
        <time>2021-06-16T12:21:37Z</time>
      </trkpt>
      <trkpt lat="47.11538" lon="5.85251">
        <ele>298.6</ele>
        <time>2021-06-16T12:21:38Z</time>
      </trkpt>
      <trkpt lat="47.11539" lon="5.85257">
        <ele>298.6</ele>
        <time>2021-06-16T12:21:39Z</time>
      </trkpt>
      <trkpt lat="47.1154" lon="5.85261">
        <ele>298.6</ele>
        <time>2021-06-16T12:21:40Z</time>
      </trkpt>
      <trkpt lat="47.11541" lon="5.85266">
        <ele>298.6</ele>
        <time>2021-06-16T12:21:41Z</time>
      </trkpt>
      <trkpt lat="47.11541" lon="5.85269">
        <ele>298.6</ele>
        <time>2021-06-16T12:21:42Z</time>
      </trkpt>
      <trkpt lat="47.11541" lon="5.85273">
        <ele>298.6</ele>
        <time>2021-06-16T12:21:43Z</time>
      </trkpt>
      <trkpt lat="47.11542" lon="5.85278">
        <ele>298.8</ele>
        <time>2021-06-16T12:21:44Z</time>
      </trkpt>
      <trkpt lat="47.11544" lon="5.85285">
        <ele>299</ele>
        <time>2021-06-16T12:21:46Z</time>
      </trkpt>
      <trkpt lat="47.11545" lon="5.85289">
        <ele>299.2</ele>
        <time>2021-06-16T12:21:47Z</time>
      </trkpt>
      <trkpt lat="47.11545" lon="5.85293">
        <ele>299.4</ele>
        <time>2021-06-16T12:21:48Z</time>
      </trkpt>
      <trkpt lat="47.11546" lon="5.85296">
        <ele>299.6</ele>
        <time>2021-06-16T12:21:49Z</time>
      </trkpt>
      <trkpt lat="47.11547" lon="5.853">
        <ele>299.6</ele>
        <time>2021-06-16T12:21:50Z</time>
      </trkpt>
      <trkpt lat="47.11548" lon="5.85305">
        <ele>299.8</ele>
        <time>2021-06-16T12:21:51Z</time>
      </trkpt>
      <trkpt lat="47.11548" lon="5.85309">
        <ele>300</ele>
        <time>2021-06-16T12:21:52Z</time>
      </trkpt>
      <trkpt lat="47.11552" lon="5.85329">
        <ele>300.4</ele>
        <time>2021-06-16T12:21:56Z</time>
      </trkpt>
      <trkpt lat="47.11553" lon="5.85333">
        <ele>300.2</ele>
        <time>2021-06-16T12:21:57Z</time>
      </trkpt>
      <trkpt lat="47.11554" lon="5.85337">
        <ele>300.4</ele>
        <time>2021-06-16T12:21:58Z</time>
      </trkpt>
      <trkpt lat="47.11556" lon="5.8534">
        <ele>300.4</ele>
        <time>2021-06-16T12:21:59Z</time>
      </trkpt>
      <trkpt lat="47.11558" lon="5.85342">
        <ele>300.6</ele>
        <time>2021-06-16T12:22:00Z</time>
      </trkpt>
      <trkpt lat="47.11561" lon="5.85342">
        <ele>300.8</ele>
        <time>2021-06-16T12:22:01Z</time>
      </trkpt>
      <trkpt lat="47.11578" lon="5.85335">
        <ele>300.6</ele>
        <time>2021-06-16T12:22:05Z</time>
      </trkpt>
      <trkpt lat="47.1159" lon="5.85331">
        <ele>300.6</ele>
        <time>2021-06-16T12:22:07Z</time>
      </trkpt>
      <trkpt lat="47.11603" lon="5.85335">
        <ele>300.2</ele>
        <time>2021-06-16T12:22:09Z</time>
      </trkpt>
      <trkpt lat="47.11607" lon="5.85339">
        <ele>300</ele>
        <time>2021-06-16T12:22:10Z</time>
      </trkpt>
      <trkpt lat="47.11613" lon="5.85344">
        <ele>299.6</ele>
        <time>2021-06-16T12:22:11Z</time>
      </trkpt>
      <trkpt lat="47.11619" lon="5.8535">
        <ele>299.4</ele>
        <time>2021-06-16T12:22:12Z</time>
      </trkpt>
      <trkpt lat="47.11624" lon="5.85356">
        <ele>299</ele>
        <time>2021-06-16T12:22:13Z</time>
      </trkpt>
      <trkpt lat="47.11628" lon="5.85362">
        <ele>298.8</ele>
        <time>2021-06-16T12:22:14Z</time>
      </trkpt>
      <trkpt lat="47.11636" lon="5.85372">
        <ele>298</ele>
        <time>2021-06-16T12:22:16Z</time>
      </trkpt>
      <trkpt lat="47.11645" lon="5.85384">
        <ele>297.6</ele>
        <time>2021-06-16T12:22:18Z</time>
      </trkpt>
      <trkpt lat="47.11648" lon="5.85389">
        <ele>297.6</ele>
        <time>2021-06-16T12:22:19Z</time>
      </trkpt>
      <trkpt lat="47.11651" lon="5.85394">
        <ele>297.4</ele>
        <time>2021-06-16T12:22:20Z</time>
      </trkpt>
      <trkpt lat="47.11673" lon="5.85434">
        <ele>297.4</ele>
        <time>2021-06-16T12:22:26Z</time>
      </trkpt>
      <trkpt lat="47.11678" lon="5.85441">
        <ele>297.4</ele>
        <time>2021-06-16T12:22:27Z</time>
      </trkpt>
      <trkpt lat="47.11681" lon="5.85446">
        <ele>297.6</ele>
        <time>2021-06-16T12:22:28Z</time>
      </trkpt>
      <trkpt lat="47.11684" lon="5.85451">
        <ele>297.4</ele>
        <time>2021-06-16T12:22:29Z</time>
      </trkpt>
      <trkpt lat="47.11688" lon="5.85455">
        <ele>297.4</ele>
        <time>2021-06-16T12:22:30Z</time>
      </trkpt>
      <trkpt lat="47.11692" lon="5.8546">
        <ele>297.4</ele>
        <time>2021-06-16T12:22:31Z</time>
      </trkpt>
      <trkpt lat="47.11694" lon="5.85465">
        <ele>297.2</ele>
        <time>2021-06-16T12:22:32Z</time>
      </trkpt>
      <trkpt lat="47.11695" lon="5.85469">
        <ele>297.4</ele>
        <time>2021-06-16T12:22:33Z</time>
      </trkpt>
      <trkpt lat="47.11696" lon="5.85471">
        <ele>297.6</ele>
        <time>2021-06-16T12:22:34Z</time>
      </trkpt>
      <trkpt lat="47.11697" lon="5.85473">
        <ele>297.6</ele>
        <time>2021-06-16T12:22:35Z</time>
      </trkpt>
      <trkpt lat="47.117" lon="5.85476">
        <ele>297.6</ele>
        <time>2021-06-16T12:22:36Z</time>
      </trkpt>
      <trkpt lat="47.11702" lon="5.85479">
        <ele>297.8</ele>
        <time>2021-06-16T12:22:37Z</time>
      </trkpt>
      <trkpt lat="47.11713" lon="5.85501">
        <ele>298.6</ele>
        <time>2021-06-16T12:22:42Z</time>
      </trkpt>
      <trkpt lat="47.11716" lon="5.85504">
        <ele>298.6</ele>
        <time>2021-06-16T12:22:43Z</time>
      </trkpt>
      <trkpt lat="47.11735" lon="5.85526">
        <ele>298.6</ele>
        <time>2021-06-16T12:22:48Z</time>
      </trkpt>
      <trkpt lat="47.11738" lon="5.85531">
        <ele>298.6</ele>
        <time>2021-06-16T12:22:49Z</time>
      </trkpt>
      <trkpt lat="47.11759" lon="5.85567">
        <ele>298.6</ele>
        <time>2021-06-16T12:22:55Z</time>
      </trkpt>
      <trkpt lat="47.11787" lon="5.85624">
        <ele>298</ele>
        <time>2021-06-16T12:23:04Z</time>
      </trkpt>
      <trkpt lat="47.11794" lon="5.85643">
        <ele>297.8</ele>
        <time>2021-06-16T12:23:07Z</time>
      </trkpt>
      <trkpt lat="47.11795" lon="5.85648">
        <ele>297.6</ele>
        <time>2021-06-16T12:23:08Z</time>
      </trkpt>
      <trkpt lat="47.11797" lon="5.85652">
        <ele>297.6</ele>
        <time>2021-06-16T12:23:09Z</time>
      </trkpt>
      <trkpt lat="47.11798" lon="5.85656">
        <ele>297.6</ele>
        <time>2021-06-16T12:23:10Z</time>
      </trkpt>
      <trkpt lat="47.118" lon="5.85659">
        <ele>297.6</ele>
        <time>2021-06-16T12:23:11Z</time>
      </trkpt>
      <trkpt lat="47.11802" lon="5.85662">
        <ele>297.6</ele>
        <time>2021-06-16T12:23:12Z</time>
      </trkpt>
      <trkpt lat="47.11804" lon="5.85665">
        <ele>297.6</ele>
        <time>2021-06-16T12:23:13Z</time>
      </trkpt>
      <trkpt lat="47.11806" lon="5.85668">
        <ele>297.6</ele>
        <time>2021-06-16T12:23:14Z</time>
      </trkpt>
      <trkpt lat="47.1182" lon="5.8568">
        <ele>297.6</ele>
        <time>2021-06-16T12:23:19Z</time>
      </trkpt>
      <trkpt lat="47.11826" lon="5.85691">
        <ele>297.4</ele>
        <time>2021-06-16T12:23:22Z</time>
      </trkpt>
      <trkpt lat="47.11827" lon="5.85694">
        <ele>297</ele>
        <time>2021-06-16T12:23:23Z</time>
      </trkpt>
      <trkpt lat="47.11829" lon="5.85697">
        <ele>296.8</ele>
        <time>2021-06-16T12:23:24Z</time>
      </trkpt>
      <trkpt lat="47.11838" lon="5.85711">
        <ele>296</ele>
        <time>2021-06-16T12:23:28Z</time>
      </trkpt>
      <trkpt lat="47.11839" lon="5.85712">
        <ele>295.6</ele>
        <time>2021-06-16T12:23:29Z</time>
      </trkpt>
      <trkpt lat="47.11845" lon="5.85718">
        <ele>294.8</ele>
        <time>2021-06-16T12:23:31Z</time>
      </trkpt>
      <trkpt lat="47.11851" lon="5.85725">
        <ele>294.2</ele>
        <time>2021-06-16T12:23:33Z</time>
      </trkpt>
      <trkpt lat="47.11862" lon="5.85737">
        <ele>293.8</ele>
        <time>2021-06-16T12:23:36Z</time>
      </trkpt>
      <trkpt lat="47.11866" lon="5.85741">
        <ele>293.8</ele>
        <time>2021-06-16T12:23:37Z</time>
      </trkpt>
      <trkpt lat="47.11869" lon="5.85743">
        <ele>293.6</ele>
        <time>2021-06-16T12:23:38Z</time>
      </trkpt>
      <trkpt lat="47.11871" lon="5.85747">
        <ele>293.2</ele>
        <time>2021-06-16T12:23:39Z</time>
      </trkpt>
      <trkpt lat="47.11873" lon="5.85751">
        <ele>292.8</ele>
        <time>2021-06-16T12:23:40Z</time>
      </trkpt>
      <trkpt lat="47.11876" lon="5.85756">
        <ele>292.6</ele>
        <time>2021-06-16T12:23:41Z</time>
      </trkpt>
      <trkpt lat="47.11879" lon="5.8576">
        <ele>291.8</ele>
        <time>2021-06-16T12:23:42Z</time>
      </trkpt>
      <trkpt lat="47.11882" lon="5.85765">
        <ele>291.4</ele>
        <time>2021-06-16T12:23:43Z</time>
      </trkpt>
      <trkpt lat="47.11885" lon="5.85769">
        <ele>291</ele>
        <time>2021-06-16T12:23:44Z</time>
      </trkpt>
      <trkpt lat="47.11886" lon="5.85771">
        <ele>290.6</ele>
        <time>2021-06-16T12:23:45Z</time>
      </trkpt>
      <trkpt lat="47.11888" lon="5.85774">
        <ele>290.4</ele>
        <time>2021-06-16T12:23:46Z</time>
      </trkpt>
      <trkpt lat="47.11889" lon="5.85776">
        <ele>289.8</ele>
        <time>2021-06-16T12:23:47Z</time>
      </trkpt>
      <trkpt lat="47.11892" lon="5.85778">
        <ele>289.4</ele>
        <time>2021-06-16T12:23:48Z</time>
      </trkpt>
      <trkpt lat="47.11895" lon="5.85785">
        <ele>289</ele>
        <time>2021-06-16T12:23:50Z</time>
      </trkpt>
      <trkpt lat="47.11896" lon="5.85789">
        <ele>288.8</ele>
        <time>2021-06-16T12:23:51Z</time>
      </trkpt>
      <trkpt lat="47.11903" lon="5.85804">
        <ele>287.4</ele>
        <time>2021-06-16T12:23:55Z</time>
      </trkpt>
      <trkpt lat="47.11906" lon="5.85815">
        <ele>286.8</ele>
        <time>2021-06-16T12:23:57Z</time>
      </trkpt>
      <trkpt lat="47.11906" lon="5.85822">
        <ele>286.8</ele>
        <time>2021-06-16T12:23:58Z</time>
      </trkpt>
      <trkpt lat="47.11906" lon="5.85831">
        <ele>286.6</ele>
        <time>2021-06-16T12:23:59Z</time>
      </trkpt>
      <trkpt lat="47.11907" lon="5.85838">
        <ele>286.4</ele>
        <time>2021-06-16T12:24:00Z</time>
      </trkpt>
      <trkpt lat="47.11908" lon="5.85853">
        <ele>286</ele>
        <time>2021-06-16T12:24:02Z</time>
      </trkpt>
      <trkpt lat="47.1191" lon="5.8587">
        <ele>285.2</ele>
        <time>2021-06-16T12:24:04Z</time>
      </trkpt>
      <trkpt lat="47.11912" lon="5.85879">
        <ele>284.8</ele>
        <time>2021-06-16T12:24:05Z</time>
      </trkpt>
      <trkpt lat="47.11916" lon="5.85893">
        <ele>284.2</ele>
        <time>2021-06-16T12:24:07Z</time>
      </trkpt>
      <trkpt lat="47.11919" lon="5.859">
        <ele>284.2</ele>
        <time>2021-06-16T12:24:08Z</time>
      </trkpt>
      <trkpt lat="47.11928" lon="5.85919">
        <ele>283.2</ele>
        <time>2021-06-16T12:24:11Z</time>
      </trkpt>
      <trkpt lat="47.11932" lon="5.85925">
        <ele>283</ele>
        <time>2021-06-16T12:24:12Z</time>
      </trkpt>
      <trkpt lat="47.11936" lon="5.8593">
        <ele>283</ele>
        <time>2021-06-16T12:24:13Z</time>
      </trkpt>
      <trkpt lat="47.11938" lon="5.85933">
        <ele>283</ele>
        <time>2021-06-16T12:24:14Z</time>
      </trkpt>
      <trkpt lat="47.11942" lon="5.85936">
        <ele>283</ele>
        <time>2021-06-16T12:24:15Z</time>
      </trkpt>
      <trkpt lat="47.11945" lon="5.8594">
        <ele>283</ele>
        <time>2021-06-16T12:24:16Z</time>
      </trkpt>
      <trkpt lat="47.11949" lon="5.85943">
        <ele>283</ele>
        <time>2021-06-16T12:24:17Z</time>
      </trkpt>
      <trkpt lat="47.11957" lon="5.85948">
        <ele>283.2</ele>
        <time>2021-06-16T12:24:19Z</time>
      </trkpt>
      <trkpt lat="47.11964" lon="5.85952">
        <ele>283.6</ele>
        <time>2021-06-16T12:24:21Z</time>
      </trkpt>
      <trkpt lat="47.11968" lon="5.85954">
        <ele>283.6</ele>
        <time>2021-06-16T12:24:22Z</time>
      </trkpt>
      <trkpt lat="47.11972" lon="5.85956">
        <ele>283.8</ele>
        <time>2021-06-16T12:24:23Z</time>
      </trkpt>
      <trkpt lat="47.11975" lon="5.85958">
        <ele>284</ele>
        <time>2021-06-16T12:24:24Z</time>
      </trkpt>
      <trkpt lat="47.11979" lon="5.85959">
        <ele>284</ele>
        <time>2021-06-16T12:24:25Z</time>
      </trkpt>
      <trkpt lat="47.11983" lon="5.85961">
        <ele>284.2</ele>
        <time>2021-06-16T12:24:26Z</time>
      </trkpt>
      <trkpt lat="47.11987" lon="5.85963">
        <ele>284.2</ele>
        <time>2021-06-16T12:24:27Z</time>
      </trkpt>
      <trkpt lat="47.11991" lon="5.85964">
        <ele>284.4</ele>
        <time>2021-06-16T12:24:28Z</time>
      </trkpt>
      <trkpt lat="47.11997" lon="5.85967">
        <ele>285</ele>
        <time>2021-06-16T12:24:30Z</time>
      </trkpt>
      <trkpt lat="47.12" lon="5.85968">
        <ele>285.2</ele>
        <time>2021-06-16T12:24:31Z</time>
      </trkpt>
      <trkpt lat="47.12005" lon="5.85969">
        <ele>285.4</ele>
        <time>2021-06-16T12:24:32Z</time>
      </trkpt>
      <trkpt lat="47.12007" lon="5.8597">
        <ele>285.6</ele>
        <time>2021-06-16T12:24:33Z</time>
      </trkpt>
      <trkpt lat="47.1201" lon="5.85972">
        <ele>285.8</ele>
        <time>2021-06-16T12:24:34Z</time>
      </trkpt>
      <trkpt lat="47.12012" lon="5.85973">
        <ele>285.8</ele>
        <time>2021-06-16T12:24:35Z</time>
      </trkpt>
      <trkpt lat="47.12015" lon="5.85974">
        <ele>286.2</ele>
        <time>2021-06-16T12:24:36Z</time>
      </trkpt>
      <trkpt lat="47.12018" lon="5.85976">
        <ele>286.2</ele>
        <time>2021-06-16T12:24:37Z</time>
      </trkpt>
      <trkpt lat="47.12029" lon="5.85982">
        <ele>287.4</ele>
        <time>2021-06-16T12:24:41Z</time>
      </trkpt>
      <trkpt lat="47.12032" lon="5.85983">
        <ele>287.4</ele>
        <time>2021-06-16T12:24:42Z</time>
      </trkpt>
      <trkpt lat="47.12035" lon="5.85985">
        <ele>287.6</ele>
        <time>2021-06-16T12:24:43Z</time>
      </trkpt>
      <trkpt lat="47.12038" lon="5.85987">
        <ele>287.8</ele>
        <time>2021-06-16T12:24:44Z</time>
      </trkpt>
      <trkpt lat="47.12041" lon="5.85988">
        <ele>288</ele>
        <time>2021-06-16T12:24:45Z</time>
      </trkpt>
      <trkpt lat="47.12044" lon="5.8599">
        <ele>288.2</ele>
        <time>2021-06-16T12:24:46Z</time>
      </trkpt>
      <trkpt lat="47.12047" lon="5.85992">
        <ele>288.4</ele>
        <time>2021-06-16T12:24:47Z</time>
      </trkpt>
      <trkpt lat="47.12051" lon="5.85994">
        <ele>288.6</ele>
        <time>2021-06-16T12:24:48Z</time>
      </trkpt>
      <trkpt lat="47.12054" lon="5.85995">
        <ele>288.8</ele>
        <time>2021-06-16T12:24:49Z</time>
      </trkpt>
      <trkpt lat="47.12058" lon="5.85997">
        <ele>289</ele>
        <time>2021-06-16T12:24:50Z</time>
      </trkpt>
      <trkpt lat="47.12061" lon="5.85999">
        <ele>289.2</ele>
        <time>2021-06-16T12:24:51Z</time>
      </trkpt>
      <trkpt lat="47.12065" lon="5.86001">
        <ele>289.4</ele>
        <time>2021-06-16T12:24:52Z</time>
      </trkpt>
      <trkpt lat="47.12068" lon="5.86002">
        <ele>289.6</ele>
        <time>2021-06-16T12:24:53Z</time>
      </trkpt>
      <trkpt lat="47.12072" lon="5.86003">
        <ele>289.8</ele>
        <time>2021-06-16T12:24:54Z</time>
      </trkpt>
      <trkpt lat="47.12075" lon="5.86004">
        <ele>289.8</ele>
        <time>2021-06-16T12:24:55Z</time>
      </trkpt>
      <trkpt lat="47.12078" lon="5.86004">
        <ele>290</ele>
        <time>2021-06-16T12:24:56Z</time>
      </trkpt>
      <trkpt lat="47.12081" lon="5.86004">
        <ele>290.2</ele>
        <time>2021-06-16T12:24:57Z</time>
      </trkpt>
      <trkpt lat="47.12084" lon="5.86004">
        <ele>290.4</ele>
        <time>2021-06-16T12:24:58Z</time>
      </trkpt>
      <trkpt lat="47.12087" lon="5.86003">
        <ele>290.4</ele>
        <time>2021-06-16T12:24:59Z</time>
      </trkpt>
      <trkpt lat="47.1209" lon="5.86001">
        <ele>290.8</ele>
        <time>2021-06-16T12:25:00Z</time>
      </trkpt>
      <trkpt lat="47.12094" lon="5.85999">
        <ele>290.8</ele>
        <time>2021-06-16T12:25:01Z</time>
      </trkpt>
      <trkpt lat="47.12098" lon="5.85998">
        <ele>291</ele>
        <time>2021-06-16T12:25:02Z</time>
      </trkpt>
      <trkpt lat="47.12102" lon="5.85996">
        <ele>291</ele>
        <time>2021-06-16T12:25:03Z</time>
      </trkpt>
      <trkpt lat="47.12106" lon="5.85993">
        <ele>291.2</ele>
        <time>2021-06-16T12:25:04Z</time>
      </trkpt>
      <trkpt lat="47.1211" lon="5.8599">
        <ele>291.2</ele>
        <time>2021-06-16T12:25:05Z</time>
      </trkpt>
      <trkpt lat="47.12114" lon="5.85987">
        <ele>291.2</ele>
        <time>2021-06-16T12:25:06Z</time>
      </trkpt>
      <trkpt lat="47.12118" lon="5.85982">
        <ele>290.8</ele>
        <time>2021-06-16T12:25:07Z</time>
      </trkpt>
      <trkpt lat="47.12122" lon="5.85978">
        <ele>290.8</ele>
        <time>2021-06-16T12:25:08Z</time>
      </trkpt>
      <trkpt lat="47.12126" lon="5.85973">
        <ele>290.8</ele>
        <time>2021-06-16T12:25:09Z</time>
      </trkpt>
      <trkpt lat="47.1213" lon="5.85967">
        <ele>290.6</ele>
        <time>2021-06-16T12:25:10Z</time>
      </trkpt>
      <trkpt lat="47.12135" lon="5.85962">
        <ele>290.4</ele>
        <time>2021-06-16T12:25:11Z</time>
      </trkpt>
      <trkpt lat="47.12139" lon="5.85957">
        <ele>290</ele>
        <time>2021-06-16T12:25:12Z</time>
      </trkpt>
      <trkpt lat="47.12144" lon="5.85952">
        <ele>289.8</ele>
        <time>2021-06-16T12:25:13Z</time>
      </trkpt>
      <trkpt lat="47.1215" lon="5.85947">
        <ele>289.6</ele>
        <time>2021-06-16T12:25:14Z</time>
      </trkpt>
      <trkpt lat="47.1216" lon="5.8594">
        <ele>288.8</ele>
        <time>2021-06-16T12:25:16Z</time>
      </trkpt>
      <trkpt lat="47.12166" lon="5.85937">
        <ele>288.4</ele>
        <time>2021-06-16T12:25:17Z</time>
      </trkpt>
      <trkpt lat="47.12182" lon="5.85926">
        <ele>287.8</ele>
        <time>2021-06-16T12:25:20Z</time>
      </trkpt>
      <trkpt lat="47.12203" lon="5.85913">
        <ele>287.6</ele>
        <time>2021-06-16T12:25:24Z</time>
      </trkpt>
      <trkpt lat="47.12208" lon="5.85911">
        <ele>287.4</ele>
        <time>2021-06-16T12:25:25Z</time>
      </trkpt>
      <trkpt lat="47.12214" lon="5.8591">
        <ele>287.4</ele>
        <time>2021-06-16T12:25:26Z</time>
      </trkpt>
      <trkpt lat="47.12242" lon="5.85907">
        <ele>287</ele>
        <time>2021-06-16T12:25:31Z</time>
      </trkpt>
      <trkpt lat="47.12248" lon="5.85906">
        <ele>287</ele>
        <time>2021-06-16T12:25:32Z</time>
      </trkpt>
      <trkpt lat="47.12259" lon="5.85902">
        <ele>286.8</ele>
        <time>2021-06-16T12:25:34Z</time>
      </trkpt>
      <trkpt lat="47.12282" lon="5.85893">
        <ele>285.6</ele>
        <time>2021-06-16T12:25:38Z</time>
      </trkpt>
      <trkpt lat="47.12299" lon="5.85884">
        <ele>285.2</ele>
        <time>2021-06-16T12:25:41Z</time>
      </trkpt>
      <trkpt lat="47.12311" lon="5.85876">
        <ele>285.2</ele>
        <time>2021-06-16T12:25:43Z</time>
      </trkpt>
      <trkpt lat="47.12327" lon="5.85861">
        <ele>284.4</ele>
        <time>2021-06-16T12:25:46Z</time>
      </trkpt>
      <trkpt lat="47.12332" lon="5.85854">
        <ele>284.2</ele>
        <time>2021-06-16T12:25:47Z</time>
      </trkpt>
      <trkpt lat="47.12337" lon="5.85847">
        <ele>283.8</ele>
        <time>2021-06-16T12:25:48Z</time>
      </trkpt>
      <trkpt lat="47.12345" lon="5.85831">
        <ele>283.2</ele>
        <time>2021-06-16T12:25:50Z</time>
      </trkpt>
      <trkpt lat="47.1235" lon="5.85823">
        <ele>282.6</ele>
        <time>2021-06-16T12:25:51Z</time>
      </trkpt>
      <trkpt lat="47.12359" lon="5.85808">
        <ele>282.2</ele>
        <time>2021-06-16T12:25:53Z</time>
      </trkpt>
      <trkpt lat="47.12369" lon="5.85796">
        <ele>281</ele>
        <time>2021-06-16T12:25:55Z</time>
      </trkpt>
      <trkpt lat="47.12374" lon="5.85791">
        <ele>280.2</ele>
        <time>2021-06-16T12:25:56Z</time>
      </trkpt>
      <trkpt lat="47.12378" lon="5.85786">
        <ele>279.6</ele>
        <time>2021-06-16T12:25:57Z</time>
      </trkpt>
      <trkpt lat="47.12382" lon="5.85783">
        <ele>278.8</ele>
        <time>2021-06-16T12:25:58Z</time>
      </trkpt>
      <trkpt lat="47.12384" lon="5.85779">
        <ele>278.4</ele>
        <time>2021-06-16T12:25:59Z</time>
      </trkpt>
      <trkpt lat="47.12386" lon="5.85777">
        <ele>277.6</ele>
        <time>2021-06-16T12:26:00Z</time>
      </trkpt>
      <trkpt lat="47.12388" lon="5.85775">
        <ele>277</ele>
        <time>2021-06-16T12:26:01Z</time>
      </trkpt>
      <trkpt lat="47.12391" lon="5.85773">
        <ele>276.8</ele>
        <time>2021-06-16T12:26:02Z</time>
      </trkpt>
      <trkpt lat="47.12397" lon="5.85768">
        <ele>276</ele>
        <time>2021-06-16T12:26:04Z</time>
      </trkpt>
      <trkpt lat="47.12401" lon="5.85766">
        <ele>275.8</ele>
        <time>2021-06-16T12:26:05Z</time>
      </trkpt>
      <trkpt lat="47.12406" lon="5.85764">
        <ele>275.6</ele>
        <time>2021-06-16T12:26:06Z</time>
      </trkpt>
      <trkpt lat="47.12417" lon="5.85761">
        <ele>274.4</ele>
        <time>2021-06-16T12:26:08Z</time>
      </trkpt>
      <trkpt lat="47.12433" lon="5.85759">
        <ele>273</ele>
        <time>2021-06-16T12:26:11Z</time>
      </trkpt>
      <trkpt lat="47.12443" lon="5.85759">
        <ele>272.8</ele>
        <time>2021-06-16T12:26:13Z</time>
      </trkpt>
      <trkpt lat="47.12447" lon="5.85758">
        <ele>272.8</ele>
        <time>2021-06-16T12:26:14Z</time>
      </trkpt>
      <trkpt lat="47.12449" lon="5.85758">
        <ele>272.8</ele>
        <time>2021-06-16T12:26:15Z</time>
      </trkpt>
      <trkpt lat="47.12451" lon="5.85758">
        <ele>272.8</ele>
        <time>2021-06-16T12:26:16Z</time>
      </trkpt>
      <trkpt lat="47.12453" lon="5.85757">
        <ele>272.8</ele>
        <time>2021-06-16T12:26:17Z</time>
      </trkpt>
      <trkpt lat="47.12455" lon="5.85757">
        <ele>273</ele>
        <time>2021-06-16T12:26:18Z</time>
      </trkpt>
      <trkpt lat="47.12457" lon="5.85756">
        <ele>273</ele>
        <time>2021-06-16T12:26:19Z</time>
      </trkpt>
      <trkpt lat="47.12459" lon="5.85754">
        <ele>273</ele>
        <time>2021-06-16T12:26:20Z</time>
      </trkpt>
      <trkpt lat="47.12461" lon="5.85751">
        <ele>273</ele>
        <time>2021-06-16T12:26:21Z</time>
      </trkpt>
      <trkpt lat="47.12464" lon="5.85749">
        <ele>273</ele>
        <time>2021-06-16T12:26:22Z</time>
      </trkpt>
      <trkpt lat="47.1248" lon="5.85736">
        <ele>273</ele>
        <time>2021-06-16T12:26:26Z</time>
      </trkpt>
      <trkpt lat="47.12502" lon="5.85714">
        <ele>272.8</ele>
        <time>2021-06-16T12:26:30Z</time>
      </trkpt>
      <trkpt lat="47.12516" lon="5.85696">
        <ele>272.6</ele>
        <time>2021-06-16T12:26:33Z</time>
      </trkpt>
      <trkpt lat="47.12531" lon="5.85679">
        <ele>272.4</ele>
        <time>2021-06-16T12:26:36Z</time>
      </trkpt>
      <trkpt lat="47.12535" lon="5.85675">
        <ele>272.6</ele>
        <time>2021-06-16T12:26:37Z</time>
      </trkpt>
      <trkpt lat="47.12545" lon="5.85667">
        <ele>272.8</ele>
        <time>2021-06-16T12:26:39Z</time>
      </trkpt>
      <trkpt lat="47.12553" lon="5.85657">
        <ele>272.8</ele>
        <time>2021-06-16T12:26:41Z</time>
      </trkpt>
      <trkpt lat="47.12557" lon="5.85654">
        <ele>272.8</ele>
        <time>2021-06-16T12:26:42Z</time>
      </trkpt>
      <trkpt lat="47.12562" lon="5.85645">
        <ele>272.8</ele>
        <time>2021-06-16T12:26:43Z</time>
      </trkpt>
      <trkpt lat="47.12566" lon="5.85637">
        <ele>272.8</ele>
        <time>2021-06-16T12:26:44Z</time>
      </trkpt>
      <trkpt lat="47.12568" lon="5.85628">
        <ele>272.8</ele>
        <time>2021-06-16T12:26:45Z</time>
      </trkpt>
      <trkpt lat="47.1257" lon="5.85619">
        <ele>272.6</ele>
        <time>2021-06-16T12:26:46Z</time>
      </trkpt>
      <trkpt lat="47.12571" lon="5.85609">
        <ele>272.2</ele>
        <time>2021-06-16T12:26:47Z</time>
      </trkpt>
      <trkpt lat="47.12572" lon="5.85597">
        <ele>272</ele>
        <time>2021-06-16T12:26:48Z</time>
      </trkpt>
      <trkpt lat="47.12574" lon="5.85565">
        <ele>271.2</ele>
        <time>2021-06-16T12:26:50Z</time>
      </trkpt>
      <trkpt lat="47.12574" lon="5.8555">
        <ele>270.4</ele>
        <time>2021-06-16T12:26:51Z</time>
      </trkpt>
      <trkpt lat="47.12574" lon="5.8554">
        <ele>269.4</ele>
        <time>2021-06-16T12:26:52Z</time>
      </trkpt>
      <trkpt lat="47.12576" lon="5.85531">
        <ele>268.6</ele>
        <time>2021-06-16T12:26:53Z</time>
      </trkpt>
      <trkpt lat="47.1258" lon="5.8552">
        <ele>267.8</ele>
        <time>2021-06-16T12:26:54Z</time>
      </trkpt>
      <trkpt lat="47.12584" lon="5.85509">
        <ele>267.6</ele>
        <time>2021-06-16T12:26:55Z</time>
      </trkpt>
      <trkpt lat="47.12588" lon="5.85498">
        <ele>266.8</ele>
        <time>2021-06-16T12:26:56Z</time>
      </trkpt>
      <trkpt lat="47.12596" lon="5.85476">
        <ele>265</ele>
        <time>2021-06-16T12:26:58Z</time>
      </trkpt>
      <trkpt lat="47.12601" lon="5.85465">
        <ele>263.8</ele>
        <time>2021-06-16T12:26:59Z</time>
      </trkpt>
      <trkpt lat="47.12615" lon="5.85434">
        <ele>262.6</ele>
        <time>2021-06-16T12:27:02Z</time>
      </trkpt>
      <trkpt lat="47.12618" lon="5.85422">
        <ele>262.4</ele>
        <time>2021-06-16T12:27:03Z</time>
      </trkpt>
      <trkpt lat="47.12622" lon="5.85414">
        <ele>262.2</ele>
        <time>2021-06-16T12:27:04Z</time>
      </trkpt>
      <trkpt lat="47.12626" lon="5.85406">
        <ele>262</ele>
        <time>2021-06-16T12:27:05Z</time>
      </trkpt>
      <trkpt lat="47.1263" lon="5.85398">
        <ele>261.8</ele>
        <time>2021-06-16T12:27:06Z</time>
      </trkpt>
      <trkpt lat="47.12635" lon="5.8539">
        <ele>261.8</ele>
        <time>2021-06-16T12:27:07Z</time>
      </trkpt>
      <trkpt lat="47.12639" lon="5.85382">
        <ele>261.6</ele>
        <time>2021-06-16T12:27:08Z</time>
      </trkpt>
      <trkpt lat="47.12643" lon="5.85374">
        <ele>261.4</ele>
        <time>2021-06-16T12:27:09Z</time>
      </trkpt>
      <trkpt lat="47.12647" lon="5.85367">
        <ele>261.2</ele>
        <time>2021-06-16T12:27:10Z</time>
      </trkpt>
      <trkpt lat="47.12652" lon="5.85358">
        <ele>261.2</ele>
        <time>2021-06-16T12:27:11Z</time>
      </trkpt>
      <trkpt lat="47.12673" lon="5.85325">
        <ele>260.4</ele>
        <time>2021-06-16T12:27:15Z</time>
      </trkpt>
      <trkpt lat="47.12695" lon="5.85297">
        <ele>259.8</ele>
        <time>2021-06-16T12:27:19Z</time>
      </trkpt>
      <trkpt lat="47.12698" lon="5.85294">
        <ele>259.6</ele>
        <time>2021-06-16T12:27:20Z</time>
      </trkpt>
      <trkpt lat="47.12704" lon="5.85289">
        <ele>259.6</ele>
        <time>2021-06-16T12:27:21Z</time>
      </trkpt>
      <trkpt lat="47.1271" lon="5.85283">
        <ele>259.6</ele>
        <time>2021-06-16T12:27:22Z</time>
      </trkpt>
      <trkpt lat="47.12725" lon="5.8527">
        <ele>259.4</ele>
        <time>2021-06-16T12:27:24Z</time>
      </trkpt>
      <trkpt lat="47.12731" lon="5.85264">
        <ele>259.2</ele>
        <time>2021-06-16T12:27:25Z</time>
      </trkpt>
      <trkpt lat="47.12736" lon="5.85258">
        <ele>259.2</ele>
        <time>2021-06-16T12:27:26Z</time>
      </trkpt>
      <trkpt lat="47.1274" lon="5.85254">
        <ele>258.8</ele>
        <time>2021-06-16T12:27:27Z</time>
      </trkpt>
      <trkpt lat="47.12744" lon="5.85249">
        <ele>258.2</ele>
        <time>2021-06-16T12:27:28Z</time>
      </trkpt>
      <trkpt lat="47.12747" lon="5.85243">
        <ele>258</ele>
        <time>2021-06-16T12:27:29Z</time>
      </trkpt>
      <trkpt lat="47.12747" lon="5.85238">
        <ele>257</ele>
        <time>2021-06-16T12:27:30Z</time>
      </trkpt>
      <trkpt lat="47.12747" lon="5.85234">
        <ele>256.6</ele>
        <time>2021-06-16T12:27:31Z</time>
      </trkpt>
      <trkpt lat="47.12747" lon="5.85232">
        <ele>255.6</ele>
        <time>2021-06-16T12:27:32Z</time>
      </trkpt>
      <trkpt lat="47.12746" lon="5.85232">
        <ele>255</ele>
        <time>2021-06-16T12:27:33Z</time>
      </trkpt>
      <trkpt lat="47.12745" lon="5.85232">
        <ele>254.6</ele>
        <time>2021-06-16T12:27:34Z</time>
      </trkpt>
      <trkpt lat="47.12745" lon="5.85232">
        <ele>254.2</ele>
        <time>2021-06-16T12:27:35Z</time>
      </trkpt>
      <trkpt lat="47.12745" lon="5.85232">
        <ele>253.8</ele>
        <time>2021-06-16T12:27:48Z</time>
      </trkpt>
    </trkseg>
  </trk>
</gpx>